<?xml version="1.0" encoding="UTF-8" standalone="no" ?>
<gpx xmlns="http://www.topografix.com/GPX/1/1" xmlns:xsi="http://www.w3.org/2001/XMLSchema-instance" xsi:schemaLocation="http://www.topografix.com/GPX/1/1 http://www.topografix.com/GPX/1/1/gpx.xsd" version="1.1" creator="VisuGPX - https://www.visugpx.com">
  <metadata>
    <name>Nord Toulousain 28 Mai 2022</name>
  </metadata>
  <trk>
    <name><![CDATA[Nord Toulousain 22 Mai 2022]]></name>
    <extensions>
      <line xmlns="http://www.topografix.com/GPX/gpx_style/0/2">
        <color>0000FF</color>
        <opacity>0.65</opacity>
        <width>2</width>
        <dasharray>4</dasharray>
          <extensions>
            <sens>1</sens>
          </extensions>
      </line>
    </extensions>
    <trkseg>
      <trkpt lat="43.65571" lon="1.44572">
        <ele>192.478134</ele>
        <time>2022-05-27T13:19:46.104Z</time>
      </trkpt>
      <trkpt lat="43.65565" lon="1.44593">
        <ele>192.478134</ele>
        <time>2022-05-27T13:20:06.838Z</time>
      </trkpt>
      <trkpt lat="43.65561" lon="1.44606">
        <ele>192.478134</ele>
        <time>2022-05-27T13:20:12.864Z</time>
      </trkpt>
      <trkpt lat="43.6556" lon="1.44619">
        <ele>192.478134</ele>
        <time>2022-05-27T13:20:35.855Z</time>
      </trkpt>
      <trkpt lat="43.6557" lon="1.44627">
        <ele>192.478134</ele>
        <time>2022-05-27T13:20:39.825Z</time>
      </trkpt>
      <trkpt lat="43.65579" lon="1.44632">
        <ele>192.478134</ele>
        <time>2022-05-27T13:20:42.868Z</time>
      </trkpt>
      <trkpt lat="43.65588" lon="1.44637">
        <ele>192.478134</ele>
        <time>2022-05-27T13:20:45.858Z</time>
      </trkpt>
      <trkpt lat="43.65598" lon="1.44642">
        <ele>192.478134</ele>
        <time>2022-05-27T13:20:48.871Z</time>
      </trkpt>
      <trkpt lat="43.65606" lon="1.44653">
        <ele>192.478134</ele>
        <time>2022-05-27T13:20:52.857Z</time>
      </trkpt>
      <trkpt lat="43.65605" lon="1.44665">
        <ele>192.302004</ele>
        <time>2022-05-27T13:20:55.862Z</time>
      </trkpt>
      <trkpt lat="43.65598" lon="1.44677">
        <ele>192.046936</ele>
        <time>2022-05-27T13:20:58.840Z</time>
      </trkpt>
      <trkpt lat="43.65592" lon="1.44689">
        <ele>191.781863</ele>
        <time>2022-05-27T13:21:01.864Z</time>
      </trkpt>
      <trkpt lat="43.65586" lon="1.44701">
        <ele>191.529752</ele>
        <time>2022-05-27T13:21:04.869Z</time>
      </trkpt>
      <trkpt lat="43.6558" lon="1.44712">
        <ele>191.293291</ele>
        <time>2022-05-27T13:21:07.864Z</time>
      </trkpt>
      <trkpt lat="43.65574" lon="1.44723">
        <ele>191.04828</ele>
        <time>2022-05-27T13:21:10.839Z</time>
      </trkpt>
      <trkpt lat="43.65568" lon="1.44736">
        <ele>190.783091</ele>
        <time>2022-05-27T13:21:13.835Z</time>
      </trkpt>
      <trkpt lat="43.65562" lon="1.44749">
        <ele>190.496728</ele>
        <time>2022-05-27T13:21:16.871Z</time>
      </trkpt>
      <trkpt lat="43.65554" lon="1.44763">
        <ele>190.190425</ele>
        <time>2022-05-27T13:21:19.867Z</time>
      </trkpt>
      <trkpt lat="43.65547" lon="1.44777">
        <ele>189.885161</ele>
        <time>2022-05-27T13:21:22.847Z</time>
      </trkpt>
      <trkpt lat="43.6554" lon="1.44791">
        <ele>189.595938</ele>
        <time>2022-05-27T13:21:25.863Z</time>
      </trkpt>
      <trkpt lat="43.65525" lon="1.44815">
        <ele>189.036163</ele>
        <time>2022-05-27T13:22:37.872Z</time>
      </trkpt>
      <trkpt lat="43.65518" lon="1.44826">
        <ele>188.776323</ele>
        <time>2022-05-27T13:22:40.851Z</time>
      </trkpt>
      <trkpt lat="43.65511" lon="1.4484">
        <ele>188.476947</ele>
        <time>2022-05-27T13:22:43.835Z</time>
      </trkpt>
      <trkpt lat="43.65508" lon="1.44852">
        <ele>188.2554</ele>
        <time>2022-05-27T13:22:45.844Z</time>
      </trkpt>
      <trkpt lat="43.65504" lon="1.44864">
        <ele>188.083386</ele>
        <time>2022-05-27T13:22:47.855Z</time>
      </trkpt>
      <trkpt lat="43.65498" lon="1.44876">
        <ele>188.018096</ele>
        <time>2022-05-27T13:22:49.853Z</time>
      </trkpt>
      <trkpt lat="43.65493" lon="1.44887">
        <ele>187.953602</ele>
        <time>2022-05-27T13:22:51.866Z</time>
      </trkpt>
      <trkpt lat="43.65487" lon="1.44899">
        <ele>187.88949</ele>
        <time>2022-05-27T13:22:53.856Z</time>
      </trkpt>
      <trkpt lat="43.65481" lon="1.4491">
        <ele>187.828016</ele>
        <time>2022-05-27T13:22:55.851Z</time>
      </trkpt>
      <trkpt lat="43.65477" lon="1.44922">
        <ele>187.764533</ele>
        <time>2022-05-27T13:22:57.870Z</time>
      </trkpt>
      <trkpt lat="43.65475" lon="1.44936">
        <ele>187.69657</ele>
        <time>2022-05-27T13:22:59.854Z</time>
      </trkpt>
      <trkpt lat="43.6548" lon="1.44948">
        <ele>187.633529</ele>
        <time>2022-05-27T13:23:01.853Z</time>
      </trkpt>
      <trkpt lat="43.65487" lon="1.44959">
        <ele>187.565935</ele>
        <time>2022-05-27T13:23:03.846Z</time>
      </trkpt>
      <trkpt lat="43.65494" lon="1.4497">
        <ele>187.497877</ele>
        <time>2022-05-27T13:23:05.853Z</time>
      </trkpt>
      <trkpt lat="43.65501" lon="1.44981">
        <ele>187.429612</ele>
        <time>2022-05-27T13:23:07.846Z</time>
      </trkpt>
      <trkpt lat="43.65509" lon="1.44991">
        <ele>187.362126</ele>
        <time>2022-05-27T13:23:09.852Z</time>
      </trkpt>
      <trkpt lat="43.65517" lon="1.45001">
        <ele>187.293215</ele>
        <time>2022-05-27T13:23:11.863Z</time>
      </trkpt>
      <trkpt lat="43.65524" lon="1.45012">
        <ele>187.225784</ele>
        <time>2022-05-27T13:23:13.869Z</time>
      </trkpt>
      <trkpt lat="43.6553" lon="1.45022">
        <ele>187.163928</ele>
        <time>2022-05-27T13:23:15.847Z</time>
      </trkpt>
      <trkpt lat="43.65537" lon="1.45031">
        <ele>187.102009</ele>
        <time>2022-05-27T13:23:17.866Z</time>
      </trkpt>
      <trkpt lat="43.65544" lon="1.45041">
        <ele>187.038496</ele>
        <time>2022-05-27T13:23:19.866Z</time>
      </trkpt>
      <trkpt lat="43.65552" lon="1.45051">
        <ele>186.970107</ele>
        <time>2022-05-27T13:23:21.845Z</time>
      </trkpt>
      <trkpt lat="43.65559" lon="1.45061">
        <ele>186.91468</ele>
        <time>2022-05-27T13:23:23.839Z</time>
      </trkpt>
      <trkpt lat="43.65564" lon="1.45075">
        <ele>186.859049</ele>
        <time>2022-05-27T13:23:26.826Z</time>
      </trkpt>
      <trkpt lat="43.65575" lon="1.45085">
        <ele>186.795674</ele>
        <time>2022-05-27T13:23:30.850Z</time>
      </trkpt>
      <trkpt lat="43.65581" lon="1.45094">
        <ele>186.749793</ele>
        <time>2022-05-27T13:23:32.859Z</time>
      </trkpt>
      <trkpt lat="43.65588" lon="1.45103">
        <ele>186.701269</ele>
        <time>2022-05-27T13:23:34.854Z</time>
      </trkpt>
      <trkpt lat="43.65595" lon="1.45113">
        <ele>186.649005</ele>
        <time>2022-05-27T13:23:36.865Z</time>
      </trkpt>
      <trkpt lat="43.65601" lon="1.45125">
        <ele>186.595584</ele>
        <time>2022-05-27T13:23:38.856Z</time>
      </trkpt>
      <trkpt lat="43.65603" lon="1.4514">
        <ele>186.540851</ele>
        <time>2022-05-27T13:23:40.859Z</time>
      </trkpt>
      <trkpt lat="43.656" lon="1.45155">
        <ele>186.484582</ele>
        <time>2022-05-27T13:23:42.860Z</time>
      </trkpt>
      <trkpt lat="43.65592" lon="1.45164">
        <ele>186.432026</ele>
        <time>2022-05-27T13:23:44.844Z</time>
      </trkpt>
      <trkpt lat="43.65584" lon="1.45175">
        <ele>186.375721</ele>
        <time>2022-05-27T13:23:47.866Z</time>
      </trkpt>
      <trkpt lat="43.65577" lon="1.45188">
        <ele>186.318755</ele>
        <time>2022-05-27T13:23:52.848Z</time>
      </trkpt>
      <trkpt lat="43.65567" lon="1.45198">
        <ele>186.254858</ele>
        <time>2022-05-27T13:23:55.860Z</time>
      </trkpt>
      <trkpt lat="43.6556" lon="1.45206">
        <ele>186.208001</ele>
        <time>2022-05-27T13:23:57.859Z</time>
      </trkpt>
      <trkpt lat="43.65552" lon="1.45214">
        <ele>186.157855</ele>
        <time>2022-05-27T13:23:59.867Z</time>
      </trkpt>
      <trkpt lat="43.65543" lon="1.45223">
        <ele>186.105626</ele>
        <time>2022-05-27T13:24:01.859Z</time>
      </trkpt>
      <trkpt lat="43.65535" lon="1.45232">
        <ele>186.054373</ele>
        <time>2022-05-27T13:24:03.849Z</time>
      </trkpt>
      <trkpt lat="43.65527" lon="1.45241">
        <ele>186.058385</ele>
        <time>2022-05-27T13:24:05.849Z</time>
      </trkpt>
      <trkpt lat="43.65519" lon="1.4525">
        <ele>186.064662</ele>
        <time>2022-05-27T13:24:07.842Z</time>
      </trkpt>
      <trkpt lat="43.65511" lon="1.45261">
        <ele>186.071872</ele>
        <time>2022-05-27T13:24:09.860Z</time>
      </trkpt>
      <trkpt lat="43.65502" lon="1.45271">
        <ele>186.079024</ele>
        <time>2022-05-27T13:24:11.859Z</time>
      </trkpt>
      <trkpt lat="43.65493" lon="1.45281">
        <ele>186.086274</ele>
        <time>2022-05-27T13:24:13.857Z</time>
      </trkpt>
      <trkpt lat="43.65484" lon="1.45291">
        <ele>186.093454</ele>
        <time>2022-05-27T13:24:15.850Z</time>
      </trkpt>
      <trkpt lat="43.65474" lon="1.453">
        <ele>186.100543</ele>
        <time>2022-05-27T13:24:17.849Z</time>
      </trkpt>
      <trkpt lat="43.65465" lon="1.4531">
        <ele>186.107618</ele>
        <time>2022-05-27T13:24:19.847Z</time>
      </trkpt>
      <trkpt lat="43.65457" lon="1.4532">
        <ele>186.11455</ele>
        <time>2022-05-27T13:24:21.846Z</time>
      </trkpt>
      <trkpt lat="43.65452" lon="1.45333">
        <ele>186.121093</ele>
        <time>2022-05-27T13:24:23.856Z</time>
      </trkpt>
      <trkpt lat="43.65445" lon="1.45342">
        <ele>186.127205</ele>
        <time>2022-05-27T13:24:25.850Z</time>
      </trkpt>
      <trkpt lat="43.65438" lon="1.45356">
        <ele>186.135078</ele>
        <time>2022-05-27T13:24:28.857Z</time>
      </trkpt>
      <trkpt lat="43.65441" lon="1.4537">
        <ele>186.14164</ele>
        <time>2022-05-27T13:24:31.873Z</time>
      </trkpt>
      <trkpt lat="43.65451" lon="1.45372">
        <ele>186.147817</ele>
        <time>2022-05-27T13:24:33.859Z</time>
      </trkpt>
      <trkpt lat="43.65462" lon="1.45375">
        <ele>186.154645</ele>
        <time>2022-05-27T13:24:35.856Z</time>
      </trkpt>
      <trkpt lat="43.65473" lon="1.45378">
        <ele>186.161592</ele>
        <time>2022-05-27T13:24:37.858Z</time>
      </trkpt>
      <trkpt lat="43.65484" lon="1.45382">
        <ele>186.177806</ele>
        <time>2022-05-27T13:24:39.863Z</time>
      </trkpt>
      <trkpt lat="43.65495" lon="1.45386">
        <ele>186.199503</ele>
        <time>2022-05-27T13:24:41.875Z</time>
      </trkpt>
      <trkpt lat="43.65507" lon="1.4539">
        <ele>186.221504</ele>
        <time>2022-05-27T13:24:43.867Z</time>
      </trkpt>
      <trkpt lat="43.65518" lon="1.45394">
        <ele>186.242525</ele>
        <time>2022-05-27T13:24:45.849Z</time>
      </trkpt>
      <trkpt lat="43.6553" lon="1.45398">
        <ele>186.264076</ele>
        <time>2022-05-27T13:24:47.858Z</time>
      </trkpt>
      <trkpt lat="43.65541" lon="1.45402">
        <ele>186.285373</ele>
        <time>2022-05-27T13:24:49.862Z</time>
      </trkpt>
      <trkpt lat="43.65553" lon="1.45406">
        <ele>186.307839</ele>
        <time>2022-05-27T13:24:51.867Z</time>
      </trkpt>
      <trkpt lat="43.65565" lon="1.4541">
        <ele>186.329664</ele>
        <time>2022-05-27T13:24:53.867Z</time>
      </trkpt>
      <trkpt lat="43.65576" lon="1.45414">
        <ele>186.351302</ele>
        <time>2022-05-27T13:24:55.873Z</time>
      </trkpt>
      <trkpt lat="43.65588" lon="1.45418">
        <ele>186.373206</ele>
        <time>2022-05-27T13:24:57.852Z</time>
      </trkpt>
      <trkpt lat="43.65599" lon="1.45422">
        <ele>186.394538</ele>
        <time>2022-05-27T13:24:59.840Z</time>
      </trkpt>
      <trkpt lat="43.65611" lon="1.45426">
        <ele>186.415673</ele>
        <time>2022-05-27T13:25:01.857Z</time>
      </trkpt>
      <trkpt lat="43.65621" lon="1.45431">
        <ele>186.436361</ele>
        <time>2022-05-27T13:25:03.868Z</time>
      </trkpt>
      <trkpt lat="43.65632" lon="1.45436">
        <ele>186.457355</ele>
        <time>2022-05-27T13:25:05.859Z</time>
      </trkpt>
      <trkpt lat="43.65643" lon="1.45441">
        <ele>186.477636</ele>
        <time>2022-05-27T13:25:07.861Z</time>
      </trkpt>
      <trkpt lat="43.65653" lon="1.45445">
        <ele>186.524618</ele>
        <time>2022-05-27T13:25:09.874Z</time>
      </trkpt>
      <trkpt lat="43.65664" lon="1.45449">
        <ele>186.634033</ele>
        <time>2022-05-27T13:25:11.860Z</time>
      </trkpt>
      <trkpt lat="43.65676" lon="1.45454">
        <ele>186.745671</ele>
        <time>2022-05-27T13:25:13.878Z</time>
      </trkpt>
      <trkpt lat="43.65687" lon="1.45459">
        <ele>186.856097</ele>
        <time>2022-05-27T13:25:15.860Z</time>
      </trkpt>
      <trkpt lat="43.65698" lon="1.45463">
        <ele>186.965904</ele>
        <time>2022-05-27T13:25:17.866Z</time>
      </trkpt>
      <trkpt lat="43.65709" lon="1.45468">
        <ele>187.075319</ele>
        <time>2022-05-27T13:25:19.855Z</time>
      </trkpt>
      <trkpt lat="43.65719" lon="1.45472">
        <ele>187.180679</ele>
        <time>2022-05-27T13:25:21.890Z</time>
      </trkpt>
      <trkpt lat="43.65729" lon="1.45476">
        <ele>187.281616</ele>
        <time>2022-05-27T13:25:23.844Z</time>
      </trkpt>
      <trkpt lat="43.65739" lon="1.45476">
        <ele>187.372386</ele>
        <time>2022-05-27T13:25:25.849Z</time>
      </trkpt>
      <trkpt lat="43.65748" lon="1.45477">
        <ele>187.463828</ele>
        <time>2022-05-27T13:25:27.864Z</time>
      </trkpt>
      <trkpt lat="43.65758" lon="1.45481">
        <ele>187.559112</ele>
        <time>2022-05-27T13:25:29.854Z</time>
      </trkpt>
      <trkpt lat="43.65768" lon="1.45483">
        <ele>187.654089</ele>
        <time>2022-05-27T13:25:31.850Z</time>
      </trkpt>
      <trkpt lat="43.65777" lon="1.45486">
        <ele>187.742314</ele>
        <time>2022-05-27T13:25:33.870Z</time>
      </trkpt>
      <trkpt lat="43.65786" lon="1.4549">
        <ele>187.831317</ele>
        <time>2022-05-27T13:25:35.857Z</time>
      </trkpt>
      <trkpt lat="43.65795" lon="1.45493">
        <ele>187.921039</ele>
        <time>2022-05-27T13:25:37.871Z</time>
      </trkpt>
      <trkpt lat="43.65804" lon="1.45495">
        <ele>188.011076</ele>
        <time>2022-05-27T13:25:39.869Z</time>
      </trkpt>
      <trkpt lat="43.65814" lon="1.45493">
        <ele>188.10772</ele>
        <time>2022-05-27T13:25:41.854Z</time>
      </trkpt>
      <trkpt lat="43.65825" lon="1.45489">
        <ele>188.206168</ele>
        <time>2022-05-27T13:25:43.855Z</time>
      </trkpt>
      <trkpt lat="43.65836" lon="1.45486">
        <ele>188.080808</ele>
        <time>2022-05-27T13:25:45.865Z</time>
      </trkpt>
      <trkpt lat="43.65847" lon="1.45482">
        <ele>187.95202</ele>
        <time>2022-05-27T13:25:47.858Z</time>
      </trkpt>
      <trkpt lat="43.65859" lon="1.45479">
        <ele>187.823411</ele>
        <time>2022-05-27T13:25:49.868Z</time>
      </trkpt>
      <trkpt lat="43.6587" lon="1.45476">
        <ele>187.69671</ele>
        <time>2022-05-27T13:25:51.876Z</time>
      </trkpt>
      <trkpt lat="43.65881" lon="1.45474">
        <ele>187.573492</ele>
        <time>2022-05-27T13:25:53.862Z</time>
      </trkpt>
      <trkpt lat="43.65891" lon="1.45472">
        <ele>187.463474</ele>
        <time>2022-05-27T13:25:55.866Z</time>
      </trkpt>
      <trkpt lat="43.65904" lon="1.45471">
        <ele>187.313329</ele>
        <time>2022-05-27T13:25:58.847Z</time>
      </trkpt>
      <trkpt lat="43.65916" lon="1.45471">
        <ele>187.180055</ele>
        <time>2022-05-27T13:26:01.855Z</time>
      </trkpt>
      <trkpt lat="43.65924" lon="1.45479">
        <ele>187.07371</ele>
        <time>2022-05-27T13:26:06.851Z</time>
      </trkpt>
      <trkpt lat="43.65924" lon="1.45495">
        <ele>186.946369</ele>
        <time>2022-05-27T13:26:10.866Z</time>
      </trkpt>
      <trkpt lat="43.65932" lon="1.45504">
        <ele>186.833815</ele>
        <time>2022-05-27T13:26:13.838Z</time>
      </trkpt>
      <trkpt lat="43.65939" lon="1.45514">
        <ele>186.726666</ele>
        <time>2022-05-27T13:26:16.873Z</time>
      </trkpt>
      <trkpt lat="43.65948" lon="1.45522">
        <ele>186.603285</ele>
        <time>2022-05-27T13:26:19.858Z</time>
      </trkpt>
      <trkpt lat="43.65958" lon="1.4552">
        <ele>186.48898</ele>
        <time>2022-05-27T13:26:22.858Z</time>
      </trkpt>
      <trkpt lat="43.6597" lon="1.4551">
        <ele>186.337045</ele>
        <time>2022-05-27T13:26:25.858Z</time>
      </trkpt>
      <trkpt lat="43.65978" lon="1.45502">
        <ele>186.223756</ele>
        <time>2022-05-27T13:26:27.861Z</time>
      </trkpt>
      <trkpt lat="43.65989" lon="1.45497">
        <ele>186.13487</ele>
        <time>2022-05-27T13:26:29.866Z</time>
      </trkpt>
      <trkpt lat="43.66" lon="1.45495">
        <ele>186.046862</ele>
        <time>2022-05-27T13:26:31.850Z</time>
      </trkpt>
      <trkpt lat="43.66012" lon="1.45499">
        <ele>185.956217</ele>
        <time>2022-05-27T13:26:33.841Z</time>
      </trkpt>
      <trkpt lat="43.6602" lon="1.45503">
        <ele>185.884732</ele>
        <time>2022-05-27T13:26:35.860Z</time>
      </trkpt>
      <trkpt lat="43.6603" lon="1.45509">
        <ele>185.803381</ele>
        <time>2022-05-27T13:26:39.853Z</time>
      </trkpt>
      <trkpt lat="43.66042" lon="1.45519">
        <ele>185.698072</ele>
        <time>2022-05-27T13:26:42.861Z</time>
      </trkpt>
      <trkpt lat="43.66051" lon="1.45526">
        <ele>185.615092</ele>
        <time>2022-05-27T13:26:44.855Z</time>
      </trkpt>
      <trkpt lat="43.66061" lon="1.45532">
        <ele>185.533737</ele>
        <time>2022-05-27T13:26:46.867Z</time>
      </trkpt>
      <trkpt lat="43.6607" lon="1.45536">
        <ele>185.457519</ele>
        <time>2022-05-27T13:26:48.859Z</time>
      </trkpt>
      <trkpt lat="43.6608" lon="1.45533">
        <ele>185.38238</ele>
        <time>2022-05-27T13:26:50.847Z</time>
      </trkpt>
      <trkpt lat="43.6609" lon="1.45532">
        <ele>185.306647</ele>
        <time>2022-05-27T13:26:52.840Z</time>
      </trkpt>
      <trkpt lat="43.661" lon="1.45537">
        <ele>185.222878</ele>
        <time>2022-05-27T13:26:54.858Z</time>
      </trkpt>
      <trkpt lat="43.66109" lon="1.45543">
        <ele>185.14434</ele>
        <time>2022-05-27T13:26:56.881Z</time>
      </trkpt>
      <trkpt lat="43.66118" lon="1.45549">
        <ele>185.066029</ele>
        <time>2022-05-27T13:26:59.879Z</time>
      </trkpt>
      <trkpt lat="43.66127" lon="1.45557">
        <ele>184.983069</ele>
        <time>2022-05-27T13:27:02.859Z</time>
      </trkpt>
      <trkpt lat="43.66136" lon="1.45564">
        <ele>184.90633</ele>
        <time>2022-05-27T13:27:04.851Z</time>
      </trkpt>
      <trkpt lat="43.66144" lon="1.45572">
        <ele>184.828404</ele>
        <time>2022-05-27T13:27:06.868Z</time>
      </trkpt>
      <trkpt lat="43.66152" lon="1.45579">
        <ele>184.763847</ele>
        <time>2022-05-27T13:27:08.858Z</time>
      </trkpt>
      <trkpt lat="43.66162" lon="1.45588">
        <ele>184.67669</ele>
        <time>2022-05-27T13:27:11.857Z</time>
      </trkpt>
      <trkpt lat="43.66169" lon="1.45597">
        <ele>184.61118</ele>
        <time>2022-05-27T13:27:13.848Z</time>
      </trkpt>
      <trkpt lat="43.66176" lon="1.45608">
        <ele>184.535878</ele>
        <time>2022-05-27T13:27:15.859Z</time>
      </trkpt>
      <trkpt lat="43.66184" lon="1.45618">
        <ele>184.464337</ele>
        <time>2022-05-27T13:27:17.844Z</time>
      </trkpt>
      <trkpt lat="43.66192" lon="1.45627">
        <ele>184.389905</ele>
        <time>2022-05-27T13:27:19.864Z</time>
      </trkpt>
      <trkpt lat="43.66202" lon="1.45631">
        <ele>184.31811</ele>
        <time>2022-05-27T13:27:21.852Z</time>
      </trkpt>
      <trkpt lat="43.6621" lon="1.45624">
        <ele>184.246598</ele>
        <time>2022-05-27T13:27:23.861Z</time>
      </trkpt>
      <trkpt lat="43.66214" lon="1.4561">
        <ele>184.172377</ele>
        <time>2022-05-27T13:27:25.862Z</time>
      </trkpt>
      <trkpt lat="43.66218" lon="1.45596">
        <ele>184.091273</ele>
        <time>2022-05-27T13:27:27.854Z</time>
      </trkpt>
      <trkpt lat="43.66222" lon="1.45581">
        <ele>184.009693</ele>
        <time>2022-05-27T13:27:29.857Z</time>
      </trkpt>
      <trkpt lat="43.66227" lon="1.45566">
        <ele>183.927547</ele>
        <time>2022-05-27T13:27:31.857Z</time>
      </trkpt>
      <trkpt lat="43.66231" lon="1.45551">
        <ele>183.8454</ele>
        <time>2022-05-27T13:27:33.846Z</time>
      </trkpt>
      <trkpt lat="43.66236" lon="1.45536">
        <ele>183.765201</ele>
        <time>2022-05-27T13:27:35.866Z</time>
      </trkpt>
      <trkpt lat="43.6624" lon="1.45521">
        <ele>183.683145</ele>
        <time>2022-05-27T13:27:37.844Z</time>
      </trkpt>
      <trkpt lat="43.66244" lon="1.45506">
        <ele>183.600614</ele>
        <time>2022-05-27T13:27:39.851Z</time>
      </trkpt>
      <trkpt lat="43.66248" lon="1.4549">
        <ele>183.578654</ele>
        <time>2022-05-27T13:27:41.866Z</time>
      </trkpt>
      <trkpt lat="43.66253" lon="1.45476">
        <ele>183.606178</ele>
        <time>2022-05-27T13:27:43.857Z</time>
      </trkpt>
      <trkpt lat="43.66257" lon="1.45461">
        <ele>183.63298</ele>
        <time>2022-05-27T13:27:45.864Z</time>
      </trkpt>
      <trkpt lat="43.66261" lon="1.45446">
        <ele>183.659942</ele>
        <time>2022-05-27T13:27:47.854Z</time>
      </trkpt>
      <trkpt lat="43.66265" lon="1.4543">
        <ele>183.688594</ele>
        <time>2022-05-27T13:27:49.873Z</time>
      </trkpt>
      <trkpt lat="43.66269" lon="1.45415">
        <ele>183.717169</ele>
        <time>2022-05-27T13:27:51.864Z</time>
      </trkpt>
      <trkpt lat="43.66274" lon="1.45399">
        <ele>183.745426</ele>
        <time>2022-05-27T13:27:53.869Z</time>
      </trkpt>
      <trkpt lat="43.66278" lon="1.45385">
        <ele>183.772602</ele>
        <time>2022-05-27T13:27:55.860Z</time>
      </trkpt>
      <trkpt lat="43.66279" lon="1.45369">
        <ele>183.798951</ele>
        <time>2022-05-27T13:27:57.867Z</time>
      </trkpt>
      <trkpt lat="43.66273" lon="1.45356">
        <ele>183.826161</ele>
        <time>2022-05-27T13:27:59.847Z</time>
      </trkpt>
      <trkpt lat="43.66273" lon="1.4534">
        <ele>183.852622</ele>
        <time>2022-05-27T13:28:01.855Z</time>
      </trkpt>
      <trkpt lat="43.66277" lon="1.45325">
        <ele>183.878946</ele>
        <time>2022-05-27T13:28:03.847Z</time>
      </trkpt>
      <trkpt lat="43.66279" lon="1.4531">
        <ele>183.905567</ele>
        <time>2022-05-27T13:28:05.864Z</time>
      </trkpt>
      <trkpt lat="43.66281" lon="1.45296">
        <ele>183.929179</ele>
        <time>2022-05-27T13:28:07.855Z</time>
      </trkpt>
      <trkpt lat="43.66288" lon="1.45278">
        <ele>183.964205</ele>
        <time>2022-05-27T13:28:10.860Z</time>
      </trkpt>
      <trkpt lat="43.66297" lon="1.45266">
        <ele>184.003685</ele>
        <time>2022-05-27T13:28:12.851Z</time>
      </trkpt>
      <trkpt lat="43.66305" lon="1.45253">
        <ele>184.072795</ele>
        <time>2022-05-27T13:28:14.853Z</time>
      </trkpt>
      <trkpt lat="43.66314" lon="1.45245">
        <ele>184.133271</ele>
        <time>2022-05-27T13:28:16.834Z</time>
      </trkpt>
      <trkpt lat="43.66324" lon="1.4524">
        <ele>184.194967</ele>
        <time>2022-05-27T13:28:18.850Z</time>
      </trkpt>
      <trkpt lat="43.66336" lon="1.45236">
        <ele>184.262863</ele>
        <time>2022-05-27T13:28:22.850Z</time>
      </trkpt>
      <trkpt lat="43.66344" lon="1.45225">
        <ele>184.326592</ele>
        <time>2022-05-27T13:28:25.859Z</time>
      </trkpt>
      <trkpt lat="43.66351" lon="1.45215">
        <ele>184.382452</ele>
        <time>2022-05-27T13:28:27.857Z</time>
      </trkpt>
      <trkpt lat="43.66357" lon="1.45202">
        <ele>184.443371</ele>
        <time>2022-05-27T13:28:29.849Z</time>
      </trkpt>
      <trkpt lat="43.66363" lon="1.45188">
        <ele>184.509285</ele>
        <time>2022-05-27T13:28:31.862Z</time>
      </trkpt>
      <trkpt lat="43.66364" lon="1.45175">
        <ele>184.562732</ele>
        <time>2022-05-27T13:28:33.833Z</time>
      </trkpt>
      <trkpt lat="43.66359" lon="1.45164">
        <ele>184.615203</ele>
        <time>2022-05-27T13:28:35.835Z</time>
      </trkpt>
      <trkpt lat="43.66364" lon="1.45151">
        <ele>184.672247</ele>
        <time>2022-05-27T13:28:38.831Z</time>
      </trkpt>
      <trkpt lat="43.66371" lon="1.45136">
        <ele>184.74633</ele>
        <time>2022-05-27T13:28:41.865Z</time>
      </trkpt>
      <trkpt lat="43.66376" lon="1.45122">
        <ele>184.811175</ele>
        <time>2022-05-27T13:28:43.854Z</time>
      </trkpt>
      <trkpt lat="43.66382" lon="1.45107">
        <ele>184.880653</ele>
        <time>2022-05-27T13:28:45.844Z</time>
      </trkpt>
      <trkpt lat="43.66389" lon="1.45093">
        <ele>184.950132</ele>
        <time>2022-05-27T13:28:47.850Z</time>
      </trkpt>
      <trkpt lat="43.66393" lon="1.45079">
        <ele>184.963927</ele>
        <time>2022-05-27T13:28:49.853Z</time>
      </trkpt>
      <trkpt lat="43.66394" lon="1.45061">
        <ele>184.846662</ele>
        <time>2022-05-27T13:28:51.852Z</time>
      </trkpt>
      <trkpt lat="43.66396" lon="1.45044">
        <ele>184.732037</ele>
        <time>2022-05-27T13:28:53.859Z</time>
      </trkpt>
      <trkpt lat="43.66399" lon="1.45029">
        <ele>184.626283</ele>
        <time>2022-05-27T13:28:55.856Z</time>
      </trkpt>
      <trkpt lat="43.66404" lon="1.45013">
        <ele>184.513921</ele>
        <time>2022-05-27T13:28:57.856Z</time>
      </trkpt>
      <trkpt lat="43.6641" lon="1.44998">
        <ele>184.394614</ele>
        <time>2022-05-27T13:28:59.857Z</time>
      </trkpt>
      <trkpt lat="43.66416" lon="1.44982">
        <ele>184.279847</ele>
        <time>2022-05-27T13:29:01.877Z</time>
      </trkpt>
      <trkpt lat="43.6642" lon="1.44966">
        <ele>184.166942</ele>
        <time>2022-05-27T13:29:03.854Z</time>
      </trkpt>
      <trkpt lat="43.66425" lon="1.44951">
        <ele>184.054205</ele>
        <time>2022-05-27T13:29:05.855Z</time>
      </trkpt>
      <trkpt lat="43.6643" lon="1.44936">
        <ele>183.944425</ele>
        <time>2022-05-27T13:29:07.860Z</time>
      </trkpt>
      <trkpt lat="43.66433" lon="1.4492">
        <ele>183.836088</ele>
        <time>2022-05-27T13:29:09.866Z</time>
      </trkpt>
      <trkpt lat="43.6644" lon="1.44907">
        <ele>183.729667</ele>
        <time>2022-05-27T13:29:11.864Z</time>
      </trkpt>
      <trkpt lat="43.66446" lon="1.44894">
        <ele>183.624712</ele>
        <time>2022-05-27T13:29:13.855Z</time>
      </trkpt>
      <trkpt lat="43.6645" lon="1.44879">
        <ele>183.520205</ele>
        <time>2022-05-27T13:29:15.858Z</time>
      </trkpt>
      <trkpt lat="43.66453" lon="1.44864">
        <ele>183.417028</ele>
        <time>2022-05-27T13:29:17.854Z</time>
      </trkpt>
      <trkpt lat="43.66456" lon="1.44849">
        <ele>183.343919</ele>
        <time>2022-05-27T13:29:19.845Z</time>
      </trkpt>
      <trkpt lat="43.66461" lon="1.44835">
        <ele>183.34746</ele>
        <time>2022-05-27T13:29:21.843Z</time>
      </trkpt>
      <trkpt lat="43.66466" lon="1.44821">
        <ele>183.351006</ele>
        <time>2022-05-27T13:29:23.843Z</time>
      </trkpt>
      <trkpt lat="43.66472" lon="1.44808">
        <ele>183.354485</ele>
        <time>2022-05-27T13:29:25.860Z</time>
      </trkpt>
      <trkpt lat="43.66478" lon="1.44795">
        <ele>183.357922</ele>
        <time>2022-05-27T13:29:27.854Z</time>
      </trkpt>
      <trkpt lat="43.66484" lon="1.44783">
        <ele>183.361386</ele>
        <time>2022-05-27T13:29:29.862Z</time>
      </trkpt>
      <trkpt lat="43.66489" lon="1.44769">
        <ele>183.364971</ele>
        <time>2022-05-27T13:29:31.865Z</time>
      </trkpt>
      <trkpt lat="43.66495" lon="1.44755">
        <ele>183.368609</ele>
        <time>2022-05-27T13:29:33.860Z</time>
      </trkpt>
      <trkpt lat="43.665" lon="1.4474">
        <ele>183.372293</ele>
        <time>2022-05-27T13:29:35.877Z</time>
      </trkpt>
      <trkpt lat="43.66505" lon="1.44726">
        <ele>183.375946</ele>
        <time>2022-05-27T13:29:37.864Z</time>
      </trkpt>
      <trkpt lat="43.66509" lon="1.44713">
        <ele>183.37926</ele>
        <time>2022-05-27T13:29:39.870Z</time>
      </trkpt>
      <trkpt lat="43.6652" lon="1.44711">
        <ele>183.382781</ele>
        <time>2022-05-27T13:29:43.843Z</time>
      </trkpt>
      <trkpt lat="43.6653" lon="1.44719">
        <ele>183.386412</ele>
        <time>2022-05-27T13:29:46.852Z</time>
      </trkpt>
      <trkpt lat="43.66539" lon="1.44724">
        <ele>183.389365</ele>
        <time>2022-05-27T13:29:48.865Z</time>
      </trkpt>
      <trkpt lat="43.66548" lon="1.44731">
        <ele>183.392599</ele>
        <time>2022-05-27T13:29:50.870Z</time>
      </trkpt>
      <trkpt lat="43.66557" lon="1.4474">
        <ele>183.396182</ele>
        <time>2022-05-27T13:29:52.847Z</time>
      </trkpt>
      <trkpt lat="43.66566" lon="1.44752">
        <ele>183.391213</ele>
        <time>2022-05-27T13:29:54.860Z</time>
      </trkpt>
      <trkpt lat="43.66575" lon="1.44765">
        <ele>183.321204</ele>
        <time>2022-05-27T13:29:56.889Z</time>
      </trkpt>
      <trkpt lat="43.66584" lon="1.44779">
        <ele>183.247487</ele>
        <time>2022-05-27T13:29:58.854Z</time>
      </trkpt>
      <trkpt lat="43.66594" lon="1.44794">
        <ele>183.171041</ele>
        <time>2022-05-27T13:30:00.864Z</time>
      </trkpt>
      <trkpt lat="43.66604" lon="1.44808">
        <ele>183.095532</ele>
        <time>2022-05-27T13:30:02.869Z</time>
      </trkpt>
      <trkpt lat="43.66612" lon="1.44822">
        <ele>183.023161</ele>
        <time>2022-05-27T13:30:04.847Z</time>
      </trkpt>
      <trkpt lat="43.66621" lon="1.44836">
        <ele>182.951837</ele>
        <time>2022-05-27T13:30:06.857Z</time>
      </trkpt>
      <trkpt lat="43.6663" lon="1.44849">
        <ele>182.8821</ele>
        <time>2022-05-27T13:30:08.879Z</time>
      </trkpt>
      <trkpt lat="43.6664" lon="1.44858">
        <ele>182.815295</ele>
        <time>2022-05-27T13:30:10.847Z</time>
      </trkpt>
      <trkpt lat="43.66653" lon="1.44862">
        <ele>182.747933</ele>
        <time>2022-05-27T13:30:12.858Z</time>
      </trkpt>
      <trkpt lat="43.66665" lon="1.44862">
        <ele>182.683342</ele>
        <time>2022-05-27T13:30:14.856Z</time>
      </trkpt>
      <trkpt lat="43.66677" lon="1.44861">
        <ele>182.616884</ele>
        <time>2022-05-27T13:30:16.864Z</time>
      </trkpt>
      <trkpt lat="43.66688" lon="1.44857">
        <ele>182.554692</ele>
        <time>2022-05-27T13:30:18.853Z</time>
      </trkpt>
      <trkpt lat="43.66699" lon="1.44849">
        <ele>182.490494</ele>
        <time>2022-05-27T13:30:20.875Z</time>
      </trkpt>
      <trkpt lat="43.66709" lon="1.4484">
        <ele>182.432191</ele>
        <time>2022-05-27T13:30:22.854Z</time>
      </trkpt>
      <trkpt lat="43.66719" lon="1.44831">
        <ele>182.428032</ele>
        <time>2022-05-27T13:30:24.849Z</time>
      </trkpt>
      <trkpt lat="43.6673" lon="1.44823">
        <ele>182.423832</ele>
        <time>2022-05-27T13:30:26.866Z</time>
      </trkpt>
      <trkpt lat="43.66741" lon="1.4482">
        <ele>182.41988</ele>
        <time>2022-05-27T13:30:28.838Z</time>
      </trkpt>
      <trkpt lat="43.66751" lon="1.44828">
        <ele>182.415844</ele>
        <time>2022-05-27T13:30:30.852Z</time>
      </trkpt>
      <trkpt lat="43.66755" lon="1.44842">
        <ele>182.412054</ele>
        <time>2022-05-27T13:30:32.859Z</time>
      </trkpt>
      <trkpt lat="43.66757" lon="1.44858">
        <ele>182.408132</ele>
        <time>2022-05-27T13:30:34.852Z</time>
      </trkpt>
      <trkpt lat="43.6676" lon="1.44871">
        <ele>182.40467</ele>
        <time>2022-05-27T13:30:36.853Z</time>
      </trkpt>
      <trkpt lat="43.66765" lon="1.44882">
        <ele>182.401456</ele>
        <time>2022-05-27T13:30:38.855Z</time>
      </trkpt>
      <trkpt lat="43.66775" lon="1.44889">
        <ele>182.397899</ele>
        <time>2022-05-27T13:30:40.854Z</time>
      </trkpt>
      <trkpt lat="43.66784" lon="1.44897">
        <ele>182.394064</ele>
        <time>2022-05-27T13:30:42.856Z</time>
      </trkpt>
      <trkpt lat="43.66794" lon="1.44905">
        <ele>182.390032</ele>
        <time>2022-05-27T13:30:44.857Z</time>
      </trkpt>
      <trkpt lat="43.66805" lon="1.4491">
        <ele>182.386093</ele>
        <time>2022-05-27T13:30:46.850Z</time>
      </trkpt>
      <trkpt lat="43.66816" lon="1.44915">
        <ele>182.382125</ele>
        <time>2022-05-27T13:30:48.871Z</time>
      </trkpt>
      <trkpt lat="43.66827" lon="1.4492">
        <ele>182.378088</ele>
        <time>2022-05-27T13:30:50.858Z</time>
      </trkpt>
      <trkpt lat="43.66839" lon="1.44923">
        <ele>182.374153</ele>
        <time>2022-05-27T13:30:52.856Z</time>
      </trkpt>
      <trkpt lat="43.6685" lon="1.44926">
        <ele>182.374987</ele>
        <time>2022-05-27T13:30:54.862Z</time>
      </trkpt>
      <trkpt lat="43.6686" lon="1.44929">
        <ele>182.397576</ele>
        <time>2022-05-27T13:30:56.858Z</time>
      </trkpt>
      <trkpt lat="43.66871" lon="1.44931">
        <ele>182.420605</ele>
        <time>2022-05-27T13:30:58.890Z</time>
      </trkpt>
      <trkpt lat="43.66882" lon="1.44934">
        <ele>182.444307</ele>
        <time>2022-05-27T13:31:00.858Z</time>
      </trkpt>
      <trkpt lat="43.66893" lon="1.44937">
        <ele>182.468116</ele>
        <time>2022-05-27T13:31:02.862Z</time>
      </trkpt>
      <trkpt lat="43.66904" lon="1.4494">
        <ele>182.491698</ele>
        <time>2022-05-27T13:31:04.854Z</time>
      </trkpt>
      <trkpt lat="43.66915" lon="1.44944">
        <ele>182.515237</ele>
        <time>2022-05-27T13:31:06.856Z</time>
      </trkpt>
      <trkpt lat="43.66925" lon="1.44953">
        <ele>182.539362</ele>
        <time>2022-05-27T13:31:08.862Z</time>
      </trkpt>
      <trkpt lat="43.66932" lon="1.44965">
        <ele>182.563406</ele>
        <time>2022-05-27T13:31:10.857Z</time>
      </trkpt>
      <trkpt lat="43.66937" lon="1.44979">
        <ele>182.58759</ele>
        <time>2022-05-27T13:31:12.855Z</time>
      </trkpt>
      <trkpt lat="43.66942" lon="1.44994">
        <ele>182.612182</ele>
        <time>2022-05-27T13:31:14.849Z</time>
      </trkpt>
      <trkpt lat="43.66947" lon="1.45008">
        <ele>182.636272</ele>
        <time>2022-05-27T13:31:16.871Z</time>
      </trkpt>
      <trkpt lat="43.66953" lon="1.45022">
        <ele>182.660882</ele>
        <time>2022-05-27T13:31:18.862Z</time>
      </trkpt>
      <trkpt lat="43.66959" lon="1.45037">
        <ele>182.686325</ele>
        <time>2022-05-27T13:31:20.878Z</time>
      </trkpt>
      <trkpt lat="43.66965" lon="1.45051">
        <ele>182.710624</ele>
        <time>2022-05-27T13:31:22.860Z</time>
      </trkpt>
      <trkpt lat="43.66972" lon="1.45064">
        <ele>182.735616</ele>
        <time>2022-05-27T13:31:24.861Z</time>
      </trkpt>
      <trkpt lat="43.66979" lon="1.45077">
        <ele>182.78877</ele>
        <time>2022-05-27T13:31:26.858Z</time>
      </trkpt>
      <trkpt lat="43.66986" lon="1.45089">
        <ele>182.872781</ele>
        <time>2022-05-27T13:31:28.882Z</time>
      </trkpt>
      <trkpt lat="43.66992" lon="1.45102">
        <ele>182.953322</ele>
        <time>2022-05-27T13:31:30.853Z</time>
      </trkpt>
      <trkpt lat="43.66998" lon="1.45113">
        <ele>183.028219</ele>
        <time>2022-05-27T13:31:32.875Z</time>
      </trkpt>
      <trkpt lat="43.67004" lon="1.45127">
        <ele>183.112389</ele>
        <time>2022-05-27T13:31:35.909Z</time>
      </trkpt>
      <trkpt lat="43.6701" lon="1.45137">
        <ele>183.183164</ele>
        <time>2022-05-27T13:31:38.848Z</time>
      </trkpt>
      <trkpt lat="43.67015" lon="1.45154">
        <ele>183.279176</ele>
        <time>2022-05-27T13:31:41.866Z</time>
      </trkpt>
      <trkpt lat="43.67024" lon="1.4516">
        <ele>183.353882</ele>
        <time>2022-05-27T13:31:43.843Z</time>
      </trkpt>
      <trkpt lat="43.67035" lon="1.45155">
        <ele>183.433212</ele>
        <time>2022-05-27T13:31:45.857Z</time>
      </trkpt>
      <trkpt lat="43.67045" lon="1.4515">
        <ele>183.514112</ele>
        <time>2022-05-27T13:31:47.852Z</time>
      </trkpt>
      <trkpt lat="43.67055" lon="1.45143">
        <ele>183.59593</ele>
        <time>2022-05-27T13:31:49.850Z</time>
      </trkpt>
      <trkpt lat="43.67066" lon="1.4514">
        <ele>183.675726</ele>
        <time>2022-05-27T13:31:51.842Z</time>
      </trkpt>
      <trkpt lat="43.67075" lon="1.45147">
        <ele>183.751726</ele>
        <time>2022-05-27T13:31:53.846Z</time>
      </trkpt>
      <trkpt lat="43.67082" lon="1.45157">
        <ele>183.827873</ele>
        <time>2022-05-27T13:31:55.842Z</time>
      </trkpt>
      <trkpt lat="43.67092" lon="1.4516">
        <ele>183.90198</ele>
        <time>2022-05-27T13:31:57.858Z</time>
      </trkpt>
      <trkpt lat="43.67104" lon="1.45152">
        <ele>183.99647</ele>
        <time>2022-05-27T13:32:00.849Z</time>
      </trkpt>
      <trkpt lat="43.67113" lon="1.45146">
        <ele>184.068597</ele>
        <time>2022-05-27T13:32:02.853Z</time>
      </trkpt>
      <trkpt lat="43.67122" lon="1.45142">
        <ele>184.176955</ele>
        <time>2022-05-27T13:32:04.859Z</time>
      </trkpt>
      <trkpt lat="43.67132" lon="1.45137">
        <ele>184.280287</ele>
        <time>2022-05-27T13:32:06.861Z</time>
      </trkpt>
      <trkpt lat="43.67141" lon="1.45134">
        <ele>184.382144</ele>
        <time>2022-05-27T13:32:08.861Z</time>
      </trkpt>
      <trkpt lat="43.67148" lon="1.45141">
        <ele>184.478847</ele>
        <time>2022-05-27T13:32:10.856Z</time>
      </trkpt>
      <trkpt lat="43.67155" lon="1.4515">
        <ele>184.578524</ele>
        <time>2022-05-27T13:32:12.848Z</time>
      </trkpt>
      <trkpt lat="43.67164" lon="1.45147">
        <ele>184.676551</ele>
        <time>2022-05-27T13:32:14.840Z</time>
      </trkpt>
      <trkpt lat="43.67174" lon="1.45142">
        <ele>184.784042</ele>
        <time>2022-05-27T13:32:16.849Z</time>
      </trkpt>
      <trkpt lat="43.67183" lon="1.45136">
        <ele>184.89207</ele>
        <time>2022-05-27T13:32:18.851Z</time>
      </trkpt>
      <trkpt lat="43.67192" lon="1.4513">
        <ele>185.002067</ele>
        <time>2022-05-27T13:32:20.869Z</time>
      </trkpt>
      <trkpt lat="43.672" lon="1.45122">
        <ele>185.108765</ele>
        <time>2022-05-27T13:32:22.856Z</time>
      </trkpt>
      <trkpt lat="43.67212" lon="1.45123">
        <ele>185.234386</ele>
        <time>2022-05-27T13:32:25.843Z</time>
      </trkpt>
      <trkpt lat="43.67217" lon="1.4514">
        <ele>185.373218</ele>
        <time>2022-05-27T13:32:28.876Z</time>
      </trkpt>
      <trkpt lat="43.6722" lon="1.45153">
        <ele>185.474485</ele>
        <time>2022-05-27T13:32:30.849Z</time>
      </trkpt>
      <trkpt lat="43.67225" lon="1.45166">
        <ele>185.58816</ele>
        <time>2022-05-27T13:32:32.879Z</time>
      </trkpt>
      <trkpt lat="43.67228" lon="1.45181">
        <ele>185.707746</ele>
        <time>2022-05-27T13:32:34.825Z</time>
      </trkpt>
      <trkpt lat="43.67232" lon="1.45196">
        <ele>185.828398</ele>
        <time>2022-05-27T13:32:36.876Z</time>
      </trkpt>
      <trkpt lat="43.67236" lon="1.45211">
        <ele>185.952641</ele>
        <time>2022-05-27T13:32:38.856Z</time>
      </trkpt>
      <trkpt lat="43.6724" lon="1.45227">
        <ele>186.004729</ele>
        <time>2022-05-27T13:32:40.851Z</time>
      </trkpt>
      <trkpt lat="43.67246" lon="1.45241">
        <ele>186.041114</ele>
        <time>2022-05-27T13:32:42.844Z</time>
      </trkpt>
      <trkpt lat="43.67253" lon="1.45255">
        <ele>186.077716</ele>
        <time>2022-05-27T13:32:44.855Z</time>
      </trkpt>
      <trkpt lat="43.67257" lon="1.45269">
        <ele>186.111213</ele>
        <time>2022-05-27T13:32:46.862Z</time>
      </trkpt>
      <trkpt lat="43.6726" lon="1.45283">
        <ele>186.145023</ele>
        <time>2022-05-27T13:32:48.856Z</time>
      </trkpt>
      <trkpt lat="43.67264" lon="1.45298">
        <ele>186.179673</ele>
        <time>2022-05-27T13:32:50.870Z</time>
      </trkpt>
      <trkpt lat="43.67269" lon="1.45311">
        <ele>186.211028</ele>
        <time>2022-05-27T13:32:52.867Z</time>
      </trkpt>
      <trkpt lat="43.67279" lon="1.45315">
        <ele>186.242769</ele>
        <time>2022-05-27T13:32:55.849Z</time>
      </trkpt>
      <trkpt lat="43.6729" lon="1.45308">
        <ele>186.281309</ele>
        <time>2022-05-27T13:32:58.866Z</time>
      </trkpt>
      <trkpt lat="43.67299" lon="1.45303">
        <ele>186.309595</ele>
        <time>2022-05-27T13:33:00.862Z</time>
      </trkpt>
      <trkpt lat="43.67308" lon="1.45298">
        <ele>186.340731</ele>
        <time>2022-05-27T13:33:02.878Z</time>
      </trkpt>
      <trkpt lat="43.67319" lon="1.45295">
        <ele>186.374661</ele>
        <time>2022-05-27T13:33:04.860Z</time>
      </trkpt>
      <trkpt lat="43.6733" lon="1.45297">
        <ele>186.409233</ele>
        <time>2022-05-27T13:33:06.865Z</time>
      </trkpt>
      <trkpt lat="43.67341" lon="1.45302">
        <ele>186.444874</ele>
        <time>2022-05-27T13:33:08.853Z</time>
      </trkpt>
      <trkpt lat="43.67353" lon="1.45306">
        <ele>186.481493</ele>
        <time>2022-05-27T13:33:10.872Z</time>
      </trkpt>
      <trkpt lat="43.67365" lon="1.45309">
        <ele>186.518018</ele>
        <time>2022-05-27T13:33:12.871Z</time>
      </trkpt>
      <trkpt lat="43.67376" lon="1.45309">
        <ele>186.518373</ele>
        <time>2022-05-27T13:33:14.865Z</time>
      </trkpt>
      <trkpt lat="43.67387" lon="1.45305">
        <ele>186.511018</ele>
        <time>2022-05-27T13:33:16.855Z</time>
      </trkpt>
      <trkpt lat="43.67398" lon="1.45298">
        <ele>186.503525</ele>
        <time>2022-05-27T13:33:18.838Z</time>
      </trkpt>
      <trkpt lat="43.67408" lon="1.45291">
        <ele>186.496109</ele>
        <time>2022-05-27T13:33:20.838Z</time>
      </trkpt>
      <trkpt lat="43.67419" lon="1.45284">
        <ele>186.488614</ele>
        <time>2022-05-27T13:33:22.852Z</time>
      </trkpt>
      <trkpt lat="43.6743" lon="1.45284">
        <ele>186.481176</ele>
        <time>2022-05-27T13:33:24.848Z</time>
      </trkpt>
      <trkpt lat="43.67439" lon="1.45295">
        <ele>186.473628</ele>
        <time>2022-05-27T13:33:26.864Z</time>
      </trkpt>
      <trkpt lat="43.67444" lon="1.4531">
        <ele>186.465926</ele>
        <time>2022-05-27T13:33:28.867Z</time>
      </trkpt>
      <trkpt lat="43.67449" lon="1.45326">
        <ele>186.458028</ele>
        <time>2022-05-27T13:33:30.863Z</time>
      </trkpt>
      <trkpt lat="43.67454" lon="1.45341">
        <ele>186.450077</ele>
        <time>2022-05-27T13:33:32.854Z</time>
      </trkpt>
      <trkpt lat="43.67461" lon="1.45355">
        <ele>186.442474</ele>
        <time>2022-05-27T13:33:34.849Z</time>
      </trkpt>
      <trkpt lat="43.67469" lon="1.45366">
        <ele>186.434836</ele>
        <time>2022-05-27T13:33:36.856Z</time>
      </trkpt>
      <trkpt lat="43.67478" lon="1.45377">
        <ele>186.427295</ele>
        <time>2022-05-27T13:33:38.861Z</time>
      </trkpt>
      <trkpt lat="43.67488" lon="1.45385">
        <ele>186.419822</ele>
        <time>2022-05-27T13:33:40.849Z</time>
      </trkpt>
      <trkpt lat="43.67499" lon="1.45388">
        <ele>186.412864</ele>
        <time>2022-05-27T13:33:42.841Z</time>
      </trkpt>
      <trkpt lat="43.67508" lon="1.45378">
        <ele>186.393787</ele>
        <time>2022-05-27T13:33:44.855Z</time>
      </trkpt>
      <trkpt lat="43.67517" lon="1.45368">
        <ele>186.360521</ele>
        <time>2022-05-27T13:33:46.861Z</time>
      </trkpt>
      <trkpt lat="43.67525" lon="1.45356">
        <ele>186.328077</ele>
        <time>2022-05-27T13:33:48.838Z</time>
      </trkpt>
      <trkpt lat="43.67535" lon="1.45349">
        <ele>186.295863</ele>
        <time>2022-05-27T13:33:50.864Z</time>
      </trkpt>
      <trkpt lat="43.67545" lon="1.45342">
        <ele>186.26428</ele>
        <time>2022-05-27T13:33:52.863Z</time>
      </trkpt>
      <trkpt lat="43.67556" lon="1.45336">
        <ele>186.232261</ele>
        <time>2022-05-27T13:33:54.867Z</time>
      </trkpt>
      <trkpt lat="43.67566" lon="1.4533">
        <ele>186.199219</ele>
        <time>2022-05-27T13:33:56.865Z</time>
      </trkpt>
      <trkpt lat="43.67577" lon="1.45323">
        <ele>186.166011</ele>
        <time>2022-05-27T13:33:58.835Z</time>
      </trkpt>
      <trkpt lat="43.67587" lon="1.45316">
        <ele>186.133653</ele>
        <time>2022-05-27T13:34:00.859Z</time>
      </trkpt>
      <trkpt lat="43.67598" lon="1.45311">
        <ele>186.101185</ele>
        <time>2022-05-27T13:34:02.863Z</time>
      </trkpt>
      <trkpt lat="43.67608" lon="1.45308">
        <ele>186.073604</ele>
        <time>2022-05-27T13:34:04.860Z</time>
      </trkpt>
      <trkpt lat="43.67616" lon="1.45315">
        <ele>186.045738</ele>
        <time>2022-05-27T13:34:07.855Z</time>
      </trkpt>
      <trkpt lat="43.67627" lon="1.45315">
        <ele>186.014354</ele>
        <time>2022-05-27T13:34:10.851Z</time>
      </trkpt>
      <trkpt lat="43.67641" lon="1.45314">
        <ele>185.976095</ele>
        <time>2022-05-27T13:34:13.876Z</time>
      </trkpt>
      <trkpt lat="43.67653" lon="1.45311">
        <ele>185.940388</ele>
        <time>2022-05-27T13:34:16.853Z</time>
      </trkpt>
      <trkpt lat="43.67665" lon="1.45317">
        <ele>185.905117</ele>
        <time>2022-05-27T13:34:19.868Z</time>
      </trkpt>
      <trkpt lat="43.67675" lon="1.45319">
        <ele>185.927905</ele>
        <time>2022-05-27T13:34:21.847Z</time>
      </trkpt>
      <trkpt lat="43.67686" lon="1.45322">
        <ele>185.961622</ele>
        <time>2022-05-27T13:34:23.863Z</time>
      </trkpt>
      <trkpt lat="43.67696" lon="1.45327">
        <ele>185.996182</ele>
        <time>2022-05-27T13:34:25.861Z</time>
      </trkpt>
      <trkpt lat="43.67707" lon="1.4533">
        <ele>186.030597</ele>
        <time>2022-05-27T13:34:27.858Z</time>
      </trkpt>
      <trkpt lat="43.67717" lon="1.45336">
        <ele>186.065678</ele>
        <time>2022-05-27T13:34:29.842Z</time>
      </trkpt>
      <trkpt lat="43.67727" lon="1.45344">
        <ele>186.101646</ele>
        <time>2022-05-27T13:34:31.852Z</time>
      </trkpt>
      <trkpt lat="43.67736" lon="1.45354">
        <ele>186.138052</ele>
        <time>2022-05-27T13:34:33.853Z</time>
      </trkpt>
      <trkpt lat="43.67746" lon="1.45363">
        <ele>186.17455</ele>
        <time>2022-05-27T13:34:35.840Z</time>
      </trkpt>
      <trkpt lat="43.67756" lon="1.45371">
        <ele>186.211503</ele>
        <time>2022-05-27T13:34:37.864Z</time>
      </trkpt>
      <trkpt lat="43.67767" lon="1.45379">
        <ele>186.248942</ele>
        <time>2022-05-27T13:34:39.867Z</time>
      </trkpt>
      <trkpt lat="43.67777" lon="1.45387">
        <ele>186.286216</ele>
        <time>2022-05-27T13:34:41.868Z</time>
      </trkpt>
      <trkpt lat="43.67787" lon="1.45395">
        <ele>186.323106</ele>
        <time>2022-05-27T13:34:43.888Z</time>
      </trkpt>
      <trkpt lat="43.67797" lon="1.45402">
        <ele>186.358417</ele>
        <time>2022-05-27T13:34:45.856Z</time>
      </trkpt>
      <trkpt lat="43.67808" lon="1.45402">
        <ele>186.391616</ele>
        <time>2022-05-27T13:34:47.854Z</time>
      </trkpt>
      <trkpt lat="43.67817" lon="1.45409">
        <ele>186.422204</ele>
        <time>2022-05-27T13:34:49.843Z</time>
      </trkpt>
      <trkpt lat="43.67825" lon="1.45417">
        <ele>186.454081</ele>
        <time>2022-05-27T13:34:51.850Z</time>
      </trkpt>
      <trkpt lat="43.67834" lon="1.45424">
        <ele>186.492781</ele>
        <time>2022-05-27T13:34:53.863Z</time>
      </trkpt>
      <trkpt lat="43.67842" lon="1.45431">
        <ele>186.530764</ele>
        <time>2022-05-27T13:34:55.846Z</time>
      </trkpt>
      <trkpt lat="43.67854" lon="1.45436">
        <ele>186.581205</ele>
        <time>2022-05-27T13:34:58.862Z</time>
      </trkpt>
      <trkpt lat="43.67866" lon="1.4543">
        <ele>186.63411</ele>
        <time>2022-05-27T13:35:01.831Z</time>
      </trkpt>
      <trkpt lat="43.67875" lon="1.45423">
        <ele>186.67535</ele>
        <time>2022-05-27T13:35:03.855Z</time>
      </trkpt>
      <trkpt lat="43.67884" lon="1.45415">
        <ele>186.718725</ele>
        <time>2022-05-27T13:35:05.832Z</time>
      </trkpt>
      <trkpt lat="43.67893" lon="1.45406">
        <ele>186.765265</ele>
        <time>2022-05-27T13:35:07.858Z</time>
      </trkpt>
      <trkpt lat="43.67903" lon="1.45399">
        <ele>186.811265</ele>
        <time>2022-05-27T13:35:09.843Z</time>
      </trkpt>
      <trkpt lat="43.67913" lon="1.45392">
        <ele>186.855506</ele>
        <time>2022-05-27T13:35:11.845Z</time>
      </trkpt>
      <trkpt lat="43.67922" lon="1.45387">
        <ele>186.895277</ele>
        <time>2022-05-27T13:35:13.854Z</time>
      </trkpt>
      <trkpt lat="43.67932" lon="1.45385">
        <ele>186.93425</ele>
        <time>2022-05-27T13:35:15.858Z</time>
      </trkpt>
      <trkpt lat="43.67941" lon="1.45379">
        <ele>186.975996</ele>
        <time>2022-05-27T13:35:17.874Z</time>
      </trkpt>
      <trkpt lat="43.67951" lon="1.45373">
        <ele>187.022161</ele>
        <time>2022-05-27T13:35:19.867Z</time>
      </trkpt>
      <trkpt lat="43.67961" lon="1.45365">
        <ele>187.067804</ele>
        <time>2022-05-27T13:35:21.860Z</time>
      </trkpt>
      <trkpt lat="43.67973" lon="1.4536">
        <ele>187.11591</ele>
        <time>2022-05-27T13:35:23.860Z</time>
      </trkpt>
      <trkpt lat="43.67983" lon="1.45354">
        <ele>187.162215</ele>
        <time>2022-05-27T13:35:25.843Z</time>
      </trkpt>
      <trkpt lat="43.67993" lon="1.45348">
        <ele>187.186546</ele>
        <time>2022-05-27T13:35:27.876Z</time>
      </trkpt>
      <trkpt lat="43.68003" lon="1.4534">
        <ele>187.164707</ele>
        <time>2022-05-27T13:35:29.867Z</time>
      </trkpt>
      <trkpt lat="43.68013" lon="1.45334">
        <ele>187.143258</ele>
        <time>2022-05-27T13:35:31.860Z</time>
      </trkpt>
      <trkpt lat="43.68022" lon="1.45327">
        <ele>187.121387</ele>
        <time>2022-05-27T13:35:33.854Z</time>
      </trkpt>
      <trkpt lat="43.68032" lon="1.45319">
        <ele>187.099131</ele>
        <time>2022-05-27T13:35:35.855Z</time>
      </trkpt>
      <trkpt lat="43.68042" lon="1.45311">
        <ele>187.07719</ele>
        <time>2022-05-27T13:35:37.825Z</time>
      </trkpt>
      <trkpt lat="43.68051" lon="1.45303">
        <ele>187.055821</ele>
        <time>2022-05-27T13:35:39.842Z</time>
      </trkpt>
      <trkpt lat="43.6806" lon="1.45295">
        <ele>187.034531</ele>
        <time>2022-05-27T13:35:41.834Z</time>
      </trkpt>
      <trkpt lat="43.68069" lon="1.45287">
        <ele>187.013163</ele>
        <time>2022-05-27T13:35:43.826Z</time>
      </trkpt>
      <trkpt lat="43.68077" lon="1.4528">
        <ele>186.992517</ele>
        <time>2022-05-27T13:35:45.856Z</time>
      </trkpt>
      <trkpt lat="43.68086" lon="1.45272">
        <ele>186.971726</ele>
        <time>2022-05-27T13:35:47.836Z</time>
      </trkpt>
      <trkpt lat="43.68095" lon="1.45264">
        <ele>186.950816</ele>
        <time>2022-05-27T13:35:49.851Z</time>
      </trkpt>
      <trkpt lat="43.68104" lon="1.45256">
        <ele>186.9297</ele>
        <time>2022-05-27T13:35:51.864Z</time>
      </trkpt>
      <trkpt lat="43.68113" lon="1.45248">
        <ele>186.908749</ele>
        <time>2022-05-27T13:35:53.839Z</time>
      </trkpt>
      <trkpt lat="43.68122" lon="1.45239">
        <ele>186.886969</ele>
        <time>2022-05-27T13:35:55.836Z</time>
      </trkpt>
      <trkpt lat="43.68131" lon="1.45231">
        <ele>186.865687</ele>
        <time>2022-05-27T13:35:57.824Z</time>
      </trkpt>
      <trkpt lat="43.6814" lon="1.45223">
        <ele>186.843915</ele>
        <time>2022-05-27T13:35:59.849Z</time>
      </trkpt>
      <trkpt lat="43.68149" lon="1.45214">
        <ele>186.911222</ele>
        <time>2022-05-27T13:36:01.863Z</time>
      </trkpt>
      <trkpt lat="43.68157" lon="1.45206">
        <ele>187.025741</ele>
        <time>2022-05-27T13:36:03.868Z</time>
      </trkpt>
      <trkpt lat="43.68168" lon="1.45214">
        <ele>187.161106</ele>
        <time>2022-05-27T13:36:06.845Z</time>
      </trkpt>
      <trkpt lat="43.68172" lon="1.45226">
        <ele>187.265635</ele>
        <time>2022-05-27T13:36:08.827Z</time>
      </trkpt>
      <trkpt lat="43.68174" lon="1.45242">
        <ele>187.39277</ele>
        <time>2022-05-27T13:36:10.838Z</time>
      </trkpt>
      <trkpt lat="43.68178" lon="1.45257">
        <ele>187.518029</ele>
        <time>2022-05-27T13:36:12.854Z</time>
      </trkpt>
      <trkpt lat="43.68182" lon="1.45272">
        <ele>187.645375</ele>
        <time>2022-05-27T13:36:14.861Z</time>
      </trkpt>
      <trkpt lat="43.68186" lon="1.45288">
        <ele>187.781384</ele>
        <time>2022-05-27T13:36:16.875Z</time>
      </trkpt>
      <trkpt lat="43.6819" lon="1.45304">
        <ele>187.916275</ele>
        <time>2022-05-27T13:36:18.867Z</time>
      </trkpt>
      <trkpt lat="43.68194" lon="1.45319">
        <ele>188.044748</ele>
        <time>2022-05-27T13:36:20.855Z</time>
      </trkpt>
      <trkpt lat="43.68198" lon="1.45334">
        <ele>188.174723</ele>
        <time>2022-05-27T13:36:22.857Z</time>
      </trkpt>
      <trkpt lat="43.68202" lon="1.45349">
        <ele>188.298688</ele>
        <time>2022-05-27T13:36:24.866Z</time>
      </trkpt>
      <trkpt lat="43.68206" lon="1.45364">
        <ele>188.424157</ele>
        <time>2022-05-27T13:36:26.845Z</time>
      </trkpt>
      <trkpt lat="43.6821" lon="1.45378">
        <ele>188.544826</ele>
        <time>2022-05-27T13:36:28.865Z</time>
      </trkpt>
      <trkpt lat="43.68213" lon="1.45391">
        <ele>188.658672</ele>
        <time>2022-05-27T13:36:30.863Z</time>
      </trkpt>
      <trkpt lat="43.68217" lon="1.45405">
        <ele>188.782266</ele>
        <time>2022-05-27T13:36:32.865Z</time>
      </trkpt>
      <trkpt lat="43.6822" lon="1.4542">
        <ele>188.914328</ele>
        <time>2022-05-27T13:36:34.840Z</time>
      </trkpt>
      <trkpt lat="43.68223" lon="1.45434">
        <ele>189.054511</ele>
        <time>2022-05-27T13:36:36.838Z</time>
      </trkpt>
      <trkpt lat="43.68229" lon="1.45448">
        <ele>189.206952</ele>
        <time>2022-05-27T13:36:38.853Z</time>
      </trkpt>
      <trkpt lat="43.68233" lon="1.45462">
        <ele>189.349442</ele>
        <time>2022-05-27T13:36:40.857Z</time>
      </trkpt>
      <trkpt lat="43.68237" lon="1.45476">
        <ele>189.495302</ele>
        <time>2022-05-27T13:36:42.856Z</time>
      </trkpt>
      <trkpt lat="43.68242" lon="1.4549">
        <ele>189.636416</ele>
        <time>2022-05-27T13:36:44.864Z</time>
      </trkpt>
      <trkpt lat="43.68246" lon="1.45504">
        <ele>189.77829</ele>
        <time>2022-05-27T13:36:46.871Z</time>
      </trkpt>
      <trkpt lat="43.68249" lon="1.45518">
        <ele>189.916584</ele>
        <time>2022-05-27T13:36:48.846Z</time>
      </trkpt>
      <trkpt lat="43.68253" lon="1.45532">
        <ele>190.056639</ele>
        <time>2022-05-27T13:36:50.872Z</time>
      </trkpt>
      <trkpt lat="43.68257" lon="1.45545">
        <ele>190.193152</ele>
        <time>2022-05-27T13:36:52.864Z</time>
      </trkpt>
      <trkpt lat="43.6826" lon="1.45559">
        <ele>190.333655</ele>
        <time>2022-05-27T13:36:54.861Z</time>
      </trkpt>
      <trkpt lat="43.68263" lon="1.45574">
        <ele>190.473836</ele>
        <time>2022-05-27T13:36:56.856Z</time>
      </trkpt>
      <trkpt lat="43.68267" lon="1.45588">
        <ele>190.613118</ele>
        <time>2022-05-27T13:36:58.838Z</time>
      </trkpt>
      <trkpt lat="43.6827" lon="1.45602">
        <ele>190.757805</ele>
        <time>2022-05-27T13:37:00.866Z</time>
      </trkpt>
      <trkpt lat="43.68273" lon="1.45618">
        <ele>190.909728</ele>
        <time>2022-05-27T13:37:02.846Z</time>
      </trkpt>
      <trkpt lat="43.68276" lon="1.45634">
        <ele>191.060611</ele>
        <time>2022-05-27T13:37:04.876Z</time>
      </trkpt>
      <trkpt lat="43.68278" lon="1.45649">
        <ele>191.241424</ele>
        <time>2022-05-27T13:37:06.850Z</time>
      </trkpt>
      <trkpt lat="43.68279" lon="1.45665">
        <ele>191.504985</ele>
        <time>2022-05-27T13:37:08.862Z</time>
      </trkpt>
      <trkpt lat="43.6828" lon="1.4568">
        <ele>191.766977</ele>
        <time>2022-05-27T13:37:10.848Z</time>
      </trkpt>
      <trkpt lat="43.6828" lon="1.45695">
        <ele>192.014661</ele>
        <time>2022-05-27T13:37:12.872Z</time>
      </trkpt>
      <trkpt lat="43.6828" lon="1.45711">
        <ele>192.271027</ele>
        <time>2022-05-27T13:37:14.843Z</time>
      </trkpt>
      <trkpt lat="43.68279" lon="1.45726">
        <ele>192.529514</ele>
        <time>2022-05-27T13:37:16.879Z</time>
      </trkpt>
      <trkpt lat="43.68277" lon="1.45742">
        <ele>192.787247</ele>
        <time>2022-05-27T13:37:18.865Z</time>
      </trkpt>
      <trkpt lat="43.68276" lon="1.45756">
        <ele>193.027951</ele>
        <time>2022-05-27T13:37:20.864Z</time>
      </trkpt>
      <trkpt lat="43.68276" lon="1.4577">
        <ele>193.257913</ele>
        <time>2022-05-27T13:37:22.860Z</time>
      </trkpt>
      <trkpt lat="43.68275" lon="1.45784">
        <ele>193.489533</ele>
        <time>2022-05-27T13:37:24.863Z</time>
      </trkpt>
      <trkpt lat="43.68274" lon="1.45798">
        <ele>193.732622</ele>
        <time>2022-05-27T13:37:26.842Z</time>
      </trkpt>
      <trkpt lat="43.68273" lon="1.45813">
        <ele>193.974357</ele>
        <time>2022-05-27T13:37:28.866Z</time>
      </trkpt>
      <trkpt lat="43.68273" lon="1.45828">
        <ele>194.22456</ele>
        <time>2022-05-27T13:37:30.867Z</time>
      </trkpt>
      <trkpt lat="43.68272" lon="1.45842">
        <ele>194.465868</ele>
        <time>2022-05-27T13:37:32.876Z</time>
      </trkpt>
      <trkpt lat="43.68271" lon="1.45856">
        <ele>194.695269</ele>
        <time>2022-05-27T13:37:34.862Z</time>
      </trkpt>
      <trkpt lat="43.6827" lon="1.45869">
        <ele>194.903869</ele>
        <time>2022-05-27T13:37:36.864Z</time>
      </trkpt>
      <trkpt lat="43.68269" lon="1.45884">
        <ele>195.169174</ele>
        <time>2022-05-27T13:37:39.859Z</time>
      </trkpt>
      <trkpt lat="43.68269" lon="1.459">
        <ele>195.539479</ele>
        <time>2022-05-27T13:37:45.890Z</time>
      </trkpt>
      <trkpt lat="43.68267" lon="1.45916">
        <ele>196.069722</ele>
        <time>2022-05-27T13:37:48.870Z</time>
      </trkpt>
      <trkpt lat="43.68267" lon="1.4593">
        <ele>196.513748</ele>
        <time>2022-05-27T13:37:50.868Z</time>
      </trkpt>
      <trkpt lat="43.68266" lon="1.45944">
        <ele>196.991414</ele>
        <time>2022-05-27T13:37:52.835Z</time>
      </trkpt>
      <trkpt lat="43.68264" lon="1.45959">
        <ele>197.484507</ele>
        <time>2022-05-27T13:37:54.881Z</time>
      </trkpt>
      <trkpt lat="43.68263" lon="1.45975">
        <ele>197.980776</ele>
        <time>2022-05-27T13:37:56.852Z</time>
      </trkpt>
      <trkpt lat="43.68263" lon="1.4599">
        <ele>198.478989</ele>
        <time>2022-05-27T13:37:58.859Z</time>
      </trkpt>
      <trkpt lat="43.68265" lon="1.46004">
        <ele>198.942995</ele>
        <time>2022-05-27T13:38:00.882Z</time>
      </trkpt>
      <trkpt lat="43.68269" lon="1.46017">
        <ele>199.378075</ele>
        <time>2022-05-27T13:38:02.865Z</time>
      </trkpt>
      <trkpt lat="43.68273" lon="1.46029">
        <ele>199.801598</ele>
        <time>2022-05-27T13:38:04.865Z</time>
      </trkpt>
      <trkpt lat="43.68276" lon="1.46041">
        <ele>200.235542</ele>
        <time>2022-05-27T13:38:06.847Z</time>
      </trkpt>
      <trkpt lat="43.68278" lon="1.46055">
        <ele>200.678186</ele>
        <time>2022-05-27T13:38:08.847Z</time>
      </trkpt>
      <trkpt lat="43.68279" lon="1.46068">
        <ele>201.105961</ele>
        <time>2022-05-27T13:38:10.854Z</time>
      </trkpt>
      <trkpt lat="43.6828" lon="1.46082">
        <ele>201.548682</ele>
        <time>2022-05-27T13:38:12.858Z</time>
      </trkpt>
      <trkpt lat="43.6828" lon="1.46095">
        <ele>201.992257</ele>
        <time>2022-05-27T13:38:14.860Z</time>
      </trkpt>
      <trkpt lat="43.68281" lon="1.46109">
        <ele>202.42724</ele>
        <time>2022-05-27T13:38:16.886Z</time>
      </trkpt>
      <trkpt lat="43.68283" lon="1.46121">
        <ele>202.840467</ele>
        <time>2022-05-27T13:38:18.851Z</time>
      </trkpt>
      <trkpt lat="43.68287" lon="1.46133">
        <ele>203.258512</ele>
        <time>2022-05-27T13:38:21.864Z</time>
      </trkpt>
      <trkpt lat="43.68296" lon="1.46142">
        <ele>203.209969</ele>
        <time>2022-05-27T13:38:26.860Z</time>
      </trkpt>
      <trkpt lat="43.68305" lon="1.46156">
        <ele>203.020019</ele>
        <time>2022-05-27T13:38:29.848Z</time>
      </trkpt>
      <trkpt lat="43.68312" lon="1.46169">
        <ele>202.849311</ele>
        <time>2022-05-27T13:38:31.868Z</time>
      </trkpt>
      <trkpt lat="43.6832" lon="1.46183">
        <ele>202.658894</ele>
        <time>2022-05-27T13:38:33.853Z</time>
      </trkpt>
      <trkpt lat="43.68329" lon="1.46199">
        <ele>202.452227</ele>
        <time>2022-05-27T13:38:35.843Z</time>
      </trkpt>
      <trkpt lat="43.68339" lon="1.46215">
        <ele>202.231223</ele>
        <time>2022-05-27T13:38:37.851Z</time>
      </trkpt>
      <trkpt lat="43.68349" lon="1.46229">
        <ele>202.028276</ele>
        <time>2022-05-27T13:38:39.870Z</time>
      </trkpt>
      <trkpt lat="43.68355" lon="1.46237">
        <ele>201.896849</ele>
        <time>2022-05-27T13:38:41.867Z</time>
      </trkpt>
      <trkpt lat="43.68362" lon="1.46247">
        <ele>201.756733</ele>
        <time>2022-05-27T13:38:45.863Z</time>
      </trkpt>
      <trkpt lat="43.68372" lon="1.46245">
        <ele>201.608738</ele>
        <time>2022-05-27T13:38:52.866Z</time>
      </trkpt>
      <trkpt lat="43.68392" lon="1.46238">
        <ele>201.306472</ele>
        <time>2022-05-27T13:39:21.865Z</time>
      </trkpt>
      <trkpt lat="43.68402" lon="1.46242">
        <ele>201.155793</ele>
        <time>2022-05-27T13:39:25.852Z</time>
      </trkpt>
      <trkpt lat="43.68412" lon="1.46244">
        <ele>201.012402</ele>
        <time>2022-05-27T13:39:30.847Z</time>
      </trkpt>
      <trkpt lat="43.68423" lon="1.4625">
        <ele>200.842791</ele>
        <time>2022-05-27T13:39:34.852Z</time>
      </trkpt>
      <trkpt lat="43.68435" lon="1.46252">
        <ele>200.792598</ele>
        <time>2022-05-27T13:39:40.848Z</time>
      </trkpt>
      <trkpt lat="43.68445" lon="1.46243">
        <ele>200.920623</ele>
        <time>2022-05-27T13:39:43.863Z</time>
      </trkpt>
      <trkpt lat="43.68457" lon="1.46238">
        <ele>201.045772</ele>
        <time>2022-05-27T13:39:46.867Z</time>
      </trkpt>
      <trkpt lat="43.68465" lon="1.46245">
        <ele>201.1481</ele>
        <time>2022-05-27T13:39:48.840Z</time>
      </trkpt>
      <trkpt lat="43.68471" lon="1.46256">
        <ele>201.246198</ele>
        <time>2022-05-27T13:39:50.830Z</time>
      </trkpt>
      <trkpt lat="43.68477" lon="1.46265">
        <ele>201.338997</ele>
        <time>2022-05-27T13:39:52.850Z</time>
      </trkpt>
      <trkpt lat="43.68485" lon="1.46271">
        <ele>201.433014</ele>
        <time>2022-05-27T13:39:54.834Z</time>
      </trkpt>
      <trkpt lat="43.68494" lon="1.46276">
        <ele>201.531564</ele>
        <time>2022-05-27T13:39:56.845Z</time>
      </trkpt>
      <trkpt lat="43.68504" lon="1.46277">
        <ele>201.634162</ele>
        <time>2022-05-27T13:39:58.834Z</time>
      </trkpt>
      <trkpt lat="43.68515" lon="1.46276">
        <ele>201.748844</ele>
        <time>2022-05-27T13:40:00.844Z</time>
      </trkpt>
      <trkpt lat="43.68526" lon="1.46272">
        <ele>201.867061</ele>
        <time>2022-05-27T13:40:02.843Z</time>
      </trkpt>
      <trkpt lat="43.68537" lon="1.46267">
        <ele>201.989661</ele>
        <time>2022-05-27T13:40:04.851Z</time>
      </trkpt>
      <trkpt lat="43.68548" lon="1.46267">
        <ele>202.103262</ele>
        <time>2022-05-27T13:40:06.857Z</time>
      </trkpt>
      <trkpt lat="43.68559" lon="1.46267">
        <ele>202.214822</ele>
        <time>2022-05-27T13:40:08.848Z</time>
      </trkpt>
      <trkpt lat="43.6857" lon="1.46262">
        <ele>202.330446</ele>
        <time>2022-05-27T13:40:10.849Z</time>
      </trkpt>
      <trkpt lat="43.68579" lon="1.46263">
        <ele>202.431663</ele>
        <time>2022-05-27T13:40:13.860Z</time>
      </trkpt>
      <trkpt lat="43.68588" lon="1.46268">
        <ele>202.529483</ele>
        <time>2022-05-27T13:40:18.845Z</time>
      </trkpt>
      <trkpt lat="43.68595" lon="1.46281">
        <ele>202.68009</ele>
        <time>2022-05-27T13:40:22.855Z</time>
      </trkpt>
      <trkpt lat="43.68603" lon="1.4629">
        <ele>202.862517</ele>
        <time>2022-05-27T13:40:25.849Z</time>
      </trkpt>
      <trkpt lat="43.68613" lon="1.46296">
        <ele>203.049575</ele>
        <time>2022-05-27T13:40:28.833Z</time>
      </trkpt>
      <trkpt lat="43.68624" lon="1.46303">
        <ele>203.257809</ele>
        <time>2022-05-27T13:40:31.859Z</time>
      </trkpt>
      <trkpt lat="43.68632" lon="1.46309">
        <ele>203.413318</ele>
        <time>2022-05-27T13:40:33.847Z</time>
      </trkpt>
      <trkpt lat="43.68641" lon="1.46315">
        <ele>203.576998</ele>
        <time>2022-05-27T13:40:35.849Z</time>
      </trkpt>
      <trkpt lat="43.6865" lon="1.4632">
        <ele>203.746375</ele>
        <time>2022-05-27T13:40:37.859Z</time>
      </trkpt>
      <trkpt lat="43.68659" lon="1.46326">
        <ele>203.912126</ele>
        <time>2022-05-27T13:40:39.857Z</time>
      </trkpt>
      <trkpt lat="43.68668" lon="1.46331">
        <ele>204.072729</ele>
        <time>2022-05-27T13:40:41.844Z</time>
      </trkpt>
      <trkpt lat="43.68677" lon="1.46336">
        <ele>204.238091</ele>
        <time>2022-05-27T13:40:43.840Z</time>
      </trkpt>
      <trkpt lat="43.68686" lon="1.46337">
        <ele>204.402161</ele>
        <time>2022-05-27T13:40:45.848Z</time>
      </trkpt>
      <trkpt lat="43.68695" lon="1.46337">
        <ele>204.561333</ele>
        <time>2022-05-27T13:40:47.849Z</time>
      </trkpt>
      <trkpt lat="43.68707" lon="1.46331">
        <ele>204.777763</ele>
        <time>2022-05-27T13:40:50.843Z</time>
      </trkpt>
      <trkpt lat="43.6872" lon="1.46333">
        <ele>205.000162</ele>
        <time>2022-05-27T13:40:53.844Z</time>
      </trkpt>
      <trkpt lat="43.68733" lon="1.46338">
        <ele>205.227506</ele>
        <time>2022-05-27T13:40:56.835Z</time>
      </trkpt>
      <trkpt lat="43.68742" lon="1.46342">
        <ele>205.386005</ele>
        <time>2022-05-27T13:40:58.848Z</time>
      </trkpt>
      <trkpt lat="43.68751" lon="1.46345">
        <ele>205.54165</ele>
        <time>2022-05-27T13:41:00.848Z</time>
      </trkpt>
      <trkpt lat="43.6876" lon="1.46348">
        <ele>205.733339</ele>
        <time>2022-05-27T13:41:02.846Z</time>
      </trkpt>
      <trkpt lat="43.6877" lon="1.46351">
        <ele>206.138084</ele>
        <time>2022-05-27T13:41:04.856Z</time>
      </trkpt>
      <trkpt lat="43.6878" lon="1.46356">
        <ele>206.577823</ele>
        <time>2022-05-27T13:41:06.845Z</time>
      </trkpt>
      <trkpt lat="43.6879" lon="1.4636">
        <ele>206.994691</ele>
        <time>2022-05-27T13:41:08.833Z</time>
      </trkpt>
      <trkpt lat="43.688" lon="1.46363">
        <ele>207.384337</ele>
        <time>2022-05-27T13:41:10.851Z</time>
      </trkpt>
      <trkpt lat="43.6881" lon="1.46365">
        <ele>207.78439</ele>
        <time>2022-05-27T13:41:12.846Z</time>
      </trkpt>
      <trkpt lat="43.6882" lon="1.46363">
        <ele>208.164585</ele>
        <time>2022-05-27T13:41:14.855Z</time>
      </trkpt>
      <trkpt lat="43.6883" lon="1.46366">
        <ele>208.575763</ele>
        <time>2022-05-27T13:41:16.843Z</time>
      </trkpt>
      <trkpt lat="43.6884" lon="1.46373">
        <ele>209.012092</ele>
        <time>2022-05-27T13:41:18.848Z</time>
      </trkpt>
      <trkpt lat="43.6885" lon="1.46381">
        <ele>209.472464</ele>
        <time>2022-05-27T13:41:21.850Z</time>
      </trkpt>
      <trkpt lat="43.6886" lon="1.46385">
        <ele>209.868102</ele>
        <time>2022-05-27T13:41:24.844Z</time>
      </trkpt>
      <trkpt lat="43.6887" lon="1.46389">
        <ele>210.299193</ele>
        <time>2022-05-27T13:41:27.857Z</time>
      </trkpt>
      <trkpt lat="43.68878" lon="1.46403">
        <ele>210.802337</ele>
        <time>2022-05-27T13:41:36.821Z</time>
      </trkpt>
      <trkpt lat="43.68883" lon="1.46414">
        <ele>211.169116</ele>
        <time>2022-05-27T13:41:49.854Z</time>
      </trkpt>
      <trkpt lat="43.68894" lon="1.46412">
        <ele>211.623408</ele>
        <time>2022-05-27T13:42:00.865Z</time>
      </trkpt>
      <trkpt lat="43.68904" lon="1.46418">
        <ele>212.029347</ele>
        <time>2022-05-27T13:42:05.859Z</time>
      </trkpt>
      <trkpt lat="43.68913" lon="1.46423">
        <ele>212.437919</ele>
        <time>2022-05-27T13:42:14.852Z</time>
      </trkpt>
      <trkpt lat="43.68921" lon="1.46432">
        <ele>212.853104</ele>
        <time>2022-05-27T13:42:20.829Z</time>
      </trkpt>
      <trkpt lat="43.68928" lon="1.46443">
        <ele>213.442003</ele>
        <time>2022-05-27T13:42:24.849Z</time>
      </trkpt>
      <trkpt lat="43.68932" lon="1.46456">
        <ele>214.034636</ele>
        <time>2022-05-27T13:42:28.867Z</time>
      </trkpt>
      <trkpt lat="43.68941" lon="1.46462">
        <ele>214.578661</ele>
        <time>2022-05-27T13:42:33.841Z</time>
      </trkpt>
      <trkpt lat="43.68951" lon="1.46462">
        <ele>215.172249</ele>
        <time>2022-05-27T13:42:36.852Z</time>
      </trkpt>
      <trkpt lat="43.68962" lon="1.46464">
        <ele>215.784814</ele>
        <time>2022-05-27T13:42:39.856Z</time>
      </trkpt>
      <trkpt lat="43.68975" lon="1.46468">
        <ele>216.559497</ele>
        <time>2022-05-27T13:42:42.833Z</time>
      </trkpt>
      <trkpt lat="43.68984" lon="1.46474">
        <ele>217.119086</ele>
        <time>2022-05-27T13:42:44.835Z</time>
      </trkpt>
      <trkpt lat="43.68993" lon="1.46481">
        <ele>217.691074</ele>
        <time>2022-05-27T13:42:47.838Z</time>
      </trkpt>
      <trkpt lat="43.69003" lon="1.46486">
        <ele>218.301489</ele>
        <time>2022-05-27T13:42:51.856Z</time>
      </trkpt>
      <trkpt lat="43.69013" lon="1.46493">
        <ele>218.94241</ele>
        <time>2022-05-27T13:42:55.871Z</time>
      </trkpt>
      <trkpt lat="43.69019" lon="1.46506">
        <ele>219.543812</ele>
        <time>2022-05-27T13:42:58.852Z</time>
      </trkpt>
      <trkpt lat="43.69013" lon="1.46517">
        <ele>220.103798</ele>
        <time>2022-05-27T13:43:02.850Z</time>
      </trkpt>
      <trkpt lat="43.69009" lon="1.46528">
        <ele>220.631395</ele>
        <time>2022-05-27T13:43:14.854Z</time>
      </trkpt>
      <trkpt lat="43.69003" lon="1.46539">
        <ele>221.174444</ele>
        <time>2022-05-27T13:43:17.857Z</time>
      </trkpt>
      <trkpt lat="43.68998" lon="1.46552">
        <ele>221.773491</ele>
        <time>2022-05-27T13:43:20.830Z</time>
      </trkpt>
      <trkpt lat="43.68994" lon="1.46564">
        <ele>222.307252</ele>
        <time>2022-05-27T13:43:23.859Z</time>
      </trkpt>
      <trkpt lat="43.68987" lon="1.46578">
        <ele>222.891712</ele>
        <time>2022-05-27T13:43:26.858Z</time>
      </trkpt>
      <trkpt lat="43.6898" lon="1.46587">
        <ele>222.774653</ele>
        <time>2022-05-27T13:43:28.842Z</time>
      </trkpt>
      <trkpt lat="43.6897" lon="1.46589">
        <ele>222.653164</ele>
        <time>2022-05-27T13:43:31.851Z</time>
      </trkpt>
      <trkpt lat="43.68959" lon="1.46589">
        <ele>222.50895</ele>
        <time>2022-05-27T13:43:34.838Z</time>
      </trkpt>
      <trkpt lat="43.68948" lon="1.46597">
        <ele>222.365082</ele>
        <time>2022-05-27T13:43:37.892Z</time>
      </trkpt>
      <trkpt lat="43.68948" lon="1.46609">
        <ele>222.255386</ele>
        <time>2022-05-27T13:43:40.856Z</time>
      </trkpt>
      <trkpt lat="43.6895" lon="1.46628">
        <ele>222.092529</ele>
        <time>2022-05-27T13:43:43.847Z</time>
      </trkpt>
      <trkpt lat="43.68954" lon="1.46639">
        <ele>221.977231</ele>
        <time>2022-05-27T13:43:45.860Z</time>
      </trkpt>
      <trkpt lat="43.6896" lon="1.46649">
        <ele>221.866694</ele>
        <time>2022-05-27T13:43:48.844Z</time>
      </trkpt>
      <trkpt lat="43.68971" lon="1.4665">
        <ele>221.729419</ele>
        <time>2022-05-27T13:43:52.872Z</time>
      </trkpt>
      <trkpt lat="43.68994" lon="1.46634">
        <ele>221.408663</ele>
        <time>2022-05-27T13:44:28.851Z</time>
      </trkpt>
      <trkpt lat="43.69001" lon="1.46624">
        <ele>221.289001</ele>
        <time>2022-05-27T13:44:31.856Z</time>
      </trkpt>
      <trkpt lat="43.69009" lon="1.46617">
        <ele>221.173035</ele>
        <time>2022-05-27T13:44:33.848Z</time>
      </trkpt>
      <trkpt lat="43.6902" lon="1.46603">
        <ele>220.991742</ele>
        <time>2022-05-27T13:44:35.859Z</time>
      </trkpt>
      <trkpt lat="43.69031" lon="1.4659">
        <ele>220.816258</ele>
        <time>2022-05-27T13:44:37.852Z</time>
      </trkpt>
      <trkpt lat="43.69043" lon="1.46576">
        <ele>220.376058</ele>
        <time>2022-05-27T13:44:39.847Z</time>
      </trkpt>
      <trkpt lat="43.69052" lon="1.46563">
        <ele>219.722018</ele>
        <time>2022-05-27T13:44:41.852Z</time>
      </trkpt>
      <trkpt lat="43.69063" lon="1.46562">
        <ele>219.203417</ele>
        <time>2022-05-27T13:44:45.850Z</time>
      </trkpt>
      <trkpt lat="43.69072" lon="1.46572">
        <ele>218.63778</ele>
        <time>2022-05-27T13:44:49.866Z</time>
      </trkpt>
      <trkpt lat="43.69081" lon="1.46577">
        <ele>218.156965</ele>
        <time>2022-05-27T13:44:56.852Z</time>
      </trkpt>
      <trkpt lat="43.69093" lon="1.46581">
        <ele>217.556372</ele>
        <time>2022-05-27T13:44:59.844Z</time>
      </trkpt>
      <trkpt lat="43.69105" lon="1.46589">
        <ele>216.909046</ele>
        <time>2022-05-27T13:45:02.860Z</time>
      </trkpt>
      <trkpt lat="43.69116" lon="1.46585">
        <ele>216.360537</ele>
        <time>2022-05-27T13:45:04.851Z</time>
      </trkpt>
      <trkpt lat="43.69127" lon="1.4659">
        <ele>215.830766</ele>
        <time>2022-05-27T13:45:06.843Z</time>
      </trkpt>
      <trkpt lat="43.69131" lon="1.46601">
        <ele>215.375641</ele>
        <time>2022-05-27T13:45:08.846Z</time>
      </trkpt>
      <trkpt lat="43.69134" lon="1.46614">
        <ele>214.899741</ele>
        <time>2022-05-27T13:45:10.856Z</time>
      </trkpt>
      <trkpt lat="43.69137" lon="1.46628">
        <ele>214.371636</ele>
        <time>2022-05-27T13:45:13.855Z</time>
      </trkpt>
      <trkpt lat="43.69141" lon="1.46647">
        <ele>213.709635</ele>
        <time>2022-05-27T13:45:16.859Z</time>
      </trkpt>
      <trkpt lat="43.69144" lon="1.46661">
        <ele>213.181642</ele>
        <time>2022-05-27T13:45:18.848Z</time>
      </trkpt>
      <trkpt lat="43.69148" lon="1.46676">
        <ele>212.633857</ele>
        <time>2022-05-27T13:45:20.848Z</time>
      </trkpt>
      <trkpt lat="43.69152" lon="1.46691">
        <ele>212.089157</ele>
        <time>2022-05-27T13:45:22.836Z</time>
      </trkpt>
      <trkpt lat="43.69155" lon="1.46705">
        <ele>212.096145</ele>
        <time>2022-05-27T13:45:24.854Z</time>
      </trkpt>
      <trkpt lat="43.6916" lon="1.46719">
        <ele>212.193786</ele>
        <time>2022-05-27T13:45:26.862Z</time>
      </trkpt>
      <trkpt lat="43.69162" lon="1.46735">
        <ele>212.291906</ele>
        <time>2022-05-27T13:45:28.848Z</time>
      </trkpt>
      <trkpt lat="43.69164" lon="1.46751">
        <ele>212.393553</ele>
        <time>2022-05-27T13:45:30.842Z</time>
      </trkpt>
      <trkpt lat="43.69165" lon="1.46767">
        <ele>212.493771</ele>
        <time>2022-05-27T13:45:32.848Z</time>
      </trkpt>
      <trkpt lat="43.69164" lon="1.46783">
        <ele>212.593463</ele>
        <time>2022-05-27T13:45:34.844Z</time>
      </trkpt>
      <trkpt lat="43.69163" lon="1.46799">
        <ele>212.693518</ele>
        <time>2022-05-27T13:45:36.827Z</time>
      </trkpt>
      <trkpt lat="43.69162" lon="1.46816">
        <ele>212.798935</ele>
        <time>2022-05-27T13:45:38.867Z</time>
      </trkpt>
      <trkpt lat="43.69161" lon="1.46832">
        <ele>212.899773</ele>
        <time>2022-05-27T13:45:40.856Z</time>
      </trkpt>
      <trkpt lat="43.69159" lon="1.46847">
        <ele>212.998964</ele>
        <time>2022-05-27T13:45:42.844Z</time>
      </trkpt>
      <trkpt lat="43.69155" lon="1.46862">
        <ele>213.099154</ele>
        <time>2022-05-27T13:45:44.830Z</time>
      </trkpt>
      <trkpt lat="43.6915" lon="1.46878">
        <ele>213.203062</ele>
        <time>2022-05-27T13:45:46.837Z</time>
      </trkpt>
      <trkpt lat="43.69144" lon="1.46893">
        <ele>213.308016</ele>
        <time>2022-05-27T13:45:48.839Z</time>
      </trkpt>
      <trkpt lat="43.69139" lon="1.46908">
        <ele>213.413528</ele>
        <time>2022-05-27T13:45:50.846Z</time>
      </trkpt>
      <trkpt lat="43.69134" lon="1.46922">
        <ele>213.512118</ele>
        <time>2022-05-27T13:45:52.870Z</time>
      </trkpt>
      <trkpt lat="43.69131" lon="1.46937">
        <ele>213.628922</ele>
        <time>2022-05-27T13:45:54.845Z</time>
      </trkpt>
      <trkpt lat="43.69129" lon="1.46952">
        <ele>213.769367</ele>
        <time>2022-05-27T13:45:56.823Z</time>
      </trkpt>
      <trkpt lat="43.69127" lon="1.46968">
        <ele>213.918021</ele>
        <time>2022-05-27T13:45:58.848Z</time>
      </trkpt>
      <trkpt lat="43.69125" lon="1.46984">
        <ele>214.068782</ele>
        <time>2022-05-27T13:46:00.852Z</time>
      </trkpt>
      <trkpt lat="43.69121" lon="1.47">
        <ele>214.226894</ele>
        <time>2022-05-27T13:46:02.857Z</time>
      </trkpt>
      <trkpt lat="43.69118" lon="1.47016">
        <ele>214.375272</ele>
        <time>2022-05-27T13:46:04.841Z</time>
      </trkpt>
      <trkpt lat="43.69116" lon="1.47032">
        <ele>214.528032</ele>
        <time>2022-05-27T13:46:06.847Z</time>
      </trkpt>
      <trkpt lat="43.69115" lon="1.47047">
        <ele>214.673135</ele>
        <time>2022-05-27T13:46:08.849Z</time>
      </trkpt>
      <trkpt lat="43.69111" lon="1.47062">
        <ele>214.818326</ele>
        <time>2022-05-27T13:46:10.855Z</time>
      </trkpt>
      <trkpt lat="43.69107" lon="1.47077">
        <ele>214.96302</ele>
        <time>2022-05-27T13:46:12.891Z</time>
      </trkpt>
      <trkpt lat="43.69107" lon="1.47092">
        <ele>215.103107</ele>
        <time>2022-05-27T13:46:14.848Z</time>
      </trkpt>
      <trkpt lat="43.69108" lon="1.47106">
        <ele>215.234407</ele>
        <time>2022-05-27T13:46:16.856Z</time>
      </trkpt>
      <trkpt lat="43.69106" lon="1.47118">
        <ele>215.352149</ele>
        <time>2022-05-27T13:46:18.839Z</time>
      </trkpt>
      <trkpt lat="43.69101" lon="1.47132">
        <ele>215.496296</ele>
        <time>2022-05-27T13:46:20.869Z</time>
      </trkpt>
      <trkpt lat="43.69095" lon="1.47147">
        <ele>215.650964</ele>
        <time>2022-05-27T13:46:22.863Z</time>
      </trkpt>
      <trkpt lat="43.69089" lon="1.47161">
        <ele>215.798735</ele>
        <time>2022-05-27T13:46:24.853Z</time>
      </trkpt>
      <trkpt lat="43.69083" lon="1.47174">
        <ele>215.953484</ele>
        <time>2022-05-27T13:46:26.852Z</time>
      </trkpt>
      <trkpt lat="43.69077" lon="1.47188">
        <ele>216.109512</ele>
        <time>2022-05-27T13:46:28.854Z</time>
      </trkpt>
      <trkpt lat="43.69072" lon="1.47202">
        <ele>216.266583</ele>
        <time>2022-05-27T13:46:30.868Z</time>
      </trkpt>
      <trkpt lat="43.69066" lon="1.47215">
        <ele>216.421659</ele>
        <time>2022-05-27T13:46:32.859Z</time>
      </trkpt>
      <trkpt lat="43.69062" lon="1.4723">
        <ele>216.578485</ele>
        <time>2022-05-27T13:46:34.869Z</time>
      </trkpt>
      <trkpt lat="43.6906" lon="1.47246">
        <ele>216.737841</ele>
        <time>2022-05-27T13:46:36.842Z</time>
      </trkpt>
      <trkpt lat="43.69059" lon="1.47261">
        <ele>216.896025</ele>
        <time>2022-05-27T13:46:38.858Z</time>
      </trkpt>
      <trkpt lat="43.69059" lon="1.47277">
        <ele>217.047788</ele>
        <time>2022-05-27T13:46:40.852Z</time>
      </trkpt>
      <trkpt lat="43.69059" lon="1.47292">
        <ele>217.20159</ele>
        <time>2022-05-27T13:46:42.852Z</time>
      </trkpt>
      <trkpt lat="43.6906" lon="1.47308">
        <ele>217.358342</ele>
        <time>2022-05-27T13:46:44.852Z</time>
      </trkpt>
      <trkpt lat="43.6906" lon="1.47324">
        <ele>217.517186</ele>
        <time>2022-05-27T13:46:46.875Z</time>
      </trkpt>
      <trkpt lat="43.69061" lon="1.47339">
        <ele>217.6694</ele>
        <time>2022-05-27T13:46:48.846Z</time>
      </trkpt>
      <trkpt lat="43.69062" lon="1.47354">
        <ele>217.820353</ele>
        <time>2022-05-27T13:46:50.854Z</time>
      </trkpt>
      <trkpt lat="43.69063" lon="1.47367">
        <ele>217.95467</ele>
        <time>2022-05-27T13:46:52.851Z</time>
      </trkpt>
      <trkpt lat="43.69065" lon="1.47382">
        <ele>218.104942</ele>
        <time>2022-05-27T13:46:56.855Z</time>
      </trkpt>
      <trkpt lat="43.69065" lon="1.47398">
        <ele>218.268625</ele>
        <time>2022-05-27T13:47:00.814Z</time>
      </trkpt>
      <trkpt lat="43.69068" lon="1.47415">
        <ele>218.464285</ele>
        <time>2022-05-27T13:47:04.861Z</time>
      </trkpt>
      <trkpt lat="43.69072" lon="1.47426">
        <ele>218.644653</ele>
        <time>2022-05-27T13:47:08.837Z</time>
      </trkpt>
      <trkpt lat="43.69077" lon="1.47438">
        <ele>218.834608</ele>
        <time>2022-05-27T13:47:11.859Z</time>
      </trkpt>
      <trkpt lat="43.69081" lon="1.47451">
        <ele>219.030559</ele>
        <time>2022-05-27T13:47:15.857Z</time>
      </trkpt>
      <trkpt lat="43.69081" lon="1.47463">
        <ele>219.20663</ele>
        <time>2022-05-27T13:47:18.855Z</time>
      </trkpt>
      <trkpt lat="43.69081" lon="1.47479">
        <ele>219.427215</ele>
        <time>2022-05-27T13:47:22.867Z</time>
      </trkpt>
      <trkpt lat="43.69085" lon="1.47495">
        <ele>219.667052</ele>
        <time>2022-05-27T13:47:25.848Z</time>
      </trkpt>
      <trkpt lat="43.69088" lon="1.4751">
        <ele>219.883268</ele>
        <time>2022-05-27T13:47:27.844Z</time>
      </trkpt>
      <trkpt lat="43.69087" lon="1.47526">
        <ele>220.101849</ele>
        <time>2022-05-27T13:47:30.841Z</time>
      </trkpt>
      <trkpt lat="43.69079" lon="1.47537">
        <ele>220.317301</ele>
        <time>2022-05-27T13:47:33.844Z</time>
      </trkpt>
      <trkpt lat="43.69076" lon="1.47554">
        <ele>220.563414</ele>
        <time>2022-05-27T13:47:36.844Z</time>
      </trkpt>
      <trkpt lat="43.69074" lon="1.47567">
        <ele>220.755773</ele>
        <time>2022-05-27T13:47:39.853Z</time>
      </trkpt>
      <trkpt lat="43.69075" lon="1.4758">
        <ele>220.933334</ele>
        <time>2022-05-27T13:47:41.851Z</time>
      </trkpt>
      <trkpt lat="43.69074" lon="1.47599">
        <ele>221.200231</ele>
        <time>2022-05-27T13:47:48.847Z</time>
      </trkpt>
      <trkpt lat="43.6907" lon="1.47613">
        <ele>221.407452</ele>
        <time>2022-05-27T13:47:59.852Z</time>
      </trkpt>
      <trkpt lat="43.69068" lon="1.47627">
        <ele>221.608714</ele>
        <time>2022-05-27T13:48:04.854Z</time>
      </trkpt>
      <trkpt lat="43.69064" lon="1.47639">
        <ele>221.791377</ele>
        <time>2022-05-27T13:48:09.855Z</time>
      </trkpt>
      <trkpt lat="43.6906" lon="1.47652">
        <ele>222.077602</ele>
        <time>2022-05-27T13:48:13.831Z</time>
      </trkpt>
      <trkpt lat="43.69059" lon="1.47666">
        <ele>222.39261</ele>
        <time>2022-05-27T13:48:17.851Z</time>
      </trkpt>
      <trkpt lat="43.69064" lon="1.47679">
        <ele>222.707788</ele>
        <time>2022-05-27T13:48:21.853Z</time>
      </trkpt>
      <trkpt lat="43.69066" lon="1.47693">
        <ele>223.0092</ele>
        <time>2022-05-27T13:48:24.848Z</time>
      </trkpt>
      <trkpt lat="43.69071" lon="1.47704">
        <ele>223.308703</ele>
        <time>2022-05-27T13:48:27.847Z</time>
      </trkpt>
      <trkpt lat="43.69077" lon="1.47719">
        <ele>223.660693</ele>
        <time>2022-05-27T13:48:30.849Z</time>
      </trkpt>
      <trkpt lat="43.69079" lon="1.47734">
        <ele>223.999238</ele>
        <time>2022-05-27T13:48:34.837Z</time>
      </trkpt>
      <trkpt lat="43.69076" lon="1.47746">
        <ele>224.270627</ele>
        <time>2022-05-27T13:48:38.850Z</time>
      </trkpt>
      <trkpt lat="43.69074" lon="1.47759">
        <ele>224.571368</ele>
        <time>2022-05-27T13:48:42.846Z</time>
      </trkpt>
      <trkpt lat="43.69074" lon="1.47774">
        <ele>224.890838</ele>
        <time>2022-05-27T13:48:45.835Z</time>
      </trkpt>
      <trkpt lat="43.69075" lon="1.47788">
        <ele>225.197714</ele>
        <time>2022-05-27T13:48:48.852Z</time>
      </trkpt>
      <trkpt lat="43.69071" lon="1.47802">
        <ele>225.51768</ele>
        <time>2022-05-27T13:48:51.839Z</time>
      </trkpt>
      <trkpt lat="43.69067" lon="1.47812">
        <ele>225.790074</ele>
        <time>2022-05-27T13:48:54.840Z</time>
      </trkpt>
      <trkpt lat="43.69062" lon="1.47827">
        <ele>226.14181</ele>
        <time>2022-05-27T13:48:58.841Z</time>
      </trkpt>
      <trkpt lat="43.6906" lon="1.47839">
        <ele>226.420692</ele>
        <time>2022-05-27T13:49:01.847Z</time>
      </trkpt>
      <trkpt lat="43.69056" lon="1.47855">
        <ele>226.768906</ele>
        <time>2022-05-27T13:49:05.855Z</time>
      </trkpt>
      <trkpt lat="43.69052" lon="1.47868">
        <ele>227.078788</ele>
        <time>2022-05-27T13:49:08.847Z</time>
      </trkpt>
      <trkpt lat="43.69048" lon="1.47881">
        <ele>227.367278</ele>
        <time>2022-05-27T13:49:11.836Z</time>
      </trkpt>
      <trkpt lat="43.69044" lon="1.47897">
        <ele>227.647573</ele>
        <time>2022-05-27T13:49:15.863Z</time>
      </trkpt>
      <trkpt lat="43.69043" lon="1.47914">
        <ele>227.949143</ele>
        <time>2022-05-27T13:49:23.836Z</time>
      </trkpt>
      <trkpt lat="43.6905" lon="1.47923">
        <ele>228.186188</ele>
        <time>2022-05-27T13:49:26.850Z</time>
      </trkpt>
      <trkpt lat="43.69054" lon="1.47935">
        <ele>228.415563</ele>
        <time>2022-05-27T13:49:32.847Z</time>
      </trkpt>
      <trkpt lat="43.69053" lon="1.4795">
        <ele>228.674405</ele>
        <time>2022-05-27T13:49:35.854Z</time>
      </trkpt>
      <trkpt lat="43.69049" lon="1.47965">
        <ele>228.949867</ele>
        <time>2022-05-27T13:49:41.848Z</time>
      </trkpt>
      <trkpt lat="43.69044" lon="1.4798">
        <ele>229.239454</ele>
        <time>2022-05-27T13:49:55.848Z</time>
      </trkpt>
      <trkpt lat="43.69044" lon="1.47993">
        <ele>229.463626</ele>
        <time>2022-05-27T13:49:59.831Z</time>
      </trkpt>
      <trkpt lat="43.69039" lon="1.48004">
        <ele>229.700889</ele>
        <time>2022-05-27T13:50:05.858Z</time>
      </trkpt>
      <trkpt lat="43.69037" lon="1.48018">
        <ele>229.942743</ele>
        <time>2022-05-27T13:50:11.856Z</time>
      </trkpt>
      <trkpt lat="43.69033" lon="1.48031">
        <ele>230.180318</ele>
        <time>2022-05-27T13:50:19.828Z</time>
      </trkpt>
      <trkpt lat="43.69043" lon="1.48028">
        <ele>230.422952</ele>
        <time>2022-05-27T13:50:31.849Z</time>
      </trkpt>
      <trkpt lat="43.6905" lon="1.48019">
        <ele>230.648233</ele>
        <time>2022-05-27T13:50:34.861Z</time>
      </trkpt>
      <trkpt lat="43.69059" lon="1.4801">
        <ele>230.917664</ele>
        <time>2022-05-27T13:50:37.855Z</time>
      </trkpt>
      <trkpt lat="43.69068" lon="1.48006">
        <ele>231.146701</ele>
        <time>2022-05-27T13:50:39.821Z</time>
      </trkpt>
      <trkpt lat="43.69079" lon="1.48001">
        <ele>231.425489</ele>
        <time>2022-05-27T13:50:42.837Z</time>
      </trkpt>
      <trkpt lat="43.6909" lon="1.47996">
        <ele>231.712472</ele>
        <time>2022-05-27T13:50:45.870Z</time>
      </trkpt>
      <trkpt lat="43.69101" lon="1.47991">
        <ele>232.024692</ele>
        <time>2022-05-27T13:50:48.843Z</time>
      </trkpt>
      <trkpt lat="43.69114" lon="1.47985">
        <ele>232.388321</ele>
        <time>2022-05-27T13:50:51.852Z</time>
      </trkpt>
      <trkpt lat="43.69123" lon="1.47983">
        <ele>232.629106</ele>
        <time>2022-05-27T13:50:53.868Z</time>
      </trkpt>
      <trkpt lat="43.69133" lon="1.4799">
        <ele>232.921699</ele>
        <time>2022-05-27T13:50:57.844Z</time>
      </trkpt>
      <trkpt lat="43.69142" lon="1.47999">
        <ele>233.22457</ele>
        <time>2022-05-27T13:51:00.846Z</time>
      </trkpt>
      <trkpt lat="43.69151" lon="1.48009">
        <ele>233.516365</ele>
        <time>2022-05-27T13:51:03.876Z</time>
      </trkpt>
      <trkpt lat="43.69161" lon="1.48003">
        <ele>233.810615</ele>
        <time>2022-05-27T13:51:07.839Z</time>
      </trkpt>
      <trkpt lat="43.69168" lon="1.47991">
        <ele>234.101006</ele>
        <time>2022-05-27T13:51:09.849Z</time>
      </trkpt>
      <trkpt lat="43.69177" lon="1.47982">
        <ele>234.390697</ele>
        <time>2022-05-27T13:51:11.856Z</time>
      </trkpt>
      <trkpt lat="43.69187" lon="1.47987">
        <ele>234.679737</ele>
        <time>2022-05-27T13:51:14.853Z</time>
      </trkpt>
      <trkpt lat="43.692" lon="1.47991">
        <ele>235.023793</ele>
        <time>2022-05-27T13:51:17.854Z</time>
      </trkpt>
      <trkpt lat="43.69212" lon="1.47995">
        <ele>235.353208</ele>
        <time>2022-05-27T13:51:20.866Z</time>
      </trkpt>
      <trkpt lat="43.69221" lon="1.47998">
        <ele>235.599282</ele>
        <time>2022-05-27T13:51:22.864Z</time>
      </trkpt>
      <trkpt lat="43.69233" lon="1.48001">
        <ele>235.940111</ele>
        <time>2022-05-27T13:51:25.871Z</time>
      </trkpt>
      <trkpt lat="43.69244" lon="1.47998">
        <ele>236.222219</ele>
        <time>2022-05-27T13:51:27.831Z</time>
      </trkpt>
      <trkpt lat="43.69255" lon="1.47994">
        <ele>236.624664</ele>
        <time>2022-05-27T13:51:29.823Z</time>
      </trkpt>
      <trkpt lat="43.69267" lon="1.47987">
        <ele>237.118774</ele>
        <time>2022-05-27T13:51:31.847Z</time>
      </trkpt>
      <trkpt lat="43.69278" lon="1.47979">
        <ele>237.596111</ele>
        <time>2022-05-27T13:51:33.829Z</time>
      </trkpt>
      <trkpt lat="43.69281" lon="1.47959">
        <ele>238.15213</ele>
        <time>2022-05-27T13:51:35.849Z</time>
      </trkpt>
      <trkpt lat="43.69282" lon="1.4794">
        <ele>238.686363</ele>
        <time>2022-05-27T13:51:37.861Z</time>
      </trkpt>
      <trkpt lat="43.69282" lon="1.47923">
        <ele>239.162618</ele>
        <time>2022-05-27T13:51:39.835Z</time>
      </trkpt>
      <trkpt lat="43.69284" lon="1.47908">
        <ele>239.577663</ele>
        <time>2022-05-27T13:51:41.848Z</time>
      </trkpt>
      <trkpt lat="43.69287" lon="1.47896">
        <ele>239.943893</ele>
        <time>2022-05-27T13:51:43.827Z</time>
      </trkpt>
      <trkpt lat="43.69292" lon="1.47879">
        <ele>240.445423</ele>
        <time>2022-05-27T13:51:46.828Z</time>
      </trkpt>
      <trkpt lat="43.69301" lon="1.47865">
        <ele>240.977216</ele>
        <time>2022-05-27T13:51:49.839Z</time>
      </trkpt>
      <trkpt lat="43.69307" lon="1.47853">
        <ele>241.371582</ele>
        <time>2022-05-27T13:51:51.846Z</time>
      </trkpt>
      <trkpt lat="43.69312" lon="1.47841">
        <ele>241.770822</ele>
        <time>2022-05-27T13:51:53.857Z</time>
      </trkpt>
      <trkpt lat="43.69318" lon="1.4783">
        <ele>242.1539</ele>
        <time>2022-05-27T13:51:55.876Z</time>
      </trkpt>
      <trkpt lat="43.69324" lon="1.4782">
        <ele>242.51279</ele>
        <time>2022-05-27T13:51:57.854Z</time>
      </trkpt>
      <trkpt lat="43.69329" lon="1.4781">
        <ele>242.864386</ele>
        <time>2022-05-27T13:51:59.852Z</time>
      </trkpt>
      <trkpt lat="43.69335" lon="1.47799">
        <ele>243.222676</ele>
        <time>2022-05-27T13:52:01.854Z</time>
      </trkpt>
      <trkpt lat="43.69342" lon="1.47785">
        <ele>243.698322</ele>
        <time>2022-05-27T13:52:04.842Z</time>
      </trkpt>
      <trkpt lat="43.6935" lon="1.47778">
        <ele>244.073592</ele>
        <time>2022-05-27T13:52:07.830Z</time>
      </trkpt>
      <trkpt lat="43.69364" lon="1.47778">
        <ele>244.576309</ele>
        <time>2022-05-27T13:52:10.853Z</time>
      </trkpt>
      <trkpt lat="43.69373" lon="1.47777">
        <ele>244.949489</ele>
        <time>2022-05-27T13:52:12.882Z</time>
      </trkpt>
      <trkpt lat="43.69384" lon="1.47777">
        <ele>245.341752</ele>
        <time>2022-05-27T13:52:14.862Z</time>
      </trkpt>
      <trkpt lat="43.69394" lon="1.47776">
        <ele>245.741886</ele>
        <time>2022-05-27T13:52:16.852Z</time>
      </trkpt>
      <trkpt lat="43.69405" lon="1.47777">
        <ele>246.153248</ele>
        <time>2022-05-27T13:52:18.858Z</time>
      </trkpt>
      <trkpt lat="43.69416" lon="1.47777">
        <ele>246.564462</ele>
        <time>2022-05-27T13:52:20.855Z</time>
      </trkpt>
      <trkpt lat="43.69426" lon="1.47777">
        <ele>246.960533</ele>
        <time>2022-05-27T13:52:22.868Z</time>
      </trkpt>
      <trkpt lat="43.69436" lon="1.47773">
        <ele>247.362745</ele>
        <time>2022-05-27T13:52:24.846Z</time>
      </trkpt>
      <trkpt lat="43.69444" lon="1.47762">
        <ele>247.781603</ele>
        <time>2022-05-27T13:52:26.841Z</time>
      </trkpt>
      <trkpt lat="43.69451" lon="1.4775">
        <ele>248.207719</ele>
        <time>2022-05-27T13:52:28.837Z</time>
      </trkpt>
      <trkpt lat="43.69456" lon="1.47736">
        <ele>248.631425</ele>
        <time>2022-05-27T13:52:30.839Z</time>
      </trkpt>
      <trkpt lat="43.69462" lon="1.47723">
        <ele>249.052754</ele>
        <time>2022-05-27T13:52:32.856Z</time>
      </trkpt>
      <trkpt lat="43.69468" lon="1.47711">
        <ele>249.457019</ele>
        <time>2022-05-27T13:52:34.864Z</time>
      </trkpt>
      <trkpt lat="43.69474" lon="1.47699">
        <ele>249.869905</ele>
        <time>2022-05-27T13:52:36.845Z</time>
      </trkpt>
      <trkpt lat="43.6948" lon="1.47686">
        <ele>250.329206</ele>
        <time>2022-05-27T13:52:38.870Z</time>
      </trkpt>
      <trkpt lat="43.69484" lon="1.47672">
        <ele>250.808078</ele>
        <time>2022-05-27T13:52:40.855Z</time>
      </trkpt>
      <trkpt lat="43.69486" lon="1.47656">
        <ele>251.30678</ele>
        <time>2022-05-27T13:52:42.834Z</time>
      </trkpt>
      <trkpt lat="43.69488" lon="1.47641">
        <ele>251.795619</ele>
        <time>2022-05-27T13:52:44.830Z</time>
      </trkpt>
      <trkpt lat="43.6949" lon="1.47628">
        <ele>252.23565</ele>
        <time>2022-05-27T13:52:46.862Z</time>
      </trkpt>
      <trkpt lat="43.69491" lon="1.47614">
        <ele>252.701691</ele>
        <time>2022-05-27T13:52:48.837Z</time>
      </trkpt>
      <trkpt lat="43.69494" lon="1.47599">
        <ele>253.183324</ele>
        <time>2022-05-27T13:52:50.867Z</time>
      </trkpt>
      <trkpt lat="43.69497" lon="1.47584">
        <ele>253.674208</ele>
        <time>2022-05-27T13:52:52.862Z</time>
      </trkpt>
      <trkpt lat="43.69503" lon="1.47572">
        <ele>254.148272</ele>
        <time>2022-05-27T13:52:54.839Z</time>
      </trkpt>
      <trkpt lat="43.6951" lon="1.47561">
        <ele>254.630118</ele>
        <time>2022-05-27T13:52:56.857Z</time>
      </trkpt>
      <trkpt lat="43.69518" lon="1.4755">
        <ele>255.115028</ele>
        <time>2022-05-27T13:52:58.852Z</time>
      </trkpt>
      <trkpt lat="43.69525" lon="1.47539">
        <ele>255.592017</ele>
        <time>2022-05-27T13:53:00.860Z</time>
      </trkpt>
      <trkpt lat="43.69532" lon="1.47527">
        <ele>256.062809</ele>
        <time>2022-05-27T13:53:02.858Z</time>
      </trkpt>
      <trkpt lat="43.69539" lon="1.47515">
        <ele>256.567458</ele>
        <time>2022-05-27T13:53:05.839Z</time>
      </trkpt>
      <trkpt lat="43.69549" lon="1.4752">
        <ele>257.010154</ele>
        <time>2022-05-27T13:53:09.863Z</time>
      </trkpt>
      <trkpt lat="43.69559" lon="1.47529">
        <ele>257.548051</ele>
        <time>2022-05-27T13:53:12.854Z</time>
      </trkpt>
      <trkpt lat="43.69567" lon="1.47537">
        <ele>257.992491</ele>
        <time>2022-05-27T13:53:14.832Z</time>
      </trkpt>
      <trkpt lat="43.69575" lon="1.47547">
        <ele>258.248496</ele>
        <time>2022-05-27T13:53:16.843Z</time>
      </trkpt>
      <trkpt lat="43.69579" lon="1.47561">
        <ele>258.474809</ele>
        <time>2022-05-27T13:53:18.843Z</time>
      </trkpt>
      <trkpt lat="43.69581" lon="1.47577">
        <ele>258.708497</ele>
        <time>2022-05-27T13:53:20.843Z</time>
      </trkpt>
      <trkpt lat="43.69583" lon="1.47593">
        <ele>258.945848</ele>
        <time>2022-05-27T13:53:22.842Z</time>
      </trkpt>
      <trkpt lat="43.69588" lon="1.47609">
        <ele>259.187027</ele>
        <time>2022-05-27T13:53:24.848Z</time>
      </trkpt>
      <trkpt lat="43.69592" lon="1.47624">
        <ele>259.42755</ele>
        <time>2022-05-27T13:53:26.859Z</time>
      </trkpt>
      <trkpt lat="43.69598" lon="1.47638">
        <ele>259.669148</ele>
        <time>2022-05-27T13:53:28.873Z</time>
      </trkpt>
      <trkpt lat="43.69604" lon="1.47652">
        <ele>259.913279</ele>
        <time>2022-05-27T13:53:30.835Z</time>
      </trkpt>
      <trkpt lat="43.6961" lon="1.47666">
        <ele>260.146789</ele>
        <time>2022-05-27T13:53:32.862Z</time>
      </trkpt>
      <trkpt lat="43.69616" lon="1.4768">
        <ele>260.383144</ele>
        <time>2022-05-27T13:53:34.873Z</time>
      </trkpt>
      <trkpt lat="43.69622" lon="1.47694">
        <ele>260.619936</ele>
        <time>2022-05-27T13:53:36.844Z</time>
      </trkpt>
      <trkpt lat="43.69628" lon="1.47707">
        <ele>260.846898</ele>
        <time>2022-05-27T13:53:38.876Z</time>
      </trkpt>
      <trkpt lat="43.69633" lon="1.4772">
        <ele>261.065981</ele>
        <time>2022-05-27T13:53:40.837Z</time>
      </trkpt>
      <trkpt lat="43.69638" lon="1.47731">
        <ele>261.251059</ele>
        <time>2022-05-27T13:53:42.858Z</time>
      </trkpt>
      <trkpt lat="43.69642" lon="1.47743">
        <ele>261.447859</ele>
        <time>2022-05-27T13:53:45.839Z</time>
      </trkpt>
      <trkpt lat="43.69641" lon="1.47759">
        <ele>261.673988</ele>
        <time>2022-05-27T13:53:50.844Z</time>
      </trkpt>
      <trkpt lat="43.69651" lon="1.47766">
        <ele>261.638288</ele>
        <time>2022-05-27T13:54:00.841Z</time>
      </trkpt>
      <trkpt lat="43.69658" lon="1.47775">
        <ele>261.566205</ele>
        <time>2022-05-27T13:54:03.849Z</time>
      </trkpt>
      <trkpt lat="43.69668" lon="1.47786">
        <ele>261.468046</ele>
        <time>2022-05-27T13:54:06.870Z</time>
      </trkpt>
      <trkpt lat="43.69676" lon="1.47795">
        <ele>261.396653</ele>
        <time>2022-05-27T13:54:08.857Z</time>
      </trkpt>
      <trkpt lat="43.69684" lon="1.47804">
        <ele>261.321944</ele>
        <time>2022-05-27T13:54:10.861Z</time>
      </trkpt>
      <trkpt lat="43.69692" lon="1.47813">
        <ele>261.242208</ele>
        <time>2022-05-27T13:54:12.861Z</time>
      </trkpt>
      <trkpt lat="43.69701" lon="1.47823">
        <ele>261.157588</ele>
        <time>2022-05-27T13:54:14.846Z</time>
      </trkpt>
      <trkpt lat="43.69711" lon="1.4783">
        <ele>261.072379</ele>
        <time>2022-05-27T13:54:16.861Z</time>
      </trkpt>
      <trkpt lat="43.69722" lon="1.47836">
        <ele>260.985505</ele>
        <time>2022-05-27T13:54:18.866Z</time>
      </trkpt>
      <trkpt lat="43.69733" lon="1.47839">
        <ele>260.898839</ele>
        <time>2022-05-27T13:54:20.841Z</time>
      </trkpt>
      <trkpt lat="43.69745" lon="1.47839">
        <ele>260.811253</ele>
        <time>2022-05-27T13:54:22.846Z</time>
      </trkpt>
      <trkpt lat="43.69758" lon="1.47838">
        <ele>260.718081</ele>
        <time>2022-05-27T13:54:24.854Z</time>
      </trkpt>
      <trkpt lat="43.69771" lon="1.47835">
        <ele>260.620171</ele>
        <time>2022-05-27T13:54:26.841Z</time>
      </trkpt>
      <trkpt lat="43.69784" lon="1.4783">
        <ele>260.518871</ele>
        <time>2022-05-27T13:54:28.859Z</time>
      </trkpt>
      <trkpt lat="43.69797" lon="1.47824">
        <ele>260.416395</ele>
        <time>2022-05-27T13:54:30.855Z</time>
      </trkpt>
      <trkpt lat="43.69811" lon="1.47819">
        <ele>259.931554</ele>
        <time>2022-05-27T13:54:32.843Z</time>
      </trkpt>
      <trkpt lat="43.69824" lon="1.47813">
        <ele>259.165658</ele>
        <time>2022-05-27T13:54:34.872Z</time>
      </trkpt>
      <trkpt lat="43.69839" lon="1.47808">
        <ele>258.367796</ele>
        <time>2022-05-27T13:54:36.854Z</time>
      </trkpt>
      <trkpt lat="43.69853" lon="1.47801">
        <ele>257.542725</ele>
        <time>2022-05-27T13:54:38.865Z</time>
      </trkpt>
      <trkpt lat="43.69868" lon="1.47796">
        <ele>256.713661</ele>
        <time>2022-05-27T13:54:40.843Z</time>
      </trkpt>
      <trkpt lat="43.69883" lon="1.47787">
        <ele>255.864826</ele>
        <time>2022-05-27T13:54:42.823Z</time>
      </trkpt>
      <trkpt lat="43.69894" lon="1.47771">
        <ele>254.977777</ele>
        <time>2022-05-27T13:54:44.855Z</time>
      </trkpt>
      <trkpt lat="43.69907" lon="1.47754">
        <ele>254.069529</ele>
        <time>2022-05-27T13:54:46.842Z</time>
      </trkpt>
      <trkpt lat="43.69918" lon="1.47737">
        <ele>253.144821</ele>
        <time>2022-05-27T13:54:48.862Z</time>
      </trkpt>
      <trkpt lat="43.69931" lon="1.4772">
        <ele>252.208794</ele>
        <time>2022-05-27T13:54:50.838Z</time>
      </trkpt>
      <trkpt lat="43.69943" lon="1.47702">
        <ele>251.241383</ele>
        <time>2022-05-27T13:54:52.857Z</time>
      </trkpt>
      <trkpt lat="43.6995" lon="1.47693">
        <ele>250.731413</ele>
        <time>2022-05-27T13:54:53.865Z</time>
      </trkpt>
      <trkpt lat="43.69957" lon="1.47684">
        <ele>250.36675</ele>
        <time>2022-05-27T13:54:54.862Z</time>
      </trkpt>
      <trkpt lat="43.69964" lon="1.47675">
        <ele>250.002668</ele>
        <time>2022-05-27T13:54:55.860Z</time>
      </trkpt>
      <trkpt lat="43.69971" lon="1.47665">
        <ele>249.64128</ele>
        <time>2022-05-27T13:54:56.870Z</time>
      </trkpt>
      <trkpt lat="43.69979" lon="1.47656">
        <ele>249.280879</ele>
        <time>2022-05-27T13:54:57.824Z</time>
      </trkpt>
      <trkpt lat="43.69986" lon="1.47648">
        <ele>248.927318</ele>
        <time>2022-05-27T13:54:58.875Z</time>
      </trkpt>
      <trkpt lat="43.69993" lon="1.4764">
        <ele>248.580908</ele>
        <time>2022-05-27T13:54:59.850Z</time>
      </trkpt>
      <trkpt lat="43.70001" lon="1.47633">
        <ele>248.235876</ele>
        <time>2022-05-27T13:55:00.850Z</time>
      </trkpt>
      <trkpt lat="43.7001" lon="1.47628">
        <ele>247.888722</ele>
        <time>2022-05-27T13:55:01.822Z</time>
      </trkpt>
      <trkpt lat="43.70018" lon="1.47624">
        <ele>247.55137</ele>
        <time>2022-05-27T13:55:02.851Z</time>
      </trkpt>
      <trkpt lat="43.70027" lon="1.47622">
        <ele>247.20904</ele>
        <time>2022-05-27T13:55:03.850Z</time>
      </trkpt>
      <trkpt lat="43.70036" lon="1.4762">
        <ele>246.866378</ele>
        <time>2022-05-27T13:55:04.865Z</time>
      </trkpt>
      <trkpt lat="43.70045" lon="1.47619">
        <ele>246.530749</ele>
        <time>2022-05-27T13:55:05.850Z</time>
      </trkpt>
      <trkpt lat="43.70063" lon="1.47621">
        <ele>245.863209</ele>
        <time>2022-05-27T13:55:07.843Z</time>
      </trkpt>
      <trkpt lat="43.70081" lon="1.47624">
        <ele>245.208142</ele>
        <time>2022-05-27T13:55:09.845Z</time>
      </trkpt>
      <trkpt lat="43.70098" lon="1.47628">
        <ele>244.557153</ele>
        <time>2022-05-27T13:55:11.847Z</time>
      </trkpt>
      <trkpt lat="43.70115" lon="1.4763">
        <ele>244.048668</ele>
        <time>2022-05-27T13:55:13.852Z</time>
      </trkpt>
      <trkpt lat="43.70133" lon="1.47628">
        <ele>244.133275</ele>
        <time>2022-05-27T13:55:15.853Z</time>
      </trkpt>
      <trkpt lat="43.70149" lon="1.47623">
        <ele>244.214879</ele>
        <time>2022-05-27T13:55:17.854Z</time>
      </trkpt>
      <trkpt lat="43.70164" lon="1.47614">
        <ele>244.294091</ele>
        <time>2022-05-27T13:55:19.849Z</time>
      </trkpt>
      <trkpt lat="43.70179" lon="1.47607">
        <ele>244.369825</ele>
        <time>2022-05-27T13:55:21.870Z</time>
      </trkpt>
      <trkpt lat="43.70193" lon="1.47605">
        <ele>244.442888</ele>
        <time>2022-05-27T13:55:23.850Z</time>
      </trkpt>
      <trkpt lat="43.70207" lon="1.4761">
        <ele>244.509277</ele>
        <time>2022-05-27T13:55:25.847Z</time>
      </trkpt>
      <trkpt lat="43.70217" lon="1.47618">
        <ele>244.568983</ele>
        <time>2022-05-27T13:55:27.867Z</time>
      </trkpt>
      <trkpt lat="43.70227" lon="1.47626">
        <ele>244.624988</ele>
        <time>2022-05-27T13:55:29.854Z</time>
      </trkpt>
      <trkpt lat="43.70237" lon="1.47634">
        <ele>244.680744</ele>
        <time>2022-05-27T13:55:31.844Z</time>
      </trkpt>
      <trkpt lat="43.70248" lon="1.47641">
        <ele>244.737772</ele>
        <time>2022-05-27T13:55:33.869Z</time>
      </trkpt>
      <trkpt lat="43.70258" lon="1.47649">
        <ele>244.795747</ele>
        <time>2022-05-27T13:55:35.856Z</time>
      </trkpt>
      <trkpt lat="43.70269" lon="1.47657">
        <ele>244.853889</ele>
        <time>2022-05-27T13:55:37.858Z</time>
      </trkpt>
      <trkpt lat="43.7028" lon="1.47664">
        <ele>244.889572</ele>
        <time>2022-05-27T13:55:39.850Z</time>
      </trkpt>
      <trkpt lat="43.70291" lon="1.47671">
        <ele>244.552724</ele>
        <time>2022-05-27T13:55:41.853Z</time>
      </trkpt>
      <trkpt lat="43.70303" lon="1.47678">
        <ele>244.197192</ele>
        <time>2022-05-27T13:55:43.847Z</time>
      </trkpt>
      <trkpt lat="43.70315" lon="1.47685">
        <ele>243.829237</ele>
        <time>2022-05-27T13:55:45.834Z</time>
      </trkpt>
      <trkpt lat="43.70329" lon="1.47691">
        <ele>243.432032</ele>
        <time>2022-05-27T13:55:47.831Z</time>
      </trkpt>
      <trkpt lat="43.70344" lon="1.47698">
        <ele>243.004596</ele>
        <time>2022-05-27T13:55:49.878Z</time>
      </trkpt>
      <trkpt lat="43.70358" lon="1.47705">
        <ele>242.57676</ele>
        <time>2022-05-27T13:55:51.848Z</time>
      </trkpt>
      <trkpt lat="43.70374" lon="1.47715">
        <ele>242.118507</ele>
        <time>2022-05-27T13:55:53.852Z</time>
      </trkpt>
      <trkpt lat="43.70389" lon="1.47722">
        <ele>241.672399</ele>
        <time>2022-05-27T13:55:55.863Z</time>
      </trkpt>
      <trkpt lat="43.70404" lon="1.4773">
        <ele>241.226433</ele>
        <time>2022-05-27T13:55:57.858Z</time>
      </trkpt>
      <trkpt lat="43.70419" lon="1.47737">
        <ele>240.783059</ele>
        <time>2022-05-27T13:55:59.857Z</time>
      </trkpt>
      <trkpt lat="43.70435" lon="1.47743">
        <ele>240.343908</ele>
        <time>2022-05-27T13:56:01.855Z</time>
      </trkpt>
      <trkpt lat="43.70449" lon="1.47751">
        <ele>239.95027</ele>
        <time>2022-05-27T13:56:03.874Z</time>
      </trkpt>
      <trkpt lat="43.70463" lon="1.47758">
        <ele>239.804994</ele>
        <time>2022-05-27T13:56:05.850Z</time>
      </trkpt>
      <trkpt lat="43.70477" lon="1.47764">
        <ele>239.668149</ele>
        <time>2022-05-27T13:56:07.856Z</time>
      </trkpt>
      <trkpt lat="43.7049" lon="1.47769">
        <ele>239.53376</ele>
        <time>2022-05-27T13:56:09.840Z</time>
      </trkpt>
      <trkpt lat="43.70504" lon="1.47771">
        <ele>239.402872</ele>
        <time>2022-05-27T13:56:11.842Z</time>
      </trkpt>
      <trkpt lat="43.70517" lon="1.47773">
        <ele>239.270602</ele>
        <time>2022-05-27T13:56:13.850Z</time>
      </trkpt>
      <trkpt lat="43.70531" lon="1.47775">
        <ele>239.139574</ele>
        <time>2022-05-27T13:56:15.856Z</time>
      </trkpt>
      <trkpt lat="43.70544" lon="1.47777">
        <ele>239.009375</ele>
        <time>2022-05-27T13:56:17.862Z</time>
      </trkpt>
      <trkpt lat="43.70558" lon="1.47779">
        <ele>238.880272</ele>
        <time>2022-05-27T13:56:19.862Z</time>
      </trkpt>
      <trkpt lat="43.70571" lon="1.4778">
        <ele>238.750208</ele>
        <time>2022-05-27T13:56:21.855Z</time>
      </trkpt>
      <trkpt lat="43.70584" lon="1.47782">
        <ele>238.619935</ele>
        <time>2022-05-27T13:56:23.862Z</time>
      </trkpt>
      <trkpt lat="43.70598" lon="1.47785">
        <ele>238.488461</ele>
        <time>2022-05-27T13:56:25.864Z</time>
      </trkpt>
      <trkpt lat="43.70611" lon="1.47787">
        <ele>238.357071</ele>
        <time>2022-05-27T13:56:27.848Z</time>
      </trkpt>
      <trkpt lat="43.70625" lon="1.47789">
        <ele>238.224131</ele>
        <time>2022-05-27T13:56:29.860Z</time>
      </trkpt>
      <trkpt lat="43.70638" lon="1.47792">
        <ele>238.077323</ele>
        <time>2022-05-27T13:56:31.846Z</time>
      </trkpt>
      <trkpt lat="43.70652" lon="1.47795">
        <ele>237.933461</ele>
        <time>2022-05-27T13:56:33.844Z</time>
      </trkpt>
      <trkpt lat="43.70665" lon="1.47798">
        <ele>237.792086</ele>
        <time>2022-05-27T13:56:35.870Z</time>
      </trkpt>
      <trkpt lat="43.70677" lon="1.478">
        <ele>237.653901</ele>
        <time>2022-05-27T13:56:37.843Z</time>
      </trkpt>
      <trkpt lat="43.70689" lon="1.47803">
        <ele>237.523392</ele>
        <time>2022-05-27T13:56:39.855Z</time>
      </trkpt>
      <trkpt lat="43.70701" lon="1.47806">
        <ele>237.390906</ele>
        <time>2022-05-27T13:56:41.858Z</time>
      </trkpt>
      <trkpt lat="43.70713" lon="1.47809">
        <ele>237.261736</ele>
        <time>2022-05-27T13:56:43.868Z</time>
      </trkpt>
      <trkpt lat="43.70725" lon="1.47814">
        <ele>237.131522</ele>
        <time>2022-05-27T13:56:45.853Z</time>
      </trkpt>
      <trkpt lat="43.70736" lon="1.4782">
        <ele>237.004189</ele>
        <time>2022-05-27T13:56:47.850Z</time>
      </trkpt>
      <trkpt lat="43.70747" lon="1.47826">
        <ele>236.88042</ele>
        <time>2022-05-27T13:56:49.861Z</time>
      </trkpt>
      <trkpt lat="43.70757" lon="1.47831">
        <ele>236.756166</ele>
        <time>2022-05-27T13:56:51.850Z</time>
      </trkpt>
      <trkpt lat="43.70768" lon="1.47837">
        <ele>236.632995</ele>
        <time>2022-05-27T13:56:53.856Z</time>
      </trkpt>
      <trkpt lat="43.70779" lon="1.47843">
        <ele>236.509824</ele>
        <time>2022-05-27T13:56:55.840Z</time>
      </trkpt>
      <trkpt lat="43.7079" lon="1.47849">
        <ele>236.374621</ele>
        <time>2022-05-27T13:56:57.852Z</time>
      </trkpt>
      <trkpt lat="43.70803" lon="1.47855">
        <ele>236.143134</ele>
        <time>2022-05-27T13:56:59.861Z</time>
      </trkpt>
      <trkpt lat="43.70815" lon="1.47859">
        <ele>235.798553</ele>
        <time>2022-05-27T13:57:01.863Z</time>
      </trkpt>
      <trkpt lat="43.70828" lon="1.47862">
        <ele>235.453613</ele>
        <time>2022-05-27T13:57:03.847Z</time>
      </trkpt>
      <trkpt lat="43.70841" lon="1.47858">
        <ele>235.096567</ele>
        <time>2022-05-27T13:57:05.836Z</time>
      </trkpt>
      <trkpt lat="43.70853" lon="1.47849">
        <ele>234.733628</ele>
        <time>2022-05-27T13:57:07.876Z</time>
      </trkpt>
      <trkpt lat="43.70864" lon="1.47838">
        <ele>234.369266</ele>
        <time>2022-05-27T13:57:09.860Z</time>
      </trkpt>
      <trkpt lat="43.70875" lon="1.47827">
        <ele>234.011595</ele>
        <time>2022-05-27T13:57:11.860Z</time>
      </trkpt>
      <trkpt lat="43.70886" lon="1.47818">
        <ele>233.659729</ele>
        <time>2022-05-27T13:57:13.856Z</time>
      </trkpt>
      <trkpt lat="43.70899" lon="1.4781">
        <ele>233.296824</ele>
        <time>2022-05-27T13:57:15.848Z</time>
      </trkpt>
      <trkpt lat="43.70912" lon="1.47804">
        <ele>232.914928</ele>
        <time>2022-05-27T13:57:17.848Z</time>
      </trkpt>
      <trkpt lat="43.70926" lon="1.478">
        <ele>232.541382</ele>
        <time>2022-05-27T13:57:19.858Z</time>
      </trkpt>
      <trkpt lat="43.70939" lon="1.478">
        <ele>232.185457</ele>
        <time>2022-05-27T13:57:21.863Z</time>
      </trkpt>
      <trkpt lat="43.70952" lon="1.47801">
        <ele>231.83713</ele>
        <time>2022-05-27T13:57:23.858Z</time>
      </trkpt>
      <trkpt lat="43.70965" lon="1.47803">
        <ele>231.489532</ele>
        <time>2022-05-27T13:57:25.863Z</time>
      </trkpt>
      <trkpt lat="43.70978" lon="1.47806">
        <ele>231.47665</ele>
        <time>2022-05-27T13:57:27.849Z</time>
      </trkpt>
      <trkpt lat="43.7099" lon="1.47812">
        <ele>231.470757</ele>
        <time>2022-05-27T13:57:29.836Z</time>
      </trkpt>
      <trkpt lat="43.71001" lon="1.47821">
        <ele>231.464934</ele>
        <time>2022-05-27T13:57:31.862Z</time>
      </trkpt>
      <trkpt lat="43.71012" lon="1.4783">
        <ele>231.459341</ele>
        <time>2022-05-27T13:57:33.852Z</time>
      </trkpt>
      <trkpt lat="43.71023" lon="1.47832">
        <ele>231.454032</ele>
        <time>2022-05-27T13:57:35.851Z</time>
      </trkpt>
      <trkpt lat="43.71033" lon="1.47837">
        <ele>231.449261</ele>
        <time>2022-05-27T13:57:37.864Z</time>
      </trkpt>
      <trkpt lat="43.71042" lon="1.47845">
        <ele>231.44468</ele>
        <time>2022-05-27T13:57:39.831Z</time>
      </trkpt>
      <trkpt lat="43.7105" lon="1.47853">
        <ele>231.440194</ele>
        <time>2022-05-27T13:57:41.867Z</time>
      </trkpt>
      <trkpt lat="43.71058" lon="1.47862">
        <ele>231.43544</ele>
        <time>2022-05-27T13:57:43.888Z</time>
      </trkpt>
      <trkpt lat="43.71068" lon="1.47871">
        <ele>231.430303</ele>
        <time>2022-05-27T13:57:45.862Z</time>
      </trkpt>
      <trkpt lat="43.71077" lon="1.47881">
        <ele>231.425074</ele>
        <time>2022-05-27T13:57:47.855Z</time>
      </trkpt>
      <trkpt lat="43.71087" lon="1.47889">
        <ele>231.419988</ele>
        <time>2022-05-27T13:57:49.865Z</time>
      </trkpt>
      <trkpt lat="43.71097" lon="1.47897">
        <ele>231.414637</ele>
        <time>2022-05-27T13:57:51.852Z</time>
      </trkpt>
      <trkpt lat="43.71107" lon="1.47906">
        <ele>231.40923</ele>
        <time>2022-05-27T13:57:53.837Z</time>
      </trkpt>
      <trkpt lat="43.71118" lon="1.47914">
        <ele>231.40373</ele>
        <time>2022-05-27T13:57:55.861Z</time>
      </trkpt>
      <trkpt lat="43.71128" lon="1.47923">
        <ele>231.257872</ele>
        <time>2022-05-27T13:57:57.843Z</time>
      </trkpt>
      <trkpt lat="43.7114" lon="1.47931">
        <ele>230.983812</ele>
        <time>2022-05-27T13:57:59.858Z</time>
      </trkpt>
      <trkpt lat="43.71152" lon="1.47937">
        <ele>230.7016</ele>
        <time>2022-05-27T13:58:01.856Z</time>
      </trkpt>
      <trkpt lat="43.71165" lon="1.47938">
        <ele>230.415185</ele>
        <time>2022-05-27T13:58:03.850Z</time>
      </trkpt>
      <trkpt lat="43.71178" lon="1.47933">
        <ele>230.131337</ele>
        <time>2022-05-27T13:58:05.850Z</time>
      </trkpt>
      <trkpt lat="43.71189" lon="1.47922">
        <ele>229.848538</ele>
        <time>2022-05-27T13:58:07.848Z</time>
      </trkpt>
      <trkpt lat="43.71198" lon="1.47908">
        <ele>229.56797</ele>
        <time>2022-05-27T13:58:09.836Z</time>
      </trkpt>
      <trkpt lat="43.71208" lon="1.47897">
        <ele>229.291589</ele>
        <time>2022-05-27T13:58:11.833Z</time>
      </trkpt>
      <trkpt lat="43.71216" lon="1.47883">
        <ele>229.017354</ele>
        <time>2022-05-27T13:58:13.858Z</time>
      </trkpt>
      <trkpt lat="43.71222" lon="1.47866">
        <ele>228.725681</ele>
        <time>2022-05-27T13:58:15.836Z</time>
      </trkpt>
      <trkpt lat="43.71227" lon="1.47848">
        <ele>228.425214</ele>
        <time>2022-05-27T13:58:17.864Z</time>
      </trkpt>
      <trkpt lat="43.71232" lon="1.47829">
        <ele>228.122017</ele>
        <time>2022-05-27T13:58:19.848Z</time>
      </trkpt>
      <trkpt lat="43.71236" lon="1.47811">
        <ele>227.824773</ele>
        <time>2022-05-27T13:58:21.865Z</time>
      </trkpt>
      <trkpt lat="43.71241" lon="1.47794">
        <ele>227.550799</ele>
        <time>2022-05-27T13:58:23.854Z</time>
      </trkpt>
      <trkpt lat="43.71248" lon="1.47778">
        <ele>227.427516</ele>
        <time>2022-05-27T13:58:25.844Z</time>
      </trkpt>
      <trkpt lat="43.71255" lon="1.47762">
        <ele>227.298879</ele>
        <time>2022-05-27T13:58:27.866Z</time>
      </trkpt>
      <trkpt lat="43.71262" lon="1.47746">
        <ele>227.167222</ele>
        <time>2022-05-27T13:58:29.863Z</time>
      </trkpt>
      <trkpt lat="43.71269" lon="1.4773">
        <ele>227.038586</ele>
        <time>2022-05-27T13:58:31.891Z</time>
      </trkpt>
      <trkpt lat="43.71275" lon="1.47713">
        <ele>226.910476</ele>
        <time>2022-05-27T13:58:33.875Z</time>
      </trkpt>
      <trkpt lat="43.71283" lon="1.47697">
        <ele>226.783751</ele>
        <time>2022-05-27T13:58:35.854Z</time>
      </trkpt>
      <trkpt lat="43.71288" lon="1.47686">
        <ele>226.688768</ele>
        <time>2022-05-27T13:58:37.840Z</time>
      </trkpt>
      <trkpt lat="43.71298" lon="1.47685">
        <ele>226.597742</ele>
        <time>2022-05-27T13:58:41.844Z</time>
      </trkpt>
      <trkpt lat="43.71307" lon="1.47692">
        <ele>226.497128</ele>
        <time>2022-05-27T13:58:46.848Z</time>
      </trkpt>
      <trkpt lat="43.71316" lon="1.47693">
        <ele>226.406975</ele>
        <time>2022-05-27T13:58:53.854Z</time>
      </trkpt>
      <trkpt lat="43.71327" lon="1.47701">
        <ele>226.2931</ele>
        <time>2022-05-27T13:58:56.836Z</time>
      </trkpt>
      <trkpt lat="43.71335" lon="1.47709">
        <ele>226.196503</ele>
        <time>2022-05-27T13:58:58.844Z</time>
      </trkpt>
      <trkpt lat="43.71345" lon="1.47718">
        <ele>226.086659</ele>
        <time>2022-05-27T13:59:00.866Z</time>
      </trkpt>
      <trkpt lat="43.71355" lon="1.47728">
        <ele>225.96825</ele>
        <time>2022-05-27T13:59:02.869Z</time>
      </trkpt>
      <trkpt lat="43.71366" lon="1.47738">
        <ele>225.889619</ele>
        <time>2022-05-27T13:59:04.848Z</time>
      </trkpt>
      <trkpt lat="43.71376" lon="1.47748">
        <ele>226.107264</ele>
        <time>2022-05-27T13:59:06.862Z</time>
      </trkpt>
      <trkpt lat="43.71386" lon="1.47757">
        <ele>226.329442</ele>
        <time>2022-05-27T13:59:08.854Z</time>
      </trkpt>
      <trkpt lat="43.71395" lon="1.47766">
        <ele>226.543301</ele>
        <time>2022-05-27T13:59:10.853Z</time>
      </trkpt>
      <trkpt lat="43.71405" lon="1.47775">
        <ele>226.754894</ele>
        <time>2022-05-27T13:59:12.861Z</time>
      </trkpt>
      <trkpt lat="43.71414" lon="1.47784">
        <ele>226.963464</ele>
        <time>2022-05-27T13:59:14.856Z</time>
      </trkpt>
      <trkpt lat="43.71424" lon="1.47793">
        <ele>227.174366</ele>
        <time>2022-05-27T13:59:16.858Z</time>
      </trkpt>
      <trkpt lat="43.71433" lon="1.47801">
        <ele>227.379158</ele>
        <time>2022-05-27T13:59:18.860Z</time>
      </trkpt>
      <trkpt lat="43.71442" lon="1.4781">
        <ele>227.587903</ele>
        <time>2022-05-27T13:59:20.854Z</time>
      </trkpt>
      <trkpt lat="43.71451" lon="1.4782">
        <ele>227.799014</ele>
        <time>2022-05-27T13:59:22.870Z</time>
      </trkpt>
      <trkpt lat="43.7146" lon="1.47827">
        <ele>227.983406</ele>
        <time>2022-05-27T13:59:24.861Z</time>
      </trkpt>
      <trkpt lat="43.7147" lon="1.47836">
        <ele>228.204906</ele>
        <time>2022-05-27T13:59:28.873Z</time>
      </trkpt>
      <trkpt lat="43.71478" lon="1.47844">
        <ele>228.3772</ele>
        <time>2022-05-27T13:59:30.860Z</time>
      </trkpt>
      <trkpt lat="43.71486" lon="1.47853">
        <ele>228.578309</ele>
        <time>2022-05-27T13:59:32.857Z</time>
      </trkpt>
      <trkpt lat="43.71495" lon="1.47862">
        <ele>228.785434</ele>
        <time>2022-05-27T13:59:34.864Z</time>
      </trkpt>
      <trkpt lat="43.71505" lon="1.47871">
        <ele>228.994011</ele>
        <time>2022-05-27T13:59:36.856Z</time>
      </trkpt>
      <trkpt lat="43.71514" lon="1.47879">
        <ele>229.138709</ele>
        <time>2022-05-27T13:59:38.856Z</time>
      </trkpt>
      <trkpt lat="43.71523" lon="1.47888">
        <ele>228.966939</ele>
        <time>2022-05-27T13:59:40.864Z</time>
      </trkpt>
      <trkpt lat="43.71532" lon="1.47898">
        <ele>228.79591</ele>
        <time>2022-05-27T13:59:42.863Z</time>
      </trkpt>
      <trkpt lat="43.7154" lon="1.47906">
        <ele>228.639305</ele>
        <time>2022-05-27T13:59:44.852Z</time>
      </trkpt>
      <trkpt lat="43.71553" lon="1.47902">
        <ele>228.447024</ele>
        <time>2022-05-27T13:59:47.849Z</time>
      </trkpt>
      <trkpt lat="43.7156" lon="1.4789">
        <ele>228.266742</ele>
        <time>2022-05-27T13:59:50.849Z</time>
      </trkpt>
      <trkpt lat="43.71566" lon="1.47877">
        <ele>228.101</ele>
        <time>2022-05-27T13:59:53.861Z</time>
      </trkpt>
      <trkpt lat="43.71573" lon="1.47865">
        <ele>227.933498</ele>
        <time>2022-05-27T13:59:56.855Z</time>
      </trkpt>
      <trkpt lat="43.71582" lon="1.47852">
        <ele>227.730324</ele>
        <time>2022-05-27T13:59:59.858Z</time>
      </trkpt>
      <trkpt lat="43.71589" lon="1.47842">
        <ele>227.571656</ele>
        <time>2022-05-27T14:00:01.851Z</time>
      </trkpt>
      <trkpt lat="43.71597" lon="1.4783">
        <ele>227.39009</ele>
        <time>2022-05-27T14:00:03.842Z</time>
      </trkpt>
      <trkpt lat="43.71606" lon="1.47819">
        <ele>227.205734</ele>
        <time>2022-05-27T14:00:05.862Z</time>
      </trkpt>
      <trkpt lat="43.71616" lon="1.47807">
        <ele>227.00601</ele>
        <time>2022-05-27T14:00:07.855Z</time>
      </trkpt>
      <trkpt lat="43.71625" lon="1.47794">
        <ele>226.798484</ele>
        <time>2022-05-27T14:00:09.851Z</time>
      </trkpt>
      <trkpt lat="43.71634" lon="1.47779">
        <ele>226.585551</ele>
        <time>2022-05-27T14:00:11.858Z</time>
      </trkpt>
      <trkpt lat="43.71643" lon="1.47764">
        <ele>226.359377</ele>
        <time>2022-05-27T14:00:13.850Z</time>
      </trkpt>
      <trkpt lat="43.71653" lon="1.4775">
        <ele>226.0686</ele>
        <time>2022-05-27T14:00:15.867Z</time>
      </trkpt>
      <trkpt lat="43.71662" lon="1.47735">
        <ele>225.781891</ele>
        <time>2022-05-27T14:00:17.842Z</time>
      </trkpt>
      <trkpt lat="43.71671" lon="1.47721">
        <ele>225.49607</ele>
        <time>2022-05-27T14:00:19.852Z</time>
      </trkpt>
      <trkpt lat="43.71679" lon="1.47706">
        <ele>225.217123</ele>
        <time>2022-05-27T14:00:21.864Z</time>
      </trkpt>
      <trkpt lat="43.71688" lon="1.47692">
        <ele>224.933085</ele>
        <time>2022-05-27T14:00:23.845Z</time>
      </trkpt>
      <trkpt lat="43.71697" lon="1.47677">
        <ele>224.652648</ele>
        <time>2022-05-27T14:00:25.867Z</time>
      </trkpt>
      <trkpt lat="43.71705" lon="1.47662">
        <ele>224.37171</ele>
        <time>2022-05-27T14:00:27.853Z</time>
      </trkpt>
      <trkpt lat="43.71714" lon="1.47648">
        <ele>224.092908</ele>
        <time>2022-05-27T14:00:29.869Z</time>
      </trkpt>
      <trkpt lat="43.71723" lon="1.47634">
        <ele>223.821627</ele>
        <time>2022-05-27T14:00:31.862Z</time>
      </trkpt>
      <trkpt lat="43.71732" lon="1.47621">
        <ele>223.554255</ele>
        <time>2022-05-27T14:00:33.857Z</time>
      </trkpt>
      <trkpt lat="43.7174" lon="1.47608">
        <ele>223.294063</ele>
        <time>2022-05-27T14:00:35.842Z</time>
      </trkpt>
      <trkpt lat="43.71749" lon="1.47595">
        <ele>223.03722</ele>
        <time>2022-05-27T14:00:37.851Z</time>
      </trkpt>
      <trkpt lat="43.71757" lon="1.47582">
        <ele>222.784216</ele>
        <time>2022-05-27T14:00:39.848Z</time>
      </trkpt>
      <trkpt lat="43.71765" lon="1.4757">
        <ele>222.526062</ele>
        <time>2022-05-27T14:00:41.858Z</time>
      </trkpt>
      <trkpt lat="43.71773" lon="1.47557">
        <ele>222.270117</ele>
        <time>2022-05-27T14:00:43.855Z</time>
      </trkpt>
      <trkpt lat="43.71781" lon="1.47545">
        <ele>222.013927</ele>
        <time>2022-05-27T14:00:45.848Z</time>
      </trkpt>
      <trkpt lat="43.71789" lon="1.47532">
        <ele>221.755432</ele>
        <time>2022-05-27T14:00:47.858Z</time>
      </trkpt>
      <trkpt lat="43.71796" lon="1.47519">
        <ele>221.494999</ele>
        <time>2022-05-27T14:00:49.863Z</time>
      </trkpt>
      <trkpt lat="43.71804" lon="1.47506">
        <ele>221.233016</ele>
        <time>2022-05-27T14:00:51.836Z</time>
      </trkpt>
      <trkpt lat="43.71813" lon="1.47493">
        <ele>220.968864</ele>
        <time>2022-05-27T14:00:53.847Z</time>
      </trkpt>
      <trkpt lat="43.71821" lon="1.47481">
        <ele>220.706272</ele>
        <time>2022-05-27T14:00:55.858Z</time>
      </trkpt>
      <trkpt lat="43.71829" lon="1.47467">
        <ele>220.43855</ele>
        <time>2022-05-27T14:00:57.857Z</time>
      </trkpt>
      <trkpt lat="43.71838" lon="1.47454">
        <ele>220.166597</ele>
        <time>2022-05-27T14:00:59.862Z</time>
      </trkpt>
      <trkpt lat="43.71846" lon="1.4744">
        <ele>219.885364</ele>
        <time>2022-05-27T14:01:01.852Z</time>
      </trkpt>
      <trkpt lat="43.71856" lon="1.47425">
        <ele>219.587903</ele>
        <time>2022-05-27T14:01:03.855Z</time>
      </trkpt>
      <trkpt lat="43.71865" lon="1.4741">
        <ele>219.278174</ele>
        <time>2022-05-27T14:01:05.851Z</time>
      </trkpt>
      <trkpt lat="43.71875" lon="1.47395">
        <ele>218.96762</ele>
        <time>2022-05-27T14:01:07.856Z</time>
      </trkpt>
      <trkpt lat="43.71884" lon="1.47379">
        <ele>218.529727</ele>
        <time>2022-05-27T14:01:09.862Z</time>
      </trkpt>
      <trkpt lat="43.71893" lon="1.47363">
        <ele>218.038664</ele>
        <time>2022-05-27T14:01:11.858Z</time>
      </trkpt>
      <trkpt lat="43.71903" lon="1.47349">
        <ele>217.561611</ele>
        <time>2022-05-27T14:01:13.851Z</time>
      </trkpt>
      <trkpt lat="43.71913" lon="1.47335">
        <ele>217.093143</ele>
        <time>2022-05-27T14:01:15.850Z</time>
      </trkpt>
      <trkpt lat="43.71922" lon="1.4732">
        <ele>216.629972</ele>
        <time>2022-05-27T14:01:17.847Z</time>
      </trkpt>
      <trkpt lat="43.71931" lon="1.47306">
        <ele>216.177157</ele>
        <time>2022-05-27T14:01:19.860Z</time>
      </trkpt>
      <trkpt lat="43.71939" lon="1.47292">
        <ele>215.740851</ele>
        <time>2022-05-27T14:01:21.830Z</time>
      </trkpt>
      <trkpt lat="43.71948" lon="1.4728">
        <ele>215.331542</ele>
        <time>2022-05-27T14:01:23.852Z</time>
      </trkpt>
      <trkpt lat="43.71956" lon="1.47269">
        <ele>214.951096</ele>
        <time>2022-05-27T14:01:25.849Z</time>
      </trkpt>
      <trkpt lat="43.71962" lon="1.47257">
        <ele>214.597263</ele>
        <time>2022-05-27T14:01:28.860Z</time>
      </trkpt>
      <trkpt lat="43.71954" lon="1.47267">
        <ele>214.225889</ele>
        <time>2022-05-27T14:01:34.851Z</time>
      </trkpt>
      <trkpt lat="43.71946" lon="1.47273">
        <ele>213.9152</ele>
        <time>2022-05-27T14:01:38.841Z</time>
      </trkpt>
      <trkpt lat="43.71937" lon="1.4728">
        <ele>213.58751</ele>
        <time>2022-05-27T14:01:42.849Z</time>
      </trkpt>
      <trkpt lat="43.71934" lon="1.47267">
        <ele>213.26034</ele>
        <time>2022-05-27T14:01:47.851Z</time>
      </trkpt>
      <trkpt lat="43.71928" lon="1.47255">
        <ele>212.906506</ele>
        <time>2022-05-27T14:01:55.843Z</time>
      </trkpt>
      <trkpt lat="43.71922" lon="1.47243">
        <ele>212.595739</ele>
        <time>2022-05-27T14:02:01.852Z</time>
      </trkpt>
      <trkpt lat="43.71926" lon="1.4723">
        <ele>212.269608</ele>
        <time>2022-05-27T14:02:04.825Z</time>
      </trkpt>
      <trkpt lat="43.71932" lon="1.47214">
        <ele>211.878811</ele>
        <time>2022-05-27T14:02:07.846Z</time>
      </trkpt>
      <trkpt lat="43.71939" lon="1.47199">
        <ele>211.48721</ele>
        <time>2022-05-27T14:02:10.871Z</time>
      </trkpt>
      <trkpt lat="43.71943" lon="1.47187">
        <ele>211.191597</ele>
        <time>2022-05-27T14:02:13.874Z</time>
      </trkpt>
      <trkpt lat="43.7195" lon="1.47177">
        <ele>210.882615</ele>
        <time>2022-05-27T14:02:16.847Z</time>
      </trkpt>
      <trkpt lat="43.7196" lon="1.47167">
        <ele>210.513213</ele>
        <time>2022-05-27T14:02:19.848Z</time>
      </trkpt>
      <trkpt lat="43.71968" lon="1.47158">
        <ele>210.204286</ele>
        <time>2022-05-27T14:02:21.835Z</time>
      </trkpt>
      <trkpt lat="43.71976" lon="1.47147">
        <ele>209.845657</ele>
        <time>2022-05-27T14:02:24.827Z</time>
      </trkpt>
      <trkpt lat="43.71986" lon="1.47137">
        <ele>209.474711</ele>
        <time>2022-05-27T14:02:27.838Z</time>
      </trkpt>
      <trkpt lat="43.71997" lon="1.47127">
        <ele>209.077675</ele>
        <time>2022-05-27T14:02:30.854Z</time>
      </trkpt>
      <trkpt lat="43.72006" lon="1.47117">
        <ele>208.720788</ele>
        <time>2022-05-27T14:02:33.855Z</time>
      </trkpt>
      <trkpt lat="43.72019" lon="1.47101">
        <ele>208.176197</ele>
        <time>2022-05-27T14:03:03.855Z</time>
      </trkpt>
      <trkpt lat="43.7203" lon="1.47088">
        <ele>207.752054</ele>
        <time>2022-05-27T14:03:06.844Z</time>
      </trkpt>
      <trkpt lat="43.72038" lon="1.47078">
        <ele>207.42637</ele>
        <time>2022-05-27T14:03:08.854Z</time>
      </trkpt>
      <trkpt lat="43.72048" lon="1.47066">
        <ele>207.414228</ele>
        <time>2022-05-27T14:03:11.849Z</time>
      </trkpt>
      <trkpt lat="43.72055" lon="1.47057">
        <ele>207.44467</ele>
        <time>2022-05-27T14:03:13.833Z</time>
      </trkpt>
      <trkpt lat="43.72063" lon="1.47049">
        <ele>207.47489</ele>
        <time>2022-05-27T14:03:15.837Z</time>
      </trkpt>
      <trkpt lat="43.72073" lon="1.4704">
        <ele>207.511875</ele>
        <time>2022-05-27T14:03:18.852Z</time>
      </trkpt>
      <trkpt lat="43.7208" lon="1.47031">
        <ele>207.542473</ele>
        <time>2022-05-27T14:03:21.861Z</time>
      </trkpt>
      <trkpt lat="43.72087" lon="1.47022">
        <ele>207.572995</ele>
        <time>2022-05-27T14:03:23.865Z</time>
      </trkpt>
      <trkpt lat="43.72095" lon="1.47015">
        <ele>207.605552</ele>
        <time>2022-05-27T14:03:25.856Z</time>
      </trkpt>
      <trkpt lat="43.72104" lon="1.47008">
        <ele>207.634928</ele>
        <time>2022-05-27T14:03:27.862Z</time>
      </trkpt>
      <trkpt lat="43.72114" lon="1.47001">
        <ele>207.670674</ele>
        <time>2022-05-27T14:03:29.870Z</time>
      </trkpt>
      <trkpt lat="43.72125" lon="1.46993">
        <ele>207.71125</ele>
        <time>2022-05-27T14:03:32.862Z</time>
      </trkpt>
      <trkpt lat="43.72136" lon="1.46984">
        <ele>207.751078</ele>
        <time>2022-05-27T14:03:34.836Z</time>
      </trkpt>
      <trkpt lat="43.72144" lon="1.46977">
        <ele>207.780372</ele>
        <time>2022-05-27T14:03:36.863Z</time>
      </trkpt>
      <trkpt lat="43.72124" lon="1.46969">
        <ele>207.844475</ele>
        <time>2022-05-27T14:04:21.858Z</time>
      </trkpt>
      <trkpt lat="43.72114" lon="1.46978">
        <ele>207.884424</ele>
        <time>2022-05-27T14:04:24.862Z</time>
      </trkpt>
      <trkpt lat="43.72103" lon="1.46987">
        <ele>207.923059</ele>
        <time>2022-05-27T14:04:27.855Z</time>
      </trkpt>
      <trkpt lat="43.72093" lon="1.46994">
        <ele>208.123011</ele>
        <time>2022-05-27T14:04:30.839Z</time>
      </trkpt>
      <trkpt lat="43.72086" lon="1.47002">
        <ele>208.470236</ele>
        <time>2022-05-27T14:04:33.858Z</time>
      </trkpt>
      <trkpt lat="43.72072" lon="1.47008">
        <ele>209.018883</ele>
        <time>2022-05-27T14:04:37.860Z</time>
      </trkpt>
      <trkpt lat="43.72063" lon="1.47012">
        <ele>209.392934</ele>
        <time>2022-05-27T14:04:39.856Z</time>
      </trkpt>
      <trkpt lat="43.72052" lon="1.47014">
        <ele>209.789759</ele>
        <time>2022-05-27T14:04:42.843Z</time>
      </trkpt>
      <trkpt lat="43.72043" lon="1.47017">
        <ele>210.169331</ele>
        <time>2022-05-27T14:04:46.852Z</time>
      </trkpt>
      <trkpt lat="43.72031" lon="1.47021">
        <ele>210.617092</ele>
        <time>2022-05-27T14:04:50.856Z</time>
      </trkpt>
      <trkpt lat="43.7202" lon="1.47025">
        <ele>211.057571</ele>
        <time>2022-05-27T14:04:53.864Z</time>
      </trkpt>
      <trkpt lat="43.72011" lon="1.47024">
        <ele>211.412737</ele>
        <time>2022-05-27T14:04:56.851Z</time>
      </trkpt>
      <trkpt lat="43.72006" lon="1.47012">
        <ele>211.805597</ele>
        <time>2022-05-27T14:05:01.843Z</time>
      </trkpt>
      <trkpt lat="43.72005" lon="1.46999">
        <ele>212.168787</ele>
        <time>2022-05-27T14:05:05.847Z</time>
      </trkpt>
      <trkpt lat="43.72009" lon="1.46984">
        <ele>212.602399</ele>
        <time>2022-05-27T14:05:10.856Z</time>
      </trkpt>
      <trkpt lat="43.72016" lon="1.46973">
        <ele>212.99613</ele>
        <time>2022-05-27T14:05:14.892Z</time>
      </trkpt>
      <trkpt lat="43.72021" lon="1.46963">
        <ele>213.345162</ele>
        <time>2022-05-27T14:05:19.863Z</time>
      </trkpt>
      <trkpt lat="43.7203" lon="1.46953">
        <ele>213.758286</ele>
        <time>2022-05-27T14:05:23.846Z</time>
      </trkpt>
      <trkpt lat="43.72038" lon="1.46948">
        <ele>214.127081</ele>
        <time>2022-05-27T14:05:26.848Z</time>
      </trkpt>
      <trkpt lat="43.72049" lon="1.46942">
        <ele>214.554268</ele>
        <time>2022-05-27T14:05:30.855Z</time>
      </trkpt>
      <trkpt lat="43.72058" lon="1.46935">
        <ele>214.762734</ele>
        <time>2022-05-27T14:05:33.854Z</time>
      </trkpt>
      <trkpt lat="43.72069" lon="1.46931">
        <ele>214.589523</ele>
        <time>2022-05-27T14:05:36.844Z</time>
      </trkpt>
      <trkpt lat="43.7208" lon="1.46932">
        <ele>214.428689</ele>
        <time>2022-05-27T14:05:39.836Z</time>
      </trkpt>
      <trkpt lat="43.7209" lon="1.46934">
        <ele>214.274032</ele>
        <time>2022-05-27T14:05:42.869Z</time>
      </trkpt>
      <trkpt lat="43.72101" lon="1.46932">
        <ele>214.120184</ele>
        <time>2022-05-27T14:05:45.848Z</time>
      </trkpt>
      <trkpt lat="43.72111" lon="1.4693">
        <ele>213.962462</ele>
        <time>2022-05-27T14:05:49.858Z</time>
      </trkpt>
      <trkpt lat="43.72118" lon="1.4692">
        <ele>213.818859</ele>
        <time>2022-05-27T14:05:52.851Z</time>
      </trkpt>
      <trkpt lat="43.72125" lon="1.46907">
        <ele>213.650454</ele>
        <time>2022-05-27T14:05:55.862Z</time>
      </trkpt>
      <trkpt lat="43.72133" lon="1.46897">
        <ele>213.486945</ele>
        <time>2022-05-27T14:05:58.841Z</time>
      </trkpt>
      <trkpt lat="43.72141" lon="1.46889">
        <ele>213.34275</ele>
        <time>2022-05-27T14:06:01.860Z</time>
      </trkpt>
      <trkpt lat="43.7215" lon="1.46878">
        <ele>213.16658</ele>
        <time>2022-05-27T14:06:05.860Z</time>
      </trkpt>
      <trkpt lat="43.72157" lon="1.46867">
        <ele>213.005575</ele>
        <time>2022-05-27T14:06:08.857Z</time>
      </trkpt>
      <trkpt lat="43.72166" lon="1.46862">
        <ele>212.872512</ele>
        <time>2022-05-27T14:06:11.836Z</time>
      </trkpt>
      <trkpt lat="43.72174" lon="1.46853">
        <ele>212.721548</ele>
        <time>2022-05-27T14:06:16.842Z</time>
      </trkpt>
      <trkpt lat="43.72181" lon="1.46841">
        <ele>212.555392</ele>
        <time>2022-05-27T14:06:19.853Z</time>
      </trkpt>
      <trkpt lat="43.7219" lon="1.46831">
        <ele>212.384888</ele>
        <time>2022-05-27T14:06:23.849Z</time>
      </trkpt>
      <trkpt lat="43.72198" lon="1.46824">
        <ele>212.246188</ele>
        <time>2022-05-27T14:06:26.844Z</time>
      </trkpt>
      <trkpt lat="43.72204" lon="1.46814">
        <ele>212.153878</ele>
        <time>2022-05-27T14:06:29.849Z</time>
      </trkpt>
      <trkpt lat="43.72215" lon="1.46805">
        <ele>212.121445</ele>
        <time>2022-05-27T14:06:33.859Z</time>
      </trkpt>
      <trkpt lat="43.72223" lon="1.468">
        <ele>212.097917</ele>
        <time>2022-05-27T14:06:37.848Z</time>
      </trkpt>
      <trkpt lat="43.72234" lon="1.46796">
        <ele>212.069451</ele>
        <time>2022-05-27T14:06:41.852Z</time>
      </trkpt>
      <trkpt lat="43.72244" lon="1.46786">
        <ele>212.038345</ele>
        <time>2022-05-27T14:06:44.838Z</time>
      </trkpt>
      <trkpt lat="43.72253" lon="1.46785">
        <ele>212.013529</ele>
        <time>2022-05-27T14:06:47.848Z</time>
      </trkpt>
      <trkpt lat="43.72262" lon="1.46779">
        <ele>211.986675</ele>
        <time>2022-05-27T14:06:50.859Z</time>
      </trkpt>
      <trkpt lat="43.7227" lon="1.4677">
        <ele>211.961752</ele>
        <time>2022-05-27T14:06:53.862Z</time>
      </trkpt>
      <trkpt lat="43.72279" lon="1.46762">
        <ele>211.933085</ele>
        <time>2022-05-27T14:06:56.850Z</time>
      </trkpt>
      <trkpt lat="43.72284" lon="1.46748">
        <ele>211.903515</ele>
        <time>2022-05-27T14:06:59.858Z</time>
      </trkpt>
      <trkpt lat="43.72292" lon="1.46736">
        <ele>211.873593</ele>
        <time>2022-05-27T14:07:02.855Z</time>
      </trkpt>
      <trkpt lat="43.72301" lon="1.46727">
        <ele>211.845467</ele>
        <time>2022-05-27T14:07:17.858Z</time>
      </trkpt>
      <trkpt lat="43.72306" lon="1.46715">
        <ele>211.818909</ele>
        <time>2022-05-27T14:07:23.846Z</time>
      </trkpt>
      <trkpt lat="43.72311" lon="1.46704">
        <ele>211.794546</ele>
        <time>2022-05-27T14:07:28.848Z</time>
      </trkpt>
      <trkpt lat="43.72317" lon="1.46675">
        <ele>211.737927</ele>
        <time>2022-05-27T14:08:06.874Z</time>
      </trkpt>
      <trkpt lat="43.72307" lon="1.46664">
        <ele>211.704245</ele>
        <time>2022-05-27T14:08:10.855Z</time>
      </trkpt>
      <trkpt lat="43.72299" lon="1.46656">
        <ele>211.999788</ele>
        <time>2022-05-27T14:08:12.862Z</time>
      </trkpt>
      <trkpt lat="43.72287" lon="1.46646">
        <ele>212.566976</ele>
        <time>2022-05-27T14:08:15.863Z</time>
      </trkpt>
      <trkpt lat="43.72279" lon="1.4664">
        <ele>212.96222</ele>
        <time>2022-05-27T14:08:17.845Z</time>
      </trkpt>
      <trkpt lat="43.7227" lon="1.46635">
        <ele>213.384958</ele>
        <time>2022-05-27T14:08:19.877Z</time>
      </trkpt>
      <trkpt lat="43.72258" lon="1.46628">
        <ele>213.962002</ele>
        <time>2022-05-27T14:08:22.861Z</time>
      </trkpt>
      <trkpt lat="43.72249" lon="1.46624">
        <ele>214.367062</ele>
        <time>2022-05-27T14:08:25.878Z</time>
      </trkpt>
      <trkpt lat="43.72238" lon="1.46619">
        <ele>214.856426</ele>
        <time>2022-05-27T14:08:28.855Z</time>
      </trkpt>
      <trkpt lat="43.72227" lon="1.46617">
        <ele>215.332959</ele>
        <time>2022-05-27T14:08:31.846Z</time>
      </trkpt>
      <trkpt lat="43.72215" lon="1.46614">
        <ele>215.863161</ele>
        <time>2022-05-27T14:08:34.862Z</time>
      </trkpt>
      <trkpt lat="43.72204" lon="1.4661">
        <ele>216.358905</ele>
        <time>2022-05-27T14:08:37.836Z</time>
      </trkpt>
      <trkpt lat="43.72193" lon="1.46608">
        <ele>216.834057</ele>
        <time>2022-05-27T14:08:40.862Z</time>
      </trkpt>
      <trkpt lat="43.72184" lon="1.46606">
        <ele>217.253688</ele>
        <time>2022-05-27T14:08:43.857Z</time>
      </trkpt>
      <trkpt lat="43.72174" lon="1.46601">
        <ele>217.699524</ele>
        <time>2022-05-27T14:08:47.859Z</time>
      </trkpt>
      <trkpt lat="43.72172" lon="1.46586">
        <ele>218.173979</ele>
        <time>2022-05-27T14:08:50.848Z</time>
      </trkpt>
      <trkpt lat="43.72173" lon="1.46572">
        <ele>218.59789</ele>
        <time>2022-05-27T14:08:52.848Z</time>
      </trkpt>
      <trkpt lat="43.72178" lon="1.46559">
        <ele>219.061086</ele>
        <time>2022-05-27T14:08:54.858Z</time>
      </trkpt>
      <trkpt lat="43.72183" lon="1.46544">
        <ele>219.357281</ele>
        <time>2022-05-27T14:08:56.845Z</time>
      </trkpt>
      <trkpt lat="43.7219" lon="1.46531">
        <ele>218.821796</ele>
        <time>2022-05-27T14:08:58.846Z</time>
      </trkpt>
      <trkpt lat="43.72197" lon="1.46516">
        <ele>218.266967</ele>
        <time>2022-05-27T14:09:00.855Z</time>
      </trkpt>
      <trkpt lat="43.72203" lon="1.46501">
        <ele>217.700732</ele>
        <time>2022-05-27T14:09:02.856Z</time>
      </trkpt>
      <trkpt lat="43.72209" lon="1.46486">
        <ele>217.151084</ele>
        <time>2022-05-27T14:09:04.859Z</time>
      </trkpt>
      <trkpt lat="43.72217" lon="1.46479">
        <ele>216.721969</ele>
        <time>2022-05-27T14:09:06.852Z</time>
      </trkpt>
      <trkpt lat="43.72227" lon="1.4648">
        <ele>216.310631</ele>
        <time>2022-05-27T14:09:08.857Z</time>
      </trkpt>
      <trkpt lat="43.72237" lon="1.46486">
        <ele>215.801352</ele>
        <time>2022-05-27T14:09:10.857Z</time>
      </trkpt>
      <trkpt lat="43.72249" lon="1.46497">
        <ele>215.182432</ele>
        <time>2022-05-27T14:09:12.851Z</time>
      </trkpt>
      <trkpt lat="43.7226" lon="1.46504">
        <ele>214.64129</ele>
        <time>2022-05-27T14:09:14.861Z</time>
      </trkpt>
      <trkpt lat="43.72271" lon="1.46512">
        <ele>214.109549</ele>
        <time>2022-05-27T14:09:16.865Z</time>
      </trkpt>
      <trkpt lat="43.7228" lon="1.46524">
        <ele>213.521325</ele>
        <time>2022-05-27T14:09:18.857Z</time>
      </trkpt>
      <trkpt lat="43.72292" lon="1.46534">
        <ele>212.925953</ele>
        <time>2022-05-27T14:09:20.886Z</time>
      </trkpt>
      <trkpt lat="43.72306" lon="1.46544">
        <ele>212.225981</ele>
        <time>2022-05-27T14:09:22.834Z</time>
      </trkpt>
      <trkpt lat="43.72318" lon="1.46554">
        <ele>211.599541</ele>
        <time>2022-05-27T14:09:24.845Z</time>
      </trkpt>
      <trkpt lat="43.72325" lon="1.46564">
        <ele>211.333622</ele>
        <time>2022-05-27T14:09:26.842Z</time>
      </trkpt>
      <trkpt lat="43.72335" lon="1.46569">
        <ele>211.12966</ele>
        <time>2022-05-27T14:09:30.854Z</time>
      </trkpt>
      <trkpt lat="43.72345" lon="1.46566">
        <ele>210.944097</ele>
        <time>2022-05-27T14:09:35.870Z</time>
      </trkpt>
      <trkpt lat="43.72353" lon="1.46555">
        <ele>210.726928</ele>
        <time>2022-05-27T14:09:38.843Z</time>
      </trkpt>
      <trkpt lat="43.72359" lon="1.46542">
        <ele>210.512092</ele>
        <time>2022-05-27T14:09:40.839Z</time>
      </trkpt>
      <trkpt lat="43.72363" lon="1.4653">
        <ele>210.331374</ele>
        <time>2022-05-27T14:09:44.850Z</time>
      </trkpt>
      <trkpt lat="43.72368" lon="1.46518">
        <ele>210.143272</ele>
        <time>2022-05-27T14:09:47.848Z</time>
      </trkpt>
      <trkpt lat="43.72373" lon="1.46507">
        <ele>209.96398</ele>
        <time>2022-05-27T14:09:50.872Z</time>
      </trkpt>
      <trkpt lat="43.72374" lon="1.46493">
        <ele>209.761226</ele>
        <time>2022-05-27T14:09:55.843Z</time>
      </trkpt>
      <trkpt lat="43.72377" lon="1.4648">
        <ele>209.581375</ele>
        <time>2022-05-27T14:09:58.858Z</time>
      </trkpt>
      <trkpt lat="43.72373" lon="1.46463">
        <ele>209.340449</ele>
        <time>2022-05-27T14:10:02.845Z</time>
      </trkpt>
      <trkpt lat="43.7237" lon="1.46448">
        <ele>209.128397</ele>
        <time>2022-05-27T14:10:05.842Z</time>
      </trkpt>
      <trkpt lat="43.72366" lon="1.46435">
        <ele>208.916173</ele>
        <time>2022-05-27T14:10:09.842Z</time>
      </trkpt>
      <trkpt lat="43.7236" lon="1.46418">
        <ele>208.670374</ele>
        <time>2022-05-27T14:10:12.854Z</time>
      </trkpt>
      <trkpt lat="43.72354" lon="1.46402">
        <ele>208.408566</ele>
        <time>2022-05-27T14:10:15.858Z</time>
      </trkpt>
      <trkpt lat="43.72353" lon="1.46386">
        <ele>208.18965</ele>
        <time>2022-05-27T14:10:18.847Z</time>
      </trkpt>
      <trkpt lat="43.72351" lon="1.46373">
        <ele>208.034977</ele>
        <time>2022-05-27T14:10:20.864Z</time>
      </trkpt>
      <trkpt lat="43.72349" lon="1.46357">
        <ele>207.965743</ele>
        <time>2022-05-27T14:10:22.858Z</time>
      </trkpt>
      <trkpt lat="43.72349" lon="1.46343">
        <ele>207.903875</ele>
        <time>2022-05-27T14:10:25.857Z</time>
      </trkpt>
      <trkpt lat="43.72349" lon="1.4633">
        <ele>207.845587</ele>
        <time>2022-05-27T14:10:28.852Z</time>
      </trkpt>
      <trkpt lat="43.72345" lon="1.46318">
        <ele>207.790169</ele>
        <time>2022-05-27T14:10:31.855Z</time>
      </trkpt>
      <trkpt lat="43.72337" lon="1.46305">
        <ele>207.713357</ele>
        <time>2022-05-27T14:10:34.868Z</time>
      </trkpt>
      <trkpt lat="43.72332" lon="1.46291">
        <ele>207.646881</ele>
        <time>2022-05-27T14:10:36.852Z</time>
      </trkpt>
      <trkpt lat="43.7233" lon="1.46279">
        <ele>207.592186</ele>
        <time>2022-05-27T14:10:38.837Z</time>
      </trkpt>
      <trkpt lat="43.72329" lon="1.46264">
        <ele>207.526269</ele>
        <time>2022-05-27T14:10:41.855Z</time>
      </trkpt>
      <trkpt lat="43.72329" lon="1.46247">
        <ele>207.44905</ele>
        <time>2022-05-27T14:10:44.858Z</time>
      </trkpt>
      <trkpt lat="43.7233" lon="1.46231">
        <ele>207.381096</ele>
        <time>2022-05-27T14:10:47.847Z</time>
      </trkpt>
      <trkpt lat="43.72329" lon="1.46215">
        <ele>207.308282</ele>
        <time>2022-05-27T14:10:51.842Z</time>
      </trkpt>
      <trkpt lat="43.72329" lon="1.462">
        <ele>207.243281</ele>
        <time>2022-05-27T14:10:54.850Z</time>
      </trkpt>
      <trkpt lat="43.72328" lon="1.46185">
        <ele>207.178812</ele>
        <time>2022-05-27T14:10:57.866Z</time>
      </trkpt>
      <trkpt lat="43.72329" lon="1.46166">
        <ele>207.093425</ele>
        <time>2022-05-27T14:11:00.872Z</time>
      </trkpt>
      <trkpt lat="43.7233" lon="1.46147">
        <ele>207.012339</ele>
        <time>2022-05-27T14:11:02.839Z</time>
      </trkpt>
      <trkpt lat="43.72327" lon="1.46131">
        <ele>207.000447</ele>
        <time>2022-05-27T14:11:03.508Z</time>
      </trkpt>
      <trkpt lat="43.72326" lon="1.46114">
        <ele>207.170544</ele>
        <time>2022-05-27T14:11:04.494Z</time>
      </trkpt>
      <trkpt lat="43.72325" lon="1.461">
        <ele>207.320546</ele>
        <time>2022-05-27T14:11:05.502Z</time>
      </trkpt>
      <trkpt lat="43.7232" lon="1.46084">
        <ele>207.496302</ele>
        <time>2022-05-27T14:11:06.497Z</time>
      </trkpt>
      <trkpt lat="43.7233" lon="1.46101">
        <ele>207.714186</ele>
        <time>2022-05-27T14:11:46.511Z</time>
      </trkpt>
      <trkpt lat="43.7233" lon="1.46117">
        <ele>207.877259</ele>
        <time>2022-05-27T14:11:49.520Z</time>
      </trkpt>
      <trkpt lat="43.72334" lon="1.46135">
        <ele>208.07145</ele>
        <time>2022-05-27T14:11:52.507Z</time>
      </trkpt>
      <trkpt lat="43.72336" lon="1.46148">
        <ele>208.208959</ele>
        <time>2022-05-27T14:11:56.518Z</time>
      </trkpt>
      <trkpt lat="43.7234" lon="1.46163">
        <ele>208.370681</ele>
        <time>2022-05-27T14:12:00.518Z</time>
      </trkpt>
      <trkpt lat="43.72347" lon="1.46175">
        <ele>208.530913</ele>
        <time>2022-05-27T14:12:03.518Z</time>
      </trkpt>
      <trkpt lat="43.72349" lon="1.46188">
        <ele>208.671389</ele>
        <time>2022-05-27T14:12:06.504Z</time>
      </trkpt>
      <trkpt lat="43.72346" lon="1.46202">
        <ele>208.816393</ele>
        <time>2022-05-27T14:12:08.503Z</time>
      </trkpt>
      <trkpt lat="43.72343" lon="1.46217">
        <ele>208.977893</ele>
        <time>2022-05-27T14:12:10.501Z</time>
      </trkpt>
      <trkpt lat="43.72349" lon="1.46231">
        <ele>209.144676</ele>
        <time>2022-05-27T14:12:12.504Z</time>
      </trkpt>
      <trkpt lat="43.72358" lon="1.46242">
        <ele>209.307393</ele>
        <time>2022-05-27T14:12:14.514Z</time>
      </trkpt>
      <trkpt lat="43.72367" lon="1.46252">
        <ele>209.483971</ele>
        <time>2022-05-27T14:12:17.504Z</time>
      </trkpt>
      <trkpt lat="43.72374" lon="1.4626">
        <ele>209.438511</ele>
        <time>2022-05-27T14:12:20.545Z</time>
      </trkpt>
      <trkpt lat="43.7238" lon="1.46273">
        <ele>209.303754</ele>
        <time>2022-05-27T14:12:24.517Z</time>
      </trkpt>
      <trkpt lat="43.72382" lon="1.46291">
        <ele>209.132793</ele>
        <time>2022-05-27T14:12:27.503Z</time>
      </trkpt>
      <trkpt lat="43.7238" lon="1.46309">
        <ele>208.974781</ele>
        <time>2022-05-27T14:12:29.494Z</time>
      </trkpt>
      <trkpt lat="43.72382" lon="1.46327">
        <ele>208.80976</ele>
        <time>2022-05-27T14:12:31.499Z</time>
      </trkpt>
      <trkpt lat="43.72386" lon="1.46344">
        <ele>208.639798</ele>
        <time>2022-05-27T14:12:33.509Z</time>
      </trkpt>
      <trkpt lat="43.72388" lon="1.46358">
        <ele>208.511558</ele>
        <time>2022-05-27T14:12:35.503Z</time>
      </trkpt>
      <trkpt lat="43.7239" lon="1.46379">
        <ele>208.317776</ele>
        <time>2022-05-27T14:12:37.497Z</time>
      </trkpt>
      <trkpt lat="43.72393" lon="1.46399">
        <ele>208.139488</ele>
        <time>2022-05-27T14:12:39.498Z</time>
      </trkpt>
      <trkpt lat="43.72396" lon="1.46415">
        <ele>207.982335</ele>
        <time>2022-05-27T14:12:41.499Z</time>
      </trkpt>
      <trkpt lat="43.72397" lon="1.46432">
        <ele>207.828533</ele>
        <time>2022-05-27T14:12:43.499Z</time>
      </trkpt>
      <trkpt lat="43.72396" lon="1.46447">
        <ele>207.693919</ele>
        <time>2022-05-27T14:12:45.496Z</time>
      </trkpt>
      <trkpt lat="43.72397" lon="1.46465">
        <ele>207.534818</ele>
        <time>2022-05-27T14:12:48.500Z</time>
      </trkpt>
      <trkpt lat="43.72401" lon="1.46478">
        <ele>207.40115</ele>
        <time>2022-05-27T14:12:50.510Z</time>
      </trkpt>
      <trkpt lat="43.72403" lon="1.4649">
        <ele>207.286148</ele>
        <time>2022-05-27T14:12:52.499Z</time>
      </trkpt>
      <trkpt lat="43.72403" lon="1.46509">
        <ele>207.661299</ele>
        <time>2022-05-27T14:12:54.510Z</time>
      </trkpt>
      <trkpt lat="43.72405" lon="1.46525">
        <ele>208.062245</ele>
        <time>2022-05-27T14:12:56.511Z</time>
      </trkpt>
      <trkpt lat="43.72408" lon="1.46538">
        <ele>208.400949</ele>
        <time>2022-05-27T14:12:58.505Z</time>
      </trkpt>
      <trkpt lat="43.72412" lon="1.46553">
        <ele>208.810062</ele>
        <time>2022-05-27T14:13:01.506Z</time>
      </trkpt>
      <trkpt lat="43.72418" lon="1.46567">
        <ele>209.227038</ele>
        <time>2022-05-27T14:13:04.506Z</time>
      </trkpt>
      <trkpt lat="43.72423" lon="1.46578">
        <ele>209.54439</ele>
        <time>2022-05-27T14:13:07.519Z</time>
      </trkpt>
      <trkpt lat="43.72431" lon="1.46587">
        <ele>209.894658</ele>
        <time>2022-05-27T14:13:11.490Z</time>
      </trkpt>
      <trkpt lat="43.72437" lon="1.46596">
        <ele>210.213264</ele>
        <time>2022-05-27T14:13:15.503Z</time>
      </trkpt>
      <trkpt lat="43.72444" lon="1.46607">
        <ele>210.566323</ele>
        <time>2022-05-27T14:13:18.528Z</time>
      </trkpt>
      <trkpt lat="43.72452" lon="1.4662">
        <ele>210.999653</ele>
        <time>2022-05-27T14:13:21.502Z</time>
      </trkpt>
      <trkpt lat="43.72454" lon="1.46637">
        <ele>211.43443</ele>
        <time>2022-05-27T14:13:25.490Z</time>
      </trkpt>
      <trkpt lat="43.72451" lon="1.4665">
        <ele>211.772116</ele>
        <time>2022-05-27T14:13:28.511Z</time>
      </trkpt>
      <trkpt lat="43.72457" lon="1.4667">
        <ele>212.300236</ele>
        <time>2022-05-27T14:14:09.504Z</time>
      </trkpt>
      <trkpt lat="43.72459" lon="1.46682">
        <ele>212.612395</ele>
        <time>2022-05-27T14:14:11.514Z</time>
      </trkpt>
      <trkpt lat="43.7247" lon="1.4669">
        <ele>213.041615</ele>
        <time>2022-05-27T14:14:14.506Z</time>
      </trkpt>
      <trkpt lat="43.72479" lon="1.46686">
        <ele>213.354568</ele>
        <time>2022-05-27T14:14:16.496Z</time>
      </trkpt>
      <trkpt lat="43.72488" lon="1.46685">
        <ele>213.838575</ele>
        <time>2022-05-27T14:14:18.508Z</time>
      </trkpt>
      <trkpt lat="43.72499" lon="1.46684">
        <ele>214.643123</ele>
        <time>2022-05-27T14:14:21.513Z</time>
      </trkpt>
      <trkpt lat="43.72511" lon="1.46679">
        <ele>215.502644</ele>
        <time>2022-05-27T14:14:24.511Z</time>
      </trkpt>
      <trkpt lat="43.72518" lon="1.46671">
        <ele>216.139954</ele>
        <time>2022-05-27T14:14:26.500Z</time>
      </trkpt>
      <trkpt lat="43.72524" lon="1.46662">
        <ele>216.780166</ele>
        <time>2022-05-27T14:14:28.498Z</time>
      </trkpt>
      <trkpt lat="43.72534" lon="1.46659">
        <ele>217.465786</ele>
        <time>2022-05-27T14:14:31.491Z</time>
      </trkpt>
      <trkpt lat="43.72541" lon="1.4665">
        <ele>218.139032</ele>
        <time>2022-05-27T14:14:34.507Z</time>
      </trkpt>
      <trkpt lat="43.72547" lon="1.46639">
        <ele>218.845486</ele>
        <time>2022-05-27T14:14:37.507Z</time>
      </trkpt>
      <trkpt lat="43.7255" lon="1.46626">
        <ele>219.54497</ele>
        <time>2022-05-27T14:14:41.519Z</time>
      </trkpt>
      <trkpt lat="43.72554" lon="1.46611">
        <ele>220.335362</ele>
        <time>2022-05-27T14:14:46.510Z</time>
      </trkpt>
      <trkpt lat="43.7255" lon="1.46599">
        <ele>221.055522</ele>
        <time>2022-05-27T14:14:50.520Z</time>
      </trkpt>
      <trkpt lat="43.72545" lon="1.46584">
        <ele>221.874882</ele>
        <time>2022-05-27T14:14:55.515Z</time>
      </trkpt>
      <trkpt lat="43.72534" lon="1.46579">
        <ele>222.638759</ele>
        <time>2022-05-27T14:14:58.521Z</time>
      </trkpt>
      <trkpt lat="43.72525" lon="1.46574">
        <ele>223.355616</ele>
        <time>2022-05-27T14:15:01.529Z</time>
      </trkpt>
      <trkpt lat="43.72516" lon="1.46572">
        <ele>224.029071</ele>
        <time>2022-05-27T14:15:03.513Z</time>
      </trkpt>
      <trkpt lat="43.72504" lon="1.4657">
        <ele>224.835073</ele>
        <time>2022-05-27T14:15:05.505Z</time>
      </trkpt>
      <trkpt lat="43.72497" lon="1.46559">
        <ele>225.596297</ele>
        <time>2022-05-27T14:15:07.516Z</time>
      </trkpt>
      <trkpt lat="43.72489" lon="1.46549">
        <ele>226.135303</ele>
        <time>2022-05-27T14:15:09.528Z</time>
      </trkpt>
      <trkpt lat="43.72481" lon="1.46538">
        <ele>225.958854</ele>
        <time>2022-05-27T14:15:11.526Z</time>
      </trkpt>
      <trkpt lat="43.72476" lon="1.46521">
        <ele>225.76212</ele>
        <time>2022-05-27T14:15:13.482Z</time>
      </trkpt>
      <trkpt lat="43.72472" lon="1.46502">
        <ele>225.541455</ele>
        <time>2022-05-27T14:15:15.512Z</time>
      </trkpt>
      <trkpt lat="43.7247" lon="1.46483">
        <ele>225.334161</ele>
        <time>2022-05-27T14:15:17.503Z</time>
      </trkpt>
      <trkpt lat="43.72464" lon="1.46469">
        <ele>225.159968</ele>
        <time>2022-05-27T14:15:19.488Z</time>
      </trkpt>
      <trkpt lat="43.72459" lon="1.46453">
        <ele>224.970807</ele>
        <time>2022-05-27T14:15:21.505Z</time>
      </trkpt>
      <trkpt lat="43.72463" lon="1.4644">
        <ele>224.815292</ele>
        <time>2022-05-27T14:15:23.509Z</time>
      </trkpt>
      <trkpt lat="43.72463" lon="1.46426">
        <ele>224.668301</ele>
        <time>2022-05-27T14:15:25.501Z</time>
      </trkpt>
      <trkpt lat="43.72463" lon="1.46412">
        <ele>224.51063</ele>
        <time>2022-05-27T14:15:27.506Z</time>
      </trkpt>
      <trkpt lat="43.72463" lon="1.46396">
        <ele>224.333359</ele>
        <time>2022-05-27T14:15:31.507Z</time>
      </trkpt>
      <trkpt lat="43.7246" lon="1.46381">
        <ele>224.166418</ele>
        <time>2022-05-27T14:15:33.509Z</time>
      </trkpt>
      <trkpt lat="43.72461" lon="1.46367">
        <ele>224.014117</ele>
        <time>2022-05-27T14:15:35.508Z</time>
      </trkpt>
      <trkpt lat="43.72461" lon="1.46352">
        <ele>223.848833</ele>
        <time>2022-05-27T14:15:37.510Z</time>
      </trkpt>
      <trkpt lat="43.7246" lon="1.46339">
        <ele>223.706258</ele>
        <time>2022-05-27T14:15:40.509Z</time>
      </trkpt>
      <trkpt lat="43.72457" lon="1.46322">
        <ele>223.526536</ele>
        <time>2022-05-27T14:15:44.511Z</time>
      </trkpt>
      <trkpt lat="43.72453" lon="1.46309">
        <ele>223.820518</ele>
        <time>2022-05-27T14:15:47.521Z</time>
      </trkpt>
      <trkpt lat="43.72445" lon="1.46297">
        <ele>224.463096</ele>
        <time>2022-05-27T14:15:49.523Z</time>
      </trkpt>
      <trkpt lat="43.72437" lon="1.46283">
        <ele>225.197197</ele>
        <time>2022-05-27T14:15:51.512Z</time>
      </trkpt>
      <trkpt lat="43.72432" lon="1.46265">
        <ele>225.935324</ele>
        <time>2022-05-27T14:15:53.503Z</time>
      </trkpt>
      <trkpt lat="43.7243" lon="1.46248">
        <ele>226.621048</ele>
        <time>2022-05-27T14:15:55.503Z</time>
      </trkpt>
      <trkpt lat="43.72427" lon="1.46236">
        <ele>227.14811</ele>
        <time>2022-05-27T14:15:57.531Z</time>
      </trkpt>
      <trkpt lat="43.72427" lon="1.46223">
        <ele>227.67054</ele>
        <time>2022-05-27T14:16:00.492Z</time>
      </trkpt>
      <trkpt lat="43.72428" lon="1.46208">
        <ele>228.250358</ele>
        <time>2022-05-27T14:16:05.501Z</time>
      </trkpt>
      <trkpt lat="43.72434" lon="1.4622">
        <ele>228.857384</ele>
        <time>2022-05-27T14:16:14.509Z</time>
      </trkpt>
      <trkpt lat="43.72441" lon="1.46237">
        <ele>229.597551</ele>
        <time>2022-05-27T14:16:18.497Z</time>
      </trkpt>
      <trkpt lat="43.72448" lon="1.46252">
        <ele>230.318596</ele>
        <time>2022-05-27T14:16:21.525Z</time>
      </trkpt>
      <trkpt lat="43.72454" lon="1.46267">
        <ele>231.024475</ele>
        <time>2022-05-27T14:16:24.522Z</time>
      </trkpt>
      <trkpt lat="43.72458" lon="1.4628">
        <ele>231.56328</ele>
        <time>2022-05-27T14:16:26.518Z</time>
      </trkpt>
      <trkpt lat="43.72462" lon="1.46293">
        <ele>232.158578</ele>
        <time>2022-05-27T14:16:28.529Z</time>
      </trkpt>
      <trkpt lat="43.72467" lon="1.46306">
        <ele>232.749281</ele>
        <time>2022-05-27T14:16:30.521Z</time>
      </trkpt>
      <trkpt lat="43.72474" lon="1.46319">
        <ele>233.37603</ele>
        <time>2022-05-27T14:16:32.533Z</time>
      </trkpt>
      <trkpt lat="43.7248" lon="1.4633">
        <ele>233.4506</ele>
        <time>2022-05-27T14:16:34.514Z</time>
      </trkpt>
      <trkpt lat="43.72486" lon="1.46341">
        <ele>233.474986</ele>
        <time>2022-05-27T14:16:37.500Z</time>
      </trkpt>
      <trkpt lat="43.72491" lon="1.46358">
        <ele>233.50514</ele>
        <time>2022-05-27T14:16:41.511Z</time>
      </trkpt>
      <trkpt lat="43.72492" lon="1.46372">
        <ele>233.530525</ele>
        <time>2022-05-27T14:16:44.510Z</time>
      </trkpt>
      <trkpt lat="43.72494" lon="1.4639">
        <ele>233.561691</ele>
        <time>2022-05-27T14:16:47.501Z</time>
      </trkpt>
      <trkpt lat="43.72497" lon="1.46402">
        <ele>233.58492</ele>
        <time>2022-05-27T14:16:49.505Z</time>
      </trkpt>
      <trkpt lat="43.72498" lon="1.46416">
        <ele>233.608733</ele>
        <time>2022-05-27T14:16:51.506Z</time>
      </trkpt>
      <trkpt lat="43.72499" lon="1.46429">
        <ele>233.631632</ele>
        <time>2022-05-27T14:16:53.512Z</time>
      </trkpt>
      <trkpt lat="43.72502" lon="1.46446">
        <ele>233.662264</ele>
        <time>2022-05-27T14:16:56.511Z</time>
      </trkpt>
      <trkpt lat="43.725" lon="1.46463">
        <ele>233.692248</ele>
        <time>2022-05-27T14:16:59.485Z</time>
      </trkpt>
      <trkpt lat="43.72498" lon="1.46478">
        <ele>233.720219</ele>
        <time>2022-05-27T14:17:02.520Z</time>
      </trkpt>
      <trkpt lat="43.72496" lon="1.46493">
        <ele>233.74537</ele>
        <time>2022-05-27T14:17:04.523Z</time>
      </trkpt>
      <trkpt lat="43.72496" lon="1.46507">
        <ele>233.769524</ele>
        <time>2022-05-27T14:17:06.484Z</time>
      </trkpt>
      <trkpt lat="43.72496" lon="1.4652">
        <ele>233.793645</ele>
        <time>2022-05-27T14:17:08.511Z</time>
      </trkpt>
      <trkpt lat="43.72499" lon="1.46534">
        <ele>233.818544</ele>
        <time>2022-05-27T14:17:10.513Z</time>
      </trkpt>
      <trkpt lat="43.72508" lon="1.46542">
        <ele>233.842801</ele>
        <time>2022-05-27T14:17:12.492Z</time>
      </trkpt>
      <trkpt lat="43.72517" lon="1.46548">
        <ele>233.826996</ele>
        <time>2022-05-27T14:17:14.501Z</time>
      </trkpt>
      <trkpt lat="43.72526" lon="1.46551">
        <ele>233.70066</ele>
        <time>2022-05-27T14:17:16.491Z</time>
      </trkpt>
      <trkpt lat="43.7254" lon="1.46552">
        <ele>233.5205</ele>
        <time>2022-05-27T14:17:19.505Z</time>
      </trkpt>
      <trkpt lat="43.72549" lon="1.46555">
        <ele>233.392424</ele>
        <time>2022-05-27T14:17:21.503Z</time>
      </trkpt>
      <trkpt lat="43.7256" lon="1.46559">
        <ele>233.239829</ele>
        <time>2022-05-27T14:17:23.520Z</time>
      </trkpt>
      <trkpt lat="43.7257" lon="1.4656">
        <ele>233.092827</ele>
        <time>2022-05-27T14:17:25.495Z</time>
      </trkpt>
      <trkpt lat="43.72581" lon="1.46561">
        <ele>232.944159</ele>
        <time>2022-05-27T14:17:27.530Z</time>
      </trkpt>
      <trkpt lat="43.72594" lon="1.46563">
        <ele>232.764739</ele>
        <time>2022-05-27T14:17:31.523Z</time>
      </trkpt>
      <trkpt lat="43.72604" lon="1.46566">
        <ele>232.633259</ele>
        <time>2022-05-27T14:17:34.522Z</time>
      </trkpt>
      <trkpt lat="43.72615" lon="1.46567">
        <ele>232.481417</ele>
        <time>2022-05-27T14:17:38.509Z</time>
      </trkpt>
      <trkpt lat="43.72625" lon="1.46573">
        <ele>232.33328</ele>
        <time>2022-05-27T14:17:41.528Z</time>
      </trkpt>
      <trkpt lat="43.72635" lon="1.46576">
        <ele>232.203443</ele>
        <time>2022-05-27T14:17:44.541Z</time>
      </trkpt>
      <trkpt lat="43.72645" lon="1.46579">
        <ele>232.057442</ele>
        <time>2022-05-27T14:17:47.514Z</time>
      </trkpt>
      <trkpt lat="43.72654" lon="1.46581">
        <ele>231.933659</ele>
        <time>2022-05-27T14:17:50.516Z</time>
      </trkpt>
      <trkpt lat="43.72663" lon="1.46585">
        <ele>231.80384</ele>
        <time>2022-05-27T14:17:54.496Z</time>
      </trkpt>
      <trkpt lat="43.72673" lon="1.46592">
        <ele>231.655653</ele>
        <time>2022-05-27T14:17:57.518Z</time>
      </trkpt>
      <trkpt lat="43.72684" lon="1.466">
        <ele>231.487601</ele>
        <time>2022-05-27T14:18:00.527Z</time>
      </trkpt>
      <trkpt lat="43.72694" lon="1.46604">
        <ele>231.348128</ele>
        <time>2022-05-27T14:18:04.517Z</time>
      </trkpt>
      <trkpt lat="43.72703" lon="1.46612">
        <ele>231.205511</ele>
        <time>2022-05-27T14:18:07.518Z</time>
      </trkpt>
      <trkpt lat="43.72714" lon="1.46622">
        <ele>231.024483</ele>
        <time>2022-05-27T14:18:10.511Z</time>
      </trkpt>
      <trkpt lat="43.72724" lon="1.46634">
        <ele>230.848588</ele>
        <time>2022-05-27T14:18:12.513Z</time>
      </trkpt>
      <trkpt lat="43.72732" lon="1.46643">
        <ele>230.709203</ele>
        <time>2022-05-27T14:18:14.543Z</time>
      </trkpt>
      <trkpt lat="43.72741" lon="1.46655">
        <ele>230.536547</ele>
        <time>2022-05-27T14:18:17.511Z</time>
      </trkpt>
      <trkpt lat="43.72749" lon="1.46667">
        <ele>230.377708</ele>
        <time>2022-05-27T14:18:20.521Z</time>
      </trkpt>
      <trkpt lat="43.72757" lon="1.46678">
        <ele>230.226385</ele>
        <time>2022-05-27T14:18:24.521Z</time>
      </trkpt>
      <trkpt lat="43.72764" lon="1.4669">
        <ele>230.084656</ele>
        <time>2022-05-27T14:18:28.490Z</time>
      </trkpt>
      <trkpt lat="43.72771" lon="1.46702">
        <ele>229.934275</ele>
        <time>2022-05-27T14:18:32.512Z</time>
      </trkpt>
      <trkpt lat="43.72776" lon="1.46713">
        <ele>229.80898</ele>
        <time>2022-05-27T14:18:35.518Z</time>
      </trkpt>
      <trkpt lat="43.72781" lon="1.46726">
        <ele>229.659295</ele>
        <time>2022-05-27T14:18:39.511Z</time>
      </trkpt>
      <trkpt lat="43.72793" lon="1.4673">
        <ele>229.493625</ele>
        <time>2022-05-27T14:19:10.492Z</time>
      </trkpt>
      <trkpt lat="43.728" lon="1.46715">
        <ele>229.32111</ele>
        <time>2022-05-27T14:19:25.507Z</time>
      </trkpt>
      <trkpt lat="43.72812" lon="1.46705">
        <ele>229.140546</ele>
        <time>2022-05-27T14:19:31.519Z</time>
      </trkpt>
      <trkpt lat="43.72819" lon="1.46697">
        <ele>229.007581</ele>
        <time>2022-05-27T14:19:34.510Z</time>
      </trkpt>
      <trkpt lat="43.72827" lon="1.4669">
        <ele>228.840275</ele>
        <time>2022-05-27T14:19:39.510Z</time>
      </trkpt>
      <trkpt lat="43.72836" lon="1.46694">
        <ele>228.662997</ele>
        <time>2022-05-27T14:19:42.535Z</time>
      </trkpt>
      <trkpt lat="43.72846" lon="1.46689">
        <ele>228.465789</ele>
        <time>2022-05-27T14:19:45.511Z</time>
      </trkpt>
      <trkpt lat="43.72856" lon="1.46683">
        <ele>228.261914</ele>
        <time>2022-05-27T14:19:50.512Z</time>
      </trkpt>
      <trkpt lat="43.72861" lon="1.46672">
        <ele>228.068512</ele>
        <time>2022-05-27T14:19:55.528Z</time>
      </trkpt>
      <trkpt lat="43.72865" lon="1.46657">
        <ele>227.860756</ele>
        <time>2022-05-27T14:20:00.520Z</time>
      </trkpt>
      <trkpt lat="43.72875" lon="1.46659">
        <ele>227.682596</ele>
        <time>2022-05-27T14:20:05.512Z</time>
      </trkpt>
      <trkpt lat="43.72882" lon="1.46666">
        <ele>227.506002</ele>
        <time>2022-05-27T14:20:08.513Z</time>
      </trkpt>
      <trkpt lat="43.7289" lon="1.46677">
        <ele>227.299426</ele>
        <time>2022-05-27T14:20:12.496Z</time>
      </trkpt>
      <trkpt lat="43.72901" lon="1.46684">
        <ele>227.076881</ele>
        <time>2022-05-27T14:20:16.511Z</time>
      </trkpt>
      <trkpt lat="43.72919" lon="1.46693">
        <ele>226.714418</ele>
        <time>2022-05-27T14:20:32.516Z</time>
      </trkpt>
      <trkpt lat="43.72926" lon="1.46705">
        <ele>226.506686</ele>
        <time>2022-05-27T14:20:35.513Z</time>
      </trkpt>
      <trkpt lat="43.72931" lon="1.46717">
        <ele>226.323989</ele>
        <time>2022-05-27T14:20:38.521Z</time>
      </trkpt>
      <trkpt lat="43.72938" lon="1.46726">
        <ele>226.143736</ele>
        <time>2022-05-27T14:20:40.496Z</time>
      </trkpt>
      <trkpt lat="43.72946" lon="1.46735">
        <ele>225.940705</ele>
        <time>2022-05-27T14:20:42.497Z</time>
      </trkpt>
      <trkpt lat="43.72955" lon="1.46745">
        <ele>225.74273</ele>
        <time>2022-05-27T14:20:44.517Z</time>
      </trkpt>
      <trkpt lat="43.72963" lon="1.46751">
        <ele>225.428402</ele>
        <time>2022-05-27T14:20:46.510Z</time>
      </trkpt>
      <trkpt lat="43.72974" lon="1.46755">
        <ele>224.726264</ele>
        <time>2022-05-27T14:20:48.524Z</time>
      </trkpt>
      <trkpt lat="43.72987" lon="1.46761">
        <ele>223.875949</ele>
        <time>2022-05-27T14:20:51.514Z</time>
      </trkpt>
      <trkpt lat="43.72996" lon="1.46765">
        <ele>223.2824</ele>
        <time>2022-05-27T14:20:53.520Z</time>
      </trkpt>
      <trkpt lat="43.73008" lon="1.46772">
        <ele>222.518087</ele>
        <time>2022-05-27T14:20:56.500Z</time>
      </trkpt>
      <trkpt lat="43.73016" lon="1.46781">
        <ele>221.90245</ele>
        <time>2022-05-27T14:20:58.494Z</time>
      </trkpt>
      <trkpt lat="43.73026" lon="1.46793">
        <ele>221.081446</ele>
        <time>2022-05-27T14:21:00.534Z</time>
      </trkpt>
      <trkpt lat="43.73035" lon="1.46802">
        <ele>220.401415</ele>
        <time>2022-05-27T14:21:02.514Z</time>
      </trkpt>
      <trkpt lat="43.73044" lon="1.46812">
        <ele>219.725653</ele>
        <time>2022-05-27T14:21:05.502Z</time>
      </trkpt>
      <trkpt lat="43.73052" lon="1.46819">
        <ele>219.128922</ele>
        <time>2022-05-27T14:21:08.494Z</time>
      </trkpt>
      <trkpt lat="43.73061" lon="1.46828">
        <ele>218.46402</ele>
        <time>2022-05-27T14:21:11.508Z</time>
      </trkpt>
      <trkpt lat="43.73068" lon="1.46838">
        <ele>217.823007</ele>
        <time>2022-05-27T14:21:14.515Z</time>
      </trkpt>
      <trkpt lat="43.73076" lon="1.46848">
        <ele>217.183543</ele>
        <time>2022-05-27T14:21:18.527Z</time>
      </trkpt>
      <trkpt lat="43.73079" lon="1.46862">
        <ele>216.559392</ele>
        <time>2022-05-27T14:21:22.500Z</time>
      </trkpt>
      <trkpt lat="43.73074" lon="1.46874">
        <ele>215.940101</ele>
        <time>2022-05-27T14:21:27.515Z</time>
      </trkpt>
      <trkpt lat="43.73064" lon="1.4688">
        <ele>215.271608</ele>
        <time>2022-05-27T14:21:32.506Z</time>
      </trkpt>
      <trkpt lat="43.73054" lon="1.46876">
        <ele>214.704815</ele>
        <time>2022-05-27T14:21:36.528Z</time>
      </trkpt>
      <trkpt lat="43.73046" lon="1.46868">
        <ele>215.20699</ele>
        <time>2022-05-27T14:21:41.512Z</time>
      </trkpt>
      <trkpt lat="43.73037" lon="1.46862">
        <ele>215.787937</ele>
        <time>2022-05-27T14:21:45.507Z</time>
      </trkpt>
      <trkpt lat="43.73027" lon="1.46858">
        <ele>216.348435</ele>
        <time>2022-05-27T14:21:49.480Z</time>
      </trkpt>
      <trkpt lat="43.73017" lon="1.46854">
        <ele>216.913805</ele>
        <time>2022-05-27T14:21:52.522Z</time>
      </trkpt>
      <trkpt lat="43.73009" lon="1.46862">
        <ele>217.456284</ele>
        <time>2022-05-27T14:21:57.513Z</time>
      </trkpt>
      <trkpt lat="43.72999" lon="1.46872">
        <ele>218.115653</ele>
        <time>2022-05-27T14:22:03.507Z</time>
      </trkpt>
      <trkpt lat="43.72988" lon="1.46875">
        <ele>218.759928</ele>
        <time>2022-05-27T14:22:08.494Z</time>
      </trkpt>
      <trkpt lat="43.72978" lon="1.46876">
        <ele>219.289701</ele>
        <time>2022-05-27T14:22:12.492Z</time>
      </trkpt>
      <trkpt lat="43.72978" lon="1.46861">
        <ele>219.861357</ele>
        <time>2022-05-27T14:22:19.517Z</time>
      </trkpt>
      <trkpt lat="43.72983" lon="1.4685">
        <ele>220.36005</ele>
        <time>2022-05-27T14:22:23.504Z</time>
      </trkpt>
      <trkpt lat="43.72984" lon="1.46837">
        <ele>220.90505</ele>
        <time>2022-05-27T14:22:27.526Z</time>
      </trkpt>
      <trkpt lat="43.72981" lon="1.46823">
        <ele>221.476556</ele>
        <time>2022-05-27T14:22:31.485Z</time>
      </trkpt>
      <trkpt lat="43.72974" lon="1.46813">
        <ele>222.022876</ele>
        <time>2022-05-27T14:22:35.506Z</time>
      </trkpt>
      <trkpt lat="43.72964" lon="1.46807">
        <ele>222.626869</ele>
        <time>2022-05-27T14:22:37.502Z</time>
      </trkpt>
      <trkpt lat="43.72952" lon="1.46803">
        <ele>223.276766</ele>
        <time>2022-05-27T14:22:40.505Z</time>
      </trkpt>
      <trkpt lat="43.7294" lon="1.46801">
        <ele>223.927586</ele>
        <time>2022-05-27T14:22:45.525Z</time>
      </trkpt>
      <trkpt lat="43.7293" lon="1.468">
        <ele>224.46873</ele>
        <time>2022-05-27T14:22:47.518Z</time>
      </trkpt>
      <trkpt lat="43.72922" lon="1.46794">
        <ele>224.489987</ele>
        <time>2022-05-27T14:22:50.517Z</time>
      </trkpt>
      <trkpt lat="43.72913" lon="1.46783">
        <ele>224.515561</ele>
        <time>2022-05-27T14:22:54.517Z</time>
      </trkpt>
      <trkpt lat="43.72907" lon="1.4677">
        <ele>224.539645</ele>
        <time>2022-05-27T14:22:57.533Z</time>
      </trkpt>
      <trkpt lat="43.72897" lon="1.46758">
        <ele>224.570318</ele>
        <time>2022-05-27T14:23:02.509Z</time>
      </trkpt>
      <trkpt lat="43.72886" lon="1.46758">
        <ele>224.594181</ele>
        <time>2022-05-27T14:23:05.515Z</time>
      </trkpt>
      <trkpt lat="43.72877" lon="1.4676">
        <ele>224.614828</ele>
        <time>2022-05-27T14:23:07.502Z</time>
      </trkpt>
      <trkpt lat="43.72865" lon="1.46766">
        <ele>224.642067</ele>
        <time>2022-05-27T14:23:10.522Z</time>
      </trkpt>
      <trkpt lat="43.72855" lon="1.4677">
        <ele>224.6653</ele>
        <time>2022-05-27T14:23:13.524Z</time>
      </trkpt>
      <trkpt lat="43.72847" lon="1.46783">
        <ele>224.692821</ele>
        <time>2022-05-27T14:23:17.518Z</time>
      </trkpt>
      <trkpt lat="43.72838" lon="1.46793">
        <ele>224.718598</ele>
        <time>2022-05-27T14:23:20.511Z</time>
      </trkpt>
      <trkpt lat="43.72826" lon="1.46793">
        <ele>224.745083</ele>
        <time>2022-05-27T14:23:23.504Z</time>
      </trkpt>
      <trkpt lat="43.72817" lon="1.46797">
        <ele>224.765057</ele>
        <time>2022-05-27T14:23:27.513Z</time>
      </trkpt>
      <trkpt lat="43.72818" lon="1.46811">
        <ele>224.786917</ele>
        <time>2022-05-27T14:23:32.510Z</time>
      </trkpt>
      <trkpt lat="43.72824" lon="1.46825">
        <ele>224.81335</ele>
        <time>2022-05-27T14:23:35.520Z</time>
      </trkpt>
      <trkpt lat="43.7283" lon="1.46839">
        <ele>224.838861</ele>
        <time>2022-05-27T14:23:38.527Z</time>
      </trkpt>
      <trkpt lat="43.72835" lon="1.46854">
        <ele>224.86492</ele>
        <time>2022-05-27T14:23:41.521Z</time>
      </trkpt>
      <trkpt lat="43.7284" lon="1.46868">
        <ele>224.488835</ele>
        <time>2022-05-27T14:23:46.489Z</time>
      </trkpt>
      <trkpt lat="43.72842" lon="1.46882">
        <ele>224.119289</ele>
        <time>2022-05-27T14:23:50.503Z</time>
      </trkpt>
      <trkpt lat="43.72847" lon="1.46895">
        <ele>223.773635</ele>
        <time>2022-05-27T14:23:55.524Z</time>
      </trkpt>
      <trkpt lat="43.72853" lon="1.46909">
        <ele>223.354222</ele>
        <time>2022-05-27T14:23:59.508Z</time>
      </trkpt>
      <trkpt lat="43.72864" lon="1.46911">
        <ele>222.960041</ele>
        <time>2022-05-27T14:24:04.517Z</time>
      </trkpt>
      <trkpt lat="43.72874" lon="1.46916">
        <ele>222.612022</ele>
        <time>2022-05-27T14:24:06.511Z</time>
      </trkpt>
      <trkpt lat="43.72884" lon="1.46924">
        <ele>222.215597</ele>
        <time>2022-05-27T14:24:09.523Z</time>
      </trkpt>
      <trkpt lat="43.72893" lon="1.4693">
        <ele>221.871076</ele>
        <time>2022-05-27T14:24:12.513Z</time>
      </trkpt>
      <trkpt lat="43.72903" lon="1.46932">
        <ele>221.527806</ele>
        <time>2022-05-27T14:24:14.500Z</time>
      </trkpt>
      <trkpt lat="43.72912" lon="1.4694">
        <ele>221.147122</ele>
        <time>2022-05-27T14:24:16.502Z</time>
      </trkpt>
      <trkpt lat="43.72921" lon="1.46948">
        <ele>220.790749</ele>
        <time>2022-05-27T14:24:18.518Z</time>
      </trkpt>
      <trkpt lat="43.72929" lon="1.46958">
        <ele>220.410785</ele>
        <time>2022-05-27T14:24:20.523Z</time>
      </trkpt>
      <trkpt lat="43.72936" lon="1.46966">
        <ele>220.091549</ele>
        <time>2022-05-27T14:24:22.504Z</time>
      </trkpt>
      <trkpt lat="43.72945" lon="1.46976">
        <ele>219.690901</ele>
        <time>2022-05-27T14:24:25.501Z</time>
      </trkpt>
      <trkpt lat="43.7295" lon="1.46994">
        <ele>219.229459</ele>
        <time>2022-05-27T14:24:31.504Z</time>
      </trkpt>
      <trkpt lat="43.72941" lon="1.46999">
        <ele>218.913094</ele>
        <time>2022-05-27T14:24:37.506Z</time>
      </trkpt>
      <trkpt lat="43.72932" lon="1.4699">
        <ele>218.383719</ele>
        <time>2022-05-27T14:24:42.509Z</time>
      </trkpt>
      <trkpt lat="43.72922" lon="1.46986">
        <ele>217.650318</ele>
        <time>2022-05-27T14:24:47.514Z</time>
      </trkpt>
      <trkpt lat="43.72913" lon="1.46996">
        <ele>216.837882</ele>
        <time>2022-05-27T14:24:51.501Z</time>
      </trkpt>
      <trkpt lat="43.72906" lon="1.47006">
        <ele>216.121502</ele>
        <time>2022-05-27T14:24:54.526Z</time>
      </trkpt>
      <trkpt lat="43.72897" lon="1.47015">
        <ele>215.382945</ele>
        <time>2022-05-27T14:24:57.523Z</time>
      </trkpt>
      <trkpt lat="43.72889" lon="1.47021">
        <ele>214.712042</ele>
        <time>2022-05-27T14:25:02.505Z</time>
      </trkpt>
      <trkpt lat="43.72896" lon="1.47042">
        <ele>213.546703</ele>
        <time>2022-05-27T14:26:08.510Z</time>
      </trkpt>
      <trkpt lat="43.72902" lon="1.47052">
        <ele>212.916308</ele>
        <time>2022-05-27T14:26:10.530Z</time>
      </trkpt>
      <trkpt lat="43.72907" lon="1.47063">
        <ele>212.284285</ele>
        <time>2022-05-27T14:26:12.506Z</time>
      </trkpt>
      <trkpt lat="43.72913" lon="1.47075">
        <ele>211.521305</ele>
        <time>2022-05-27T14:26:14.513Z</time>
      </trkpt>
      <trkpt lat="43.72917" lon="1.47088">
        <ele>210.845949</ele>
        <time>2022-05-27T14:26:17.510Z</time>
      </trkpt>
      <trkpt lat="43.72919" lon="1.47102">
        <ele>210.116657</ele>
        <time>2022-05-27T14:26:20.534Z</time>
      </trkpt>
      <trkpt lat="43.72926" lon="1.47117">
        <ele>209.226224</ele>
        <time>2022-05-27T14:26:23.507Z</time>
      </trkpt>
      <trkpt lat="43.72932" lon="1.47128">
        <ele>208.547741</ele>
        <time>2022-05-27T14:26:25.512Z</time>
      </trkpt>
      <trkpt lat="43.7294" lon="1.47139">
        <ele>207.758331</ele>
        <time>2022-05-27T14:26:28.495Z</time>
      </trkpt>
      <trkpt lat="43.72949" lon="1.47141">
        <ele>207.120233</ele>
        <time>2022-05-27T14:26:31.513Z</time>
      </trkpt>
      <trkpt lat="43.72958" lon="1.47144">
        <ele>206.452915</ele>
        <time>2022-05-27T14:26:34.538Z</time>
      </trkpt>
      <trkpt lat="43.72967" lon="1.47148">
        <ele>206.195925</ele>
        <time>2022-05-27T14:26:37.521Z</time>
      </trkpt>
      <trkpt lat="43.72978" lon="1.47152">
        <ele>206.153028</ele>
        <time>2022-05-27T14:26:40.513Z</time>
      </trkpt>
      <trkpt lat="43.72987" lon="1.47155">
        <ele>206.117371</ele>
        <time>2022-05-27T14:26:42.520Z</time>
      </trkpt>
      <trkpt lat="43.72998" lon="1.4716">
        <ele>206.070201</ele>
        <time>2022-05-27T14:26:44.508Z</time>
      </trkpt>
      <trkpt lat="43.7301" lon="1.47164">
        <ele>206.024629</ele>
        <time>2022-05-27T14:26:46.521Z</time>
      </trkpt>
      <trkpt lat="43.73019" lon="1.47156">
        <ele>205.982143</ele>
        <time>2022-05-27T14:26:50.496Z</time>
      </trkpt>
      <trkpt lat="43.73022" lon="1.47138">
        <ele>205.930136</ele>
        <time>2022-05-27T14:26:54.506Z</time>
      </trkpt>
      <trkpt lat="43.73027" lon="1.47122">
        <ele>205.881356</ele>
        <time>2022-05-27T14:26:57.512Z</time>
      </trkpt>
      <trkpt lat="43.73033" lon="1.47111">
        <ele>205.842497</ele>
        <time>2022-05-27T14:26:59.517Z</time>
      </trkpt>
      <trkpt lat="43.73038" lon="1.47096">
        <ele>205.795237</ele>
        <time>2022-05-27T14:27:01.507Z</time>
      </trkpt>
      <trkpt lat="43.73043" lon="1.47084">
        <ele>205.755319</ele>
        <time>2022-05-27T14:27:03.513Z</time>
      </trkpt>
      <trkpt lat="43.73047" lon="1.47071">
        <ele>205.716295</ele>
        <time>2022-05-27T14:27:05.503Z</time>
      </trkpt>
      <trkpt lat="43.73042" lon="1.47059">
        <ele>205.678485</ele>
        <time>2022-05-27T14:27:08.488Z</time>
      </trkpt>
      <trkpt lat="43.73039" lon="1.47047">
        <ele>205.643209</ele>
        <time>2022-05-27T14:27:12.499Z</time>
      </trkpt>
      <trkpt lat="43.73042" lon="1.47033">
        <ele>205.60071</ele>
        <time>2022-05-27T14:27:17.521Z</time>
      </trkpt>
      <trkpt lat="43.73048" lon="1.47021">
        <ele>205.561322</ele>
        <time>2022-05-27T14:27:28.504Z</time>
      </trkpt>
      <trkpt lat="43.73049" lon="1.47008">
        <ele>205.523717</ele>
        <time>2022-05-27T14:27:33.498Z</time>
      </trkpt>
      <trkpt lat="43.73049" lon="1.46994">
        <ele>205.514389</ele>
        <time>2022-05-27T14:27:36.502Z</time>
      </trkpt>
      <trkpt lat="43.73052" lon="1.4698">
        <ele>205.510613</ele>
        <time>2022-05-27T14:27:40.509Z</time>
      </trkpt>
      <trkpt lat="43.73059" lon="1.46966">
        <ele>205.506217</ele>
        <time>2022-05-27T14:27:43.505Z</time>
      </trkpt>
      <trkpt lat="43.73064" lon="1.46954">
        <ele>205.502404</ele>
        <time>2022-05-27T14:27:46.495Z</time>
      </trkpt>
      <trkpt lat="43.73067" lon="1.46941">
        <ele>205.498911</ele>
        <time>2022-05-27T14:27:48.514Z</time>
      </trkpt>
      <trkpt lat="43.7307" lon="1.46927">
        <ele>205.494942</ele>
        <time>2022-05-27T14:27:51.508Z</time>
      </trkpt>
      <trkpt lat="43.7307" lon="1.46912">
        <ele>205.491087</ele>
        <time>2022-05-27T14:27:55.505Z</time>
      </trkpt>
      <trkpt lat="43.73071" lon="1.46897">
        <ele>205.487017</ele>
        <time>2022-05-27T14:27:59.515Z</time>
      </trkpt>
      <trkpt lat="43.73072" lon="1.46883">
        <ele>205.483339</ele>
        <time>2022-05-27T14:28:03.511Z</time>
      </trkpt>
      <trkpt lat="43.73078" lon="1.4687">
        <ele>205.479375</ele>
        <time>2022-05-27T14:28:06.508Z</time>
      </trkpt>
      <trkpt lat="43.73083" lon="1.46858">
        <ele>205.475549</ele>
        <time>2022-05-27T14:28:10.498Z</time>
      </trkpt>
      <trkpt lat="43.73089" lon="1.46844">
        <ele>205.471217</ele>
        <time>2022-05-27T14:28:15.511Z</time>
      </trkpt>
      <trkpt lat="43.73097" lon="1.46833">
        <ele>205.467254</ele>
        <time>2022-05-27T14:28:19.516Z</time>
      </trkpt>
      <trkpt lat="43.73106" lon="1.46826">
        <ele>205.463367</ele>
        <time>2022-05-27T14:28:23.505Z</time>
      </trkpt>
      <trkpt lat="43.73113" lon="1.46814">
        <ele>205.459211</ele>
        <time>2022-05-27T14:28:27.498Z</time>
      </trkpt>
      <trkpt lat="43.73121" lon="1.46805">
        <ele>205.455448</ele>
        <time>2022-05-27T14:28:30.507Z</time>
      </trkpt>
      <trkpt lat="43.7313" lon="1.46797">
        <ele>205.449777</ele>
        <time>2022-05-27T14:28:34.503Z</time>
      </trkpt>
      <trkpt lat="43.73137" lon="1.46785">
        <ele>205.413612</ele>
        <time>2022-05-27T14:28:38.481Z</time>
      </trkpt>
      <trkpt lat="43.73142" lon="1.46772">
        <ele>205.379124</ele>
        <time>2022-05-27T14:28:41.511Z</time>
      </trkpt>
      <trkpt lat="43.73143" lon="1.46758">
        <ele>205.345021</ele>
        <time>2022-05-27T14:28:44.505Z</time>
      </trkpt>
      <trkpt lat="43.73144" lon="1.46744">
        <ele>205.312164</ele>
        <time>2022-05-27T14:28:48.499Z</time>
      </trkpt>
      <trkpt lat="43.73148" lon="1.46728">
        <ele>205.270403</ele>
        <time>2022-05-27T14:28:52.508Z</time>
      </trkpt>
      <trkpt lat="43.73153" lon="1.46714">
        <ele>205.234511</ele>
        <time>2022-05-27T14:28:56.512Z</time>
      </trkpt>
      <trkpt lat="43.73159" lon="1.46691">
        <ele>205.177076</ele>
        <time>2022-05-27T14:29:00.496Z</time>
      </trkpt>
      <trkpt lat="43.73167" lon="1.46679">
        <ele>205.137231</ele>
        <time>2022-05-27T14:29:03.508Z</time>
      </trkpt>
      <trkpt lat="43.73176" lon="1.46672">
        <ele>205.105001</ele>
        <time>2022-05-27T14:29:07.505Z</time>
      </trkpt>
      <trkpt lat="43.73184" lon="1.46663">
        <ele>205.070268</ele>
        <time>2022-05-27T14:29:12.506Z</time>
      </trkpt>
      <trkpt lat="43.73189" lon="1.46652">
        <ele>205.040527</ele>
        <time>2022-05-27T14:29:16.496Z</time>
      </trkpt>
      <trkpt lat="43.73189" lon="1.46637">
        <ele>205.003314</ele>
        <time>2022-05-27T14:29:20.507Z</time>
      </trkpt>
      <trkpt lat="43.7319" lon="1.46622">
        <ele>204.968778</ele>
        <time>2022-05-27T14:29:23.508Z</time>
      </trkpt>
      <trkpt lat="43.73195" lon="1.46612">
        <ele>204.939059</ele>
        <time>2022-05-27T14:29:26.503Z</time>
      </trkpt>
      <trkpt lat="43.73199" lon="1.466">
        <ele>204.906809</ele>
        <time>2022-05-27T14:29:30.496Z</time>
      </trkpt>
      <trkpt lat="43.73204" lon="1.46588">
        <ele>204.8742</ele>
        <time>2022-05-27T14:29:33.489Z</time>
      </trkpt>
      <trkpt lat="43.7321" lon="1.46574">
        <ele>204.869444</ele>
        <time>2022-05-27T14:29:36.502Z</time>
      </trkpt>
      <trkpt lat="43.73218" lon="1.46561">
        <ele>204.886154</ele>
        <time>2022-05-27T14:29:40.508Z</time>
      </trkpt>
      <trkpt lat="43.73223" lon="1.46551">
        <ele>204.89886</ele>
        <time>2022-05-27T14:29:42.503Z</time>
      </trkpt>
      <trkpt lat="43.73228" lon="1.46539">
        <ele>204.912498</ele>
        <time>2022-05-27T14:29:45.500Z</time>
      </trkpt>
      <trkpt lat="43.73234" lon="1.46528">
        <ele>204.92625</ele>
        <time>2022-05-27T14:29:47.504Z</time>
      </trkpt>
      <trkpt lat="43.7324" lon="1.46519">
        <ele>204.939557</ele>
        <time>2022-05-27T14:29:49.513Z</time>
      </trkpt>
      <trkpt lat="43.73246" lon="1.46507">
        <ele>204.953812</ele>
        <time>2022-05-27T14:29:51.521Z</time>
      </trkpt>
      <trkpt lat="43.73253" lon="1.46499">
        <ele>204.966498</ele>
        <time>2022-05-27T14:29:53.515Z</time>
      </trkpt>
      <trkpt lat="43.7326" lon="1.46488">
        <ele>204.980978</ele>
        <time>2022-05-27T14:29:55.507Z</time>
      </trkpt>
      <trkpt lat="43.73266" lon="1.46474">
        <ele>204.997327</ele>
        <time>2022-05-27T14:29:57.504Z</time>
      </trkpt>
      <trkpt lat="43.73274" lon="1.46465">
        <ele>205.011862</ele>
        <time>2022-05-27T14:30:02.498Z</time>
      </trkpt>
      <trkpt lat="43.73283" lon="1.46469">
        <ele>205.025145</ele>
        <time>2022-05-27T14:30:04.505Z</time>
      </trkpt>
      <trkpt lat="43.73295" lon="1.46472">
        <ele>205.042124</ele>
        <time>2022-05-27T14:30:07.499Z</time>
      </trkpt>
      <trkpt lat="43.73304" lon="1.46468">
        <ele>205.055541</ele>
        <time>2022-05-27T14:30:09.498Z</time>
      </trkpt>
      <trkpt lat="43.73308" lon="1.46457">
        <ele>205.068822</ele>
        <time>2022-05-27T14:30:13.522Z</time>
      </trkpt>
      <trkpt lat="43.73303" lon="1.46444">
        <ele>205.082916</ele>
        <time>2022-05-27T14:30:17.499Z</time>
      </trkpt>
      <trkpt lat="43.73302" lon="1.46428">
        <ele>205.099861</ele>
        <time>2022-05-27T14:30:20.511Z</time>
      </trkpt>
      <trkpt lat="43.73308" lon="1.46416">
        <ele>205.125969</ele>
        <time>2022-05-27T14:30:22.501Z</time>
      </trkpt>
      <trkpt lat="43.73314" lon="1.46405">
        <ele>205.19024</ele>
        <time>2022-05-27T14:30:24.515Z</time>
      </trkpt>
      <trkpt lat="43.7332" lon="1.46392">
        <ele>205.255131</ele>
        <time>2022-05-27T14:30:26.520Z</time>
      </trkpt>
      <trkpt lat="43.73325" lon="1.4638">
        <ele>205.317251</ele>
        <time>2022-05-27T14:30:28.520Z</time>
      </trkpt>
      <trkpt lat="43.7333" lon="1.46369">
        <ele>205.373783</ele>
        <time>2022-05-27T14:30:30.516Z</time>
      </trkpt>
      <trkpt lat="43.73337" lon="1.46353">
        <ele>205.455982</ele>
        <time>2022-05-27T14:30:33.495Z</time>
      </trkpt>
      <trkpt lat="43.73342" lon="1.46342">
        <ele>205.512887</ele>
        <time>2022-05-27T14:30:35.525Z</time>
      </trkpt>
      <trkpt lat="43.73347" lon="1.46331">
        <ele>205.572628</ele>
        <time>2022-05-27T14:30:37.519Z</time>
      </trkpt>
      <trkpt lat="43.73353" lon="1.4632">
        <ele>205.633665</ele>
        <time>2022-05-27T14:30:39.517Z</time>
      </trkpt>
      <trkpt lat="43.73358" lon="1.46307">
        <ele>205.695164</ele>
        <time>2022-05-27T14:30:41.511Z</time>
      </trkpt>
      <trkpt lat="43.73361" lon="1.46293">
        <ele>205.760603</ele>
        <time>2022-05-27T14:30:43.519Z</time>
      </trkpt>
      <trkpt lat="43.73359" lon="1.46279">
        <ele>205.822979</ele>
        <time>2022-05-27T14:30:45.511Z</time>
      </trkpt>
      <trkpt lat="43.7335" lon="1.46272">
        <ele>205.885447</ele>
        <time>2022-05-27T14:30:47.514Z</time>
      </trkpt>
      <trkpt lat="43.7334" lon="1.46268">
        <ele>205.948796</ele>
        <time>2022-05-27T14:30:49.515Z</time>
      </trkpt>
      <trkpt lat="43.7333" lon="1.46268">
        <ele>206.009842</ele>
        <time>2022-05-27T14:30:51.489Z</time>
      </trkpt>
      <trkpt lat="43.73317" lon="1.46266">
        <ele>206.088347</ele>
        <time>2022-05-27T14:30:54.524Z</time>
      </trkpt>
      <trkpt lat="43.73305" lon="1.46263">
        <ele>206.162442</ele>
        <time>2022-05-27T14:30:57.517Z</time>
      </trkpt>
      <trkpt lat="43.73293" lon="1.46255">
        <ele>206.279406</ele>
        <time>2022-05-27T14:31:00.507Z</time>
      </trkpt>
      <trkpt lat="43.73284" lon="1.46244">
        <ele>206.434739</ele>
        <time>2022-05-27T14:31:03.488Z</time>
      </trkpt>
      <trkpt lat="43.73277" lon="1.46228">
        <ele>206.598176</ele>
        <time>2022-05-27T14:31:06.504Z</time>
      </trkpt>
      <trkpt lat="43.73271" lon="1.46211">
        <ele>206.768161</ele>
        <time>2022-05-27T14:31:09.505Z</time>
      </trkpt>
      <trkpt lat="43.73265" lon="1.46197">
        <ele>206.913753</ele>
        <time>2022-05-27T14:31:12.496Z</time>
      </trkpt>
      <trkpt lat="43.73259" lon="1.46187">
        <ele>207.037583</ele>
        <time>2022-05-27T14:31:18.521Z</time>
      </trkpt>
      <trkpt lat="43.73248" lon="1.4618">
        <ele>207.181753</ele>
        <time>2022-05-27T14:31:23.509Z</time>
      </trkpt>
      <trkpt lat="43.73239" lon="1.46186">
        <ele>207.306445</ele>
        <time>2022-05-27T14:31:26.504Z</time>
      </trkpt>
      <trkpt lat="43.73232" lon="1.46201">
        <ele>207.464537</ele>
        <time>2022-05-27T14:31:29.509Z</time>
      </trkpt>
      <trkpt lat="43.73228" lon="1.46212">
        <ele>207.583602</ele>
        <time>2022-05-27T14:31:31.568Z</time>
      </trkpt>
      <trkpt lat="43.73224" lon="1.46224">
        <ele>207.700689</ele>
        <time>2022-05-27T14:31:33.525Z</time>
      </trkpt>
      <trkpt lat="43.73219" lon="1.46235">
        <ele>207.815914</ele>
        <time>2022-05-27T14:31:35.500Z</time>
      </trkpt>
      <trkpt lat="43.73209" lon="1.46245">
        <ele>207.968462</ele>
        <time>2022-05-27T14:31:38.526Z</time>
      </trkpt>
      <trkpt lat="43.73198" lon="1.46241">
        <ele>208.114494</ele>
        <time>2022-05-27T14:31:41.498Z</time>
      </trkpt>
      <trkpt lat="43.73192" lon="1.4623">
        <ele>208.236838</ele>
        <time>2022-05-27T14:31:44.507Z</time>
      </trkpt>
      <trkpt lat="43.73183" lon="1.46215">
        <ele>208.407448</ele>
        <time>2022-05-27T14:31:47.501Z</time>
      </trkpt>
      <trkpt lat="43.73176" lon="1.46204">
        <ele>208.699209</ele>
        <time>2022-05-27T14:31:49.486Z</time>
      </trkpt>
      <trkpt lat="43.73169" lon="1.46194">
        <ele>209.048088</ele>
        <time>2022-05-27T14:31:51.523Z</time>
      </trkpt>
      <trkpt lat="43.7316" lon="1.46185">
        <ele>209.396603</ele>
        <time>2022-05-27T14:31:53.498Z</time>
      </trkpt>
      <trkpt lat="43.73153" lon="1.46175">
        <ele>209.758219</ele>
        <time>2022-05-27T14:31:55.507Z</time>
      </trkpt>
      <trkpt lat="43.73146" lon="1.46163">
        <ele>210.109893</ele>
        <time>2022-05-27T14:31:57.514Z</time>
      </trkpt>
      <trkpt lat="43.73141" lon="1.4615">
        <ele>210.474034</ele>
        <time>2022-05-27T14:31:59.504Z</time>
      </trkpt>
      <trkpt lat="43.73132" lon="1.46142">
        <ele>210.817007</ele>
        <time>2022-05-27T14:32:01.503Z</time>
      </trkpt>
      <trkpt lat="43.73124" lon="1.46133">
        <ele>211.149304</ele>
        <time>2022-05-27T14:32:03.503Z</time>
      </trkpt>
      <trkpt lat="43.73117" lon="1.46123">
        <ele>211.485483</ele>
        <time>2022-05-27T14:32:05.510Z</time>
      </trkpt>
      <trkpt lat="43.7311" lon="1.46113">
        <ele>211.823377</ele>
        <time>2022-05-27T14:32:07.530Z</time>
      </trkpt>
      <trkpt lat="43.73103" lon="1.46104">
        <ele>212.147382</ele>
        <time>2022-05-27T14:32:09.513Z</time>
      </trkpt>
      <trkpt lat="43.73097" lon="1.46094">
        <ele>212.473361</ele>
        <time>2022-05-27T14:32:11.537Z</time>
      </trkpt>
      <trkpt lat="43.73091" lon="1.46083">
        <ele>212.800179</ele>
        <time>2022-05-27T14:32:13.512Z</time>
      </trkpt>
      <trkpt lat="43.73089" lon="1.46071">
        <ele>213.09964</ele>
        <time>2022-05-27T14:32:15.513Z</time>
      </trkpt>
      <trkpt lat="43.73087" lon="1.46058">
        <ele>213.423401</ele>
        <time>2022-05-27T14:32:17.511Z</time>
      </trkpt>
      <trkpt lat="43.73081" lon="1.46049">
        <ele>213.726571</ele>
        <time>2022-05-27T14:32:19.516Z</time>
      </trkpt>
      <trkpt lat="43.73072" lon="1.46043">
        <ele>214.041769</ele>
        <time>2022-05-27T14:32:21.511Z</time>
      </trkpt>
      <trkpt lat="43.73061" lon="1.46037">
        <ele>214.441025</ele>
        <time>2022-05-27T14:32:24.515Z</time>
      </trkpt>
      <trkpt lat="43.73061" lon="1.46023">
        <ele>213.066192</ele>
        <time>2022-05-27T14:33:30.495Z</time>
      </trkpt>
      <trkpt lat="43.73067" lon="1.4601">
        <ele>212.948336</ele>
        <time>2022-05-27T14:33:35.520Z</time>
      </trkpt>
      <trkpt lat="43.73073" lon="1.45999">
        <ele>212.841609</ele>
        <time>2022-05-27T14:33:38.474Z</time>
      </trkpt>
      <trkpt lat="43.73078" lon="1.45987">
        <ele>212.736373</ele>
        <time>2022-05-27T14:33:42.501Z</time>
      </trkpt>
      <trkpt lat="43.73085" lon="1.45974">
        <ele>212.615693</ele>
        <time>2022-05-27T14:33:46.532Z</time>
      </trkpt>
      <trkpt lat="43.7309" lon="1.45961">
        <ele>212.718285</ele>
        <time>2022-05-27T14:33:50.541Z</time>
      </trkpt>
      <trkpt lat="43.73095" lon="1.4595">
        <ele>213.205021</ele>
        <time>2022-05-27T14:33:54.514Z</time>
      </trkpt>
      <trkpt lat="43.731" lon="1.45939">
        <ele>213.670008</ele>
        <time>2022-05-27T14:33:57.502Z</time>
      </trkpt>
      <trkpt lat="43.73107" lon="1.45929">
        <ele>214.175315</ele>
        <time>2022-05-27T14:34:00.496Z</time>
      </trkpt>
      <trkpt lat="43.73111" lon="1.45915">
        <ele>214.715473</ele>
        <time>2022-05-27T14:34:04.493Z</time>
      </trkpt>
      <trkpt lat="43.73126" lon="1.45897">
        <ele>215.715632</ele>
        <time>2022-05-27T14:34:30.535Z</time>
      </trkpt>
      <trkpt lat="43.73132" lon="1.45885">
        <ele>216.245443</ele>
        <time>2022-05-27T14:34:33.512Z</time>
      </trkpt>
      <trkpt lat="43.73138" lon="1.45871">
        <ele>216.832081</ele>
        <time>2022-05-27T14:34:36.509Z</time>
      </trkpt>
      <trkpt lat="43.73139" lon="1.45858">
        <ele>217.315573</ele>
        <time>2022-05-27T14:34:39.540Z</time>
      </trkpt>
      <trkpt lat="43.73134" lon="1.45846">
        <ele>217.809735</ele>
        <time>2022-05-27T14:34:43.497Z</time>
      </trkpt>
      <trkpt lat="43.73131" lon="1.45834">
        <ele>218.272837</ele>
        <time>2022-05-27T14:34:46.518Z</time>
      </trkpt>
      <trkpt lat="43.73121" lon="1.4582">
        <ele>218.971676</ele>
        <time>2022-05-27T14:34:52.509Z</time>
      </trkpt>
      <trkpt lat="43.73119" lon="1.45805">
        <ele>219.522351</ele>
        <time>2022-05-27T14:34:57.494Z</time>
      </trkpt>
      <trkpt lat="43.7312" lon="1.45792">
        <ele>220.019589</ele>
        <time>2022-05-27T14:35:01.522Z</time>
      </trkpt>
      <trkpt lat="43.73119" lon="1.45777">
        <ele>220.560401</ele>
        <time>2022-05-27T14:35:05.513Z</time>
      </trkpt>
      <trkpt lat="43.73111" lon="1.45766">
        <ele>221.074769</ele>
        <time>2022-05-27T14:35:08.511Z</time>
      </trkpt>
      <trkpt lat="43.73103" lon="1.45755">
        <ele>164.2</ele>
        <time>2022-05-27T14:35:10.525Z</time>
      </trkpt>
      <trkpt lat="43.731" lon="1.45743">
        <ele>165.4</ele>
      </trkpt>
      <trkpt lat="43.73121" lon="1.45698">
        <ele>164.8</ele>
      </trkpt>
      <trkpt lat="43.73125" lon="1.45687">
        <ele>164.5</ele>
      </trkpt>
      <trkpt lat="43.73127" lon="1.45665">
        <ele>164.4</ele>
      </trkpt>
      <trkpt lat="43.73144" lon="1.45619">
        <ele>163.2</ele>
      </trkpt>
      <trkpt lat="43.73152" lon="1.45614">
        <ele>162.5</ele>
      </trkpt>
      <trkpt lat="43.73171" lon="1.4561">
        <ele>160.4</ele>
      </trkpt>
      <trkpt lat="43.73191" lon="1.45579">
        <ele>158.4</ele>
      </trkpt>
      <trkpt lat="43.73193" lon="1.45569">
        <ele>158.1</ele>
      </trkpt>
      <trkpt lat="43.73161" lon="1.45515">
        <ele>161.5</ele>
      </trkpt>
      <trkpt lat="43.73152" lon="1.45448">
        <ele>163.7</ele>
      </trkpt>
      <trkpt lat="43.73139" lon="1.45422">
        <ele>166.8</ele>
      </trkpt>
      <trkpt lat="43.73109" lon="1.45394">
        <ele>172.2</ele>
      </trkpt>
      <trkpt lat="43.7309" lon="1.45367">
        <ele>175.2</ele>
      </trkpt>
      <trkpt lat="43.73088" lon="1.45359">
        <ele>175.6</ele>
      </trkpt>
      <trkpt lat="43.73061" lon="1.45388">
        <ele>177.6</ele>
      </trkpt>
      <trkpt lat="43.73046" lon="1.4539">
        <ele>178.3</ele>
      </trkpt>
      <trkpt lat="43.73029" lon="1.45379">
        <ele>178.6</ele>
      </trkpt>
      <trkpt lat="43.73019" lon="1.45378">
        <ele>178.7</ele>
      </trkpt>
      <trkpt lat="43.72997" lon="1.45395">
        <ele>179.1</ele>
      </trkpt>
      <trkpt lat="43.73014" lon="1.45408">
        <ele>178.6</ele>
      </trkpt>
      <trkpt lat="43.73041" lon="1.4544">
        <ele>177.1</ele>
      </trkpt>
      <trkpt lat="43.73053" lon="1.45452">
        <ele>175.2</ele>
      </trkpt>
      <trkpt lat="43.73057" lon="1.4548">
        <ele>172.2</ele>
      </trkpt>
      <trkpt lat="43.73052" lon="1.45494">
        <ele>173.2</ele>
      </trkpt>
      <trkpt lat="43.73052" lon="1.45507">
        <ele>173.1</ele>
      </trkpt>
      <trkpt lat="43.73078" lon="1.4556">
        <ele>171.2</ele>
      </trkpt>
      <trkpt lat="43.73092" lon="1.45614">
        <ele>169.7</ele>
      </trkpt>
      <trkpt lat="43.73095" lon="1.45711">
        <ele>167.7</ele>
      </trkpt>
      <trkpt lat="43.7309" lon="1.45736">
        <ele>167.4</ele>
      </trkpt>
      <trkpt lat="43.73079" lon="1.45753">
        <ele>168.7</ele>
      </trkpt>
      <trkpt lat="43.73077" lon="1.45757">
        <ele>168.7</ele>
      </trkpt>
      <trkpt lat="43.73055" lon="1.45751">
        <ele>173</ele>
      </trkpt>
      <trkpt lat="43.73034" lon="1.45737">
        <ele>176.7</ele>
      </trkpt>
      <trkpt lat="43.73056" lon="1.45667">
        <ele>174.9</ele>
      </trkpt>
      <trkpt lat="43.73056" lon="1.4565">
        <ele>174.9</ele>
      </trkpt>
      <trkpt lat="43.73047" lon="1.45632">
        <ele>175.7</ele>
      </trkpt>
      <trkpt lat="43.73027" lon="1.45615">
        <ele>177.2</ele>
      </trkpt>
      <trkpt lat="43.73001" lon="1.45584">
        <ele>177.9</ele>
      </trkpt>
      <trkpt lat="43.72955" lon="1.45545">
        <ele>179.6</ele>
      </trkpt>
      <trkpt lat="43.72955" lon="1.45539">
        <ele>179.6</ele>
      </trkpt>
      <trkpt lat="43.72975" lon="1.45481">
        <ele>179.8</ele>
      </trkpt>
      <trkpt lat="43.72974" lon="1.45472">
        <ele>179.9</ele>
      </trkpt>
      <trkpt lat="43.72971" lon="1.45466">
        <ele>180</ele>
      </trkpt>
      <trkpt lat="43.72958" lon="1.45458">
        <ele>180</ele>
        <time>2022-05-27T14:38:07.508Z</time>
      </trkpt>
      <trkpt lat="43.72935" lon="1.45448">
        <ele>180.3</ele>
        <time>2022-05-27T14:38:12.510Z</time>
      </trkpt>
      <trkpt lat="43.72934" lon="1.45439">
        <ele>180.3</ele>
      </trkpt>
      <trkpt lat="43.72935" lon="1.45432">
        <ele>180.2</ele>
      </trkpt>
      <trkpt lat="43.72937" lon="1.45426">
        <ele>180.1</ele>
        <time>2022-05-27T14:38:16.503Z</time>
      </trkpt>
      <trkpt lat="43.7294" lon="1.45419">
        <ele>237.012804</ele>
        <time>2022-05-27T14:38:22.526Z</time>
      </trkpt>
      <trkpt lat="43.72943" lon="1.45414">
        <ele>180</ele>
        <time>2022-05-27T14:52:34.521Z</time>
      </trkpt>
      <trkpt lat="43.72937" lon="1.45412">
        <ele>179.9</ele>
        <time>2022-05-27T14:52:38.503Z</time>
      </trkpt>
      <trkpt lat="43.7293" lon="1.45409">
        <ele>179.9</ele>
        <time>2022-05-27T14:52:41.511Z</time>
      </trkpt>
      <trkpt lat="43.72922" lon="1.45405">
        <ele>236.662463</ele>
        <time>2022-05-27T14:52:43.504Z</time>
      </trkpt>
      <trkpt lat="43.72911" lon="1.45394">
        <ele>236.53792</ele>
        <time>2022-05-27T14:52:46.488Z</time>
      </trkpt>
      <trkpt lat="43.729" lon="1.45395">
        <ele>236.431064</ele>
        <time>2022-05-27T14:52:48.493Z</time>
      </trkpt>
      <trkpt lat="43.72887" lon="1.45395">
        <ele>236.319036</ele>
        <time>2022-05-27T14:52:50.511Z</time>
      </trkpt>
      <trkpt lat="43.72876" lon="1.4539">
        <ele>236.207803</ele>
        <time>2022-05-27T14:52:52.509Z</time>
      </trkpt>
      <trkpt lat="43.72865" lon="1.45387">
        <ele>236.109916</ele>
        <time>2022-05-27T14:52:54.488Z</time>
      </trkpt>
      <trkpt lat="43.72855" lon="1.45391">
        <ele>236.014573</ele>
        <time>2022-05-27T14:52:56.504Z</time>
      </trkpt>
      <trkpt lat="43.72844" lon="1.4539">
        <ele>235.906235</ele>
        <time>2022-05-27T14:53:00.499Z</time>
      </trkpt>
      <trkpt lat="43.72834" lon="1.4539">
        <ele>235.81997</ele>
        <time>2022-05-27T14:53:03.508Z</time>
      </trkpt>
      <trkpt lat="43.72826" lon="1.45382">
        <ele>235.722987</ele>
        <time>2022-05-27T14:53:06.517Z</time>
      </trkpt>
      <trkpt lat="43.72815" lon="1.45376">
        <ele>235.618468</ele>
        <time>2022-05-27T14:53:09.510Z</time>
      </trkpt>
      <trkpt lat="43.72806" lon="1.45368">
        <ele>235.518085</ele>
        <time>2022-05-27T14:53:12.508Z</time>
      </trkpt>
      <trkpt lat="43.72799" lon="1.45357">
        <ele>235.426485</ele>
        <time>2022-05-27T14:53:15.498Z</time>
      </trkpt>
      <trkpt lat="43.72797" lon="1.45344">
        <ele>235.333835</ele>
        <time>2022-05-27T14:53:18.501Z</time>
      </trkpt>
      <trkpt lat="43.72795" lon="1.4533">
        <ele>235.244176</ele>
        <time>2022-05-27T14:53:20.525Z</time>
      </trkpt>
      <trkpt lat="43.72796" lon="1.45316">
        <ele>235.155799</ele>
        <time>2022-05-27T14:53:23.503Z</time>
      </trkpt>
      <trkpt lat="43.72793" lon="1.45297">
        <ele>235.162513</ele>
        <time>2022-05-27T14:53:26.501Z</time>
      </trkpt>
      <trkpt lat="43.72789" lon="1.45283">
        <ele>235.167652</ele>
        <time>2022-05-27T14:53:28.501Z</time>
      </trkpt>
      <trkpt lat="43.72786" lon="1.45272">
        <ele>235.172008</ele>
        <time>2022-05-27T14:53:30.522Z</time>
      </trkpt>
      <trkpt lat="43.72781" lon="1.45261">
        <ele>235.176395</ele>
        <time>2022-05-27T14:53:33.483Z</time>
      </trkpt>
      <trkpt lat="43.72778" lon="1.45249">
        <ele>235.180931</ele>
        <time>2022-05-27T14:53:37.485Z</time>
      </trkpt>
      <trkpt lat="43.72773" lon="1.45237">
        <ele>235.185667</ele>
        <time>2022-05-27T14:53:42.514Z</time>
      </trkpt>
      <trkpt lat="43.72776" lon="1.45224">
        <ele>235.190233</ele>
        <time>2022-05-27T14:53:46.500Z</time>
      </trkpt>
      <trkpt lat="43.72782" lon="1.4521">
        <ele>235.195778</ele>
        <time>2022-05-27T14:53:49.517Z</time>
      </trkpt>
      <trkpt lat="43.72789" lon="1.45197">
        <ele>235.201589</ele>
        <time>2022-05-27T14:53:52.507Z</time>
      </trkpt>
      <trkpt lat="43.72796" lon="1.4518">
        <ele>235.208347</ele>
        <time>2022-05-27T14:53:55.509Z</time>
      </trkpt>
      <trkpt lat="43.72798" lon="1.45167">
        <ele>235.213109</ele>
        <time>2022-05-27T14:53:57.497Z</time>
      </trkpt>
      <trkpt lat="43.72805" lon="1.45152">
        <ele>235.219378</ele>
        <time>2022-05-27T14:54:00.533Z</time>
      </trkpt>
      <trkpt lat="43.7281" lon="1.45141">
        <ele>235.223791</ele>
        <time>2022-05-27T14:54:02.512Z</time>
      </trkpt>
      <trkpt lat="43.72813" lon="1.45127">
        <ele>235.228787</ele>
        <time>2022-05-27T14:54:05.510Z</time>
      </trkpt>
      <trkpt lat="43.72815" lon="1.45115">
        <ele>235.233113</ele>
        <time>2022-05-27T14:54:07.501Z</time>
      </trkpt>
      <trkpt lat="43.7282" lon="1.45104">
        <ele>235.237655</ele>
        <time>2022-05-27T14:54:09.498Z</time>
      </trkpt>
      <trkpt lat="43.72829" lon="1.45089">
        <ele>235.277098</ele>
        <time>2022-05-27T14:54:12.507Z</time>
      </trkpt>
      <trkpt lat="43.72839" lon="1.45087">
        <ele>235.353509</ele>
        <time>2022-05-27T14:54:16.499Z</time>
      </trkpt>
      <trkpt lat="43.72847" lon="1.45075">
        <ele>235.444686</ele>
        <time>2022-05-27T14:54:19.497Z</time>
      </trkpt>
      <trkpt lat="43.72849" lon="1.45057">
        <ele>235.540286</ele>
        <time>2022-05-27T14:54:22.519Z</time>
      </trkpt>
      <trkpt lat="43.72847" lon="1.45044">
        <ele>235.611092</ele>
        <time>2022-05-27T14:54:24.504Z</time>
      </trkpt>
      <trkpt lat="43.72852" lon="1.45032">
        <ele>235.691425</ele>
        <time>2022-05-27T14:54:26.509Z</time>
      </trkpt>
      <trkpt lat="43.72859" lon="1.45019">
        <ele>235.778926</ele>
        <time>2022-05-27T14:54:28.489Z</time>
      </trkpt>
      <trkpt lat="43.72866" lon="1.45003">
        <ele>235.879293</ele>
        <time>2022-05-27T14:54:31.524Z</time>
      </trkpt>
      <trkpt lat="43.72871" lon="1.4499">
        <ele>235.953344</ele>
        <time>2022-05-27T14:54:33.516Z</time>
      </trkpt>
      <trkpt lat="43.72875" lon="1.44973">
        <ele>236.051531</ele>
        <time>2022-05-27T14:54:36.496Z</time>
      </trkpt>
      <trkpt lat="43.7288" lon="1.44957">
        <ele>236.146667</ele>
        <time>2022-05-27T14:54:39.503Z</time>
      </trkpt>
      <trkpt lat="43.72884" lon="1.4494">
        <ele>236.24459</ele>
        <time>2022-05-27T14:54:42.508Z</time>
      </trkpt>
      <trkpt lat="43.72888" lon="1.44922">
        <ele>236.343985</ele>
        <time>2022-05-27T14:54:45.521Z</time>
      </trkpt>
      <trkpt lat="43.72894" lon="1.44909">
        <ele>179.2</ele>
        <time>2022-05-27T14:54:47.505Z</time>
      </trkpt>
      <trkpt lat="43.72891" lon="1.44901">
        <ele>179.5</ele>
        <time>2022-05-27T14:58:28.512Z</time>
      </trkpt>
      <trkpt lat="43.72886" lon="1.44899">
        <ele>179.6</ele>
      </trkpt>
      <trkpt lat="43.7287" lon="1.44899">
        <ele>179.2</ele>
      </trkpt>
      <trkpt lat="43.72865" lon="1.44894">
        <ele>179.1</ele>
      </trkpt>
      <trkpt lat="43.72859" lon="1.44864">
        <ele>179.9</ele>
      </trkpt>
      <trkpt lat="43.72848" lon="1.44836">
        <ele>180</ele>
      </trkpt>
      <trkpt lat="43.7284" lon="1.44826">
        <ele>179.5</ele>
      </trkpt>
      <trkpt lat="43.72819" lon="1.44814">
        <ele>178.3</ele>
      </trkpt>
      <trkpt lat="43.7281" lon="1.44799">
        <ele>175.7</ele>
      </trkpt>
      <trkpt lat="43.7281" lon="1.44747">
        <ele>166.9</ele>
      </trkpt>
      <trkpt lat="43.72814" lon="1.44733">
        <ele>165.1</ele>
      </trkpt>
      <trkpt lat="43.72829" lon="1.44713">
        <ele>164.2</ele>
      </trkpt>
      <trkpt lat="43.72864" lon="1.44692">
        <ele>163.2</ele>
      </trkpt>
      <trkpt lat="43.72873" lon="1.44696">
        <ele>164.5</ele>
      </trkpt>
      <trkpt lat="43.72895" lon="1.44739">
        <ele>170.5</ele>
      </trkpt>
      <trkpt lat="43.72913" lon="1.44779">
        <ele>176.1</ele>
      </trkpt>
      <trkpt lat="43.72914" lon="1.44814">
        <ele>179.3</ele>
      </trkpt>
      <trkpt lat="43.72915" lon="1.44826">
        <ele>179.7</ele>
      </trkpt>
      <trkpt lat="43.72927" lon="1.44875">
        <ele>236.354391</ele>
        <time>2022-05-27T14:58:48.524Z</time>
      </trkpt>
      <trkpt lat="43.72928" lon="1.44893">
        <ele>236.343317</ele>
        <time>2022-05-27T14:58:51.501Z</time>
      </trkpt>
      <trkpt lat="43.72926" lon="1.44907">
        <ele>236.334214</ele>
        <time>2022-05-27T14:58:54.533Z</time>
      </trkpt>
      <trkpt lat="43.72923" lon="1.4492">
        <ele>236.32574</ele>
        <time>2022-05-27T14:58:57.505Z</time>
      </trkpt>
      <trkpt lat="43.72922" lon="1.44937">
        <ele>236.315201</ele>
        <time>2022-05-27T14:59:00.499Z</time>
      </trkpt>
      <trkpt lat="43.72921" lon="1.4495">
        <ele>236.248107</ele>
        <time>2022-05-27T14:59:03.499Z</time>
      </trkpt>
      <trkpt lat="43.72921" lon="1.44965">
        <ele>236.052175</ele>
        <time>2022-05-27T14:59:05.525Z</time>
      </trkpt>
      <trkpt lat="43.72919" lon="1.44978">
        <ele>235.872566</ele>
        <time>2022-05-27T14:59:07.505Z</time>
      </trkpt>
      <trkpt lat="43.72914" lon="1.44989">
        <ele>235.704518</ele>
        <time>2022-05-27T14:59:10.510Z</time>
      </trkpt>
      <trkpt lat="43.72908" lon="1.45004">
        <ele>235.481634</ele>
        <time>2022-05-27T14:59:13.505Z</time>
      </trkpt>
      <trkpt lat="43.72909" lon="1.4502">
        <ele>235.261868</ele>
        <time>2022-05-27T14:59:16.513Z</time>
      </trkpt>
      <trkpt lat="43.72907" lon="1.45038">
        <ele>235.026595</ele>
        <time>2022-05-27T14:59:18.511Z</time>
      </trkpt>
      <trkpt lat="43.72907" lon="1.45052">
        <ele>234.845648</ele>
        <time>2022-05-27T14:59:20.514Z</time>
      </trkpt>
      <trkpt lat="43.72906" lon="1.45066">
        <ele>234.655138</ele>
        <time>2022-05-27T14:59:22.515Z</time>
      </trkpt>
      <trkpt lat="43.72899" lon="1.45082">
        <ele>234.415348</ele>
        <time>2022-05-27T14:59:25.523Z</time>
      </trkpt>
      <trkpt lat="43.72898" lon="1.451">
        <ele>234.174829</ele>
        <time>2022-05-27T14:59:28.502Z</time>
      </trkpt>
      <trkpt lat="43.72895" lon="1.45114">
        <ele>233.984327</ele>
        <time>2022-05-27T14:59:31.507Z</time>
      </trkpt>
      <trkpt lat="43.72896" lon="1.45127">
        <ele>233.801229</ele>
        <time>2022-05-27T14:59:34.518Z</time>
      </trkpt>
      <trkpt lat="43.72899" lon="1.45143">
        <ele>233.58556</ele>
        <time>2022-05-27T14:59:37.502Z</time>
      </trkpt>
      <trkpt lat="43.729" lon="1.45156">
        <ele>233.410993</ele>
        <time>2022-05-27T14:59:39.520Z</time>
      </trkpt>
      <trkpt lat="43.72901" lon="1.45169">
        <ele>233.24021</ele>
        <time>2022-05-27T14:59:41.527Z</time>
      </trkpt>
      <trkpt lat="43.72905" lon="1.45183">
        <ele>233.044637</ele>
        <time>2022-05-27T14:59:44.505Z</time>
      </trkpt>
      <trkpt lat="43.72903" lon="1.45202">
        <ele>232.67593</ele>
        <time>2022-05-27T14:59:47.504Z</time>
      </trkpt>
      <trkpt lat="43.72903" lon="1.45218">
        <ele>232.355182</ele>
        <time>2022-05-27T14:59:50.519Z</time>
      </trkpt>
      <trkpt lat="43.72908" lon="1.45229">
        <ele>232.105795</ele>
        <time>2022-05-27T14:59:59.486Z</time>
      </trkpt>
      <trkpt lat="43.72918" lon="1.4524">
        <ele>231.745053</ele>
        <time>2022-05-27T15:00:13.505Z</time>
      </trkpt>
      <trkpt lat="43.72938" lon="1.45234">
        <ele>231.190662</ele>
        <time>2022-05-27T15:00:53.546Z</time>
      </trkpt>
      <trkpt lat="43.72951" lon="1.45233">
        <ele>230.847659</ele>
        <time>2022-05-27T15:00:56.529Z</time>
      </trkpt>
      <trkpt lat="43.72962" lon="1.45232">
        <ele>230.524545</ele>
        <time>2022-05-27T15:01:00.509Z</time>
      </trkpt>
      <trkpt lat="43.72972" lon="1.45232">
        <ele>230.27543</ele>
        <time>2022-05-27T15:01:03.502Z</time>
      </trkpt>
      <trkpt lat="43.72983" lon="1.4523">
        <ele>229.966542</ele>
        <time>2022-05-27T15:01:06.498Z</time>
      </trkpt>
      <trkpt lat="43.72993" lon="1.45228">
        <ele>229.676882</ele>
        <time>2022-05-27T15:01:09.498Z</time>
      </trkpt>
      <trkpt lat="43.73003" lon="1.45225">
        <ele>229.399383</ele>
        <time>2022-05-27T15:01:13.503Z</time>
      </trkpt>
      <trkpt lat="43.73014" lon="1.45226">
        <ele>229.109154</ele>
        <time>2022-05-27T15:01:18.498Z</time>
      </trkpt>
      <trkpt lat="43.73025" lon="1.45226">
        <ele>228.813484</ele>
        <time>2022-05-27T15:01:22.487Z</time>
      </trkpt>
      <trkpt lat="43.73034" lon="1.45227">
        <ele>228.546893</ele>
        <time>2022-05-27T15:01:25.503Z</time>
      </trkpt>
      <trkpt lat="43.73047" lon="1.4523">
        <ele>228.205337</ele>
        <time>2022-05-27T15:01:28.505Z</time>
      </trkpt>
      <trkpt lat="43.73057" lon="1.45233">
        <ele>227.730537</ele>
        <time>2022-05-27T15:01:31.512Z</time>
      </trkpt>
      <trkpt lat="43.73071" lon="1.45238">
        <ele>226.940671</ele>
        <time>2022-05-27T15:01:34.507Z</time>
      </trkpt>
      <trkpt lat="43.73082" lon="1.45244">
        <ele>226.332354</ele>
        <time>2022-05-27T15:01:36.498Z</time>
      </trkpt>
      <trkpt lat="43.73093" lon="1.45251">
        <ele>225.693475</ele>
        <time>2022-05-27T15:01:38.525Z</time>
      </trkpt>
      <trkpt lat="43.73104" lon="1.45262">
        <ele>224.970975</ele>
        <time>2022-05-27T15:01:40.521Z</time>
      </trkpt>
      <trkpt lat="43.73112" lon="1.45272">
        <ele>224.416702</ele>
        <time>2022-05-27T15:01:42.507Z</time>
      </trkpt>
      <trkpt lat="43.73121" lon="1.45279">
        <ele>223.829032</ele>
        <time>2022-05-27T15:01:45.521Z</time>
      </trkpt>
      <trkpt lat="43.73147" lon="1.45278">
        <ele>222.46444</ele>
        <time>2022-05-27T15:02:09.518Z</time>
      </trkpt>
      <trkpt lat="43.73166" lon="1.45268">
        <ele>221.379192</ele>
        <time>2022-05-27T15:02:57.515Z</time>
      </trkpt>
      <trkpt lat="43.73175" lon="1.45267">
        <ele>220.880267</ele>
        <time>2022-05-27T15:03:02.502Z</time>
      </trkpt>
      <trkpt lat="43.73186" lon="1.45265">
        <ele>220.32957</ele>
        <time>2022-05-27T15:03:06.495Z</time>
      </trkpt>
      <trkpt lat="43.73195" lon="1.45261">
        <ele>219.804707</ele>
        <time>2022-05-27T15:03:08.514Z</time>
      </trkpt>
      <trkpt lat="43.73205" lon="1.45257">
        <ele>219.275932</ele>
        <time>2022-05-27T15:03:10.519Z</time>
      </trkpt>
      <trkpt lat="43.73214" lon="1.45253">
        <ele>218.745928</ele>
        <time>2022-05-27T15:03:12.521Z</time>
      </trkpt>
      <trkpt lat="43.73223" lon="1.45251">
        <ele>218.280854</ele>
        <time>2022-05-27T15:03:14.510Z</time>
      </trkpt>
      <trkpt lat="43.73233" lon="1.45247">
        <ele>217.809317</ele>
        <time>2022-05-27T15:03:17.505Z</time>
      </trkpt>
      <trkpt lat="43.73242" lon="1.45243">
        <ele>217.352234</ele>
        <time>2022-05-27T15:03:20.518Z</time>
      </trkpt>
      <trkpt lat="43.73252" lon="1.45241">
        <ele>216.873369</ele>
        <time>2022-05-27T15:03:22.500Z</time>
      </trkpt>
      <trkpt lat="43.73262" lon="1.45241">
        <ele>216.403829</ele>
        <time>2022-05-27T15:03:24.511Z</time>
      </trkpt>
      <trkpt lat="43.73275" lon="1.45244">
        <ele>215.816424</ele>
        <time>2022-05-27T15:03:27.506Z</time>
      </trkpt>
      <trkpt lat="43.73287" lon="1.45246">
        <ele>215.218729</ele>
        <time>2022-05-27T15:03:30.519Z</time>
      </trkpt>
      <trkpt lat="43.73298" lon="1.45247">
        <ele>214.715148</ele>
        <time>2022-05-27T15:03:33.510Z</time>
      </trkpt>
      <trkpt lat="43.7331" lon="1.45246">
        <ele>214.141906</ele>
        <time>2022-05-27T15:03:36.509Z</time>
      </trkpt>
      <trkpt lat="43.73323" lon="1.45248">
        <ele>213.557071</ele>
        <time>2022-05-27T15:03:39.520Z</time>
      </trkpt>
      <trkpt lat="43.73336" lon="1.45244">
        <ele>212.918271</ele>
        <time>2022-05-27T15:03:42.530Z</time>
      </trkpt>
      <trkpt lat="43.73349" lon="1.45246">
        <ele>212.310391</ele>
        <time>2022-05-27T15:03:45.513Z</time>
      </trkpt>
      <trkpt lat="43.73358" lon="1.45245">
        <ele>211.867335</ele>
        <time>2022-05-27T15:03:47.508Z</time>
      </trkpt>
      <trkpt lat="43.73368" lon="1.45245">
        <ele>211.435539</ele>
        <time>2022-05-27T15:03:49.516Z</time>
      </trkpt>
      <trkpt lat="43.73378" lon="1.45245">
        <ele>210.965999</ele>
        <time>2022-05-27T15:03:51.529Z</time>
      </trkpt>
      <trkpt lat="43.73388" lon="1.45245">
        <ele>210.486968</ele>
        <time>2022-05-27T15:03:53.519Z</time>
      </trkpt>
      <trkpt lat="43.73398" lon="1.45244">
        <ele>210.044301</ele>
        <time>2022-05-27T15:03:55.503Z</time>
      </trkpt>
      <trkpt lat="43.73408" lon="1.45244">
        <ele>209.805232</ele>
        <time>2022-05-27T15:03:57.519Z</time>
      </trkpt>
      <trkpt lat="43.73419" lon="1.45243">
        <ele>209.563414</ele>
        <time>2022-05-27T15:03:59.516Z</time>
      </trkpt>
      <trkpt lat="43.7343" lon="1.45242">
        <ele>209.319444</ele>
        <time>2022-05-27T15:04:01.519Z</time>
      </trkpt>
      <trkpt lat="43.7344" lon="1.45241">
        <ele>209.075673</ele>
        <time>2022-05-27T15:04:03.500Z</time>
      </trkpt>
      <trkpt lat="43.73451" lon="1.45241">
        <ele>208.839059</ele>
        <time>2022-05-27T15:04:05.505Z</time>
      </trkpt>
      <trkpt lat="43.73461" lon="1.4524">
        <ele>208.599628</ele>
        <time>2022-05-27T15:04:07.515Z</time>
      </trkpt>
      <trkpt lat="43.73472" lon="1.45238">
        <ele>208.359656</ele>
        <time>2022-05-27T15:04:09.509Z</time>
      </trkpt>
      <trkpt lat="43.73482" lon="1.45237">
        <ele>208.119977</ele>
        <time>2022-05-27T15:04:11.510Z</time>
      </trkpt>
      <trkpt lat="43.73493" lon="1.45236">
        <ele>207.873359</ele>
        <time>2022-05-27T15:04:13.517Z</time>
      </trkpt>
      <trkpt lat="43.73504" lon="1.45234">
        <ele>207.614779</ele>
        <time>2022-05-27T15:04:15.504Z</time>
      </trkpt>
      <trkpt lat="43.73516" lon="1.45232">
        <ele>207.353757</ele>
        <time>2022-05-27T15:04:17.498Z</time>
      </trkpt>
      <trkpt lat="43.73528" lon="1.45232">
        <ele>207.078315</ele>
        <time>2022-05-27T15:04:19.507Z</time>
      </trkpt>
      <trkpt lat="43.73539" lon="1.4523">
        <ele>206.815541</ele>
        <time>2022-05-27T15:04:21.504Z</time>
      </trkpt>
      <trkpt lat="43.73551" lon="1.45229">
        <ele>206.539683</ele>
        <time>2022-05-27T15:04:23.502Z</time>
      </trkpt>
      <trkpt lat="43.73563" lon="1.45228">
        <ele>206.272662</ele>
        <time>2022-05-27T15:04:25.510Z</time>
      </trkpt>
      <trkpt lat="43.73574" lon="1.45227">
        <ele>206.0195</ele>
        <time>2022-05-27T15:04:27.494Z</time>
      </trkpt>
      <trkpt lat="43.73586" lon="1.45225">
        <ele>205.732394</ele>
        <time>2022-05-27T15:04:29.506Z</time>
      </trkpt>
      <trkpt lat="43.73597" lon="1.45224">
        <ele>205.428523</ele>
        <time>2022-05-27T15:04:31.515Z</time>
      </trkpt>
      <trkpt lat="43.73609" lon="1.45222">
        <ele>205.121799</ele>
        <time>2022-05-27T15:04:33.497Z</time>
      </trkpt>
      <trkpt lat="43.7362" lon="1.45222">
        <ele>204.833862</ele>
        <time>2022-05-27T15:04:35.510Z</time>
      </trkpt>
      <trkpt lat="43.73631" lon="1.45219">
        <ele>204.558303</ele>
        <time>2022-05-27T15:04:37.497Z</time>
      </trkpt>
      <trkpt lat="43.73641" lon="1.45219">
        <ele>204.309176</ele>
        <time>2022-05-27T15:04:39.493Z</time>
      </trkpt>
      <trkpt lat="43.73651" lon="1.45222">
        <ele>204.035557</ele>
        <time>2022-05-27T15:04:43.494Z</time>
      </trkpt>
      <trkpt lat="43.73661" lon="1.45223">
        <ele>203.793963</ele>
        <time>2022-05-27T15:04:47.509Z</time>
      </trkpt>
      <trkpt lat="43.7367" lon="1.45228">
        <ele>203.542738</ele>
        <time>2022-05-27T15:04:50.519Z</time>
      </trkpt>
      <trkpt lat="43.73678" lon="1.45238">
        <ele>203.259379</ele>
        <time>2022-05-27T15:04:53.521Z</time>
      </trkpt>
      <trkpt lat="43.73681" lon="1.4525">
        <ele>203.020281</ele>
        <time>2022-05-27T15:04:55.506Z</time>
      </trkpt>
      <trkpt lat="43.73684" lon="1.45265">
        <ele>202.736261</ele>
        <time>2022-05-27T15:04:57.504Z</time>
      </trkpt>
      <trkpt lat="43.73687" lon="1.45281">
        <ele>202.430163</ele>
        <time>2022-05-27T15:04:59.496Z</time>
      </trkpt>
      <trkpt lat="43.73694" lon="1.45294">
        <ele>202.122913</ele>
        <time>2022-05-27T15:05:01.509Z</time>
      </trkpt>
      <trkpt lat="43.73705" lon="1.45301">
        <ele>201.812746</ele>
        <time>2022-05-27T15:05:03.511Z</time>
      </trkpt>
      <trkpt lat="43.73717" lon="1.45305">
        <ele>201.499832</ele>
        <time>2022-05-27T15:05:05.516Z</time>
      </trkpt>
      <trkpt lat="43.73728" lon="1.4531">
        <ele>201.213543</ele>
        <time>2022-05-27T15:05:07.505Z</time>
      </trkpt>
      <trkpt lat="43.73738" lon="1.45316">
        <ele>200.961581</ele>
        <time>2022-05-27T15:05:09.496Z</time>
      </trkpt>
      <trkpt lat="43.73749" lon="1.4532">
        <ele>200.711218</ele>
        <time>2022-05-27T15:05:11.507Z</time>
      </trkpt>
      <trkpt lat="43.7376" lon="1.45322">
        <ele>200.445303</ele>
        <time>2022-05-27T15:05:13.499Z</time>
      </trkpt>
      <trkpt lat="43.73772" lon="1.45327">
        <ele>200.169402</ele>
        <time>2022-05-27T15:05:15.499Z</time>
      </trkpt>
      <trkpt lat="43.73784" lon="1.45331">
        <ele>199.894825</ele>
        <time>2022-05-27T15:05:17.502Z</time>
      </trkpt>
      <trkpt lat="43.73795" lon="1.45335">
        <ele>199.622644</ele>
        <time>2022-05-27T15:05:19.494Z</time>
      </trkpt>
      <trkpt lat="43.73807" lon="1.45338">
        <ele>199.348328</ele>
        <time>2022-05-27T15:05:21.508Z</time>
      </trkpt>
      <trkpt lat="43.73818" lon="1.4534">
        <ele>199.088253</ele>
        <time>2022-05-27T15:05:23.504Z</time>
      </trkpt>
      <trkpt lat="43.7383" lon="1.4534">
        <ele>198.825289</ele>
        <time>2022-05-27T15:05:25.512Z</time>
      </trkpt>
      <trkpt lat="43.73841" lon="1.45339">
        <ele>198.56411</ele>
        <time>2022-05-27T15:05:27.518Z</time>
      </trkpt>
      <trkpt lat="43.73852" lon="1.45337">
        <ele>198.306306</ele>
        <time>2022-05-27T15:05:29.510Z</time>
      </trkpt>
      <trkpt lat="43.73863" lon="1.45334">
        <ele>198.056353</ele>
        <time>2022-05-27T15:05:31.491Z</time>
      </trkpt>
      <trkpt lat="43.73873" lon="1.45331">
        <ele>197.822042</ele>
        <time>2022-05-27T15:05:33.489Z</time>
      </trkpt>
      <trkpt lat="43.73883" lon="1.45329">
        <ele>197.600622</ele>
        <time>2022-05-27T15:05:35.491Z</time>
      </trkpt>
      <trkpt lat="43.73892" lon="1.45326">
        <ele>197.382652</ele>
        <time>2022-05-27T15:05:37.507Z</time>
      </trkpt>
      <trkpt lat="43.73902" lon="1.45322">
        <ele>197.186684</ele>
        <time>2022-05-27T15:05:39.501Z</time>
      </trkpt>
      <trkpt lat="43.73912" lon="1.4532">
        <ele>197.032093</ele>
        <time>2022-05-27T15:05:41.497Z</time>
      </trkpt>
      <trkpt lat="43.73922" lon="1.45319">
        <ele>196.882057</ele>
        <time>2022-05-27T15:05:43.485Z</time>
      </trkpt>
      <trkpt lat="43.73932" lon="1.45321">
        <ele>196.731337</ele>
        <time>2022-05-27T15:05:45.504Z</time>
      </trkpt>
      <trkpt lat="43.73942" lon="1.45325">
        <ele>196.582641</ele>
        <time>2022-05-27T15:05:47.505Z</time>
      </trkpt>
      <trkpt lat="43.73951" lon="1.4533">
        <ele>196.429669</ele>
        <time>2022-05-27T15:05:49.504Z</time>
      </trkpt>
      <trkpt lat="43.73961" lon="1.45336">
        <ele>196.272852</ele>
        <time>2022-05-27T15:05:51.502Z</time>
      </trkpt>
      <trkpt lat="43.7397" lon="1.45342">
        <ele>196.120933</ele>
        <time>2022-05-27T15:05:53.509Z</time>
      </trkpt>
      <trkpt lat="43.7398" lon="1.45348">
        <ele>195.967726</ele>
        <time>2022-05-27T15:05:55.500Z</time>
      </trkpt>
      <trkpt lat="43.73989" lon="1.45354">
        <ele>195.814519</ele>
        <time>2022-05-27T15:05:57.502Z</time>
      </trkpt>
      <trkpt lat="43.73998" lon="1.4536">
        <ele>195.66837</ele>
        <time>2022-05-27T15:05:59.498Z</time>
      </trkpt>
      <trkpt lat="43.74007" lon="1.45367">
        <ele>195.515491</ele>
        <time>2022-05-27T15:06:01.514Z</time>
      </trkpt>
      <trkpt lat="43.74017" lon="1.45374">
        <ele>195.357684</ele>
        <time>2022-05-27T15:06:03.501Z</time>
      </trkpt>
      <trkpt lat="43.74026" lon="1.45381">
        <ele>195.194463</ele>
        <time>2022-05-27T15:06:05.504Z</time>
      </trkpt>
      <trkpt lat="43.74036" lon="1.45387">
        <ele>195.02956</ele>
        <time>2022-05-27T15:06:07.497Z</time>
      </trkpt>
      <trkpt lat="43.74046" lon="1.45394">
        <ele>194.863703</ele>
        <time>2022-05-27T15:06:09.499Z</time>
      </trkpt>
      <trkpt lat="43.74057" lon="1.45402">
        <ele>194.692433</ele>
        <time>2022-05-27T15:06:11.506Z</time>
      </trkpt>
      <trkpt lat="43.74067" lon="1.45409">
        <ele>194.470091</ele>
        <time>2022-05-27T15:06:13.515Z</time>
      </trkpt>
      <trkpt lat="43.74078" lon="1.45417">
        <ele>194.183807</ele>
        <time>2022-05-27T15:06:15.497Z</time>
      </trkpt>
      <trkpt lat="43.74088" lon="1.45426">
        <ele>193.893525</ele>
        <time>2022-05-27T15:06:17.502Z</time>
      </trkpt>
      <trkpt lat="43.74098" lon="1.45434">
        <ele>193.609417</ele>
        <time>2022-05-27T15:06:19.505Z</time>
      </trkpt>
      <trkpt lat="43.74108" lon="1.45443">
        <ele>193.326225</ele>
        <time>2022-05-27T15:06:21.487Z</time>
      </trkpt>
      <trkpt lat="43.74118" lon="1.45452">
        <ele>193.040262</ele>
        <time>2022-05-27T15:06:23.495Z</time>
      </trkpt>
      <trkpt lat="43.74128" lon="1.4546">
        <ele>192.760039</ele>
        <time>2022-05-27T15:06:25.494Z</time>
      </trkpt>
      <trkpt lat="43.74138" lon="1.45469">
        <ele>192.48002</ele>
        <time>2022-05-27T15:06:27.488Z</time>
      </trkpt>
      <trkpt lat="43.74148" lon="1.45477">
        <ele>192.191184</ele>
        <time>2022-05-27T15:06:29.510Z</time>
      </trkpt>
      <trkpt lat="43.74159" lon="1.45485">
        <ele>191.891319</ele>
        <time>2022-05-27T15:06:31.481Z</time>
      </trkpt>
      <trkpt lat="43.7417" lon="1.45492">
        <ele>191.591071</ele>
        <time>2022-05-27T15:06:33.508Z</time>
      </trkpt>
      <trkpt lat="43.74182" lon="1.45502">
        <ele>191.275584</ele>
        <time>2022-05-27T15:06:35.524Z</time>
      </trkpt>
      <trkpt lat="43.74194" lon="1.45511">
        <ele>190.924698</ele>
        <time>2022-05-27T15:06:37.507Z</time>
      </trkpt>
      <trkpt lat="43.74207" lon="1.45522">
        <ele>190.561477</ele>
        <time>2022-05-27T15:06:39.512Z</time>
      </trkpt>
      <trkpt lat="43.7422" lon="1.45532">
        <ele>190.229059</ele>
        <time>2022-05-27T15:06:41.509Z</time>
      </trkpt>
      <trkpt lat="43.74233" lon="1.45543">
        <ele>190.077181</ele>
        <time>2022-05-27T15:06:43.499Z</time>
      </trkpt>
      <trkpt lat="43.74245" lon="1.45553">
        <ele>189.925178</ele>
        <time>2022-05-27T15:06:45.494Z</time>
      </trkpt>
      <trkpt lat="43.74258" lon="1.45563">
        <ele>189.774065</ele>
        <time>2022-05-27T15:06:47.493Z</time>
      </trkpt>
      <trkpt lat="43.7427" lon="1.45573">
        <ele>189.629512</ele>
        <time>2022-05-27T15:06:49.497Z</time>
      </trkpt>
      <trkpt lat="43.74281" lon="1.45582">
        <ele>189.496014</ele>
        <time>2022-05-27T15:06:51.553Z</time>
      </trkpt>
      <trkpt lat="43.74291" lon="1.45592">
        <ele>189.373713</ele>
        <time>2022-05-27T15:06:53.500Z</time>
      </trkpt>
      <trkpt lat="43.743" lon="1.456">
        <ele>189.257221</ele>
        <time>2022-05-27T15:06:55.496Z</time>
      </trkpt>
      <trkpt lat="43.7431" lon="1.45608">
        <ele>189.143408</ele>
        <time>2022-05-27T15:06:57.504Z</time>
      </trkpt>
      <trkpt lat="43.74319" lon="1.45616">
        <ele>189.032385</ele>
        <time>2022-05-27T15:06:59.519Z</time>
      </trkpt>
      <trkpt lat="43.74328" lon="1.45624">
        <ele>188.922127</ele>
        <time>2022-05-27T15:07:01.517Z</time>
      </trkpt>
      <trkpt lat="43.74337" lon="1.45631">
        <ele>188.813886</ele>
        <time>2022-05-27T15:07:03.493Z</time>
      </trkpt>
      <trkpt lat="43.74346" lon="1.45637">
        <ele>188.708814</ele>
        <time>2022-05-27T15:07:05.529Z</time>
      </trkpt>
      <trkpt lat="43.74356" lon="1.45643">
        <ele>188.597135</ele>
        <time>2022-05-27T15:07:07.522Z</time>
      </trkpt>
      <trkpt lat="43.74367" lon="1.45648">
        <ele>188.483658</ele>
        <time>2022-05-27T15:07:09.526Z</time>
      </trkpt>
      <trkpt lat="43.74377" lon="1.45654">
        <ele>188.35775</ele>
        <time>2022-05-27T15:07:11.524Z</time>
      </trkpt>
      <trkpt lat="43.74387" lon="1.45658">
        <ele>188.182255</ele>
        <time>2022-05-27T15:07:13.515Z</time>
      </trkpt>
      <trkpt lat="43.74397" lon="1.45662">
        <ele>188.007336</ele>
        <time>2022-05-27T15:07:15.512Z</time>
      </trkpt>
      <trkpt lat="43.74408" lon="1.45665">
        <ele>187.837712</ele>
        <time>2022-05-27T15:07:17.519Z</time>
      </trkpt>
      <trkpt lat="43.74417" lon="1.45667">
        <ele>187.676347</ele>
        <time>2022-05-27T15:07:19.510Z</time>
      </trkpt>
      <trkpt lat="43.74426" lon="1.45669">
        <ele>187.528643</ele>
        <time>2022-05-27T15:07:21.505Z</time>
      </trkpt>
      <trkpt lat="43.74439" lon="1.45674">
        <ele>187.322272</ele>
        <time>2022-05-27T15:07:24.504Z</time>
      </trkpt>
      <trkpt lat="43.74451" lon="1.45679">
        <ele>187.104969</ele>
        <time>2022-05-27T15:07:27.497Z</time>
      </trkpt>
      <trkpt lat="43.74462" lon="1.45684">
        <ele>186.915982</ele>
        <time>2022-05-27T15:07:29.484Z</time>
      </trkpt>
      <trkpt lat="43.74474" lon="1.4569">
        <ele>186.708857</ele>
        <time>2022-05-27T15:07:31.492Z</time>
      </trkpt>
      <trkpt lat="43.74487" lon="1.45695">
        <ele>186.486537</ele>
        <time>2022-05-27T15:07:33.496Z</time>
      </trkpt>
      <trkpt lat="43.745" lon="1.45699">
        <ele>186.273768</ele>
        <time>2022-05-27T15:07:35.510Z</time>
      </trkpt>
      <trkpt lat="43.74512" lon="1.45699">
        <ele>186.078164</ele>
        <time>2022-05-27T15:07:37.503Z</time>
      </trkpt>
      <trkpt lat="43.74524" lon="1.45699">
        <ele>185.889203</ele>
        <time>2022-05-27T15:07:40.503Z</time>
      </trkpt>
      <trkpt lat="43.74532" lon="1.45695">
        <ele>185.739016</ele>
        <time>2022-05-27T15:07:44.503Z</time>
      </trkpt>
      <trkpt lat="43.74536" lon="1.45684">
        <ele>185.593402</ele>
        <time>2022-05-27T15:07:47.524Z</time>
      </trkpt>
      <trkpt lat="43.74539" lon="1.45671">
        <ele>185.450858</ele>
        <time>2022-05-27T15:07:50.510Z</time>
      </trkpt>
      <trkpt lat="43.7454" lon="1.45658">
        <ele>185.387722</ele>
        <time>2022-05-27T15:07:53.506Z</time>
      </trkpt>
      <trkpt lat="43.74543" lon="1.45646">
        <ele>185.325202</ele>
        <time>2022-05-27T15:07:56.499Z</time>
      </trkpt>
      <trkpt lat="43.74546" lon="1.45632">
        <ele>185.257065</ele>
        <time>2022-05-27T15:07:59.495Z</time>
      </trkpt>
      <trkpt lat="43.7455" lon="1.45616">
        <ele>185.175305</ele>
        <time>2022-05-27T15:08:02.504Z</time>
      </trkpt>
      <trkpt lat="43.74552" lon="1.45604">
        <ele>185.114718</ele>
        <time>2022-05-27T15:08:04.509Z</time>
      </trkpt>
      <trkpt lat="43.74554" lon="1.45591">
        <ele>185.050095</ele>
        <time>2022-05-27T15:08:06.511Z</time>
      </trkpt>
      <trkpt lat="43.74557" lon="1.45577">
        <ele>184.980764</ele>
        <time>2022-05-27T15:08:08.501Z</time>
      </trkpt>
      <trkpt lat="43.74559" lon="1.45563">
        <ele>184.910104</ele>
        <time>2022-05-27T15:08:10.492Z</time>
      </trkpt>
      <trkpt lat="43.74561" lon="1.45548">
        <ele>184.835506</ele>
        <time>2022-05-27T15:08:12.505Z</time>
      </trkpt>
      <trkpt lat="43.74562" lon="1.45533">
        <ele>184.760121</ele>
        <time>2022-05-27T15:08:14.489Z</time>
      </trkpt>
      <trkpt lat="43.74564" lon="1.45517">
        <ele>184.684692</ele>
        <time>2022-05-27T15:08:16.494Z</time>
      </trkpt>
      <trkpt lat="43.74566" lon="1.45502">
        <ele>184.60938</ele>
        <time>2022-05-27T15:08:18.500Z</time>
      </trkpt>
      <trkpt lat="43.74569" lon="1.45487">
        <ele>184.535019</ele>
        <time>2022-05-27T15:08:20.513Z</time>
      </trkpt>
      <trkpt lat="43.74571" lon="1.45472">
        <ele>184.462192</ele>
        <time>2022-05-27T15:08:22.501Z</time>
      </trkpt>
      <trkpt lat="43.74573" lon="1.45458">
        <ele>184.391877</ele>
        <time>2022-05-27T15:08:24.499Z</time>
      </trkpt>
      <trkpt lat="43.74575" lon="1.45445">
        <ele>184.327729</ele>
        <time>2022-05-27T15:08:26.504Z</time>
      </trkpt>
      <trkpt lat="43.74576" lon="1.45433">
        <ele>184.266844</ele>
        <time>2022-05-27T15:08:28.496Z</time>
      </trkpt>
      <trkpt lat="43.74576" lon="1.4542">
        <ele>184.258382</ele>
        <time>2022-05-27T15:08:30.509Z</time>
      </trkpt>
      <trkpt lat="43.74577" lon="1.45402">
        <ele>184.26957</ele>
        <time>2022-05-27T15:08:33.528Z</time>
      </trkpt>
      <trkpt lat="43.74579" lon="1.4539">
        <ele>184.277496</ele>
        <time>2022-05-27T15:08:35.513Z</time>
      </trkpt>
      <trkpt lat="43.74583" lon="1.45378">
        <ele>184.285947</ele>
        <time>2022-05-27T15:08:37.497Z</time>
      </trkpt>
      <trkpt lat="43.74589" lon="1.45367">
        <ele>184.294596</ele>
        <time>2022-05-27T15:08:39.505Z</time>
      </trkpt>
      <trkpt lat="43.74595" lon="1.45355">
        <ele>184.303395</ele>
        <time>2022-05-27T15:08:41.505Z</time>
      </trkpt>
      <trkpt lat="43.746" lon="1.45342">
        <ele>184.312447</ele>
        <time>2022-05-27T15:08:43.509Z</time>
      </trkpt>
      <trkpt lat="43.74606" lon="1.4533">
        <ele>184.321511</ele>
        <time>2022-05-27T15:08:45.495Z</time>
      </trkpt>
      <trkpt lat="43.74613" lon="1.45319">
        <ele>184.330742</ele>
        <time>2022-05-27T15:08:47.492Z</time>
      </trkpt>
      <trkpt lat="43.74619" lon="1.45307">
        <ele>184.340198</ele>
        <time>2022-05-27T15:08:49.499Z</time>
      </trkpt>
      <trkpt lat="43.74625" lon="1.45293">
        <ele>184.350067</ele>
        <time>2022-05-27T15:08:51.493Z</time>
      </trkpt>
      <trkpt lat="43.74631" lon="1.4528">
        <ele>184.359996</ele>
        <time>2022-05-27T15:08:53.502Z</time>
      </trkpt>
      <trkpt lat="43.74636" lon="1.45266">
        <ele>184.369938</ele>
        <time>2022-05-27T15:08:55.496Z</time>
      </trkpt>
      <trkpt lat="43.74642" lon="1.45252">
        <ele>184.37977</ele>
        <time>2022-05-27T15:08:57.519Z</time>
      </trkpt>
      <trkpt lat="43.74646" lon="1.45237">
        <ele>184.389806</ele>
        <time>2022-05-27T15:08:59.494Z</time>
      </trkpt>
      <trkpt lat="43.74648" lon="1.45221">
        <ele>184.399922</ele>
        <time>2022-05-27T15:09:01.508Z</time>
      </trkpt>
      <trkpt lat="43.7465" lon="1.45205">
        <ele>184.386293</ele>
        <time>2022-05-27T15:09:03.494Z</time>
      </trkpt>
      <trkpt lat="43.74652" lon="1.4519">
        <ele>184.290357</ele>
        <time>2022-05-27T15:09:05.506Z</time>
      </trkpt>
      <trkpt lat="43.74654" lon="1.45174">
        <ele>184.191687</ele>
        <time>2022-05-27T15:09:07.499Z</time>
      </trkpt>
      <trkpt lat="43.74656" lon="1.45158">
        <ele>184.091138</ele>
        <time>2022-05-27T15:09:09.513Z</time>
      </trkpt>
      <trkpt lat="43.74657" lon="1.45142">
        <ele>183.990588</ele>
        <time>2022-05-27T15:09:11.500Z</time>
      </trkpt>
      <trkpt lat="43.74659" lon="1.45125">
        <ele>183.88915</ele>
        <time>2022-05-27T15:09:13.520Z</time>
      </trkpt>
      <trkpt lat="43.74659" lon="1.45109">
        <ele>183.787673</ele>
        <time>2022-05-27T15:09:15.498Z</time>
      </trkpt>
      <trkpt lat="43.74657" lon="1.45093">
        <ele>183.685725</ele>
        <time>2022-05-27T15:09:17.506Z</time>
      </trkpt>
      <trkpt lat="43.74651" lon="1.45079">
        <ele>183.583531</ele>
        <time>2022-05-27T15:09:19.496Z</time>
      </trkpt>
      <trkpt lat="43.74645" lon="1.45064">
        <ele>183.481107</ele>
        <time>2022-05-27T15:09:21.504Z</time>
      </trkpt>
      <trkpt lat="43.7464" lon="1.4505">
        <ele>183.383109</ele>
        <time>2022-05-27T15:09:23.490Z</time>
      </trkpt>
      <trkpt lat="43.74636" lon="1.45034">
        <ele>183.282753</ele>
        <time>2022-05-27T15:09:25.505Z</time>
      </trkpt>
      <trkpt lat="43.74635" lon="1.45018">
        <ele>183.181586</ele>
        <time>2022-05-27T15:09:27.502Z</time>
      </trkpt>
      <trkpt lat="43.74636" lon="1.45002">
        <ele>183.080726</ele>
        <time>2022-05-27T15:09:29.494Z</time>
      </trkpt>
      <trkpt lat="43.74637" lon="1.44985">
        <ele>182.977016</ele>
        <time>2022-05-27T15:09:31.516Z</time>
      </trkpt>
      <trkpt lat="43.74638" lon="1.44968">
        <ele>182.872771</ele>
        <time>2022-05-27T15:09:33.495Z</time>
      </trkpt>
      <trkpt lat="43.74639" lon="1.44952">
        <ele>183.103536</ele>
        <time>2022-05-27T15:09:35.490Z</time>
      </trkpt>
      <trkpt lat="43.7464" lon="1.44935">
        <ele>183.347417</ele>
        <time>2022-05-27T15:09:37.486Z</time>
      </trkpt>
      <trkpt lat="43.74642" lon="1.44919">
        <ele>183.583146</ele>
        <time>2022-05-27T15:09:39.505Z</time>
      </trkpt>
      <trkpt lat="43.74642" lon="1.44903">
        <ele>183.820465</ele>
        <time>2022-05-27T15:09:41.494Z</time>
      </trkpt>
      <trkpt lat="43.74642" lon="1.44887">
        <ele>184.053333</ele>
        <time>2022-05-27T15:09:43.511Z</time>
      </trkpt>
      <trkpt lat="43.74642" lon="1.4487">
        <ele>184.296784</ele>
        <time>2022-05-27T15:09:45.509Z</time>
      </trkpt>
      <trkpt lat="43.74642" lon="1.44853">
        <ele>184.545686</ele>
        <time>2022-05-27T15:09:47.505Z</time>
      </trkpt>
      <trkpt lat="43.74643" lon="1.44837">
        <ele>184.787802</ele>
        <time>2022-05-27T15:09:49.526Z</time>
      </trkpt>
      <trkpt lat="43.74644" lon="1.44821">
        <ele>185.024076</ele>
        <time>2022-05-27T15:09:51.501Z</time>
      </trkpt>
      <trkpt lat="43.74645" lon="1.44806">
        <ele>185.245485</ele>
        <time>2022-05-27T15:09:53.506Z</time>
      </trkpt>
      <trkpt lat="43.74645" lon="1.44792">
        <ele>185.441933</ele>
        <time>2022-05-27T15:09:55.485Z</time>
      </trkpt>
      <trkpt lat="43.74644" lon="1.44776">
        <ele>185.689098</ele>
        <time>2022-05-27T15:09:57.493Z</time>
      </trkpt>
      <trkpt lat="43.74643" lon="1.44759">
        <ele>185.928979</ele>
        <time>2022-05-27T15:09:59.505Z</time>
      </trkpt>
      <trkpt lat="43.74642" lon="1.44744">
        <ele>186.152632</ele>
        <time>2022-05-27T15:10:01.498Z</time>
      </trkpt>
      <trkpt lat="43.74642" lon="1.4473">
        <ele>186.364924</ele>
        <time>2022-05-27T15:10:03.494Z</time>
      </trkpt>
      <trkpt lat="43.74641" lon="1.44712">
        <ele>186.509714</ele>
        <time>2022-05-27T15:10:05.518Z</time>
      </trkpt>
      <trkpt lat="43.74641" lon="1.44695">
        <ele>186.499254</ele>
        <time>2022-05-27T15:10:07.497Z</time>
      </trkpt>
      <trkpt lat="43.74643" lon="1.44679">
        <ele>186.489621</ele>
        <time>2022-05-27T15:10:09.489Z</time>
      </trkpt>
      <trkpt lat="43.74644" lon="1.44665">
        <ele>186.480865</ele>
        <time>2022-05-27T15:10:11.492Z</time>
      </trkpt>
      <trkpt lat="43.74645" lon="1.4465">
        <ele>186.471528</ele>
        <time>2022-05-27T15:10:13.500Z</time>
      </trkpt>
      <trkpt lat="43.74646" lon="1.44635">
        <ele>186.462068</ele>
        <time>2022-05-27T15:10:15.495Z</time>
      </trkpt>
      <trkpt lat="43.74649" lon="1.44619">
        <ele>186.451937</ele>
        <time>2022-05-27T15:10:17.493Z</time>
      </trkpt>
      <trkpt lat="43.74653" lon="1.44603">
        <ele>186.442011</ele>
        <time>2022-05-27T15:10:19.501Z</time>
      </trkpt>
      <trkpt lat="43.74653" lon="1.44584">
        <ele>186.430249</ele>
        <time>2022-05-27T15:10:21.505Z</time>
      </trkpt>
      <trkpt lat="43.74654" lon="1.44566">
        <ele>186.419087</ele>
        <time>2022-05-27T15:10:23.491Z</time>
      </trkpt>
      <trkpt lat="43.74655" lon="1.44549">
        <ele>186.408578</ele>
        <time>2022-05-27T15:10:25.506Z</time>
      </trkpt>
      <trkpt lat="43.74657" lon="1.44532">
        <ele>186.398164</ele>
        <time>2022-05-27T15:10:27.504Z</time>
      </trkpt>
      <trkpt lat="43.74659" lon="1.44516">
        <ele>186.388084</ele>
        <time>2022-05-27T15:10:29.496Z</time>
      </trkpt>
      <trkpt lat="43.7466" lon="1.445">
        <ele>186.377863</ele>
        <time>2022-05-27T15:10:31.475Z</time>
      </trkpt>
      <trkpt lat="43.74662" lon="1.44484">
        <ele>186.368191</ele>
        <time>2022-05-27T15:10:33.491Z</time>
      </trkpt>
      <trkpt lat="43.74663" lon="1.44468">
        <ele>186.327508</ele>
        <time>2022-05-27T15:10:35.476Z</time>
      </trkpt>
      <trkpt lat="43.74664" lon="1.44453">
        <ele>186.207257</ele>
        <time>2022-05-27T15:10:37.508Z</time>
      </trkpt>
      <trkpt lat="43.74664" lon="1.44436">
        <ele>186.084121</ele>
        <time>2022-05-27T15:10:39.504Z</time>
      </trkpt>
      <trkpt lat="43.74664" lon="1.44421">
        <ele>185.963317</ele>
        <time>2022-05-27T15:10:41.501Z</time>
      </trkpt>
      <trkpt lat="43.74665" lon="1.44405">
        <ele>185.841482</ele>
        <time>2022-05-27T15:10:43.489Z</time>
      </trkpt>
      <trkpt lat="43.74666" lon="1.44388">
        <ele>185.717372</ele>
        <time>2022-05-27T15:10:45.496Z</time>
      </trkpt>
      <trkpt lat="43.74666" lon="1.44372">
        <ele>185.59429</ele>
        <time>2022-05-27T15:10:47.495Z</time>
      </trkpt>
      <trkpt lat="43.74667" lon="1.44356">
        <ele>185.470862</ele>
        <time>2022-05-27T15:10:49.512Z</time>
      </trkpt>
      <trkpt lat="43.7467" lon="1.4434">
        <ele>185.348733</ele>
        <time>2022-05-27T15:10:51.510Z</time>
      </trkpt>
      <trkpt lat="43.74675" lon="1.44325">
        <ele>185.224168</ele>
        <time>2022-05-27T15:10:53.503Z</time>
      </trkpt>
      <trkpt lat="43.7468" lon="1.44311">
        <ele>185.099433</ele>
        <time>2022-05-27T15:10:55.509Z</time>
      </trkpt>
      <trkpt lat="43.74686" lon="1.44297">
        <ele>184.97853</ele>
        <time>2022-05-27T15:10:57.497Z</time>
      </trkpt>
      <trkpt lat="43.74692" lon="1.44283">
        <ele>184.854653</ele>
        <time>2022-05-27T15:10:59.486Z</time>
      </trkpt>
      <trkpt lat="43.74698" lon="1.44269">
        <ele>184.730995</ele>
        <time>2022-05-27T15:11:01.490Z</time>
      </trkpt>
      <trkpt lat="43.74705" lon="1.44256">
        <ele>184.60883</ele>
        <time>2022-05-27T15:11:03.500Z</time>
      </trkpt>
      <trkpt lat="43.7471" lon="1.44242">
        <ele>184.488591</ele>
        <time>2022-05-27T15:11:05.494Z</time>
      </trkpt>
      <trkpt lat="43.74716" lon="1.44228">
        <ele>184.358367</ele>
        <time>2022-05-27T15:11:07.485Z</time>
      </trkpt>
      <trkpt lat="43.74723" lon="1.44214">
        <ele>184.225738</ele>
        <time>2022-05-27T15:11:09.494Z</time>
      </trkpt>
      <trkpt lat="43.74729" lon="1.44201">
        <ele>184.095144</ele>
        <time>2022-05-27T15:11:11.504Z</time>
      </trkpt>
      <trkpt lat="43.74736" lon="1.44187">
        <ele>183.962514</ele>
        <time>2022-05-27T15:11:13.502Z</time>
      </trkpt>
      <trkpt lat="43.74742" lon="1.44174">
        <ele>183.835312</ele>
        <time>2022-05-27T15:11:15.502Z</time>
      </trkpt>
      <trkpt lat="43.74748" lon="1.44161">
        <ele>183.707974</ele>
        <time>2022-05-27T15:11:17.496Z</time>
      </trkpt>
      <trkpt lat="43.74754" lon="1.44148">
        <ele>183.579192</ele>
        <time>2022-05-27T15:11:19.506Z</time>
      </trkpt>
      <trkpt lat="43.74761" lon="1.44134">
        <ele>183.448529</ele>
        <time>2022-05-27T15:11:21.512Z</time>
      </trkpt>
      <trkpt lat="43.74767" lon="1.4412">
        <ele>183.315609</ele>
        <time>2022-05-27T15:11:23.488Z</time>
      </trkpt>
      <trkpt lat="43.74773" lon="1.44105">
        <ele>183.179761</ele>
        <time>2022-05-27T15:11:25.509Z</time>
      </trkpt>
      <trkpt lat="43.74779" lon="1.44091">
        <ele>183.046575</ele>
        <time>2022-05-27T15:11:27.510Z</time>
      </trkpt>
      <trkpt lat="43.74785" lon="1.44077">
        <ele>182.91549</ele>
        <time>2022-05-27T15:11:29.495Z</time>
      </trkpt>
      <trkpt lat="43.74791" lon="1.44063">
        <ele>182.786609</ele>
        <time>2022-05-27T15:11:31.490Z</time>
      </trkpt>
      <trkpt lat="43.74797" lon="1.4405">
        <ele>182.659879</ele>
        <time>2022-05-27T15:11:33.493Z</time>
      </trkpt>
      <trkpt lat="43.74803" lon="1.44037">
        <ele>182.532602</ele>
        <time>2022-05-27T15:11:35.499Z</time>
      </trkpt>
      <trkpt lat="43.74809" lon="1.44024">
        <ele>182.416647</ele>
        <time>2022-05-27T15:11:37.501Z</time>
      </trkpt>
      <trkpt lat="43.74815" lon="1.4401">
        <ele>182.318543</ele>
        <time>2022-05-27T15:11:39.501Z</time>
      </trkpt>
      <trkpt lat="43.74822" lon="1.43997">
        <ele>182.220556</ele>
        <time>2022-05-27T15:11:41.506Z</time>
      </trkpt>
      <trkpt lat="43.74828" lon="1.43984">
        <ele>182.121466</ele>
        <time>2022-05-27T15:11:43.511Z</time>
      </trkpt>
      <trkpt lat="43.74835" lon="1.43971">
        <ele>182.022376</ele>
        <time>2022-05-27T15:11:45.494Z</time>
      </trkpt>
      <trkpt lat="43.74841" lon="1.43958">
        <ele>181.926347</ele>
        <time>2022-05-27T15:11:47.485Z</time>
      </trkpt>
      <trkpt lat="43.74846" lon="1.43946">
        <ele>181.837805</ele>
        <time>2022-05-27T15:11:49.479Z</time>
      </trkpt>
      <trkpt lat="43.74853" lon="1.43934">
        <ele>181.744358</ele>
        <time>2022-05-27T15:11:51.508Z</time>
      </trkpt>
      <trkpt lat="43.7486" lon="1.4392">
        <ele>181.643877</ele>
        <time>2022-05-27T15:11:53.498Z</time>
      </trkpt>
      <trkpt lat="43.74866" lon="1.43907">
        <ele>181.544903</ele>
        <time>2022-05-27T15:11:55.510Z</time>
      </trkpt>
      <trkpt lat="43.74873" lon="1.43895">
        <ele>181.44643</ele>
        <time>2022-05-27T15:11:57.499Z</time>
      </trkpt>
      <trkpt lat="43.7488" lon="1.43881">
        <ele>181.347421</ele>
        <time>2022-05-27T15:11:59.488Z</time>
      </trkpt>
      <trkpt lat="43.74886" lon="1.43868">
        <ele>181.249434</ele>
        <time>2022-05-27T15:12:01.507Z</time>
      </trkpt>
      <trkpt lat="43.74893" lon="1.43856">
        <ele>181.15144</ele>
        <time>2022-05-27T15:12:03.518Z</time>
      </trkpt>
      <trkpt lat="43.74899" lon="1.43843">
        <ele>181.052943</ele>
        <time>2022-05-27T15:12:05.516Z</time>
      </trkpt>
      <trkpt lat="43.74906" lon="1.4383">
        <ele>180.95397</ele>
        <time>2022-05-27T15:12:07.518Z</time>
      </trkpt>
      <trkpt lat="43.74913" lon="1.43817">
        <ele>180.85976</ele>
        <time>2022-05-27T15:12:09.496Z</time>
      </trkpt>
      <trkpt lat="43.74919" lon="1.43804">
        <ele>180.768006</ele>
        <time>2022-05-27T15:12:11.518Z</time>
      </trkpt>
      <trkpt lat="43.74925" lon="1.43791">
        <ele>180.675307</ele>
        <time>2022-05-27T15:12:13.552Z</time>
      </trkpt>
      <trkpt lat="43.74932" lon="1.43778">
        <ele>180.583094</ele>
        <time>2022-05-27T15:12:15.515Z</time>
      </trkpt>
      <trkpt lat="43.74938" lon="1.43766">
        <ele>180.491861</ele>
        <time>2022-05-27T15:12:17.517Z</time>
      </trkpt>
      <trkpt lat="43.74944" lon="1.43753">
        <ele>180.401503</ele>
        <time>2022-05-27T15:12:19.514Z</time>
      </trkpt>
      <trkpt lat="43.74952" lon="1.43741">
        <ele>180.30996</ele>
        <time>2022-05-27T15:12:21.518Z</time>
      </trkpt>
      <trkpt lat="43.74958" lon="1.43728">
        <ele>180.219206</ele>
        <time>2022-05-27T15:12:23.515Z</time>
      </trkpt>
      <trkpt lat="43.74965" lon="1.43716">
        <ele>180.127962</ele>
        <time>2022-05-27T15:12:25.488Z</time>
      </trkpt>
      <trkpt lat="43.74972" lon="1.43703">
        <ele>180.035286</ele>
        <time>2022-05-27T15:12:27.509Z</time>
      </trkpt>
      <trkpt lat="43.74979" lon="1.43691">
        <ele>179.941588</ele>
        <time>2022-05-27T15:12:29.497Z</time>
      </trkpt>
      <trkpt lat="43.74986" lon="1.43678">
        <ele>179.847927</ele>
        <time>2022-05-27T15:12:31.484Z</time>
      </trkpt>
      <trkpt lat="43.74993" lon="1.43666">
        <ele>179.754304</ele>
        <time>2022-05-27T15:12:33.492Z</time>
      </trkpt>
      <trkpt lat="43.74999" lon="1.43653">
        <ele>179.661155</ele>
        <time>2022-05-27T15:12:35.482Z</time>
      </trkpt>
      <trkpt lat="43.75006" lon="1.4364">
        <ele>179.567057</ele>
        <time>2022-05-27T15:12:37.507Z</time>
      </trkpt>
      <trkpt lat="43.75013" lon="1.43627">
        <ele>179.472892</ele>
        <time>2022-05-27T15:12:39.499Z</time>
      </trkpt>
      <trkpt lat="43.75019" lon="1.43614">
        <ele>179.549051</ele>
        <time>2022-05-27T15:12:41.507Z</time>
      </trkpt>
      <trkpt lat="43.75025" lon="1.436">
        <ele>179.69572</ele>
        <time>2022-05-27T15:12:43.505Z</time>
      </trkpt>
      <trkpt lat="43.7503" lon="1.43587">
        <ele>179.839787</ele>
        <time>2022-05-27T15:12:45.496Z</time>
      </trkpt>
      <trkpt lat="43.75035" lon="1.43573">
        <ele>179.987359</ele>
        <time>2022-05-27T15:12:47.499Z</time>
      </trkpt>
      <trkpt lat="43.7504" lon="1.43559">
        <ele>180.131473</ele>
        <time>2022-05-27T15:12:49.502Z</time>
      </trkpt>
      <trkpt lat="43.75046" lon="1.43544">
        <ele>180.28715</ele>
        <time>2022-05-27T15:12:51.484Z</time>
      </trkpt>
      <trkpt lat="43.75051" lon="1.4353">
        <ele>180.441405</ele>
        <time>2022-05-27T15:12:53.501Z</time>
      </trkpt>
      <trkpt lat="43.75056" lon="1.43515">
        <ele>180.594516</ele>
        <time>2022-05-27T15:12:55.509Z</time>
      </trkpt>
      <trkpt lat="43.75061" lon="1.435">
        <ele>180.749082</ele>
        <time>2022-05-27T15:12:57.500Z</time>
      </trkpt>
      <trkpt lat="43.75066" lon="1.43486">
        <ele>180.901076</ele>
        <time>2022-05-27T15:12:59.503Z</time>
      </trkpt>
      <trkpt lat="43.75072" lon="1.43471">
        <ele>181.055054</ele>
        <time>2022-05-27T15:13:01.511Z</time>
      </trkpt>
      <trkpt lat="43.75077" lon="1.43457">
        <ele>181.207388</ele>
        <time>2022-05-27T15:13:03.507Z</time>
      </trkpt>
      <trkpt lat="43.75083" lon="1.43442">
        <ele>181.358541</ele>
        <time>2022-05-27T15:13:05.501Z</time>
      </trkpt>
      <trkpt lat="43.75088" lon="1.43428">
        <ele>181.507551</ele>
        <time>2022-05-27T15:13:07.502Z</time>
      </trkpt>
      <trkpt lat="43.75093" lon="1.43415">
        <ele>181.652768</ele>
        <time>2022-05-27T15:13:09.517Z</time>
      </trkpt>
      <trkpt lat="43.75098" lon="1.43402">
        <ele>181.78592</ele>
        <time>2022-05-27T15:13:11.491Z</time>
      </trkpt>
      <trkpt lat="43.75104" lon="1.43387">
        <ele>181.833976</ele>
        <time>2022-05-27T15:13:13.495Z</time>
      </trkpt>
      <trkpt lat="43.75109" lon="1.43374">
        <ele>181.875995</ele>
        <time>2022-05-27T15:13:15.498Z</time>
      </trkpt>
      <trkpt lat="43.75115" lon="1.4336">
        <ele>181.921885</ele>
        <time>2022-05-27T15:13:17.490Z</time>
      </trkpt>
      <trkpt lat="43.75118" lon="1.43345">
        <ele>181.964546</ele>
        <time>2022-05-27T15:13:19.484Z</time>
      </trkpt>
      <trkpt lat="43.75124" lon="1.43331">
        <ele>182.010844</ele>
        <time>2022-05-27T15:13:21.495Z</time>
      </trkpt>
      <trkpt lat="43.7513" lon="1.43317">
        <ele>182.056259</ele>
        <time>2022-05-27T15:13:23.495Z</time>
      </trkpt>
      <trkpt lat="43.75136" lon="1.43306">
        <ele>182.096499</ele>
        <time>2022-05-27T15:13:26.501Z</time>
      </trkpt>
      <trkpt lat="43.75144" lon="1.43283">
        <ele>182.167414</ele>
        <time>2022-05-27T15:13:53.510Z</time>
      </trkpt>
      <trkpt lat="43.7515" lon="1.43267">
        <ele>182.22033</ele>
        <time>2022-05-27T15:13:56.479Z</time>
      </trkpt>
      <trkpt lat="43.75157" lon="1.43256">
        <ele>182.26059</ele>
        <time>2022-05-27T15:13:58.495Z</time>
      </trkpt>
      <trkpt lat="43.75164" lon="1.43244">
        <ele>182.303846</ele>
        <time>2022-05-27T15:14:00.487Z</time>
      </trkpt>
      <trkpt lat="43.7517" lon="1.43231">
        <ele>182.349346</ele>
        <time>2022-05-27T15:14:02.510Z</time>
      </trkpt>
      <trkpt lat="43.75176" lon="1.43217">
        <ele>182.394277</ele>
        <time>2022-05-27T15:14:04.503Z</time>
      </trkpt>
      <trkpt lat="43.75182" lon="1.43203">
        <ele>182.438832</ele>
        <time>2022-05-27T15:14:06.509Z</time>
      </trkpt>
      <trkpt lat="43.75186" lon="1.4319">
        <ele>182.481824</ele>
        <time>2022-05-27T15:14:08.484Z</time>
      </trkpt>
      <trkpt lat="43.75191" lon="1.43176">
        <ele>182.597975</ele>
        <time>2022-05-27T15:14:10.499Z</time>
      </trkpt>
      <trkpt lat="43.75196" lon="1.43165">
        <ele>182.720927</ele>
        <time>2022-05-27T15:14:12.494Z</time>
      </trkpt>
      <trkpt lat="43.75199" lon="1.43152">
        <ele>182.839435</ele>
        <time>2022-05-27T15:14:15.487Z</time>
      </trkpt>
      <trkpt lat="43.75191" lon="1.43141">
        <ele>182.975558</ele>
        <time>2022-05-27T15:14:19.506Z</time>
      </trkpt>
      <trkpt lat="43.75181" lon="1.43137">
        <ele>183.099971</ele>
        <time>2022-05-27T15:14:21.498Z</time>
      </trkpt>
      <trkpt lat="43.7517" lon="1.43134">
        <ele>183.239622</ele>
        <time>2022-05-27T15:14:23.493Z</time>
      </trkpt>
      <trkpt lat="43.75159" lon="1.43129">
        <ele>183.383187</ele>
        <time>2022-05-27T15:14:25.511Z</time>
      </trkpt>
      <trkpt lat="43.75148" lon="1.43124">
        <ele>183.530427</ele>
        <time>2022-05-27T15:14:27.517Z</time>
      </trkpt>
      <trkpt lat="43.75137" lon="1.43118">
        <ele>183.675912</ele>
        <time>2022-05-27T15:14:29.517Z</time>
      </trkpt>
      <trkpt lat="43.75126" lon="1.43113">
        <ele>183.815022</ele>
        <time>2022-05-27T15:14:31.508Z</time>
      </trkpt>
      <trkpt lat="43.75116" lon="1.43109">
        <ele>183.946346</ele>
        <time>2022-05-27T15:14:33.501Z</time>
      </trkpt>
      <trkpt lat="43.75106" lon="1.43104">
        <ele>184.068649</ele>
        <time>2022-05-27T15:14:35.505Z</time>
      </trkpt>
      <trkpt lat="43.75095" lon="1.43095">
        <ele>184.233982</ele>
        <time>2022-05-27T15:14:38.519Z</time>
      </trkpt>
      <trkpt lat="43.75087" lon="1.43087">
        <ele>184.347102</ele>
        <time>2022-05-27T15:14:40.499Z</time>
      </trkpt>
      <trkpt lat="43.7508" lon="1.43076">
        <ele>184.474967</ele>
        <time>2022-05-27T15:14:42.501Z</time>
      </trkpt>
      <trkpt lat="43.75072" lon="1.43066">
        <ele>184.611165</ele>
        <time>2022-05-27T15:14:44.498Z</time>
      </trkpt>
      <trkpt lat="43.75064" lon="1.43056">
        <ele>184.745012</ele>
        <time>2022-05-27T15:14:46.504Z</time>
      </trkpt>
      <trkpt lat="43.75057" lon="1.43046">
        <ele>184.884271</ele>
        <time>2022-05-27T15:14:48.522Z</time>
      </trkpt>
      <trkpt lat="43.7505" lon="1.43034">
        <ele>185.040801</ele>
        <time>2022-05-27T15:14:50.495Z</time>
      </trkpt>
      <trkpt lat="43.75041" lon="1.43022">
        <ele>185.205037</ele>
        <time>2022-05-27T15:14:52.512Z</time>
      </trkpt>
      <trkpt lat="43.75031" lon="1.43015">
        <ele>185.36076</ele>
        <time>2022-05-27T15:14:54.524Z</time>
      </trkpt>
      <trkpt lat="43.75021" lon="1.4301">
        <ele>185.509177</ele>
        <time>2022-05-27T15:14:56.511Z</time>
      </trkpt>
      <trkpt lat="43.7501" lon="1.43005">
        <ele>185.660556</ele>
        <time>2022-05-27T15:14:58.513Z</time>
      </trkpt>
      <trkpt lat="43.75" lon="1.43">
        <ele>185.812857</ele>
        <time>2022-05-27T15:15:00.519Z</time>
      </trkpt>
      <trkpt lat="43.74989" lon="1.42994">
        <ele>185.969597</ele>
        <time>2022-05-27T15:15:02.519Z</time>
      </trkpt>
      <trkpt lat="43.74979" lon="1.42987">
        <ele>186.122262</ele>
        <time>2022-05-27T15:15:04.522Z</time>
      </trkpt>
      <trkpt lat="43.74969" lon="1.4298">
        <ele>186.279388</ele>
        <time>2022-05-27T15:15:06.510Z</time>
      </trkpt>
      <trkpt lat="43.74958" lon="1.42973">
        <ele>186.445606</ele>
        <time>2022-05-27T15:15:08.501Z</time>
      </trkpt>
      <trkpt lat="43.74952" lon="1.42958">
        <ele>186.611466</ele>
        <time>2022-05-27T15:15:10.488Z</time>
      </trkpt>
      <trkpt lat="43.7495" lon="1.42942">
        <ele>186.773573</ele>
        <time>2022-05-27T15:15:12.489Z</time>
      </trkpt>
      <trkpt lat="43.74947" lon="1.42926">
        <ele>186.927338</ele>
        <time>2022-05-27T15:15:14.492Z</time>
      </trkpt>
      <trkpt lat="43.74945" lon="1.42911">
        <ele>187.077323</ele>
        <time>2022-05-27T15:15:16.503Z</time>
      </trkpt>
      <trkpt lat="43.74941" lon="1.42897">
        <ele>187.20281</ele>
        <time>2022-05-27T15:15:18.492Z</time>
      </trkpt>
      <trkpt lat="43.74941" lon="1.42882">
        <ele>187.309759</ele>
        <time>2022-05-27T15:15:20.502Z</time>
      </trkpt>
      <trkpt lat="43.74941" lon="1.42868">
        <ele>187.412445</ele>
        <time>2022-05-27T15:15:22.528Z</time>
      </trkpt>
      <trkpt lat="43.74933" lon="1.4286">
        <ele>187.508466</ele>
        <time>2022-05-27T15:15:24.503Z</time>
      </trkpt>
      <trkpt lat="43.74922" lon="1.42861">
        <ele>187.615358</ele>
        <time>2022-05-27T15:15:26.498Z</time>
      </trkpt>
      <trkpt lat="43.74911" lon="1.42862">
        <ele>187.725381</ele>
        <time>2022-05-27T15:15:28.500Z</time>
      </trkpt>
      <trkpt lat="43.749" lon="1.42864">
        <ele>187.836178</ele>
        <time>2022-05-27T15:15:30.518Z</time>
      </trkpt>
      <trkpt lat="43.74888" lon="1.42866">
        <ele>187.947855</ele>
        <time>2022-05-27T15:15:32.506Z</time>
      </trkpt>
      <trkpt lat="43.74877" lon="1.42868">
        <ele>188.061567</ele>
        <time>2022-05-27T15:15:34.505Z</time>
      </trkpt>
      <trkpt lat="43.74865" lon="1.4287">
        <ele>188.177317</ele>
        <time>2022-05-27T15:15:36.520Z</time>
      </trkpt>
      <trkpt lat="43.74853" lon="1.42873">
        <ele>188.294236</ele>
        <time>2022-05-27T15:15:38.523Z</time>
      </trkpt>
      <trkpt lat="43.74842" lon="1.42874">
        <ele>188.408324</ele>
        <time>2022-05-27T15:15:40.529Z</time>
      </trkpt>
      <trkpt lat="43.7483" lon="1.42874">
        <ele>188.521062</ele>
        <time>2022-05-27T15:15:42.524Z</time>
      </trkpt>
      <trkpt lat="43.74819" lon="1.42871">
        <ele>188.633357</ele>
        <time>2022-05-27T15:15:44.502Z</time>
      </trkpt>
      <trkpt lat="43.74808" lon="1.4287">
        <ele>188.745616</ele>
        <time>2022-05-27T15:15:46.513Z</time>
      </trkpt>
      <trkpt lat="43.74796" lon="1.42867">
        <ele>188.857064</ele>
        <time>2022-05-27T15:15:48.512Z</time>
      </trkpt>
      <trkpt lat="43.74785" lon="1.42864">
        <ele>188.980719</ele>
        <time>2022-05-27T15:15:50.511Z</time>
      </trkpt>
      <trkpt lat="43.74775" lon="1.42859">
        <ele>189.114241</ele>
        <time>2022-05-27T15:15:52.514Z</time>
      </trkpt>
      <trkpt lat="43.74764" lon="1.42854">
        <ele>189.248184</ele>
        <time>2022-05-27T15:15:54.507Z</time>
      </trkpt>
      <trkpt lat="43.74754" lon="1.42847">
        <ele>189.384987</ele>
        <time>2022-05-27T15:15:56.519Z</time>
      </trkpt>
      <trkpt lat="43.74743" lon="1.42842">
        <ele>189.52082</ele>
        <time>2022-05-27T15:15:58.498Z</time>
      </trkpt>
      <trkpt lat="43.74733" lon="1.42835">
        <ele>189.657889</ele>
        <time>2022-05-27T15:16:00.526Z</time>
      </trkpt>
      <trkpt lat="43.74722" lon="1.42829">
        <ele>189.794268</ele>
        <time>2022-05-27T15:16:02.522Z</time>
      </trkpt>
      <trkpt lat="43.74712" lon="1.42822">
        <ele>189.929186</ele>
        <time>2022-05-27T15:16:04.518Z</time>
      </trkpt>
      <trkpt lat="43.74702" lon="1.42815">
        <ele>190.063732</ele>
        <time>2022-05-27T15:16:06.514Z</time>
      </trkpt>
      <trkpt lat="43.74691" lon="1.42808">
        <ele>190.201517</ele>
        <time>2022-05-27T15:16:08.514Z</time>
      </trkpt>
      <trkpt lat="43.74681" lon="1.42802">
        <ele>190.333892</ele>
        <time>2022-05-27T15:16:10.515Z</time>
      </trkpt>
      <trkpt lat="43.74671" lon="1.42795">
        <ele>190.46629</ele>
        <time>2022-05-27T15:16:12.520Z</time>
      </trkpt>
      <trkpt lat="43.74661" lon="1.42788">
        <ele>190.604804</ele>
        <time>2022-05-27T15:16:14.501Z</time>
      </trkpt>
      <trkpt lat="43.7465" lon="1.42781">
        <ele>190.746964</ele>
        <time>2022-05-27T15:16:16.537Z</time>
      </trkpt>
      <trkpt lat="43.74639" lon="1.42775">
        <ele>190.885126</ele>
        <time>2022-05-27T15:16:18.507Z</time>
      </trkpt>
      <trkpt lat="43.74629" lon="1.42768">
        <ele>191.022263</ele>
        <time>2022-05-27T15:16:20.491Z</time>
      </trkpt>
      <trkpt lat="43.74618" lon="1.42762">
        <ele>191.18549</ele>
        <time>2022-05-27T15:16:22.501Z</time>
      </trkpt>
      <trkpt lat="43.74608" lon="1.42756">
        <ele>191.357483</ele>
        <time>2022-05-27T15:16:24.514Z</time>
      </trkpt>
      <trkpt lat="43.74598" lon="1.4275">
        <ele>191.527089</ele>
        <time>2022-05-27T15:16:26.513Z</time>
      </trkpt>
      <trkpt lat="43.74587" lon="1.42744">
        <ele>191.698269</ele>
        <time>2022-05-27T15:16:28.499Z</time>
      </trkpt>
      <trkpt lat="43.74577" lon="1.42738">
        <ele>191.867036</ele>
        <time>2022-05-27T15:16:30.480Z</time>
      </trkpt>
      <trkpt lat="43.74567" lon="1.42731">
        <ele>192.038623</ele>
        <time>2022-05-27T15:16:32.514Z</time>
      </trkpt>
      <trkpt lat="43.74564" lon="1.42717">
        <ele>192.198126</ele>
        <time>2022-05-27T15:16:34.493Z</time>
      </trkpt>
      <trkpt lat="43.74566" lon="1.42702">
        <ele>192.366729</ele>
        <time>2022-05-27T15:16:36.505Z</time>
      </trkpt>
      <trkpt lat="43.74567" lon="1.42687">
        <ele>192.53365</ele>
        <time>2022-05-27T15:16:38.485Z</time>
      </trkpt>
      <trkpt lat="43.74568" lon="1.42672">
        <ele>192.693989</ele>
        <time>2022-05-27T15:16:40.489Z</time>
      </trkpt>
      <trkpt lat="43.74569" lon="1.42659">
        <ele>192.838136</ele>
        <time>2022-05-27T15:16:42.488Z</time>
      </trkpt>
      <trkpt lat="43.74569" lon="1.42646">
        <ele>192.97682</ele>
        <time>2022-05-27T15:16:44.506Z</time>
      </trkpt>
      <trkpt lat="43.74571" lon="1.42628">
        <ele>193.176411</ele>
        <time>2022-05-27T15:16:47.503Z</time>
      </trkpt>
      <trkpt lat="43.74571" lon="1.42615">
        <ele>193.324625</ele>
        <time>2022-05-27T15:16:49.490Z</time>
      </trkpt>
      <trkpt lat="43.74572" lon="1.426">
        <ele>193.492819</ele>
        <time>2022-05-27T15:16:51.492Z</time>
      </trkpt>
      <trkpt lat="43.74573" lon="1.42583">
        <ele>193.675234</ele>
        <time>2022-05-27T15:16:53.493Z</time>
      </trkpt>
      <trkpt lat="43.74574" lon="1.42566">
        <ele>193.840945</ele>
        <time>2022-05-27T15:16:55.518Z</time>
      </trkpt>
      <trkpt lat="43.74576" lon="1.4255">
        <ele>193.976534</ele>
        <time>2022-05-27T15:16:57.495Z</time>
      </trkpt>
      <trkpt lat="43.74577" lon="1.42535">
        <ele>194.109053</ele>
        <time>2022-05-27T15:16:59.504Z</time>
      </trkpt>
      <trkpt lat="43.74579" lon="1.42519">
        <ele>194.237731</ele>
        <time>2022-05-27T15:17:01.504Z</time>
      </trkpt>
      <trkpt lat="43.74581" lon="1.42505">
        <ele>194.363863</ele>
        <time>2022-05-27T15:17:03.493Z</time>
      </trkpt>
      <trkpt lat="43.74583" lon="1.4249">
        <ele>194.487749</ele>
        <time>2022-05-27T15:17:05.503Z</time>
      </trkpt>
      <trkpt lat="43.74585" lon="1.42476">
        <ele>194.60753</ele>
        <time>2022-05-27T15:17:07.514Z</time>
      </trkpt>
      <trkpt lat="43.74587" lon="1.42463">
        <ele>194.718876</ele>
        <time>2022-05-27T15:17:09.500Z</time>
      </trkpt>
      <trkpt lat="43.74589" lon="1.42445">
        <ele>194.869364</ele>
        <time>2022-05-27T15:17:12.488Z</time>
      </trkpt>
      <trkpt lat="43.7459" lon="1.42431">
        <ele>194.993395</ele>
        <time>2022-05-27T15:17:15.498Z</time>
      </trkpt>
      <trkpt lat="43.74589" lon="1.42417">
        <ele>195.109701</ele>
        <time>2022-05-27T15:17:18.516Z</time>
      </trkpt>
      <trkpt lat="43.74584" lon="1.42402">
        <ele>195.244802</ele>
        <time>2022-05-27T15:17:21.502Z</time>
      </trkpt>
      <trkpt lat="43.74574" lon="1.42388">
        <ele>195.405896</ele>
        <time>2022-05-27T15:17:24.511Z</time>
      </trkpt>
      <trkpt lat="43.74568" lon="1.42376">
        <ele>195.534264</ele>
        <time>2022-05-27T15:17:26.513Z</time>
      </trkpt>
      <trkpt lat="43.74567" lon="1.42361">
        <ele>195.65997</ele>
        <time>2022-05-27T15:17:28.507Z</time>
      </trkpt>
      <trkpt lat="43.7457" lon="1.42347">
        <ele>195.775907</ele>
        <time>2022-05-27T15:17:30.494Z</time>
      </trkpt>
      <trkpt lat="43.74573" lon="1.42335">
        <ele>195.883459</ele>
        <time>2022-05-27T15:17:32.488Z</time>
      </trkpt>
      <trkpt lat="43.74573" lon="1.42318">
        <ele>196.027867</ele>
        <time>2022-05-27T15:17:35.495Z</time>
      </trkpt>
      <trkpt lat="43.74568" lon="1.42306">
        <ele>196.135207</ele>
        <time>2022-05-27T15:17:37.487Z</time>
      </trkpt>
      <trkpt lat="43.74563" lon="1.42294">
        <ele>196.250432</ele>
        <time>2022-05-27T15:17:39.491Z</time>
      </trkpt>
      <trkpt lat="43.74561" lon="1.4228">
        <ele>196.368529</ele>
        <time>2022-05-27T15:17:41.501Z</time>
      </trkpt>
      <trkpt lat="43.74563" lon="1.42265">
        <ele>196.488472</ele>
        <time>2022-05-27T15:17:43.483Z</time>
      </trkpt>
      <trkpt lat="43.74567" lon="1.42251">
        <ele>196.613336</ele>
        <time>2022-05-27T15:17:45.492Z</time>
      </trkpt>
      <trkpt lat="43.74574" lon="1.42238">
        <ele>196.743063</ele>
        <time>2022-05-27T15:17:47.480Z</time>
      </trkpt>
      <trkpt lat="43.74579" lon="1.42224">
        <ele>196.871552</ele>
        <time>2022-05-27T15:17:49.493Z</time>
      </trkpt>
      <trkpt lat="43.74584" lon="1.4221">
        <ele>197.002295</ele>
        <time>2022-05-27T15:17:51.501Z</time>
      </trkpt>
      <trkpt lat="43.7459" lon="1.42197">
        <ele>197.127552</ele>
        <time>2022-05-27T15:17:53.486Z</time>
      </trkpt>
      <trkpt lat="43.74589" lon="1.42183">
        <ele>197.239604</ele>
        <time>2022-05-27T15:17:55.500Z</time>
      </trkpt>
      <trkpt lat="43.74588" lon="1.4217">
        <ele>198.294066</ele>
        <time>2022-05-27T15:20:02.502Z</time>
      </trkpt>
      <trkpt lat="43.74584" lon="1.42155">
        <ele>198.481654</ele>
        <time>2022-05-27T15:20:06.501Z</time>
      </trkpt>
      <trkpt lat="43.7458" lon="1.4214">
        <ele>198.682346</ele>
        <time>2022-05-27T15:20:09.497Z</time>
      </trkpt>
      <trkpt lat="43.74577" lon="1.42123">
        <ele>198.898175</ele>
        <time>2022-05-27T15:20:12.514Z</time>
      </trkpt>
      <trkpt lat="43.74573" lon="1.42107">
        <ele>199.106931</ele>
        <time>2022-05-27T15:20:15.551Z</time>
      </trkpt>
      <trkpt lat="43.74568" lon="1.42096">
        <ele>199.272777</ele>
        <time>2022-05-27T15:20:18.506Z</time>
      </trkpt>
      <trkpt lat="43.74557" lon="1.42089">
        <ele>199.47259</ele>
        <time>2022-05-27T15:20:21.507Z</time>
      </trkpt>
      <trkpt lat="43.74545" lon="1.42085">
        <ele>199.687533</ele>
        <time>2022-05-27T15:20:24.503Z</time>
      </trkpt>
      <trkpt lat="43.74535" lon="1.4208">
        <ele>199.865783</ele>
        <time>2022-05-27T15:20:27.497Z</time>
      </trkpt>
      <trkpt lat="43.74525" lon="1.4207">
        <ele>200.077469</ele>
        <time>2022-05-27T15:20:31.499Z</time>
      </trkpt>
      <trkpt lat="43.74517" lon="1.42063">
        <ele>200.236075</ele>
        <time>2022-05-27T15:20:33.511Z</time>
      </trkpt>
      <trkpt lat="43.74507" lon="1.42056">
        <ele>200.429765</ele>
        <time>2022-05-27T15:20:36.499Z</time>
      </trkpt>
      <trkpt lat="43.745" lon="1.42048">
        <ele>200.585496</ele>
        <time>2022-05-27T15:20:38.493Z</time>
      </trkpt>
      <trkpt lat="43.74492" lon="1.42041">
        <ele>200.74392</ele>
        <time>2022-05-27T15:20:40.502Z</time>
      </trkpt>
      <trkpt lat="43.74484" lon="1.42031">
        <ele>200.929915</ele>
        <time>2022-05-27T15:20:43.502Z</time>
      </trkpt>
      <trkpt lat="43.74475" lon="1.42024">
        <ele>201.105048</ele>
        <time>2022-05-27T15:20:46.489Z</time>
      </trkpt>
      <trkpt lat="43.74465" lon="1.42019">
        <ele>201.286922</ele>
        <time>2022-05-27T15:20:49.509Z</time>
      </trkpt>
      <trkpt lat="43.74454" lon="1.42014">
        <ele>201.676258</ele>
        <time>2022-05-27T15:20:52.497Z</time>
      </trkpt>
      <trkpt lat="43.74443" lon="1.42011">
        <ele>202.19138</ele>
        <time>2022-05-27T15:20:55.511Z</time>
      </trkpt>
      <trkpt lat="43.74432" lon="1.42011">
        <ele>202.700691</ele>
        <time>2022-05-27T15:20:59.513Z</time>
      </trkpt>
      <trkpt lat="43.74422" lon="1.42014">
        <ele>203.190868</ele>
        <time>2022-05-27T15:21:03.493Z</time>
      </trkpt>
      <trkpt lat="43.74413" lon="1.42015">
        <ele>203.617227</ele>
        <time>2022-05-27T15:21:06.494Z</time>
      </trkpt>
      <trkpt lat="43.74403" lon="1.42006">
        <ele>204.131289</ele>
        <time>2022-05-27T15:21:11.486Z</time>
      </trkpt>
      <trkpt lat="43.7439" lon="1.42004">
        <ele>204.766387</ele>
        <time>2022-05-27T15:21:15.502Z</time>
      </trkpt>
      <trkpt lat="43.74379" lon="1.42007">
        <ele>205.286045</ele>
        <time>2022-05-27T15:21:18.499Z</time>
      </trkpt>
      <trkpt lat="43.74369" lon="1.42012">
        <ele>205.780384</ele>
        <time>2022-05-27T15:21:22.498Z</time>
      </trkpt>
      <trkpt lat="43.7436" lon="1.42018">
        <ele>206.219078</ele>
        <time>2022-05-27T15:21:25.508Z</time>
      </trkpt>
      <trkpt lat="43.74351" lon="1.42021">
        <ele>206.667023</ele>
        <time>2022-05-27T15:21:28.513Z</time>
      </trkpt>
      <trkpt lat="43.7434" lon="1.42022">
        <ele>207.167524</ele>
        <time>2022-05-27T15:21:31.498Z</time>
      </trkpt>
      <trkpt lat="43.74328" lon="1.42019">
        <ele>207.716616</ele>
        <time>2022-05-27T15:21:34.507Z</time>
      </trkpt>
      <trkpt lat="43.74318" lon="1.42015">
        <ele>208.207789</ele>
        <time>2022-05-27T15:21:37.503Z</time>
      </trkpt>
      <trkpt lat="43.74308" lon="1.42007">
        <ele>208.724563</ele>
        <time>2022-05-27T15:21:41.509Z</time>
      </trkpt>
      <trkpt lat="43.743" lon="1.42002">
        <ele>209.160614</ele>
        <time>2022-05-27T15:21:44.493Z</time>
      </trkpt>
      <trkpt lat="43.74291" lon="1.41996">
        <ele>209.624524</ele>
        <time>2022-05-27T15:21:47.489Z</time>
      </trkpt>
      <trkpt lat="43.74281" lon="1.4199">
        <ele>210.401719</ele>
        <time>2022-05-27T15:21:51.503Z</time>
      </trkpt>
      <trkpt lat="43.74272" lon="1.41993">
        <ele>211.112304</ele>
        <time>2022-05-27T15:21:54.478Z</time>
      </trkpt>
      <trkpt lat="43.74262" lon="1.41997">
        <ele>211.90853</ele>
        <time>2022-05-27T15:21:58.492Z</time>
      </trkpt>
      <trkpt lat="43.74253" lon="1.41998">
        <ele>212.604755</ele>
        <time>2022-05-27T15:22:02.503Z</time>
      </trkpt>
      <trkpt lat="43.74238" lon="1.41996">
        <ele>213.732714</ele>
        <time>2022-05-27T15:23:21.497Z</time>
      </trkpt>
      <trkpt lat="43.7423" lon="1.41988">
        <ele>214.493765</ele>
        <time>2022-05-27T15:23:26.497Z</time>
      </trkpt>
      <trkpt lat="43.74219" lon="1.41985">
        <ele>215.36978</ele>
        <time>2022-05-27T15:23:31.492Z</time>
      </trkpt>
      <trkpt lat="43.74207" lon="1.41983">
        <ele>216.261793</ele>
        <time>2022-05-27T15:23:35.514Z</time>
      </trkpt>
      <trkpt lat="43.74198" lon="1.41982">
        <ele>216.957904</ele>
        <time>2022-05-27T15:23:38.501Z</time>
      </trkpt>
      <trkpt lat="43.74189" lon="1.41988">
        <ele>217.742575</ele>
        <time>2022-05-27T15:23:42.493Z</time>
      </trkpt>
      <trkpt lat="43.74181" lon="1.41997">
        <ele>218.514609</ele>
        <time>2022-05-27T15:23:45.496Z</time>
      </trkpt>
      <trkpt lat="43.74174" lon="1.42007">
        <ele>219.237507</ele>
        <time>2022-05-27T15:23:48.490Z</time>
      </trkpt>
      <trkpt lat="43.74165" lon="1.42015">
        <ele>220.045695</ele>
        <time>2022-05-27T15:23:51.484Z</time>
      </trkpt>
      <trkpt lat="43.74155" lon="1.42017">
        <ele>220.829382</ele>
        <time>2022-05-27T15:23:55.488Z</time>
      </trkpt>
      <trkpt lat="43.74146" lon="1.42019">
        <ele>221.534014</ele>
        <time>2022-05-27T15:23:58.501Z</time>
      </trkpt>
      <trkpt lat="43.74137" lon="1.42022">
        <ele>222.224538</ele>
        <time>2022-05-27T15:24:01.487Z</time>
      </trkpt>
      <trkpt lat="43.74127" lon="1.42026">
        <ele>223.027921</ele>
        <time>2022-05-27T15:24:05.484Z</time>
      </trkpt>
      <trkpt lat="43.74116" lon="1.42028">
        <ele>223.637183</ele>
        <time>2022-05-27T15:24:09.496Z</time>
      </trkpt>
      <trkpt lat="43.74106" lon="1.42029">
        <ele>223.983442</ele>
        <time>2022-05-27T15:24:13.511Z</time>
      </trkpt>
      <trkpt lat="43.74095" lon="1.42033">
        <ele>224.394964</ele>
        <time>2022-05-27T15:24:17.518Z</time>
      </trkpt>
      <trkpt lat="43.74086" lon="1.42043">
        <ele>224.794699</ele>
        <time>2022-05-27T15:24:20.499Z</time>
      </trkpt>
      <trkpt lat="43.74078" lon="1.42056">
        <ele>225.203972</ele>
        <time>2022-05-27T15:24:23.490Z</time>
      </trkpt>
      <trkpt lat="43.7407" lon="1.42061">
        <ele>225.530636</ele>
        <time>2022-05-27T15:24:26.474Z</time>
      </trkpt>
      <trkpt lat="43.7406" lon="1.42061">
        <ele>225.858812</ele>
        <time>2022-05-27T15:24:30.514Z</time>
      </trkpt>
      <trkpt lat="43.7405" lon="1.42063">
        <ele>226.22635</ele>
        <time>2022-05-27T15:24:34.485Z</time>
      </trkpt>
      <trkpt lat="43.7404" lon="1.42068">
        <ele>226.587991</ele>
        <time>2022-05-27T15:24:37.499Z</time>
      </trkpt>
      <trkpt lat="43.74029" lon="1.4207">
        <ele>226.967102</ele>
        <time>2022-05-27T15:24:40.504Z</time>
      </trkpt>
      <trkpt lat="43.74019" lon="1.42071">
        <ele>227.315369</ele>
        <time>2022-05-27T15:24:43.516Z</time>
      </trkpt>
      <trkpt lat="43.74008" lon="1.42074">
        <ele>227.693537</ele>
        <time>2022-05-27T15:24:46.497Z</time>
      </trkpt>
      <trkpt lat="43.73996" lon="1.42078">
        <ele>228.132287</ele>
        <time>2022-05-27T15:24:49.493Z</time>
      </trkpt>
      <trkpt lat="43.73987" lon="1.42082">
        <ele>228.44483</ele>
        <time>2022-05-27T15:24:51.494Z</time>
      </trkpt>
      <trkpt lat="43.73975" lon="1.42089">
        <ele>228.893993</ele>
        <time>2022-05-27T15:24:54.512Z</time>
      </trkpt>
      <trkpt lat="43.73963" lon="1.42094">
        <ele>229.314198</ele>
        <time>2022-05-27T15:24:57.508Z</time>
      </trkpt>
      <trkpt lat="43.73953" lon="1.42103">
        <ele>229.57691</ele>
        <time>2022-05-27T15:25:00.502Z</time>
      </trkpt>
      <trkpt lat="43.73944" lon="1.42113">
        <ele>229.094484</ele>
        <time>2022-05-27T15:25:03.511Z</time>
      </trkpt>
      <trkpt lat="43.73951" lon="1.42125">
        <ele>228.625697</ele>
        <time>2022-05-27T15:25:08.492Z</time>
      </trkpt>
      <trkpt lat="43.7396" lon="1.42132">
        <ele>228.207736</ele>
        <time>2022-05-27T15:25:10.509Z</time>
      </trkpt>
      <trkpt lat="43.73967" lon="1.42138">
        <ele>227.824569</ele>
        <time>2022-05-27T15:25:12.500Z</time>
      </trkpt>
      <trkpt lat="43.73978" lon="1.42146">
        <ele>227.327686</ele>
        <time>2022-05-27T15:25:15.509Z</time>
      </trkpt>
      <trkpt lat="43.7399" lon="1.42157">
        <ele>226.719701</ele>
        <time>2022-05-27T15:25:18.491Z</time>
      </trkpt>
      <trkpt lat="43.73996" lon="1.42169">
        <ele>226.262899</ele>
        <time>2022-05-27T15:25:20.500Z</time>
      </trkpt>
      <trkpt lat="43.74002" lon="1.42182">
        <ele>225.806294</ele>
        <time>2022-05-27T15:25:22.504Z</time>
      </trkpt>
      <trkpt lat="43.74009" lon="1.42192">
        <ele>225.392324</ele>
        <time>2022-05-27T15:25:24.502Z</time>
      </trkpt>
      <trkpt lat="43.7402" lon="1.42195">
        <ele>224.938262</ele>
        <time>2022-05-27T15:25:27.486Z</time>
      </trkpt>
      <trkpt lat="43.74031" lon="1.42197">
        <ele>224.435355</ele>
        <time>2022-05-27T15:25:30.483Z</time>
      </trkpt>
      <trkpt lat="43.74041" lon="1.42207">
        <ele>223.932544</ele>
        <time>2022-05-27T15:25:32.491Z</time>
      </trkpt>
      <trkpt lat="43.74048" lon="1.4222">
        <ele>223.436613</ele>
        <time>2022-05-27T15:25:34.478Z</time>
      </trkpt>
      <trkpt lat="43.7405" lon="1.42233">
        <ele>223.035899</ele>
        <time>2022-05-27T15:25:36.506Z</time>
      </trkpt>
      <trkpt lat="43.74049" lon="1.42246">
        <ele>222.646581</ele>
        <time>2022-05-27T15:25:38.500Z</time>
      </trkpt>
      <trkpt lat="43.74046" lon="1.4226">
        <ele>222.194809</ele>
        <time>2022-05-27T15:25:40.505Z</time>
      </trkpt>
      <trkpt lat="43.74042" lon="1.42275">
        <ele>222.21123</ele>
        <time>2022-05-27T15:25:42.495Z</time>
      </trkpt>
      <trkpt lat="43.74037" lon="1.42291">
        <ele>222.392568</ele>
        <time>2022-05-27T15:25:44.488Z</time>
      </trkpt>
      <trkpt lat="43.74035" lon="1.42308">
        <ele>222.572178</ele>
        <time>2022-05-27T15:25:46.478Z</time>
      </trkpt>
      <trkpt lat="43.74026" lon="1.42317">
        <ele>222.729776</ele>
        <time>2022-05-27T15:25:49.497Z</time>
      </trkpt>
      <trkpt lat="43.74018" lon="1.42322">
        <ele>222.869998</ele>
        <time>2022-05-27T15:25:53.503Z</time>
      </trkpt>
      <trkpt lat="43.74006" lon="1.42325">
        <ele>223.043825</ele>
        <time>2022-05-27T15:25:57.496Z</time>
      </trkpt>
      <trkpt lat="43.73996" lon="1.42327">
        <ele>223.194833</ele>
        <time>2022-05-27T15:26:00.488Z</time>
      </trkpt>
      <trkpt lat="43.73985" lon="1.4233">
        <ele>223.361714</ele>
        <time>2022-05-27T15:26:03.496Z</time>
      </trkpt>
      <trkpt lat="43.73974" lon="1.4233">
        <ele>223.523881</ele>
        <time>2022-05-27T15:26:06.519Z</time>
      </trkpt>
      <trkpt lat="43.73954" lon="1.42341">
        <ele>223.842253</ele>
        <time>2022-05-27T15:30:02.494Z</time>
      </trkpt>
      <trkpt lat="43.73946" lon="1.4235">
        <ele>223.997828</ele>
        <time>2022-05-27T15:30:07.512Z</time>
      </trkpt>
      <trkpt lat="43.73938" lon="1.4236">
        <ele>224.165065</ele>
        <time>2022-05-27T15:30:10.485Z</time>
      </trkpt>
      <trkpt lat="43.73929" lon="1.42373">
        <ele>224.353818</ele>
        <time>2022-05-27T15:30:13.496Z</time>
      </trkpt>
      <trkpt lat="43.73923" lon="1.42382">
        <ele>224.491319</ele>
        <time>2022-05-27T15:30:15.499Z</time>
      </trkpt>
      <trkpt lat="43.73911" lon="1.42391">
        <ele>224.681999</ele>
        <time>2022-05-27T15:30:18.510Z</time>
      </trkpt>
      <trkpt lat="43.73899" lon="1.42397">
        <ele>225.037991</ele>
        <time>2022-05-27T15:30:21.504Z</time>
      </trkpt>
      <trkpt lat="43.73891" lon="1.42402">
        <ele>225.387154</ele>
        <time>2022-05-27T15:30:24.488Z</time>
      </trkpt>
      <trkpt lat="43.7388" lon="1.42398">
        <ele>225.785579</ele>
        <time>2022-05-27T15:30:28.478Z</time>
      </trkpt>
      <trkpt lat="43.73873" lon="1.42389">
        <ele>226.122605</ele>
        <time>2022-05-27T15:30:32.493Z</time>
      </trkpt>
      <trkpt lat="43.73865" lon="1.42381">
        <ele>226.495581</ele>
        <time>2022-05-27T15:30:36.496Z</time>
      </trkpt>
      <trkpt lat="43.73856" lon="1.42373">
        <ele>226.854305</ele>
        <time>2022-05-27T15:30:40.506Z</time>
      </trkpt>
      <trkpt lat="43.73846" lon="1.42374">
        <ele>227.19498</ele>
        <time>2022-05-27T15:30:44.514Z</time>
      </trkpt>
      <trkpt lat="43.73836" lon="1.42382">
        <ele>227.626339</ele>
        <time>2022-05-27T15:30:48.496Z</time>
      </trkpt>
      <trkpt lat="43.73825" lon="1.42382">
        <ele>228.006498</ele>
        <time>2022-05-27T15:30:52.504Z</time>
      </trkpt>
      <trkpt lat="43.73818" lon="1.42373">
        <ele>228.356711</ele>
        <time>2022-05-27T15:30:58.507Z</time>
      </trkpt>
      <trkpt lat="43.73808" lon="1.42368">
        <ele>228.737612</ele>
        <time>2022-05-27T15:31:03.502Z</time>
      </trkpt>
      <trkpt lat="43.738" lon="1.42376">
        <ele>229.104392</ele>
        <time>2022-05-27T15:31:07.511Z</time>
      </trkpt>
      <trkpt lat="43.73792" lon="1.42386">
        <ele>229.477834</ele>
        <time>2022-05-27T15:31:11.495Z</time>
      </trkpt>
      <trkpt lat="43.73793" lon="1.42401">
        <ele>229.863751</ele>
        <time>2022-05-27T15:31:15.515Z</time>
      </trkpt>
      <trkpt lat="43.73801" lon="1.42409">
        <ele>230.22626</ele>
        <time>2022-05-27T15:31:18.495Z</time>
      </trkpt>
      <trkpt lat="43.7381" lon="1.42415">
        <ele>230.588734</ele>
        <time>2022-05-27T15:31:21.497Z</time>
      </trkpt>
      <trkpt lat="43.73814" lon="1.42427">
        <ele>230.924764</ele>
        <time>2022-05-27T15:31:24.505Z</time>
      </trkpt>
      <trkpt lat="43.7381" lon="1.42441">
        <ele>231.24214</ele>
        <time>2022-05-27T15:31:27.492Z</time>
      </trkpt>
      <trkpt lat="43.73799" lon="1.42442">
        <ele>231.420403</ele>
        <time>2022-05-27T15:31:30.489Z</time>
      </trkpt>
      <trkpt lat="43.73789" lon="1.42438">
        <ele>231.571504</ele>
        <time>2022-05-27T15:31:33.508Z</time>
      </trkpt>
      <trkpt lat="43.73781" lon="1.4243">
        <ele>231.716802</ele>
        <time>2022-05-27T15:31:36.497Z</time>
      </trkpt>
      <trkpt lat="43.73772" lon="1.42423">
        <ele>231.889948</ele>
        <time>2022-05-27T15:31:39.501Z</time>
      </trkpt>
      <trkpt lat="43.73762" lon="1.42411">
        <ele>232.083449</ele>
        <time>2022-05-27T15:31:42.495Z</time>
      </trkpt>
      <trkpt lat="43.73756" lon="1.424">
        <ele>232.231059</ele>
        <time>2022-05-27T15:31:45.495Z</time>
      </trkpt>
      <trkpt lat="43.73749" lon="1.42389">
        <ele>232.402845</ele>
        <time>2022-05-27T15:31:48.501Z</time>
      </trkpt>
      <trkpt lat="43.73739" lon="1.42387">
        <ele>232.553369</ele>
        <time>2022-05-27T15:31:51.498Z</time>
      </trkpt>
      <trkpt lat="43.73727" lon="1.42393">
        <ele>232.755663</ele>
        <time>2022-05-27T15:31:54.507Z</time>
      </trkpt>
      <trkpt lat="43.73718" lon="1.42396">
        <ele>232.89649</ele>
        <time>2022-05-27T15:31:56.501Z</time>
      </trkpt>
      <trkpt lat="43.73706" lon="1.42398">
        <ele>233.08386</ele>
        <time>2022-05-27T15:31:59.516Z</time>
      </trkpt>
      <trkpt lat="43.73698" lon="1.42405">
        <ele>233.230583</ele>
        <time>2022-05-27T15:32:01.492Z</time>
      </trkpt>
      <trkpt lat="43.7369" lon="1.42411">
        <ele>233.37362</ele>
        <time>2022-05-27T15:32:03.500Z</time>
      </trkpt>
      <trkpt lat="43.73678" lon="1.42418">
        <ele>233.568056</ele>
        <time>2022-05-27T15:32:06.476Z</time>
      </trkpt>
      <trkpt lat="43.73669" lon="1.42429">
        <ele>233.756314</ele>
        <time>2022-05-27T15:32:09.491Z</time>
      </trkpt>
      <trkpt lat="43.73662" lon="1.42445">
        <ele>233.952778</ele>
        <time>2022-05-27T15:32:13.507Z</time>
      </trkpt>
      <trkpt lat="43.73654" lon="1.42456">
        <ele>234.030299</ele>
        <time>2022-05-27T15:32:16.498Z</time>
      </trkpt>
      <trkpt lat="43.73643" lon="1.42463">
        <ele>234.110372</ele>
        <time>2022-05-27T15:32:19.507Z</time>
      </trkpt>
      <trkpt lat="43.73638" lon="1.4245">
        <ele>234.176861</ele>
        <time>2022-05-27T15:32:23.493Z</time>
      </trkpt>
      <trkpt lat="43.7363" lon="1.42438">
        <ele>234.251879</ele>
        <time>2022-05-27T15:32:26.502Z</time>
      </trkpt>
      <trkpt lat="43.73622" lon="1.42424">
        <ele>234.335233</ele>
        <time>2022-05-27T15:32:29.493Z</time>
      </trkpt>
      <trkpt lat="43.73612" lon="1.42411">
        <ele>234.421925</ele>
        <time>2022-05-27T15:32:32.511Z</time>
      </trkpt>
      <trkpt lat="43.73607" lon="1.424">
        <ele>234.482472</ele>
        <time>2022-05-27T15:32:34.505Z</time>
      </trkpt>
      <trkpt lat="43.73605" lon="1.42381">
        <ele>234.572747</ele>
        <time>2022-05-27T15:32:37.491Z</time>
      </trkpt>
      <trkpt lat="43.73608" lon="1.42367">
        <ele>234.638747</ele>
        <time>2022-05-27T15:32:40.510Z</time>
      </trkpt>
      <trkpt lat="43.73619" lon="1.42351">
        <ele>234.740761</ele>
        <time>2022-05-27T15:33:32.513Z</time>
      </trkpt>
      <trkpt lat="43.73626" lon="1.42339">
        <ele>234.812307</ele>
        <time>2022-05-27T15:33:36.511Z</time>
      </trkpt>
      <trkpt lat="43.73632" lon="1.42328">
        <ele>234.882326</ele>
        <time>2022-05-27T15:33:39.494Z</time>
      </trkpt>
      <trkpt lat="43.73641" lon="1.42317">
        <ele>234.958393</ele>
        <time>2022-05-27T15:33:42.486Z</time>
      </trkpt>
      <trkpt lat="43.73649" lon="1.42307">
        <ele>235.02558</ele>
        <time>2022-05-27T15:33:45.508Z</time>
      </trkpt>
      <trkpt lat="43.73652" lon="1.42294">
        <ele>235.0895</ele>
        <time>2022-05-27T15:33:48.507Z</time>
      </trkpt>
      <trkpt lat="43.73646" lon="1.42283">
        <ele>235.081588</ele>
        <time>2022-05-27T15:33:51.506Z</time>
      </trkpt>
      <trkpt lat="43.7364" lon="1.42272">
        <ele>235.036468</ele>
        <time>2022-05-27T15:33:53.494Z</time>
      </trkpt>
      <trkpt lat="43.73637" lon="1.42259">
        <ele>234.991781</ele>
        <time>2022-05-27T15:33:55.498Z</time>
      </trkpt>
      <trkpt lat="43.73641" lon="1.42244">
        <ele>234.941679</ele>
        <time>2022-05-27T15:33:58.497Z</time>
      </trkpt>
      <trkpt lat="43.73648" lon="1.42235">
        <ele>234.896712</ele>
        <time>2022-05-27T15:34:02.506Z</time>
      </trkpt>
      <trkpt lat="43.73658" lon="1.42227">
        <ele>234.847163</ele>
        <time>2022-05-27T15:34:06.497Z</time>
      </trkpt>
      <trkpt lat="43.73666" lon="1.42216">
        <ele>234.796824</ele>
        <time>2022-05-27T15:34:11.488Z</time>
      </trkpt>
      <trkpt lat="43.73673" lon="1.42206">
        <ele>234.752201</ele>
        <time>2022-05-27T15:34:14.493Z</time>
      </trkpt>
      <trkpt lat="43.7368" lon="1.42196">
        <ele>234.704399</ele>
        <time>2022-05-27T15:34:17.488Z</time>
      </trkpt>
      <trkpt lat="43.73689" lon="1.42184">
        <ele>234.650864</ele>
        <time>2022-05-27T15:34:20.504Z</time>
      </trkpt>
      <trkpt lat="43.73695" lon="1.42176">
        <ele>234.610306</ele>
        <time>2022-05-27T15:34:22.509Z</time>
      </trkpt>
      <trkpt lat="43.73706" lon="1.42164">
        <ele>234.549047</ele>
        <time>2022-05-27T15:34:25.495Z</time>
      </trkpt>
      <trkpt lat="43.73715" lon="1.42157">
        <ele>234.503968</ele>
        <time>2022-05-27T15:34:27.479Z</time>
      </trkpt>
      <trkpt lat="43.73722" lon="1.4215">
        <ele>234.463114</ele>
        <time>2022-05-27T15:34:29.509Z</time>
      </trkpt>
      <trkpt lat="43.73734" lon="1.42147">
        <ele>234.408293</ele>
        <time>2022-05-27T15:34:32.494Z</time>
      </trkpt>
      <trkpt lat="43.73746" lon="1.42155">
        <ele>234.349078</ele>
        <time>2022-05-27T15:34:35.513Z</time>
      </trkpt>
      <trkpt lat="43.73754" lon="1.42161">
        <ele>234.308531</ele>
        <time>2022-05-27T15:34:38.511Z</time>
      </trkpt>
      <trkpt lat="43.73762" lon="1.42169">
        <ele>234.161271</ele>
        <time>2022-05-27T15:34:42.519Z</time>
      </trkpt>
      <trkpt lat="43.7377" lon="1.42176">
        <ele>234.014014</ele>
        <time>2022-05-27T15:34:46.496Z</time>
      </trkpt>
      <trkpt lat="43.73793" lon="1.42175">
        <ele>233.658021</ele>
        <time>2022-05-27T15:35:12.499Z</time>
      </trkpt>
      <trkpt lat="43.73806" lon="1.4217">
        <ele>233.450058</ele>
        <time>2022-05-27T15:35:16.485Z</time>
      </trkpt>
      <trkpt lat="43.73815" lon="1.42168">
        <ele>233.304984</ele>
        <time>2022-05-27T15:35:18.496Z</time>
      </trkpt>
      <trkpt lat="43.73826" lon="1.42164">
        <ele>233.126183</ele>
        <time>2022-05-27T15:35:21.509Z</time>
      </trkpt>
      <trkpt lat="43.73836" lon="1.4216">
        <ele>232.965781</ele>
        <time>2022-05-27T15:35:26.485Z</time>
      </trkpt>
      <trkpt lat="43.73846" lon="1.42155">
        <ele>232.792355</ele>
        <time>2022-05-27T15:35:29.495Z</time>
      </trkpt>
      <trkpt lat="43.73855" lon="1.42149">
        <ele>232.646278</ele>
        <time>2022-05-27T15:35:32.499Z</time>
      </trkpt>
      <trkpt lat="43.73864" lon="1.42142">
        <ele>232.489933</ele>
        <time>2022-05-27T15:35:34.493Z</time>
      </trkpt>
      <trkpt lat="43.73875" lon="1.42135">
        <ele>232.292783</ele>
        <time>2022-05-27T15:35:37.509Z</time>
      </trkpt>
      <trkpt lat="43.73884" lon="1.42129">
        <ele>232.14203</ele>
        <time>2022-05-27T15:35:39.511Z</time>
      </trkpt>
      <trkpt lat="43.73894" lon="1.42123">
        <ele>231.96943</ele>
        <time>2022-05-27T15:35:42.498Z</time>
      </trkpt>
      <trkpt lat="43.73903" lon="1.42119">
        <ele>231.822563</ele>
        <time>2022-05-27T15:35:45.505Z</time>
      </trkpt>
      <trkpt lat="43.73914" lon="1.42114">
        <ele>231.635852</ele>
        <time>2022-05-27T15:35:49.505Z</time>
      </trkpt>
      <trkpt lat="43.73923" lon="1.4211">
        <ele>231.477744</ele>
        <time>2022-05-27T15:35:52.494Z</time>
      </trkpt>
      <trkpt lat="43.73935" lon="1.42107">
        <ele>231.152362</ele>
        <time>2022-05-27T15:35:55.507Z</time>
      </trkpt>
      <trkpt lat="43.73947" lon="1.42107">
        <ele>230.836754</ele>
        <time>2022-05-27T15:35:58.484Z</time>
      </trkpt>
      <trkpt lat="43.73957" lon="1.42096">
        <ele>230.48497</ele>
        <time>2022-05-27T15:36:01.499Z</time>
      </trkpt>
      <trkpt lat="43.73965" lon="1.42089">
        <ele>230.220992</ele>
        <time>2022-05-27T15:36:03.532Z</time>
      </trkpt>
      <trkpt lat="43.73976" lon="1.42084">
        <ele>229.916931</ele>
        <time>2022-05-27T15:36:05.508Z</time>
      </trkpt>
      <trkpt lat="43.73986" lon="1.42077">
        <ele>229.61802</ele>
        <time>2022-05-27T15:36:07.494Z</time>
      </trkpt>
      <trkpt lat="43.73996" lon="1.42072">
        <ele>229.33007</ele>
        <time>2022-05-27T15:36:09.509Z</time>
      </trkpt>
      <trkpt lat="43.74005" lon="1.42069">
        <ele>229.054724</ele>
        <time>2022-05-27T15:36:11.517Z</time>
      </trkpt>
      <trkpt lat="43.74015" lon="1.42066">
        <ele>228.798869</ele>
        <time>2022-05-27T15:36:13.501Z</time>
      </trkpt>
      <trkpt lat="43.74026" lon="1.42063">
        <ele>228.472822</ele>
        <time>2022-05-27T15:36:16.493Z</time>
      </trkpt>
      <trkpt lat="43.74038" lon="1.42061">
        <ele>228.165068</ele>
        <time>2022-05-27T15:36:19.499Z</time>
      </trkpt>
      <trkpt lat="43.74047" lon="1.42059">
        <ele>227.904464</ele>
        <time>2022-05-27T15:36:21.497Z</time>
      </trkpt>
      <trkpt lat="43.74057" lon="1.42057">
        <ele>227.637052</ele>
        <time>2022-05-27T15:36:23.510Z</time>
      </trkpt>
      <trkpt lat="43.74067" lon="1.42057">
        <ele>227.362248</ele>
        <time>2022-05-27T15:36:25.516Z</time>
      </trkpt>
      <trkpt lat="43.74077" lon="1.42052">
        <ele>227.055631</ele>
        <time>2022-05-27T15:36:27.537Z</time>
      </trkpt>
      <trkpt lat="43.74086" lon="1.4204">
        <ele>226.736131</ele>
        <time>2022-05-27T15:36:30.488Z</time>
      </trkpt>
      <trkpt lat="43.74095" lon="1.42031">
        <ele>225.882015</ele>
        <time>2022-05-27T15:36:34.524Z</time>
      </trkpt>
      <trkpt lat="43.74104" lon="1.42025">
        <ele>224.890977</ele>
        <time>2022-05-27T15:36:37.483Z</time>
      </trkpt>
      <trkpt lat="43.741" lon="1.42012">
        <ele>223.825246</ele>
        <time>2022-05-27T15:36:42.486Z</time>
      </trkpt>
      <trkpt lat="43.74092" lon="1.42003">
        <ele>222.780681</ele>
        <time>2022-05-27T15:36:45.498Z</time>
      </trkpt>
      <trkpt lat="43.74084" lon="1.41996">
        <ele>221.747229</ele>
        <time>2022-05-27T15:36:48.501Z</time>
      </trkpt>
      <trkpt lat="43.74079" lon="1.41984">
        <ele>220.722314</ele>
        <time>2022-05-27T15:36:51.500Z</time>
      </trkpt>
      <trkpt lat="43.74074" lon="1.41971">
        <ele>219.536241</ele>
        <time>2022-05-27T15:36:54.497Z</time>
      </trkpt>
      <trkpt lat="43.74066" lon="1.41959">
        <ele>218.359076</ele>
        <time>2022-05-27T15:36:57.502Z</time>
      </trkpt>
      <trkpt lat="43.7406" lon="1.41948">
        <ele>217.289439</ele>
        <time>2022-05-27T15:37:00.492Z</time>
      </trkpt>
      <trkpt lat="43.74058" lon="1.41935">
        <ele>216.270712</ele>
        <time>2022-05-27T15:37:02.473Z</time>
      </trkpt>
      <trkpt lat="43.74054" lon="1.41919">
        <ele>215.01881</ele>
        <time>2022-05-27T15:37:04.498Z</time>
      </trkpt>
      <trkpt lat="43.7405" lon="1.41904">
        <ele>213.759804</ele>
        <time>2022-05-27T15:37:06.499Z</time>
      </trkpt>
      <trkpt lat="43.74045" lon="1.41893">
        <ele>212.756451</ele>
        <time>2022-05-27T15:37:08.484Z</time>
      </trkpt>
      <trkpt lat="43.74034" lon="1.41886">
        <ele>211.503709</ele>
        <time>2022-05-27T15:37:11.489Z</time>
      </trkpt>
      <trkpt lat="43.74025" lon="1.41877">
        <ele>210.301346</ele>
        <time>2022-05-27T15:37:14.519Z</time>
      </trkpt>
      <trkpt lat="43.74017" lon="1.41868">
        <ele>209.250339</ele>
        <time>2022-05-27T15:37:17.491Z</time>
      </trkpt>
      <trkpt lat="43.7401" lon="1.41858">
        <ele>208.202879</ele>
        <time>2022-05-27T15:37:21.491Z</time>
      </trkpt>
      <trkpt lat="43.74008" lon="1.4184">
        <ele>207.313787</ele>
        <time>2022-05-27T15:37:27.488Z</time>
      </trkpt>
      <trkpt lat="43.74019" lon="1.41835">
        <ele>206.827387</ele>
        <time>2022-05-27T15:37:31.483Z</time>
      </trkpt>
      <trkpt lat="43.74031" lon="1.41835">
        <ele>206.357708</ele>
        <time>2022-05-27T15:37:34.471Z</time>
      </trkpt>
      <trkpt lat="43.74043" lon="1.41839">
        <ele>205.842871</ele>
        <time>2022-05-27T15:37:37.489Z</time>
      </trkpt>
      <trkpt lat="43.74055" lon="1.4184">
        <ele>205.319798</ele>
        <time>2022-05-27T15:37:44.510Z</time>
      </trkpt>
      <trkpt lat="43.74065" lon="1.41836">
        <ele>204.908561</ele>
        <time>2022-05-27T15:37:50.491Z</time>
      </trkpt>
      <trkpt lat="43.74073" lon="1.41829">
        <ele>204.509085</ele>
        <time>2022-05-27T15:37:54.479Z</time>
      </trkpt>
      <trkpt lat="43.74084" lon="1.41826">
        <ele>204.074506</ele>
        <time>2022-05-27T15:37:59.491Z</time>
      </trkpt>
      <trkpt lat="43.74095" lon="1.41824">
        <ele>203.578969</ele>
        <time>2022-05-27T15:38:07.501Z</time>
      </trkpt>
      <trkpt lat="43.74105" lon="1.41823">
        <ele>203.191239</ele>
        <time>2022-05-27T15:38:10.502Z</time>
      </trkpt>
      <trkpt lat="43.74115" lon="1.41822">
        <ele>202.769789</ele>
        <time>2022-05-27T15:38:13.498Z</time>
      </trkpt>
      <trkpt lat="43.74124" lon="1.41819">
        <ele>202.391273</ele>
        <time>2022-05-27T15:38:16.492Z</time>
      </trkpt>
      <trkpt lat="43.74135" lon="1.41816">
        <ele>201.917569</ele>
        <time>2022-05-27T15:38:20.487Z</time>
      </trkpt>
      <trkpt lat="43.74146" lon="1.4181">
        <ele>201.433895</ele>
        <time>2022-05-27T15:38:23.493Z</time>
      </trkpt>
      <trkpt lat="43.74156" lon="1.41803">
        <ele>200.972788</ele>
        <time>2022-05-27T15:38:27.490Z</time>
      </trkpt>
      <trkpt lat="43.74165" lon="1.41808">
        <ele>200.587201</ele>
        <time>2022-05-27T15:38:31.499Z</time>
      </trkpt>
      <trkpt lat="43.74177" lon="1.41805">
        <ele>200.176739</ele>
        <time>2022-05-27T15:38:34.491Z</time>
      </trkpt>
      <trkpt lat="43.74187" lon="1.41802">
        <ele>200.086894</ele>
        <time>2022-05-27T15:38:36.486Z</time>
      </trkpt>
      <trkpt lat="43.74198" lon="1.41807">
        <ele>199.987283</ele>
        <time>2022-05-27T15:38:39.487Z</time>
      </trkpt>
      <trkpt lat="43.74207" lon="1.41814">
        <ele>199.890639</ele>
        <time>2022-05-27T15:38:41.469Z</time>
      </trkpt>
      <trkpt lat="43.74216" lon="1.41819">
        <ele>199.80961</ele>
        <time>2022-05-27T15:38:44.508Z</time>
      </trkpt>
      <trkpt lat="43.74226" lon="1.41817">
        <ele>199.717392</ele>
        <time>2022-05-27T15:38:49.492Z</time>
      </trkpt>
      <trkpt lat="43.74235" lon="1.41816">
        <ele>199.633502</ele>
        <time>2022-05-27T15:38:52.489Z</time>
      </trkpt>
      <trkpt lat="43.74247" lon="1.41822">
        <ele>199.519816</ele>
        <time>2022-05-27T15:38:55.486Z</time>
      </trkpt>
      <trkpt lat="43.74257" lon="1.4183">
        <ele>199.415441</ele>
        <time>2022-05-27T15:38:58.525Z</time>
      </trkpt>
      <trkpt lat="43.74266" lon="1.41831">
        <ele>199.331174</ele>
        <time>2022-05-27T15:39:01.508Z</time>
      </trkpt>
      <trkpt lat="43.74276" lon="1.41837">
        <ele>199.239865</ele>
        <time>2022-05-27T15:39:04.491Z</time>
      </trkpt>
      <trkpt lat="43.74288" lon="1.41846">
        <ele>199.11751</ele>
        <time>2022-05-27T15:39:07.487Z</time>
      </trkpt>
      <trkpt lat="43.74299" lon="1.41853">
        <ele>199.004527</ele>
        <time>2022-05-27T15:39:10.497Z</time>
      </trkpt>
      <trkpt lat="43.7431" lon="1.41859">
        <ele>198.896062</ele>
        <time>2022-05-27T15:39:13.492Z</time>
      </trkpt>
      <trkpt lat="43.7432" lon="1.41866">
        <ele>198.796357</ele>
        <time>2022-05-27T15:39:16.490Z</time>
      </trkpt>
      <trkpt lat="43.74331" lon="1.41873">
        <ele>198.69029</ele>
        <time>2022-05-27T15:39:19.504Z</time>
      </trkpt>
      <trkpt lat="43.7434" lon="1.4188">
        <ele>198.598506</ele>
        <time>2022-05-27T15:39:22.502Z</time>
      </trkpt>
      <trkpt lat="43.74351" lon="1.41887">
        <ele>198.552678</ele>
        <time>2022-05-27T15:39:25.499Z</time>
      </trkpt>
      <trkpt lat="43.74359" lon="1.41894">
        <ele>198.516494</ele>
        <time>2022-05-27T15:39:27.504Z</time>
      </trkpt>
      <trkpt lat="43.74368" lon="1.419">
        <ele>198.480317</ele>
        <time>2022-05-27T15:39:29.505Z</time>
      </trkpt>
      <trkpt lat="43.74378" lon="1.41905">
        <ele>198.43898</ele>
        <time>2022-05-27T15:39:33.483Z</time>
      </trkpt>
      <trkpt lat="43.74388" lon="1.41912">
        <ele>198.398067</ele>
        <time>2022-05-27T15:39:36.498Z</time>
      </trkpt>
      <trkpt lat="43.74397" lon="1.41916">
        <ele>198.361538</ele>
        <time>2022-05-27T15:39:39.495Z</time>
      </trkpt>
      <trkpt lat="43.74409" lon="1.41923">
        <ele>198.313048</ele>
        <time>2022-05-27T15:39:43.475Z</time>
      </trkpt>
      <trkpt lat="43.74424" lon="1.41931">
        <ele>198.251184</ele>
        <time>2022-05-27T15:39:46.520Z</time>
      </trkpt>
      <trkpt lat="43.74435" lon="1.41937">
        <ele>198.2087</ele>
        <time>2022-05-27T15:39:49.512Z</time>
      </trkpt>
      <trkpt lat="43.74447" lon="1.41939">
        <ele>198.162034</ele>
        <time>2022-05-27T15:40:00.510Z</time>
      </trkpt>
      <trkpt lat="43.74456" lon="1.41945">
        <ele>198.124885</ele>
        <time>2022-05-27T15:40:07.505Z</time>
      </trkpt>
      <trkpt lat="43.74459" lon="1.41932">
        <ele>198.086298</ele>
        <time>2022-05-27T15:40:35.507Z</time>
      </trkpt>
      <trkpt lat="43.74466" lon="1.41906">
        <ele>198.010821</ele>
        <time>2022-05-27T15:41:05.500Z</time>
      </trkpt>
      <trkpt lat="43.74457" lon="1.41898">
        <ele>197.973103</ele>
        <time>2022-05-27T15:41:10.511Z</time>
      </trkpt>
      <trkpt lat="43.74447" lon="1.41892">
        <ele>197.931212</ele>
        <time>2022-05-27T15:41:13.494Z</time>
      </trkpt>
      <trkpt lat="43.74436" lon="1.41888">
        <ele>197.915654</ele>
        <time>2022-05-27T15:41:16.483Z</time>
      </trkpt>
      <trkpt lat="43.74425" lon="1.41888">
        <ele>197.910221</ele>
        <time>2022-05-27T15:41:19.505Z</time>
      </trkpt>
      <trkpt lat="43.74415" lon="1.41886">
        <ele>197.905806</ele>
        <time>2022-05-27T15:41:22.508Z</time>
      </trkpt>
      <trkpt lat="43.74403" lon="1.41879">
        <ele>197.9</ele>
        <time>2022-05-27T15:41:25.505Z</time>
      </trkpt>
      <trkpt lat="43.74393" lon="1.41873">
        <ele>197.894748</ele>
        <time>2022-05-27T15:41:28.505Z</time>
      </trkpt>
      <trkpt lat="43.74383" lon="1.41867">
        <ele>197.890063</ele>
        <time>2022-05-27T15:41:34.511Z</time>
      </trkpt>
      <trkpt lat="43.74375" lon="1.41861">
        <ele>197.885843</ele>
        <time>2022-05-27T15:41:37.494Z</time>
      </trkpt>
      <trkpt lat="43.74363" lon="1.41855">
        <ele>197.879801</ele>
        <time>2022-05-27T15:41:40.497Z</time>
      </trkpt>
      <trkpt lat="43.74354" lon="1.4185">
        <ele>197.875571</ele>
        <time>2022-05-27T15:41:42.496Z</time>
      </trkpt>
      <trkpt lat="43.74343" lon="1.41843">
        <ele>197.869961</ele>
        <time>2022-05-27T15:41:45.503Z</time>
      </trkpt>
      <trkpt lat="43.74334" lon="1.41837">
        <ele>197.865193</ele>
        <time>2022-05-27T15:41:47.495Z</time>
      </trkpt>
      <trkpt lat="43.74323" lon="1.4183">
        <ele>197.860023</ele>
        <time>2022-05-27T15:41:49.489Z</time>
      </trkpt>
      <trkpt lat="43.74312" lon="1.41825">
        <ele>197.8545</ele>
        <time>2022-05-27T15:41:51.496Z</time>
      </trkpt>
      <trkpt lat="43.74301" lon="1.41819">
        <ele>197.849284</ele>
        <time>2022-05-27T15:41:53.519Z</time>
      </trkpt>
      <trkpt lat="43.74292" lon="1.41815">
        <ele>197.844958</ele>
        <time>2022-05-27T15:41:55.514Z</time>
      </trkpt>
      <trkpt lat="43.7428" lon="1.41808">
        <ele>197.838806</ele>
        <time>2022-05-27T15:41:58.504Z</time>
      </trkpt>
      <trkpt lat="43.74271" lon="1.41801">
        <ele>198.179699</ele>
        <time>2022-05-27T15:42:00.495Z</time>
      </trkpt>
      <trkpt lat="43.74259" lon="1.41798">
        <ele>198.862431</ele>
        <time>2022-05-27T15:42:03.498Z</time>
      </trkpt>
      <trkpt lat="43.7425" lon="1.41792">
        <ele>199.392517</ele>
        <time>2022-05-27T15:42:05.488Z</time>
      </trkpt>
      <trkpt lat="43.74241" lon="1.41785">
        <ele>199.92351</ele>
        <time>2022-05-27T15:42:07.502Z</time>
      </trkpt>
      <trkpt lat="43.74229" lon="1.41779">
        <ele>200.633929</ele>
        <time>2022-05-27T15:42:10.491Z</time>
      </trkpt>
      <trkpt lat="43.7422" lon="1.41771">
        <ele>201.194934</ele>
        <time>2022-05-27T15:42:12.493Z</time>
      </trkpt>
      <trkpt lat="43.74217" lon="1.41759">
        <ele>201.704423</ele>
        <time>2022-05-27T15:42:16.495Z</time>
      </trkpt>
      <trkpt lat="43.74217" lon="1.41746">
        <ele>202.195068</ele>
        <time>2022-05-27T15:42:19.508Z</time>
      </trkpt>
      <trkpt lat="43.74219" lon="1.41732">
        <ele>202.753763</ele>
        <time>2022-05-27T15:42:22.512Z</time>
      </trkpt>
      <trkpt lat="43.74218" lon="1.41715">
        <ele>203.400575</ele>
        <time>2022-05-27T15:42:25.511Z</time>
      </trkpt>
      <trkpt lat="43.74209" lon="1.41713">
        <ele>203.894471</ele>
        <time>2022-05-27T15:42:29.498Z</time>
      </trkpt>
      <trkpt lat="43.74197" lon="1.4171">
        <ele>204.560583</ele>
        <time>2022-05-27T15:42:32.519Z</time>
      </trkpt>
      <trkpt lat="43.74184" lon="1.41706">
        <ele>205.255501</ele>
        <time>2022-05-27T15:42:35.482Z</time>
      </trkpt>
      <trkpt lat="43.7417" lon="1.41707">
        <ele>206.005171</ele>
        <time>2022-05-27T15:42:38.501Z</time>
      </trkpt>
      <trkpt lat="43.7416" lon="1.41709">
        <ele>206.563265</ele>
        <time>2022-05-27T15:42:40.495Z</time>
      </trkpt>
      <trkpt lat="43.74151" lon="1.4171">
        <ele>207.051296</ele>
        <time>2022-05-27T15:42:42.495Z</time>
      </trkpt>
      <trkpt lat="43.74138" lon="1.41708">
        <ele>207.716858</ele>
        <time>2022-05-27T15:42:45.491Z</time>
      </trkpt>
      <trkpt lat="43.74125" lon="1.4171">
        <ele>208.359746</ele>
        <time>2022-05-27T15:42:48.483Z</time>
      </trkpt>
      <trkpt lat="43.74116" lon="1.4171">
        <ele>208.794796</ele>
        <time>2022-05-27T15:42:50.478Z</time>
      </trkpt>
      <trkpt lat="43.74104" lon="1.4171">
        <ele>209.371921</ele>
        <time>2022-05-27T15:42:53.532Z</time>
      </trkpt>
      <trkpt lat="43.74093" lon="1.41713">
        <ele>209.879364</ele>
        <time>2022-05-27T15:42:55.503Z</time>
      </trkpt>
      <trkpt lat="43.74084" lon="1.41714">
        <ele>210.324963</ele>
        <time>2022-05-27T15:42:57.494Z</time>
      </trkpt>
      <trkpt lat="43.7407" lon="1.41714">
        <ele>210.991535</ele>
        <time>2022-05-27T15:43:00.486Z</time>
      </trkpt>
      <trkpt lat="43.74059" lon="1.41715">
        <ele>211.480382</ele>
        <time>2022-05-27T15:43:02.507Z</time>
      </trkpt>
      <trkpt lat="43.74049" lon="1.41716">
        <ele>211.948414</ele>
        <time>2022-05-27T15:43:04.509Z</time>
      </trkpt>
      <trkpt lat="43.74039" lon="1.41709">
        <ele>212.464856</ele>
        <time>2022-05-27T15:43:06.487Z</time>
      </trkpt>
      <trkpt lat="43.74029" lon="1.41706">
        <ele>212.984832</ele>
        <time>2022-05-27T15:43:08.507Z</time>
      </trkpt>
      <trkpt lat="43.74017" lon="1.41709">
        <ele>213.538588</ele>
        <time>2022-05-27T15:43:10.497Z</time>
      </trkpt>
      <trkpt lat="43.74006" lon="1.41712">
        <ele>214.074793</ele>
        <time>2022-05-27T15:43:12.499Z</time>
      </trkpt>
      <trkpt lat="43.73996" lon="1.41714">
        <ele>214.572053</ele>
        <time>2022-05-27T15:43:14.504Z</time>
      </trkpt>
      <trkpt lat="43.73986" lon="1.41717">
        <ele>215.052564</ele>
        <time>2022-05-27T15:43:16.499Z</time>
      </trkpt>
      <trkpt lat="43.73975" lon="1.41719">
        <ele>215.53775</ele>
        <time>2022-05-27T15:43:18.500Z</time>
      </trkpt>
      <trkpt lat="43.73966" lon="1.41719">
        <ele>215.9728</ele>
        <time>2022-05-27T15:43:20.499Z</time>
      </trkpt>
      <trkpt lat="43.73953" lon="1.41722">
        <ele>216.192394</ele>
        <time>2022-05-27T15:43:23.496Z</time>
      </trkpt>
      <trkpt lat="43.73943" lon="1.41723">
        <ele>216.318625</ele>
        <time>2022-05-27T15:43:25.504Z</time>
      </trkpt>
      <trkpt lat="43.7393" lon="1.41723">
        <ele>216.496069</ele>
        <time>2022-05-27T15:43:28.501Z</time>
      </trkpt>
      <trkpt lat="43.7392" lon="1.41726">
        <ele>216.63395</ele>
        <time>2022-05-27T15:43:30.506Z</time>
      </trkpt>
      <trkpt lat="43.73908" lon="1.41726">
        <ele>216.784928</ele>
        <time>2022-05-27T15:43:33.501Z</time>
      </trkpt>
      <trkpt lat="43.73899" lon="1.41726">
        <ele>216.914724</ele>
        <time>2022-05-27T15:43:35.510Z</time>
      </trkpt>
      <trkpt lat="43.73889" lon="1.41729">
        <ele>217.05171</ele>
        <time>2022-05-27T15:43:37.509Z</time>
      </trkpt>
      <trkpt lat="43.73879" lon="1.41731">
        <ele>217.180119</ele>
        <time>2022-05-27T15:43:39.522Z</time>
      </trkpt>
      <trkpt lat="43.7387" lon="1.41735">
        <ele>217.305181</ele>
        <time>2022-05-27T15:43:41.508Z</time>
      </trkpt>
      <trkpt lat="43.7386" lon="1.41741">
        <ele>217.447905</ele>
        <time>2022-05-27T15:43:43.501Z</time>
      </trkpt>
      <trkpt lat="43.73851" lon="1.41748">
        <ele>217.5914</ele>
        <time>2022-05-27T15:43:45.504Z</time>
      </trkpt>
      <trkpt lat="43.73841" lon="1.41755">
        <ele>217.729502</ele>
        <time>2022-05-27T15:43:47.488Z</time>
      </trkpt>
      <trkpt lat="43.73832" lon="1.41761">
        <ele>217.870186</ele>
        <time>2022-05-27T15:43:49.506Z</time>
      </trkpt>
      <trkpt lat="43.73823" lon="1.41768">
        <ele>218.003919</ele>
        <time>2022-05-27T15:43:51.490Z</time>
      </trkpt>
      <trkpt lat="43.73814" lon="1.41774">
        <ele>218.131381</ele>
        <time>2022-05-27T15:43:53.509Z</time>
      </trkpt>
      <trkpt lat="43.73803" lon="1.41779">
        <ele>218.283735</ele>
        <time>2022-05-27T15:43:55.494Z</time>
      </trkpt>
      <trkpt lat="43.73793" lon="1.41784">
        <ele>218.434469</ele>
        <time>2022-05-27T15:43:57.492Z</time>
      </trkpt>
      <trkpt lat="43.73782" lon="1.4179">
        <ele>218.729248</ele>
        <time>2022-05-27T15:43:59.484Z</time>
      </trkpt>
      <trkpt lat="43.73772" lon="1.41792">
        <ele>218.964167</ele>
        <time>2022-05-27T15:44:01.504Z</time>
      </trkpt>
      <trkpt lat="43.73762" lon="1.41794">
        <ele>219.191872</ele>
        <time>2022-05-27T15:44:03.503Z</time>
      </trkpt>
      <trkpt lat="43.73752" lon="1.41785">
        <ele>219.475703</ele>
        <time>2022-05-27T15:44:06.505Z</time>
      </trkpt>
      <trkpt lat="43.73745" lon="1.41771">
        <ele>219.769985</ele>
        <time>2022-05-27T15:44:08.475Z</time>
      </trkpt>
      <trkpt lat="43.73737" lon="1.41762">
        <ele>220.010988</ele>
        <time>2022-05-27T15:44:10.496Z</time>
      </trkpt>
      <trkpt lat="43.73729" lon="1.41756">
        <ele>220.225451</ele>
        <time>2022-05-27T15:44:12.502Z</time>
      </trkpt>
      <trkpt lat="43.73716" lon="1.4175">
        <ele>220.551679</ele>
        <time>2022-05-27T15:44:15.487Z</time>
      </trkpt>
      <trkpt lat="43.73704" lon="1.41748">
        <ele>220.834591</ele>
        <time>2022-05-27T15:44:17.500Z</time>
      </trkpt>
      <trkpt lat="43.73694" lon="1.41746">
        <ele>221.068627</ele>
        <time>2022-05-27T15:44:19.502Z</time>
      </trkpt>
      <trkpt lat="43.73685" lon="1.41738">
        <ele>221.321646</ele>
        <time>2022-05-27T15:44:22.493Z</time>
      </trkpt>
      <trkpt lat="43.73688" lon="1.41723">
        <ele>221.583901</ele>
        <time>2022-05-27T15:44:25.504Z</time>
      </trkpt>
      <trkpt lat="43.73687" lon="1.41707">
        <ele>221.852453</ele>
        <time>2022-05-27T15:44:27.497Z</time>
      </trkpt>
      <trkpt lat="43.7369" lon="1.41692">
        <ele>222.110618</ele>
        <time>2022-05-27T15:44:29.491Z</time>
      </trkpt>
      <trkpt lat="43.73695" lon="1.41675">
        <ele>222.4283</ele>
        <time>2022-05-27T15:44:32.507Z</time>
      </trkpt>
      <trkpt lat="43.73702" lon="1.41661">
        <ele>222.809203</ele>
        <time>2022-05-27T15:44:35.499Z</time>
      </trkpt>
      <trkpt lat="43.7371" lon="1.41652">
        <ele>223.448185</ele>
        <time>2022-05-27T15:44:38.496Z</time>
      </trkpt>
      <trkpt lat="43.73714" lon="1.41641">
        <ele>224.009656</ele>
        <time>2022-05-27T15:44:41.519Z</time>
      </trkpt>
      <trkpt lat="43.73715" lon="1.41628">
        <ele>224.580888</ele>
        <time>2022-05-27T15:44:43.503Z</time>
      </trkpt>
      <trkpt lat="43.73719" lon="1.41613">
        <ele>225.259981</ele>
        <time>2022-05-27T15:44:45.525Z</time>
      </trkpt>
      <trkpt lat="43.73726" lon="1.416">
        <ele>225.957662</ele>
        <time>2022-05-27T15:44:48.500Z</time>
      </trkpt>
      <trkpt lat="43.73736" lon="1.41591">
        <ele>226.668692</ele>
        <time>2022-05-27T15:44:51.499Z</time>
      </trkpt>
      <trkpt lat="43.73746" lon="1.41592">
        <ele>227.252423</ele>
        <time>2022-05-27T15:44:54.515Z</time>
      </trkpt>
      <trkpt lat="43.73756" lon="1.41592">
        <ele>227.890046</ele>
        <time>2022-05-27T15:44:58.513Z</time>
      </trkpt>
      <trkpt lat="43.73765" lon="1.41582">
        <ele>228.555492</ele>
        <time>2022-05-27T15:45:02.491Z</time>
      </trkpt>
      <trkpt lat="43.73772" lon="1.41572">
        <ele>233.569464</ele>
        <time>2022-05-27T15:46:48.495Z</time>
      </trkpt>
      <trkpt lat="43.73782" lon="1.4157">
        <ele>233.585205</ele>
        <time>2022-05-27T15:46:51.501Z</time>
      </trkpt>
      <trkpt lat="43.73791" lon="1.41567">
        <ele>233.600141</ele>
        <time>2022-05-27T15:46:54.492Z</time>
      </trkpt>
      <trkpt lat="43.73801" lon="1.41563">
        <ele>233.61713</ele>
        <time>2022-05-27T15:46:57.517Z</time>
      </trkpt>
      <trkpt lat="43.73813" lon="1.41558">
        <ele>233.636648</ele>
        <time>2022-05-27T15:47:00.515Z</time>
      </trkpt>
      <trkpt lat="43.73825" lon="1.41551">
        <ele>233.657432</ele>
        <time>2022-05-27T15:47:03.510Z</time>
      </trkpt>
      <trkpt lat="43.73833" lon="1.41546">
        <ele>233.671865</ele>
        <time>2022-05-27T15:47:05.498Z</time>
      </trkpt>
      <trkpt lat="43.73842" lon="1.41542">
        <ele>233.687101</ele>
        <time>2022-05-27T15:47:07.513Z</time>
      </trkpt>
      <trkpt lat="43.73853" lon="1.41545">
        <ele>233.705492</ele>
        <time>2022-05-27T15:47:10.510Z</time>
      </trkpt>
      <trkpt lat="43.73859" lon="1.41563">
        <ele>233.727145</ele>
        <time>2022-05-27T15:47:13.507Z</time>
      </trkpt>
      <trkpt lat="43.73862" lon="1.41577">
        <ele>233.748508</ele>
        <time>2022-05-27T15:47:15.511Z</time>
      </trkpt>
      <trkpt lat="43.73868" lon="1.41591">
        <ele>233.826929</ele>
        <time>2022-05-27T15:47:17.523Z</time>
      </trkpt>
      <trkpt lat="43.7388" lon="1.41597">
        <ele>233.910651</ele>
        <time>2022-05-27T15:47:19.505Z</time>
      </trkpt>
      <trkpt lat="43.73893" lon="1.41594">
        <ele>233.994919</ele>
        <time>2022-05-27T15:47:21.514Z</time>
      </trkpt>
      <trkpt lat="43.73905" lon="1.41588">
        <ele>234.075419</ele>
        <time>2022-05-27T15:47:23.503Z</time>
      </trkpt>
      <trkpt lat="43.73914" lon="1.4158">
        <ele>234.150708</ele>
        <time>2022-05-27T15:47:25.507Z</time>
      </trkpt>
      <trkpt lat="43.73921" lon="1.4157">
        <ele>234.214546</ele>
        <time>2022-05-27T15:47:27.508Z</time>
      </trkpt>
      <trkpt lat="43.73923" lon="1.41554">
        <ele>234.289163</ele>
        <time>2022-05-27T15:47:30.513Z</time>
      </trkpt>
      <trkpt lat="43.73918" lon="1.41539">
        <ele>234.365779</ele>
        <time>2022-05-27T15:47:33.486Z</time>
      </trkpt>
      <trkpt lat="43.73915" lon="1.41524">
        <ele>234.441467</ele>
        <time>2022-05-27T15:47:36.511Z</time>
      </trkpt>
      <trkpt lat="43.73911" lon="1.41508">
        <ele>234.519882</ele>
        <time>2022-05-27T15:47:39.495Z</time>
      </trkpt>
      <trkpt lat="43.73906" lon="1.41491">
        <ele>234.606154</ele>
        <time>2022-05-27T15:47:42.508Z</time>
      </trkpt>
      <trkpt lat="43.73902" lon="1.41479">
        <ele>234.668422</ele>
        <time>2022-05-27T15:47:44.519Z</time>
      </trkpt>
      <trkpt lat="43.73899" lon="1.41466">
        <ele>234.733268</ele>
        <time>2022-05-27T15:47:46.522Z</time>
      </trkpt>
      <trkpt lat="43.73896" lon="1.41452">
        <ele>234.802714</ele>
        <time>2022-05-27T15:47:48.507Z</time>
      </trkpt>
      <trkpt lat="43.73893" lon="1.41437">
        <ele>234.874601</ele>
        <time>2022-05-27T15:47:50.495Z</time>
      </trkpt>
      <trkpt lat="43.7389" lon="1.41422">
        <ele>234.912138</ele>
        <time>2022-05-27T15:47:52.538Z</time>
      </trkpt>
      <trkpt lat="43.73888" lon="1.41407">
        <ele>234.907845</ele>
        <time>2022-05-27T15:47:54.521Z</time>
      </trkpt>
      <trkpt lat="43.73885" lon="1.41393">
        <ele>234.903543</ele>
        <time>2022-05-27T15:47:56.506Z</time>
      </trkpt>
      <trkpt lat="43.73881" lon="1.41378">
        <ele>234.899201</ele>
        <time>2022-05-27T15:47:58.495Z</time>
      </trkpt>
      <trkpt lat="43.73876" lon="1.41365">
        <ele>234.894987</ele>
        <time>2022-05-27T15:48:00.512Z</time>
      </trkpt>
      <trkpt lat="43.73872" lon="1.41352">
        <ele>234.890872</ele>
        <time>2022-05-27T15:48:02.518Z</time>
      </trkpt>
      <trkpt lat="43.73875" lon="1.41339">
        <ele>234.887074</ele>
        <time>2022-05-27T15:48:04.526Z</time>
      </trkpt>
      <trkpt lat="43.73885" lon="1.41331">
        <ele>234.882292</ele>
        <time>2022-05-27T15:48:07.514Z</time>
      </trkpt>
      <trkpt lat="43.73904" lon="1.41317">
        <ele>234.873858</ele>
        <time>2022-05-27T15:48:35.512Z</time>
      </trkpt>
      <trkpt lat="43.73912" lon="1.4131">
        <ele>234.870272</ele>
        <time>2022-05-27T15:48:38.515Z</time>
      </trkpt>
      <trkpt lat="43.73921" lon="1.41302">
        <ele>234.865911</ele>
        <time>2022-05-27T15:48:41.518Z</time>
      </trkpt>
      <trkpt lat="43.73931" lon="1.41294">
        <ele>234.861653</ele>
        <time>2022-05-27T15:48:44.511Z</time>
      </trkpt>
      <trkpt lat="43.7394" lon="1.41288">
        <ele>234.857548</ele>
        <time>2022-05-27T15:48:47.514Z</time>
      </trkpt>
      <trkpt lat="43.73949" lon="1.41282">
        <ele>234.853608</ele>
        <time>2022-05-27T15:48:50.495Z</time>
      </trkpt>
      <trkpt lat="43.73959" lon="1.41281">
        <ele>234.849424</ele>
        <time>2022-05-27T15:48:53.499Z</time>
      </trkpt>
      <trkpt lat="43.73967" lon="1.41287">
        <ele>234.845864</ele>
        <time>2022-05-27T15:48:55.515Z</time>
      </trkpt>
      <trkpt lat="43.73975" lon="1.41298">
        <ele>234.669856</ele>
        <time>2022-05-27T15:48:57.502Z</time>
      </trkpt>
      <trkpt lat="43.73986" lon="1.41315">
        <ele>175</ele>
        <time>2022-05-27T15:48:59.507Z</time>
      </trkpt>
      <trkpt lat="43.73996" lon="1.41336">
        <ele>174.3</ele>
        <time>2022-05-27T15:51:27.505Z</time>
      </trkpt>
      <trkpt lat="43.74002" lon="1.41327">
        <ele>173.9</ele>
      </trkpt>
      <trkpt lat="43.74008" lon="1.41331">
        <ele>228.467267</ele>
        <time>2022-05-27T15:51:30.493Z</time>
      </trkpt>
      <trkpt lat="43.74019" lon="1.41334">
        <ele>228.136427</ele>
        <time>2022-05-27T15:51:33.517Z</time>
      </trkpt>
      <trkpt lat="43.7403" lon="1.41345">
        <ele>227.77493</ele>
        <time>2022-05-27T15:51:36.511Z</time>
      </trkpt>
      <trkpt lat="43.74041" lon="1.41351">
        <ele>227.434376</ele>
        <time>2022-05-27T15:51:39.504Z</time>
      </trkpt>
      <trkpt lat="43.74051" lon="1.41354">
        <ele>227.152465</ele>
        <time>2022-05-27T15:51:41.515Z</time>
      </trkpt>
      <trkpt lat="43.7406" lon="1.41364">
        <ele>226.832832</ele>
        <time>2022-05-27T15:51:43.505Z</time>
      </trkpt>
      <trkpt lat="43.74069" lon="1.41377">
        <ele>226.471147</ele>
        <time>2022-05-27T15:51:45.500Z</time>
      </trkpt>
      <trkpt lat="43.74078" lon="1.41389">
        <ele>225.740366</ele>
        <time>2022-05-27T15:51:47.509Z</time>
      </trkpt>
      <trkpt lat="43.74084" lon="1.41398">
        <ele>224.883569</ele>
        <time>2022-05-27T15:51:49.520Z</time>
      </trkpt>
      <trkpt lat="43.74094" lon="1.41399">
        <ele>223.993615</ele>
        <time>2022-05-27T15:51:52.512Z</time>
      </trkpt>
      <trkpt lat="43.74106" lon="1.41401">
        <ele>222.926248</ele>
        <time>2022-05-27T15:51:54.490Z</time>
      </trkpt>
      <trkpt lat="43.74118" lon="1.41406">
        <ele>221.771729</ele>
        <time>2022-05-27T15:51:56.499Z</time>
      </trkpt>
      <trkpt lat="43.74129" lon="1.41409">
        <ele>220.695031</ele>
        <time>2022-05-27T15:51:58.502Z</time>
      </trkpt>
      <trkpt lat="43.7414" lon="1.4142">
        <ele>219.499469</ele>
        <time>2022-05-27T15:52:00.485Z</time>
      </trkpt>
      <trkpt lat="43.7415" lon="1.41417">
        <ele>218.571409</ele>
        <time>2022-05-27T15:52:03.488Z</time>
      </trkpt>
      <trkpt lat="43.74158" lon="1.41407">
        <ele>217.565617</ele>
        <time>2022-05-27T15:52:05.505Z</time>
      </trkpt>
      <trkpt lat="43.74176" lon="1.41395">
        <ele>215.733306</ele>
        <time>2022-05-27T15:52:07.509Z</time>
      </trkpt>
      <trkpt lat="43.74188" lon="1.41388">
        <ele>214.539962</ele>
        <time>2022-05-27T15:52:09.502Z</time>
      </trkpt>
      <trkpt lat="43.74199" lon="1.41391">
        <ele>213.513468</ele>
        <time>2022-05-27T15:52:11.515Z</time>
      </trkpt>
      <trkpt lat="43.74209" lon="1.41403">
        <ele>212.339464</ele>
        <time>2022-05-27T15:52:13.506Z</time>
      </trkpt>
      <trkpt lat="43.74218" lon="1.41415">
        <ele>211.183499</ele>
        <time>2022-05-27T15:52:15.498Z</time>
      </trkpt>
      <trkpt lat="43.74229" lon="1.41424">
        <ele>210.047712</ele>
        <time>2022-05-27T15:52:17.506Z</time>
      </trkpt>
      <trkpt lat="43.74238" lon="1.41432">
        <ele>209.653942</ele>
        <time>2022-05-27T15:52:19.511Z</time>
      </trkpt>
      <trkpt lat="43.7425" lon="1.41442">
        <ele>209.363561</ele>
        <time>2022-05-27T15:52:21.500Z</time>
      </trkpt>
      <trkpt lat="43.74262" lon="1.41449">
        <ele>209.095657</ele>
        <time>2022-05-27T15:52:23.501Z</time>
      </trkpt>
      <trkpt lat="43.74273" lon="1.41457">
        <ele>208.815249</ele>
        <time>2022-05-27T15:52:25.492Z</time>
      </trkpt>
      <trkpt lat="43.74282" lon="1.4147">
        <ele>208.540721</ele>
        <time>2022-05-27T15:52:27.486Z</time>
      </trkpt>
      <trkpt lat="43.74291" lon="1.41482">
        <ele>208.272157</ele>
        <time>2022-05-27T15:52:29.498Z</time>
      </trkpt>
      <trkpt lat="43.74297" lon="1.41496">
        <ele>208.023978</ele>
        <time>2022-05-27T15:52:31.499Z</time>
      </trkpt>
      <trkpt lat="43.74303" lon="1.41508">
        <ele>207.802874</ele>
        <time>2022-05-27T15:52:34.505Z</time>
      </trkpt>
      <trkpt lat="43.74313" lon="1.41515">
        <ele>207.577089</ele>
        <time>2022-05-27T15:52:38.506Z</time>
      </trkpt>
      <trkpt lat="43.74322" lon="1.41522">
        <ele>207.348267</ele>
        <time>2022-05-27T15:52:42.470Z</time>
      </trkpt>
      <trkpt lat="43.74336" lon="1.41532">
        <ele>207.010526</ele>
        <time>2022-05-27T15:52:59.526Z</time>
      </trkpt>
      <trkpt lat="43.74347" lon="1.41539">
        <ele>206.752946</ele>
        <time>2022-05-27T15:53:04.491Z</time>
      </trkpt>
      <trkpt lat="43.74356" lon="1.41545">
        <ele>206.54054</ele>
        <time>2022-05-27T15:53:06.515Z</time>
      </trkpt>
      <trkpt lat="43.74367" lon="1.4155">
        <ele>206.302164</ele>
        <time>2022-05-27T15:53:08.499Z</time>
      </trkpt>
      <trkpt lat="43.74377" lon="1.41557">
        <ele>206.052049</ele>
        <time>2022-05-27T15:53:10.520Z</time>
      </trkpt>
      <trkpt lat="43.74386" lon="1.41563">
        <ele>205.865745</ele>
        <time>2022-05-27T15:53:12.513Z</time>
      </trkpt>
      <trkpt lat="43.74396" lon="1.41569">
        <ele>205.67564</ele>
        <time>2022-05-27T15:53:14.501Z</time>
      </trkpt>
      <trkpt lat="43.74406" lon="1.41575">
        <ele>205.482616</ele>
        <time>2022-05-27T15:53:16.496Z</time>
      </trkpt>
      <trkpt lat="43.74416" lon="1.41581">
        <ele>205.291393</ele>
        <time>2022-05-27T15:53:18.503Z</time>
      </trkpt>
      <trkpt lat="43.74425" lon="1.41587">
        <ele>205.113204</ele>
        <time>2022-05-27T15:53:20.488Z</time>
      </trkpt>
      <trkpt lat="43.74434" lon="1.41592">
        <ele>204.937167</ele>
        <time>2022-05-27T15:53:22.513Z</time>
      </trkpt>
      <trkpt lat="43.74445" lon="1.41598">
        <ele>204.725768</ele>
        <time>2022-05-27T15:53:25.501Z</time>
      </trkpt>
      <trkpt lat="43.74454" lon="1.41593">
        <ele>204.552911</ele>
        <time>2022-05-27T15:53:29.499Z</time>
      </trkpt>
      <trkpt lat="43.74458" lon="1.41578">
        <ele>204.3508</ele>
        <time>2022-05-27T15:53:33.496Z</time>
      </trkpt>
      <trkpt lat="43.74462" lon="1.41567">
        <ele>204.18734</ele>
        <time>2022-05-27T15:53:36.490Z</time>
      </trkpt>
      <trkpt lat="43.74467" lon="1.41555">
        <ele>204.00377</ele>
        <time>2022-05-27T15:53:39.512Z</time>
      </trkpt>
      <trkpt lat="43.74478" lon="1.41548">
        <ele>203.798998</ele>
        <time>2022-05-27T15:53:42.493Z</time>
      </trkpt>
      <trkpt lat="43.74486" lon="1.41551">
        <ele>203.635093</ele>
        <time>2022-05-27T15:53:44.486Z</time>
      </trkpt>
      <trkpt lat="43.74496" lon="1.41556">
        <ele>203.456692</ele>
        <time>2022-05-27T15:53:46.499Z</time>
      </trkpt>
      <trkpt lat="43.74506" lon="1.41561">
        <ele>203.26519</ele>
        <time>2022-05-27T15:53:48.514Z</time>
      </trkpt>
      <trkpt lat="43.74516" lon="1.41566">
        <ele>203.066502</ele>
        <time>2022-05-27T15:53:50.536Z</time>
      </trkpt>
      <trkpt lat="43.74527" lon="1.41571">
        <ele>202.87373</ele>
        <time>2022-05-27T15:53:52.488Z</time>
      </trkpt>
      <trkpt lat="43.74537" lon="1.41576">
        <ele>202.706661</ele>
        <time>2022-05-27T15:53:54.497Z</time>
      </trkpt>
      <trkpt lat="43.74546" lon="1.41582">
        <ele>202.559439</ele>
        <time>2022-05-27T15:53:56.506Z</time>
      </trkpt>
      <trkpt lat="43.74555" lon="1.41585">
        <ele>202.4266</ele>
        <time>2022-05-27T15:53:58.511Z</time>
      </trkpt>
      <trkpt lat="43.74561" lon="1.41577">
        <ele>202.292665</ele>
        <time>2022-05-27T15:54:02.504Z</time>
      </trkpt>
      <trkpt lat="43.74571" lon="1.41568">
        <ele>202.1258</ele>
        <time>2022-05-27T15:54:06.515Z</time>
      </trkpt>
      <trkpt lat="43.74579" lon="1.41574">
        <ele>201.9888</ele>
        <time>2022-05-27T15:54:09.510Z</time>
      </trkpt>
      <trkpt lat="43.74588" lon="1.41565">
        <ele>201.826461</ele>
        <time>2022-05-27T15:54:14.514Z</time>
      </trkpt>
      <trkpt lat="43.74595" lon="1.41553">
        <ele>201.664525</ele>
        <time>2022-05-27T15:54:17.491Z</time>
      </trkpt>
      <trkpt lat="43.74604" lon="1.41539">
        <ele>201.475237</ele>
        <time>2022-05-27T15:54:20.502Z</time>
      </trkpt>
      <trkpt lat="43.74611" lon="1.41529">
        <ele>201.336969</ele>
        <time>2022-05-27T15:54:22.507Z</time>
      </trkpt>
      <trkpt lat="43.74616" lon="1.41518">
        <ele>201.19289</ele>
        <time>2022-05-27T15:54:24.511Z</time>
      </trkpt>
      <trkpt lat="43.74621" lon="1.41507">
        <ele>201.052634</ele>
        <time>2022-05-27T15:54:26.485Z</time>
      </trkpt>
      <trkpt lat="43.74627" lon="1.41495">
        <ele>200.909094</ele>
        <time>2022-05-27T15:54:28.489Z</time>
      </trkpt>
      <trkpt lat="43.74633" lon="1.41485">
        <ele>200.766941</ele>
        <time>2022-05-27T15:54:30.506Z</time>
      </trkpt>
      <trkpt lat="43.7464" lon="1.41474">
        <ele>200.621327</ele>
        <time>2022-05-27T15:54:32.509Z</time>
      </trkpt>
      <trkpt lat="43.74647" lon="1.41463">
        <ele>200.464537</ele>
        <time>2022-05-27T15:54:34.517Z</time>
      </trkpt>
      <trkpt lat="43.74655" lon="1.41451">
        <ele>200.298339</ele>
        <time>2022-05-27T15:54:36.496Z</time>
      </trkpt>
      <trkpt lat="43.74663" lon="1.41439">
        <ele>200.13517</ele>
        <time>2022-05-27T15:54:38.519Z</time>
      </trkpt>
      <trkpt lat="43.74671" lon="1.41427">
        <ele>199.9779</ele>
        <time>2022-05-27T15:54:40.506Z</time>
      </trkpt>
      <trkpt lat="43.74679" lon="1.41415">
        <ele>199.821823</ele>
        <time>2022-05-27T15:54:42.499Z</time>
      </trkpt>
      <trkpt lat="43.74687" lon="1.41403">
        <ele>199.669155</ele>
        <time>2022-05-27T15:54:44.519Z</time>
      </trkpt>
      <trkpt lat="43.74695" lon="1.41392">
        <ele>199.515599</ele>
        <time>2022-05-27T15:54:46.508Z</time>
      </trkpt>
      <trkpt lat="43.74703" lon="1.4138">
        <ele>199.360434</ele>
        <time>2022-05-27T15:54:48.502Z</time>
      </trkpt>
      <trkpt lat="43.74712" lon="1.4137">
        <ele>199.208286</ele>
        <time>2022-05-27T15:54:50.497Z</time>
      </trkpt>
      <trkpt lat="43.74721" lon="1.41359">
        <ele>199.057026</ele>
        <time>2022-05-27T15:54:52.509Z</time>
      </trkpt>
      <trkpt lat="43.74729" lon="1.41349">
        <ele>198.904759</ele>
        <time>2022-05-27T15:54:54.494Z</time>
      </trkpt>
      <trkpt lat="43.74739" lon="1.41338">
        <ele>198.74513</ele>
        <time>2022-05-27T15:54:56.477Z</time>
      </trkpt>
      <trkpt lat="43.74747" lon="1.41327">
        <ele>198.589416</ele>
        <time>2022-05-27T15:54:58.505Z</time>
      </trkpt>
      <trkpt lat="43.74755" lon="1.41315">
        <ele>198.431967</ele>
        <time>2022-05-27T15:55:00.509Z</time>
      </trkpt>
      <trkpt lat="43.74764" lon="1.41303">
        <ele>198.276803</ele>
        <time>2022-05-27T15:55:02.499Z</time>
      </trkpt>
      <trkpt lat="43.74772" lon="1.41292">
        <ele>198.120519</ele>
        <time>2022-05-27T15:55:04.492Z</time>
      </trkpt>
      <trkpt lat="43.74779" lon="1.41279">
        <ele>197.967992</ele>
        <time>2022-05-27T15:55:06.510Z</time>
      </trkpt>
      <trkpt lat="43.74787" lon="1.41268">
        <ele>197.824197</ele>
        <time>2022-05-27T15:55:08.515Z</time>
      </trkpt>
      <trkpt lat="43.74795" lon="1.41257">
        <ele>197.737695</ele>
        <time>2022-05-27T15:55:10.505Z</time>
      </trkpt>
      <trkpt lat="43.74803" lon="1.41246">
        <ele>197.649546</ele>
        <time>2022-05-27T15:55:12.503Z</time>
      </trkpt>
      <trkpt lat="43.7481" lon="1.41233">
        <ele>197.560079</ele>
        <time>2022-05-27T15:55:14.511Z</time>
      </trkpt>
      <trkpt lat="43.74818" lon="1.41221">
        <ele>197.471638</ele>
        <time>2022-05-27T15:55:16.502Z</time>
      </trkpt>
      <trkpt lat="43.74826" lon="1.41209">
        <ele>197.383104</ele>
        <time>2022-05-27T15:55:18.510Z</time>
      </trkpt>
      <trkpt lat="43.74834" lon="1.41198">
        <ele>197.293826</ele>
        <time>2022-05-27T15:55:20.498Z</time>
      </trkpt>
      <trkpt lat="43.74843" lon="1.41188">
        <ele>197.204476</ele>
        <time>2022-05-27T15:55:22.492Z</time>
      </trkpt>
      <trkpt lat="43.7485" lon="1.41175">
        <ele>197.115042</ele>
        <time>2022-05-27T15:55:24.506Z</time>
      </trkpt>
      <trkpt lat="43.74858" lon="1.41163">
        <ele>197.025884</ele>
        <time>2022-05-27T15:55:26.494Z</time>
      </trkpt>
      <trkpt lat="43.74865" lon="1.41151">
        <ele>196.936807</ele>
        <time>2022-05-27T15:55:28.477Z</time>
      </trkpt>
      <trkpt lat="43.74873" lon="1.41139">
        <ele>196.852127</ele>
        <time>2022-05-27T15:55:30.507Z</time>
      </trkpt>
      <trkpt lat="43.74879" lon="1.41128">
        <ele>196.775742</ele>
        <time>2022-05-27T15:55:32.506Z</time>
      </trkpt>
      <trkpt lat="43.74882" lon="1.41115">
        <ele>196.696778</ele>
        <time>2022-05-27T15:55:34.497Z</time>
      </trkpt>
      <trkpt lat="43.74881" lon="1.41099">
        <ele>196.612418</ele>
        <time>2022-05-27T15:55:36.500Z</time>
      </trkpt>
      <trkpt lat="43.74879" lon="1.41085">
        <ele>196.529066</ele>
        <time>2022-05-27T15:55:38.500Z</time>
      </trkpt>
      <trkpt lat="43.74875" lon="1.41071">
        <ele>196.454607</ele>
        <time>2022-05-27T15:55:40.483Z</time>
      </trkpt>
      <trkpt lat="43.74873" lon="1.41057">
        <ele>196.486438</ele>
        <time>2022-05-27T15:55:42.503Z</time>
      </trkpt>
      <trkpt lat="43.74871" lon="1.41043">
        <ele>196.518329</ele>
        <time>2022-05-27T15:55:44.501Z</time>
      </trkpt>
      <trkpt lat="43.74869" lon="1.41029">
        <ele>196.549885</ele>
        <time>2022-05-27T15:55:46.495Z</time>
      </trkpt>
      <trkpt lat="43.74867" lon="1.41015">
        <ele>196.580179</ele>
        <time>2022-05-27T15:55:48.504Z</time>
      </trkpt>
      <trkpt lat="43.74865" lon="1.41003">
        <ele>196.608464</ele>
        <time>2022-05-27T15:55:50.504Z</time>
      </trkpt>
      <trkpt lat="43.74861" lon="1.40987">
        <ele>196.646133</ele>
        <time>2022-05-27T15:55:53.502Z</time>
      </trkpt>
      <trkpt lat="43.74858" lon="1.40972">
        <ele>196.679676</ele>
        <time>2022-05-27T15:55:56.490Z</time>
      </trkpt>
      <trkpt lat="43.74857" lon="1.40957">
        <ele>196.713141</ele>
        <time>2022-05-27T15:56:00.506Z</time>
      </trkpt>
      <trkpt lat="43.74855" lon="1.40944">
        <ele>196.743174</ele>
        <time>2022-05-27T15:56:03.505Z</time>
      </trkpt>
      <trkpt lat="43.74851" lon="1.40931">
        <ele>196.772762</ele>
        <time>2022-05-27T15:56:05.520Z</time>
      </trkpt>
      <trkpt lat="43.74848" lon="1.40917">
        <ele>196.806827</ele>
        <time>2022-05-27T15:56:07.488Z</time>
      </trkpt>
      <trkpt lat="43.74845" lon="1.40902">
        <ele>196.840644</ele>
        <time>2022-05-27T15:56:09.525Z</time>
      </trkpt>
      <trkpt lat="43.74842" lon="1.40887">
        <ele>196.874107</ele>
        <time>2022-05-27T15:56:11.499Z</time>
      </trkpt>
      <trkpt lat="43.74839" lon="1.40874">
        <ele>196.906213</ele>
        <time>2022-05-27T15:56:13.482Z</time>
      </trkpt>
      <trkpt lat="43.74838" lon="1.40858">
        <ele>196.940746</ele>
        <time>2022-05-27T15:56:16.485Z</time>
      </trkpt>
      <trkpt lat="43.74847" lon="1.40851">
        <ele>196.97267</ele>
        <time>2022-05-27T15:56:20.487Z</time>
      </trkpt>
      <trkpt lat="43.74859" lon="1.40847">
        <ele>196.938214</ele>
        <time>2022-05-27T15:56:23.521Z</time>
      </trkpt>
      <trkpt lat="43.74869" lon="1.40844">
        <ele>196.671874</ele>
        <time>2022-05-27T15:56:25.502Z</time>
      </trkpt>
      <trkpt lat="43.74879" lon="1.40841">
        <ele>196.391291</ele>
        <time>2022-05-27T15:56:27.488Z</time>
      </trkpt>
      <trkpt lat="43.74889" lon="1.40836">
        <ele>196.10322</ele>
        <time>2022-05-27T15:56:29.513Z</time>
      </trkpt>
      <trkpt lat="43.74896" lon="1.40827">
        <ele>195.844665</ele>
        <time>2022-05-27T15:56:31.507Z</time>
      </trkpt>
      <trkpt lat="43.74894" lon="1.40809">
        <ele>195.486845</ele>
        <time>2022-05-27T15:56:34.511Z</time>
      </trkpt>
      <trkpt lat="43.74891" lon="1.40794">
        <ele>195.16423</ele>
        <time>2022-05-27T15:56:37.513Z</time>
      </trkpt>
      <trkpt lat="43.74888" lon="1.40777">
        <ele>194.836554</ele>
        <time>2022-05-27T15:56:40.506Z</time>
      </trkpt>
      <trkpt lat="43.74885" lon="1.4076">
        <ele>194.48963</ele>
        <time>2022-05-27T15:56:43.491Z</time>
      </trkpt>
      <trkpt lat="43.74883" lon="1.40744">
        <ele>194.150336</ele>
        <time>2022-05-27T15:56:46.508Z</time>
      </trkpt>
      <trkpt lat="43.74885" lon="1.40731">
        <ele>193.898823</ele>
        <time>2022-05-27T15:56:49.505Z</time>
      </trkpt>
      <trkpt lat="43.74891" lon="1.40723">
        <ele>193.65038</ele>
        <time>2022-05-27T15:56:53.494Z</time>
      </trkpt>
      <trkpt lat="43.74904" lon="1.40722">
        <ele>193.302741</ele>
        <time>2022-05-27T15:56:56.503Z</time>
      </trkpt>
      <trkpt lat="43.74914" lon="1.40721">
        <ele>193.02911</ele>
        <time>2022-05-27T15:56:58.504Z</time>
      </trkpt>
      <trkpt lat="43.74925" lon="1.4072">
        <ele>192.727306</ele>
        <time>2022-05-27T15:57:00.499Z</time>
      </trkpt>
      <trkpt lat="43.74937" lon="1.40719">
        <ele>192.401392</ele>
        <time>2022-05-27T15:57:02.498Z</time>
      </trkpt>
      <trkpt lat="43.7495" lon="1.40718">
        <ele>192.033276</ele>
        <time>2022-05-27T15:57:04.507Z</time>
      </trkpt>
      <trkpt lat="43.74964" lon="1.40717">
        <ele>191.507828</ele>
        <time>2022-05-27T15:57:06.509Z</time>
      </trkpt>
      <trkpt lat="43.74978" lon="1.40716">
        <ele>190.951153</ele>
        <time>2022-05-27T15:57:08.481Z</time>
      </trkpt>
      <trkpt lat="43.74994" lon="1.40715">
        <ele>190.368604</ele>
        <time>2022-05-27T15:57:10.506Z</time>
      </trkpt>
      <trkpt lat="43.7501" lon="1.40713">
        <ele>189.759472</ele>
        <time>2022-05-27T15:57:12.487Z</time>
      </trkpt>
      <trkpt lat="43.75026" lon="1.40712">
        <ele>189.134334</ele>
        <time>2022-05-27T15:57:14.490Z</time>
      </trkpt>
      <trkpt lat="43.75041" lon="1.40706">
        <ele>188.536227</ele>
        <time>2022-05-27T15:57:16.491Z</time>
      </trkpt>
      <trkpt lat="43.75055" lon="1.40701">
        <ele>187.980425</ele>
        <time>2022-05-27T15:57:18.507Z</time>
      </trkpt>
      <trkpt lat="43.75067" lon="1.40699">
        <ele>187.548513</ele>
        <time>2022-05-27T15:57:20.507Z</time>
      </trkpt>
      <trkpt lat="43.75069" lon="1.40684">
        <ele>187.113336</ele>
        <time>2022-05-27T15:57:23.488Z</time>
      </trkpt>
      <trkpt lat="43.75061" lon="1.40672">
        <ele>186.69117</ele>
        <time>2022-05-27T15:57:25.496Z</time>
      </trkpt>
      <trkpt lat="43.75054" lon="1.4066">
        <ele>186.254399</ele>
        <time>2022-05-27T15:57:27.507Z</time>
      </trkpt>
      <trkpt lat="43.75046" lon="1.4065">
        <ele>185.844552</ele>
        <time>2022-05-27T15:57:29.481Z</time>
      </trkpt>
      <trkpt lat="43.75038" lon="1.4064">
        <ele>185.430862</ele>
        <time>2022-05-27T15:57:31.498Z</time>
      </trkpt>
      <trkpt lat="43.7503" lon="1.40628">
        <ele>185.435569</ele>
        <time>2022-05-27T15:57:33.497Z</time>
      </trkpt>
      <trkpt lat="43.75022" lon="1.40616">
        <ele>185.754908</ele>
        <time>2022-05-27T15:57:35.507Z</time>
      </trkpt>
      <trkpt lat="43.75014" lon="1.40605">
        <ele>186.070852</ele>
        <time>2022-05-27T15:57:37.501Z</time>
      </trkpt>
      <trkpt lat="43.75006" lon="1.40594">
        <ele>186.393087</ele>
        <time>2022-05-27T15:57:39.490Z</time>
      </trkpt>
      <trkpt lat="43.74999" lon="1.40582">
        <ele>186.702425</ele>
        <time>2022-05-27T15:57:41.492Z</time>
      </trkpt>
      <trkpt lat="43.74991" lon="1.40571">
        <ele>187.012092</ele>
        <time>2022-05-27T15:57:43.502Z</time>
      </trkpt>
      <trkpt lat="43.74983" lon="1.4056">
        <ele>187.324158</ele>
        <time>2022-05-27T15:57:45.497Z</time>
      </trkpt>
      <trkpt lat="43.74975" lon="1.4055">
        <ele>187.634966</ele>
        <time>2022-05-27T15:57:47.497Z</time>
      </trkpt>
      <trkpt lat="43.74967" lon="1.40539">
        <ele>187.94091</ele>
        <time>2022-05-27T15:57:49.499Z</time>
      </trkpt>
      <trkpt lat="43.74959" lon="1.4053">
        <ele>188.232793</ele>
        <time>2022-05-27T15:57:51.496Z</time>
      </trkpt>
      <trkpt lat="43.74951" lon="1.4052">
        <ele>188.532039</ele>
        <time>2022-05-27T15:57:53.492Z</time>
      </trkpt>
      <trkpt lat="43.74943" lon="1.40511">
        <ele>188.825682</ele>
        <time>2022-05-27T15:57:55.504Z</time>
      </trkpt>
      <trkpt lat="43.74934" lon="1.40506">
        <ele>189.101526</ele>
        <time>2022-05-27T15:57:57.493Z</time>
      </trkpt>
      <trkpt lat="43.74925" lon="1.40508">
        <ele>189.366226</ele>
        <time>2022-05-27T15:57:59.491Z</time>
      </trkpt>
      <trkpt lat="43.74915" lon="1.40513">
        <ele>189.644793</ele>
        <time>2022-05-27T15:58:01.491Z</time>
      </trkpt>
      <trkpt lat="43.74905" lon="1.40516">
        <ele>189.934745</ele>
        <time>2022-05-27T15:58:03.574Z</time>
      </trkpt>
      <trkpt lat="43.74895" lon="1.4052">
        <ele>190.226964</ele>
        <time>2022-05-27T15:58:05.494Z</time>
      </trkpt>
      <trkpt lat="43.74885" lon="1.40525">
        <ele>190.564346</ele>
        <time>2022-05-27T15:58:07.486Z</time>
      </trkpt>
      <trkpt lat="43.74874" lon="1.4053">
        <ele>190.927397</ele>
        <time>2022-05-27T15:58:09.488Z</time>
      </trkpt>
      <trkpt lat="43.74863" lon="1.40533">
        <ele>191.310216</ele>
        <time>2022-05-27T15:58:11.492Z</time>
      </trkpt>
      <trkpt lat="43.74851" lon="1.40536">
        <ele>191.690308</ele>
        <time>2022-05-27T15:58:13.500Z</time>
      </trkpt>
      <trkpt lat="43.7484" lon="1.40539">
        <ele>192.071351</ele>
        <time>2022-05-27T15:58:15.483Z</time>
      </trkpt>
      <trkpt lat="43.74828" lon="1.40543">
        <ele>192.456055</ele>
        <time>2022-05-27T15:58:17.502Z</time>
      </trkpt>
      <trkpt lat="43.74817" lon="1.40546">
        <ele>192.818629</ele>
        <time>2022-05-27T15:58:19.498Z</time>
      </trkpt>
      <trkpt lat="43.74807" lon="1.4055">
        <ele>193.176573</ele>
        <time>2022-05-27T15:58:21.480Z</time>
      </trkpt>
      <trkpt lat="43.74795" lon="1.40551">
        <ele>193.540576</ele>
        <time>2022-05-27T15:58:23.504Z</time>
      </trkpt>
      <trkpt lat="43.74787" lon="1.40546">
        <ele>193.855398</ele>
        <time>2022-05-27T15:58:25.491Z</time>
      </trkpt>
      <trkpt lat="43.74778" lon="1.40536">
        <ele>194.205023</ele>
        <time>2022-05-27T15:58:27.496Z</time>
      </trkpt>
      <trkpt lat="43.74769" lon="1.40529">
        <ele>194.537128</ele>
        <time>2022-05-27T15:58:29.500Z</time>
      </trkpt>
      <trkpt lat="43.74761" lon="1.40522">
        <ele>194.857611</ele>
        <time>2022-05-27T15:58:31.514Z</time>
      </trkpt>
      <trkpt lat="43.74753" lon="1.40514">
        <ele>195.172085</ele>
        <time>2022-05-27T15:58:33.496Z</time>
      </trkpt>
      <trkpt lat="43.74744" lon="1.40508">
        <ele>195.500362</ele>
        <time>2022-05-27T15:58:35.520Z</time>
      </trkpt>
      <trkpt lat="43.74735" lon="1.40501">
        <ele>195.81219</ele>
        <time>2022-05-27T15:58:37.499Z</time>
      </trkpt>
      <trkpt lat="43.74723" lon="1.40498">
        <ele>196.330688</ele>
        <time>2022-05-27T15:58:40.511Z</time>
      </trkpt>
      <trkpt lat="43.74714" lon="1.40503">
        <ele>196.877122</ele>
        <time>2022-05-27T15:58:42.496Z</time>
      </trkpt>
      <trkpt lat="43.74702" lon="1.40498">
        <ele>197.570489</ele>
        <time>2022-05-27T15:58:45.516Z</time>
      </trkpt>
      <trkpt lat="43.74692" lon="1.40492">
        <ele>198.174313</ele>
        <time>2022-05-27T15:58:48.490Z</time>
      </trkpt>
      <trkpt lat="43.7468" lon="1.40494">
        <ele>198.836443</ele>
        <time>2022-05-27T15:58:53.487Z</time>
      </trkpt>
      <trkpt lat="43.74668" lon="1.40489">
        <ele>199.545139</ele>
        <time>2022-05-27T15:58:56.502Z</time>
      </trkpt>
      <trkpt lat="43.74657" lon="1.40481">
        <ele>200.255864</ele>
        <time>2022-05-27T15:58:59.497Z</time>
      </trkpt>
      <trkpt lat="43.74646" lon="1.40472">
        <ele>200.954304</ele>
        <time>2022-05-27T15:59:02.517Z</time>
      </trkpt>
      <trkpt lat="43.74635" lon="1.40464">
        <ele>201.654323</ele>
        <time>2022-05-27T15:59:05.495Z</time>
      </trkpt>
      <trkpt lat="43.74624" lon="1.40456">
        <ele>202.356481</ele>
        <time>2022-05-27T15:59:08.496Z</time>
      </trkpt>
      <trkpt lat="43.74613" lon="1.40449">
        <ele>203.050336</ele>
        <time>2022-05-27T15:59:11.485Z</time>
      </trkpt>
      <trkpt lat="43.74601" lon="1.40439">
        <ele>203.813156</ele>
        <time>2022-05-27T15:59:14.494Z</time>
      </trkpt>
      <trkpt lat="43.74593" lon="1.40433">
        <ele>204.355627</ele>
        <time>2022-05-27T15:59:16.507Z</time>
      </trkpt>
      <trkpt lat="43.74584" lon="1.40428">
        <ele>204.91463</ele>
        <time>2022-05-27T15:59:19.499Z</time>
      </trkpt>
      <trkpt lat="43.74578" lon="1.40437">
        <ele>205.420747</ele>
        <time>2022-05-27T15:59:21.486Z</time>
      </trkpt>
      <trkpt lat="43.74569" lon="1.40438">
        <ele>205.931649</ele>
        <time>2022-05-27T15:59:25.490Z</time>
      </trkpt>
      <trkpt lat="43.74561" lon="1.40449">
        <ele>206.481617</ele>
        <time>2022-05-27T15:59:30.480Z</time>
      </trkpt>
      <trkpt lat="43.74553" lon="1.40455">
        <ele>206.913746</ele>
        <time>2022-05-27T15:59:33.497Z</time>
      </trkpt>
      <trkpt lat="43.74551" lon="1.40467">
        <ele>207.354009</ele>
        <time>2022-05-27T15:59:36.497Z</time>
      </trkpt>
      <trkpt lat="43.74551" lon="1.40484">
        <ele>207.952053</ele>
        <time>2022-05-27T15:59:39.512Z</time>
      </trkpt>
      <trkpt lat="43.74547" lon="1.40498">
        <ele>208.465231</ele>
        <time>2022-05-27T15:59:42.495Z</time>
      </trkpt>
      <trkpt lat="43.74542" lon="1.40512">
        <ele>209.011606</ele>
        <time>2022-05-27T15:59:45.495Z</time>
      </trkpt>
      <trkpt lat="43.74534" lon="1.40521">
        <ele>209.503389</ele>
        <time>2022-05-27T15:59:49.490Z</time>
      </trkpt>
      <trkpt lat="43.7453" lon="1.40538">
        <ele>210.11052</ele>
        <time>2022-05-27T15:59:53.520Z</time>
      </trkpt>
      <trkpt lat="43.74527" lon="1.40551">
        <ele>210.592719</ele>
        <time>2022-05-27T15:59:56.495Z</time>
      </trkpt>
      <trkpt lat="43.74527" lon="1.40564">
        <ele>211.046798</ele>
        <time>2022-05-27T16:00:01.506Z</time>
      </trkpt>
      <trkpt lat="43.74517" lon="1.40571">
        <ele>211.553876</ele>
        <time>2022-05-27T16:00:07.501Z</time>
      </trkpt>
      <trkpt lat="43.74508" lon="1.40575">
        <ele>212.012303</ele>
        <time>2022-05-27T16:00:13.480Z</time>
      </trkpt>
      <trkpt lat="43.74499" lon="1.40577">
        <ele>212.454332</ele>
        <time>2022-05-27T16:00:19.501Z</time>
      </trkpt>
      <trkpt lat="43.74488" lon="1.40574">
        <ele>212.978143</ele>
        <time>2022-05-27T16:00:23.528Z</time>
      </trkpt>
      <trkpt lat="43.74477" lon="1.40574">
        <ele>213.528465</ele>
        <time>2022-05-27T16:00:27.509Z</time>
      </trkpt>
      <trkpt lat="43.74471" lon="1.40572">
        <ele>217.732606</ele>
        <time>2022-05-27T16:03:26.495Z</time>
      </trkpt>
      <trkpt lat="43.74467" lon="1.40558">
        <ele>218.27008</ele>
        <time>2022-05-27T16:03:29.503Z</time>
      </trkpt>
      <trkpt lat="43.74458" lon="1.40556">
        <ele>218.712744</ele>
        <time>2022-05-27T16:03:31.485Z</time>
      </trkpt>
      <trkpt lat="43.74449" lon="1.40556">
        <ele>219.161222</ele>
        <time>2022-05-27T16:03:33.505Z</time>
      </trkpt>
      <trkpt lat="43.74438" lon="1.40556">
        <ele>219.677402</ele>
        <time>2022-05-27T16:03:36.493Z</time>
      </trkpt>
      <trkpt lat="43.74428" lon="1.40552">
        <ele>220.188851</ele>
        <time>2022-05-27T16:03:39.497Z</time>
      </trkpt>
      <trkpt lat="43.74417" lon="1.40548">
        <ele>220.750286</ele>
        <time>2022-05-27T16:03:42.485Z</time>
      </trkpt>
      <trkpt lat="43.74404" lon="1.40543">
        <ele>221.390717</ele>
        <time>2022-05-27T16:03:45.532Z</time>
      </trkpt>
      <trkpt lat="43.74392" lon="1.40535">
        <ele>222.014149</ele>
        <time>2022-05-27T16:03:48.515Z</time>
      </trkpt>
      <trkpt lat="43.74382" lon="1.40529">
        <ele>222.549905</ele>
        <time>2022-05-27T16:03:51.508Z</time>
      </trkpt>
      <trkpt lat="43.74372" lon="1.40525">
        <ele>223.050347</ele>
        <time>2022-05-27T16:03:54.507Z</time>
      </trkpt>
      <trkpt lat="43.74362" lon="1.40521">
        <ele>223.577924</ele>
        <time>2022-05-27T16:03:57.488Z</time>
      </trkpt>
      <trkpt lat="43.74354" lon="1.40509">
        <ele>224.124162</ele>
        <time>2022-05-27T16:04:02.504Z</time>
      </trkpt>
      <trkpt lat="43.74344" lon="1.4051">
        <ele>224.607013</ele>
        <time>2022-05-27T16:04:07.519Z</time>
      </trkpt>
      <trkpt lat="43.74335" lon="1.40513">
        <ele>225.053742</ele>
        <time>2022-05-27T16:04:10.505Z</time>
      </trkpt>
      <trkpt lat="43.74325" lon="1.40515">
        <ele>225.404338</ele>
        <time>2022-05-27T16:04:13.506Z</time>
      </trkpt>
      <trkpt lat="43.74316" lon="1.4052">
        <ele>225.701287</ele>
        <time>2022-05-27T16:04:18.516Z</time>
      </trkpt>
      <trkpt lat="43.74307" lon="1.40528">
        <ele>226.033482</ele>
        <time>2022-05-27T16:04:23.509Z</time>
      </trkpt>
      <trkpt lat="43.74298" lon="1.40532">
        <ele>226.311928</ele>
        <time>2022-05-27T16:04:27.486Z</time>
      </trkpt>
      <trkpt lat="43.74286" lon="1.40536">
        <ele>226.67416</ele>
        <time>2022-05-27T16:04:31.494Z</time>
      </trkpt>
      <trkpt lat="43.74275" lon="1.4053">
        <ele>227.053354</ele>
        <time>2022-05-27T16:04:35.491Z</time>
      </trkpt>
      <trkpt lat="43.74265" lon="1.40521">
        <ele>227.411698</ele>
        <time>2022-05-27T16:04:38.498Z</time>
      </trkpt>
      <trkpt lat="43.74256" lon="1.40515">
        <ele>227.687584</ele>
        <time>2022-05-27T16:04:40.490Z</time>
      </trkpt>
      <trkpt lat="43.74247" lon="1.40509">
        <ele>227.9914</ele>
        <time>2022-05-27T16:04:42.490Z</time>
      </trkpt>
      <trkpt lat="43.74238" lon="1.40503">
        <ele>228.296109</ele>
        <time>2022-05-27T16:04:44.492Z</time>
      </trkpt>
      <trkpt lat="43.74229" lon="1.40499">
        <ele>228.578875</ele>
        <time>2022-05-27T16:04:46.510Z</time>
      </trkpt>
      <trkpt lat="43.74217" lon="1.40493">
        <ele>228.966293</ele>
        <time>2022-05-27T16:04:49.516Z</time>
      </trkpt>
      <trkpt lat="43.74206" lon="1.40485">
        <ele>229.355216</ele>
        <time>2022-05-27T16:04:52.506Z</time>
      </trkpt>
      <trkpt lat="43.74195" lon="1.40478">
        <ele>229.72109</ele>
        <time>2022-05-27T16:04:55.509Z</time>
      </trkpt>
      <trkpt lat="43.74187" lon="1.40467">
        <ele>230.062524</ele>
        <time>2022-05-27T16:04:58.504Z</time>
      </trkpt>
      <trkpt lat="43.74179" lon="1.40455">
        <ele>230.421737</ele>
        <time>2022-05-27T16:05:01.507Z</time>
      </trkpt>
      <trkpt lat="43.74169" lon="1.40443">
        <ele>230.728381</ele>
        <time>2022-05-27T16:05:04.506Z</time>
      </trkpt>
      <trkpt lat="43.74159" lon="1.40431">
        <ele>230.958354</ele>
        <time>2022-05-27T16:05:07.485Z</time>
      </trkpt>
      <trkpt lat="43.74152" lon="1.40423">
        <ele>231.117404</ele>
        <time>2022-05-27T16:05:09.493Z</time>
      </trkpt>
      <trkpt lat="43.74145" lon="1.40414">
        <ele>231.275458</ele>
        <time>2022-05-27T16:05:11.496Z</time>
      </trkpt>
      <trkpt lat="43.74138" lon="1.40405">
        <ele>231.441053</ele>
        <time>2022-05-27T16:05:13.515Z</time>
      </trkpt>
      <trkpt lat="43.7413" lon="1.40395">
        <ele>231.624222</ele>
        <time>2022-05-27T16:05:16.511Z</time>
      </trkpt>
      <trkpt lat="43.74123" lon="1.40406">
        <ele>231.814903</ele>
        <time>2022-05-27T16:05:20.492Z</time>
      </trkpt>
      <trkpt lat="43.74119" lon="1.40423">
        <ele>232.042816</ele>
        <time>2022-05-27T16:05:23.506Z</time>
      </trkpt>
      <trkpt lat="43.74115" lon="1.40436">
        <ele>232.204103</ele>
        <time>2022-05-27T16:05:25.506Z</time>
      </trkpt>
      <trkpt lat="43.74111" lon="1.40451">
        <ele>232.408231</ele>
        <time>2022-05-27T16:05:28.509Z</time>
      </trkpt>
      <trkpt lat="43.74106" lon="1.40468">
        <ele>232.633815</ele>
        <time>2022-05-27T16:05:31.489Z</time>
      </trkpt>
      <trkpt lat="43.74102" lon="1.4048">
        <ele>232.798909</ele>
        <time>2022-05-27T16:05:33.485Z</time>
      </trkpt>
      <trkpt lat="43.74096" lon="1.40492">
        <ele>232.981273</ele>
        <time>2022-05-27T16:05:35.480Z</time>
      </trkpt>
      <trkpt lat="43.74087" lon="1.40495">
        <ele>233.149444</ele>
        <time>2022-05-27T16:05:37.492Z</time>
      </trkpt>
      <trkpt lat="43.74077" lon="1.40491">
        <ele>233.315686</ele>
        <time>2022-05-27T16:05:39.477Z</time>
      </trkpt>
      <trkpt lat="43.74069" lon="1.40485">
        <ele>233.477147</ele>
        <time>2022-05-27T16:05:41.489Z</time>
      </trkpt>
      <trkpt lat="43.7406" lon="1.40479">
        <ele>233.643224</ele>
        <time>2022-05-27T16:05:43.508Z</time>
      </trkpt>
      <trkpt lat="43.74051" lon="1.40473">
        <ele>233.774973</ele>
        <time>2022-05-27T16:05:45.490Z</time>
      </trkpt>
      <trkpt lat="43.74042" lon="1.40468">
        <ele>233.873234</ele>
        <time>2022-05-27T16:05:47.489Z</time>
      </trkpt>
      <trkpt lat="43.74033" lon="1.40464">
        <ele>233.971661</ele>
        <time>2022-05-27T16:05:49.476Z</time>
      </trkpt>
      <trkpt lat="43.74023" lon="1.4046">
        <ele>234.07608</ele>
        <time>2022-05-27T16:05:51.478Z</time>
      </trkpt>
      <trkpt lat="43.74013" lon="1.40453">
        <ele>234.193655</ele>
        <time>2022-05-27T16:05:53.470Z</time>
      </trkpt>
      <trkpt lat="43.74002" lon="1.40447">
        <ele>234.310011</ele>
        <time>2022-05-27T16:05:55.475Z</time>
      </trkpt>
      <trkpt lat="43.73992" lon="1.40444">
        <ele>234.418755</ele>
        <time>2022-05-27T16:05:57.475Z</time>
      </trkpt>
      <trkpt lat="43.73981" lon="1.40451">
        <ele>234.536327</ele>
        <time>2022-05-27T16:06:00.469Z</time>
      </trkpt>
      <trkpt lat="43.73976" lon="1.40463">
        <ele>234.642361</ele>
        <time>2022-05-27T16:06:02.475Z</time>
      </trkpt>
      <trkpt lat="43.73967" lon="1.40471">
        <ele>234.745248</ele>
        <time>2022-05-27T16:06:04.482Z</time>
      </trkpt>
      <trkpt lat="43.73958" lon="1.40469">
        <ele>234.838752</ele>
        <time>2022-05-27T16:06:06.475Z</time>
      </trkpt>
      <trkpt lat="43.73949" lon="1.40463">
        <ele>234.938699</ele>
        <time>2022-05-27T16:06:08.455Z</time>
      </trkpt>
      <trkpt lat="43.73939" lon="1.40458">
        <ele>235.041706</ele>
        <time>2022-05-27T16:06:10.472Z</time>
      </trkpt>
      <trkpt lat="43.7393" lon="1.40453">
        <ele>235.148489</ele>
        <time>2022-05-27T16:06:12.484Z</time>
      </trkpt>
      <trkpt lat="43.7392" lon="1.40446">
        <ele>235.259197</ele>
        <time>2022-05-27T16:06:14.481Z</time>
      </trkpt>
      <trkpt lat="43.7391" lon="1.4044">
        <ele>235.374212</ele>
        <time>2022-05-27T16:06:16.480Z</time>
      </trkpt>
      <trkpt lat="43.739" lon="1.40434">
        <ele>235.484018</ele>
        <time>2022-05-27T16:06:18.459Z</time>
      </trkpt>
      <trkpt lat="43.73889" lon="1.40426">
        <ele>235.278826</ele>
        <time>2022-05-27T16:06:20.483Z</time>
      </trkpt>
      <trkpt lat="43.73879" lon="1.40419">
        <ele>234.831683</ele>
        <time>2022-05-27T16:06:22.506Z</time>
      </trkpt>
      <trkpt lat="43.73871" lon="1.40411">
        <ele>234.412418</ele>
        <time>2022-05-27T16:06:24.473Z</time>
      </trkpt>
      <trkpt lat="43.73862" lon="1.40402">
        <ele>233.9625</ele>
        <time>2022-05-27T16:06:26.478Z</time>
      </trkpt>
      <trkpt lat="43.73853" lon="1.40394">
        <ele>233.515532</ele>
        <time>2022-05-27T16:06:28.475Z</time>
      </trkpt>
      <trkpt lat="43.73842" lon="1.40391">
        <ele>233.076223</ele>
        <time>2022-05-27T16:06:31.501Z</time>
      </trkpt>
      <trkpt lat="43.73835" lon="1.40399">
        <ele>232.692889</ele>
        <time>2022-05-27T16:06:34.466Z</time>
      </trkpt>
      <trkpt lat="43.73829" lon="1.40413">
        <ele>232.22013</ele>
        <time>2022-05-27T16:06:37.491Z</time>
      </trkpt>
      <trkpt lat="43.73823" lon="1.40426">
        <ele>231.738957</ele>
        <time>2022-05-27T16:06:40.483Z</time>
      </trkpt>
      <trkpt lat="43.73816" lon="1.4044">
        <ele>231.231127</ele>
        <time>2022-05-27T16:06:43.483Z</time>
      </trkpt>
      <trkpt lat="43.73809" lon="1.40454">
        <ele>230.73192</ele>
        <time>2022-05-27T16:06:46.476Z</time>
      </trkpt>
      <trkpt lat="43.73803" lon="1.40468">
        <ele>230.240283</ele>
        <time>2022-05-27T16:06:49.476Z</time>
      </trkpt>
      <trkpt lat="43.73792" lon="1.40466">
        <ele>229.802719</ele>
        <time>2022-05-27T16:06:53.488Z</time>
      </trkpt>
      <trkpt lat="43.73783" lon="1.40453">
        <ele>229.248255</ele>
        <time>2022-05-27T16:06:56.491Z</time>
      </trkpt>
      <trkpt lat="43.73775" lon="1.40441">
        <ele>228.771207</ele>
        <time>2022-05-27T16:06:58.475Z</time>
      </trkpt>
      <trkpt lat="43.73767" lon="1.40431">
        <ele>228.333248</ele>
        <time>2022-05-27T16:07:00.476Z</time>
      </trkpt>
      <trkpt lat="43.7376" lon="1.4042">
        <ele>227.096389</ele>
        <time>2022-05-27T16:07:02.474Z</time>
      </trkpt>
      <trkpt lat="43.73752" lon="1.40407">
        <ele>224.693988</ele>
        <time>2022-05-27T16:07:04.477Z</time>
      </trkpt>
      <trkpt lat="43.73742" lon="1.40391">
        <ele>221.840032</ele>
        <time>2022-05-27T16:07:06.475Z</time>
      </trkpt>
      <trkpt lat="43.73729" lon="1.40377">
        <ele>218.738184</ele>
        <time>2022-05-27T16:07:08.489Z</time>
      </trkpt>
      <trkpt lat="43.73715" lon="1.40364">
        <ele>215.664431</ele>
        <time>2022-05-27T16:07:10.467Z</time>
      </trkpt>
      <trkpt lat="43.73708" lon="1.40357">
        <ele>213.892099</ele>
        <time>2022-05-27T16:07:11.466Z</time>
      </trkpt>
      <trkpt lat="43.737" lon="1.40348">
        <ele>211.945418</ele>
        <time>2022-05-27T16:07:12.472Z</time>
      </trkpt>
      <trkpt lat="43.73692" lon="1.40339">
        <ele>210.039574</ele>
        <time>2022-05-27T16:07:13.479Z</time>
      </trkpt>
      <trkpt lat="43.73684" lon="1.40329">
        <ele>208.061348</ele>
        <time>2022-05-27T16:07:14.484Z</time>
      </trkpt>
      <trkpt lat="43.73677" lon="1.40319">
        <ele>206.152242</ele>
        <time>2022-05-27T16:07:15.468Z</time>
      </trkpt>
      <trkpt lat="43.73669" lon="1.40309">
        <ele>204.114046</ele>
        <time>2022-05-27T16:07:16.486Z</time>
      </trkpt>
      <trkpt lat="43.73661" lon="1.40299">
        <ele>202.048132</ele>
        <time>2022-05-27T16:07:17.465Z</time>
      </trkpt>
      <trkpt lat="43.73653" lon="1.40289">
        <ele>200.078444</ele>
        <time>2022-05-27T16:07:18.495Z</time>
      </trkpt>
      <trkpt lat="43.73646" lon="1.40279">
        <ele>198.103006</ele>
        <time>2022-05-27T16:07:19.513Z</time>
      </trkpt>
      <trkpt lat="43.73639" lon="1.40268">
        <ele>196.1472</ele>
        <time>2022-05-27T16:07:20.504Z</time>
      </trkpt>
      <trkpt lat="43.73628" lon="1.40249">
        <ele>193.915759</ele>
        <time>2022-05-27T16:07:22.501Z</time>
      </trkpt>
      <trkpt lat="43.73617" lon="1.40229">
        <ele>193.020928</ele>
        <time>2022-05-27T16:07:24.497Z</time>
      </trkpt>
      <trkpt lat="43.7361" lon="1.4022">
        <ele>192.561408</ele>
        <time>2022-05-27T16:07:25.487Z</time>
      </trkpt>
      <trkpt lat="43.73604" lon="1.4021">
        <ele>192.102378</ele>
        <time>2022-05-27T16:07:26.493Z</time>
      </trkpt>
      <trkpt lat="43.73593" lon="1.40192">
        <ele>191.264219</ele>
        <time>2022-05-27T16:07:28.495Z</time>
      </trkpt>
      <trkpt lat="43.73585" lon="1.40183">
        <ele>190.765958</ele>
        <time>2022-05-27T16:07:30.505Z</time>
      </trkpt>
      <trkpt lat="43.73574" lon="1.40177">
        <ele>190.210641</ele>
        <time>2022-05-27T16:07:34.494Z</time>
      </trkpt>
      <trkpt lat="43.73563" lon="1.40182">
        <ele>189.636839</ele>
        <time>2022-05-27T16:07:37.490Z</time>
      </trkpt>
      <trkpt lat="43.73553" lon="1.40186">
        <ele>189.159444</ele>
        <time>2022-05-27T16:07:39.483Z</time>
      </trkpt>
      <trkpt lat="43.73542" lon="1.4019">
        <ele>188.615458</ele>
        <time>2022-05-27T16:07:41.492Z</time>
      </trkpt>
      <trkpt lat="43.73531" lon="1.40193">
        <ele>188.042316</ele>
        <time>2022-05-27T16:07:43.464Z</time>
      </trkpt>
      <trkpt lat="43.73519" lon="1.40196">
        <ele>187.450974</ele>
        <time>2022-05-27T16:07:45.495Z</time>
      </trkpt>
      <trkpt lat="43.73506" lon="1.40196">
        <ele>186.844134</ele>
        <time>2022-05-27T16:07:47.478Z</time>
      </trkpt>
      <trkpt lat="43.73494" lon="1.40191">
        <ele>186.230494</ele>
        <time>2022-05-27T16:07:49.469Z</time>
      </trkpt>
      <trkpt lat="43.73484" lon="1.40181">
        <ele>185.61338</ele>
        <time>2022-05-27T16:07:51.486Z</time>
      </trkpt>
      <trkpt lat="43.73472" lon="1.40173">
        <ele>185.385056</ele>
        <time>2022-05-27T16:07:53.476Z</time>
      </trkpt>
      <trkpt lat="43.73459" lon="1.40171">
        <ele>185.219546</ele>
        <time>2022-05-27T16:07:55.470Z</time>
      </trkpt>
      <trkpt lat="43.73446" lon="1.40173">
        <ele>185.053935</ele>
        <time>2022-05-27T16:07:57.475Z</time>
      </trkpt>
      <trkpt lat="43.73434" lon="1.40176">
        <ele>184.893172</ele>
        <time>2022-05-27T16:07:59.472Z</time>
      </trkpt>
      <trkpt lat="43.73421" lon="1.4018">
        <ele>184.727961</ele>
        <time>2022-05-27T16:08:01.464Z</time>
      </trkpt>
      <trkpt lat="43.73408" lon="1.40184">
        <ele>184.558444</ele>
        <time>2022-05-27T16:08:03.482Z</time>
      </trkpt>
      <trkpt lat="43.73395" lon="1.40188">
        <ele>184.38522</ele>
        <time>2022-05-27T16:08:05.475Z</time>
      </trkpt>
      <trkpt lat="43.73382" lon="1.40193">
        <ele>184.214055</ele>
        <time>2022-05-27T16:08:07.464Z</time>
      </trkpt>
      <trkpt lat="43.73369" lon="1.40199">
        <ele>184.043059</ele>
        <time>2022-05-27T16:08:09.473Z</time>
      </trkpt>
      <trkpt lat="43.73357" lon="1.40205">
        <ele>183.877794</ele>
        <time>2022-05-27T16:08:11.486Z</time>
      </trkpt>
      <trkpt lat="43.73346" lon="1.40212">
        <ele>183.719848</ele>
        <time>2022-05-27T16:08:13.477Z</time>
      </trkpt>
      <trkpt lat="43.73336" lon="1.40221">
        <ele>183.571913</ele>
        <time>2022-05-27T16:08:15.480Z</time>
      </trkpt>
      <trkpt lat="43.73328" lon="1.40228">
        <ele>183.44621</ele>
        <time>2022-05-27T16:08:17.481Z</time>
      </trkpt>
      <trkpt lat="43.7332" lon="1.40237">
        <ele>183.315075</ele>
        <time>2022-05-27T16:08:19.488Z</time>
      </trkpt>
      <trkpt lat="43.73316" lon="1.40251">
        <ele>183.228824</ele>
        <time>2022-05-27T16:08:21.483Z</time>
      </trkpt>
      <trkpt lat="43.73314" lon="1.40266">
        <ele>183.210065</ele>
        <time>2022-05-27T16:08:23.492Z</time>
      </trkpt>
      <trkpt lat="43.73309" lon="1.4028">
        <ele>183.191036</ele>
        <time>2022-05-27T16:08:25.498Z</time>
      </trkpt>
      <trkpt lat="43.73305" lon="1.40294">
        <ele>183.172447</ele>
        <time>2022-05-27T16:08:27.497Z</time>
      </trkpt>
      <trkpt lat="43.73302" lon="1.40307">
        <ele>183.154734</ele>
        <time>2022-05-27T16:08:29.515Z</time>
      </trkpt>
      <trkpt lat="43.73297" lon="1.4032">
        <ele>183.136885</ele>
        <time>2022-05-27T16:08:32.496Z</time>
      </trkpt>
      <trkpt lat="43.73295" lon="1.40332">
        <ele>183.121336</ele>
        <time>2022-05-27T16:08:36.492Z</time>
      </trkpt>
      <trkpt lat="43.73294" lon="1.40348">
        <ele>183.101206</ele>
        <time>2022-05-27T16:08:41.485Z</time>
      </trkpt>
      <trkpt lat="43.73293" lon="1.40363">
        <ele>183.082877</ele>
        <time>2022-05-27T16:08:44.503Z</time>
      </trkpt>
      <trkpt lat="43.73291" lon="1.40382">
        <ele>183.059136</ele>
        <time>2022-05-27T16:08:47.476Z</time>
      </trkpt>
      <trkpt lat="43.7329" lon="1.40397">
        <ele>183.040692</ele>
        <time>2022-05-27T16:08:49.497Z</time>
      </trkpt>
      <trkpt lat="43.73288" lon="1.40412">
        <ele>183.021062</ele>
        <time>2022-05-27T16:08:51.488Z</time>
      </trkpt>
      <trkpt lat="43.73285" lon="1.40428">
        <ele>183.001508</ele>
        <time>2022-05-27T16:08:53.495Z</time>
      </trkpt>
      <trkpt lat="43.73282" lon="1.40443">
        <ele>182.982436</ele>
        <time>2022-05-27T16:08:55.502Z</time>
      </trkpt>
      <trkpt lat="43.7328" lon="1.40457">
        <ele>182.964201</ele>
        <time>2022-05-27T16:08:57.489Z</time>
      </trkpt>
      <trkpt lat="43.73278" lon="1.4047">
        <ele>182.947768</ele>
        <time>2022-05-27T16:08:59.553Z</time>
      </trkpt>
      <trkpt lat="43.73273" lon="1.40487">
        <ele>182.910963</ele>
        <time>2022-05-27T16:09:02.499Z</time>
      </trkpt>
      <trkpt lat="43.73264" lon="1.4049">
        <ele>182.829558</ele>
        <time>2022-05-27T16:09:04.495Z</time>
      </trkpt>
      <trkpt lat="43.73255" lon="1.40484">
        <ele>182.740734</ele>
        <time>2022-05-27T16:09:06.499Z</time>
      </trkpt>
      <trkpt lat="43.73245" lon="1.4048">
        <ele>182.650763</ele>
        <time>2022-05-27T16:09:08.473Z</time>
      </trkpt>
      <trkpt lat="43.73235" lon="1.40476">
        <ele>182.560948</ele>
        <time>2022-05-27T16:09:10.484Z</time>
      </trkpt>
      <trkpt lat="43.73226" lon="1.40472">
        <ele>182.472138</ele>
        <time>2022-05-27T16:09:12.492Z</time>
      </trkpt>
      <trkpt lat="43.73217" lon="1.40468">
        <ele>182.392089</ele>
        <time>2022-05-27T16:09:14.487Z</time>
      </trkpt>
      <trkpt lat="43.73204" lon="1.40463">
        <ele>182.276058</ele>
        <time>2022-05-27T16:09:17.495Z</time>
      </trkpt>
      <trkpt lat="43.73195" lon="1.4046">
        <ele>182.19115</ele>
        <time>2022-05-27T16:09:19.519Z</time>
      </trkpt>
      <trkpt lat="43.73184" lon="1.40457">
        <ele>182.097442</ele>
        <time>2022-05-27T16:09:21.502Z</time>
      </trkpt>
      <trkpt lat="43.73174" lon="1.4046">
        <ele>182.005384</ele>
        <time>2022-05-27T16:09:23.504Z</time>
      </trkpt>
      <trkpt lat="43.73167" lon="1.40467">
        <ele>181.925279</ele>
        <time>2022-05-27T16:09:25.512Z</time>
      </trkpt>
      <trkpt lat="43.73157" lon="1.40472">
        <ele>181.83923</ele>
        <time>2022-05-27T16:09:28.491Z</time>
      </trkpt>
      <trkpt lat="43.73146" lon="1.4047">
        <ele>181.737531</ele>
        <time>2022-05-27T16:09:31.499Z</time>
      </trkpt>
      <trkpt lat="43.73138" lon="1.40483">
        <ele>181.631065</ele>
        <time>2022-05-27T16:09:34.476Z</time>
      </trkpt>
      <trkpt lat="43.73134" lon="1.405">
        <ele>181.51566</ele>
        <time>2022-05-27T16:09:37.502Z</time>
      </trkpt>
      <trkpt lat="43.73127" lon="1.40511">
        <ele>181.425127</ele>
        <time>2022-05-27T16:09:39.484Z</time>
      </trkpt>
      <trkpt lat="43.73118" lon="1.40518">
        <ele>181.335896</ele>
        <time>2022-05-27T16:09:41.473Z</time>
      </trkpt>
      <trkpt lat="43.73108" lon="1.40513">
        <ele>181.26306</ele>
        <time>2022-05-27T16:09:43.492Z</time>
      </trkpt>
      <trkpt lat="43.73098" lon="1.40503">
        <ele>181.18349</ele>
        <time>2022-05-27T16:09:45.490Z</time>
      </trkpt>
      <trkpt lat="43.73087" lon="1.40498">
        <ele>181.101921</ele>
        <time>2022-05-27T16:09:47.475Z</time>
      </trkpt>
      <trkpt lat="43.73075" lon="1.40497">
        <ele>181.02358</ele>
        <time>2022-05-27T16:09:49.495Z</time>
      </trkpt>
      <trkpt lat="43.73065" lon="1.40504">
        <ele>180.947344</ele>
        <time>2022-05-27T16:09:51.481Z</time>
      </trkpt>
      <trkpt lat="43.73057" lon="1.40513">
        <ele>180.878131</ele>
        <time>2022-05-27T16:09:53.505Z</time>
      </trkpt>
      <trkpt lat="43.73049" lon="1.4052">
        <ele>180.812843</ele>
        <time>2022-05-27T16:09:55.490Z</time>
      </trkpt>
      <trkpt lat="43.7304" lon="1.40526">
        <ele>180.749363</ele>
        <time>2022-05-27T16:09:57.497Z</time>
      </trkpt>
      <trkpt lat="43.73032" lon="1.4053">
        <ele>180.688271</ele>
        <time>2022-05-27T16:10:01.487Z</time>
      </trkpt>
      <trkpt lat="43.73021" lon="1.40533">
        <ele>180.61709</ele>
        <time>2022-05-27T16:10:05.495Z</time>
      </trkpt>
      <trkpt lat="43.73011" lon="1.40544">
        <ele>180.529513</ele>
        <time>2022-05-27T16:10:08.489Z</time>
      </trkpt>
      <trkpt lat="43.73005" lon="1.40554">
        <ele>180.468477</ele>
        <time>2022-05-27T16:10:10.483Z</time>
      </trkpt>
      <trkpt lat="43.73" lon="1.40564">
        <ele>180.405681</ele>
        <time>2022-05-27T16:10:12.505Z</time>
      </trkpt>
      <trkpt lat="43.72995" lon="1.40576">
        <ele>180.340286</ele>
        <time>2022-05-27T16:10:14.483Z</time>
      </trkpt>
      <trkpt lat="43.72988" lon="1.40587">
        <ele>180.269815</ele>
        <time>2022-05-27T16:10:16.488Z</time>
      </trkpt>
      <trkpt lat="43.72979" lon="1.40593">
        <ele>180.198585</ele>
        <time>2022-05-27T16:10:18.505Z</time>
      </trkpt>
      <trkpt lat="43.72968" lon="1.40595">
        <ele>180.141679</ele>
        <time>2022-05-27T16:10:20.507Z</time>
      </trkpt>
      <trkpt lat="43.72958" lon="1.40597">
        <ele>180.169741</ele>
        <time>2022-05-27T16:10:22.502Z</time>
      </trkpt>
      <trkpt lat="43.72948" lon="1.40591">
        <ele>180.201119</ele>
        <time>2022-05-27T16:10:25.503Z</time>
      </trkpt>
      <trkpt lat="43.72941" lon="1.40581">
        <ele>180.228344</ele>
        <time>2022-05-27T16:10:28.503Z</time>
      </trkpt>
      <trkpt lat="43.72932" lon="1.4057">
        <ele>180.263093</ele>
        <time>2022-05-27T16:10:31.514Z</time>
      </trkpt>
      <trkpt lat="43.72925" lon="1.40562">
        <ele>180.288583</ele>
        <time>2022-05-27T16:10:33.502Z</time>
      </trkpt>
      <trkpt lat="43.72918" lon="1.40553">
        <ele>180.315288</ele>
        <time>2022-05-27T16:10:35.508Z</time>
      </trkpt>
      <trkpt lat="43.72911" lon="1.40543">
        <ele>180.342808</ele>
        <time>2022-05-27T16:10:37.516Z</time>
      </trkpt>
      <trkpt lat="43.72905" lon="1.40533">
        <ele>180.369809</ele>
        <time>2022-05-27T16:10:39.513Z</time>
      </trkpt>
      <trkpt lat="43.72898" lon="1.40519">
        <ele>180.404508</ele>
        <time>2022-05-27T16:10:42.508Z</time>
      </trkpt>
      <trkpt lat="43.72895" lon="1.40505">
        <ele>180.434161</ele>
        <time>2022-05-27T16:10:45.497Z</time>
      </trkpt>
      <trkpt lat="43.72893" lon="1.40492">
        <ele>180.459939</ele>
        <time>2022-05-27T16:10:47.508Z</time>
      </trkpt>
      <trkpt lat="43.72886" lon="1.40483">
        <ele>180.487732</ele>
        <time>2022-05-27T16:10:49.517Z</time>
      </trkpt>
      <trkpt lat="43.72879" lon="1.40476">
        <ele>180.513366</ele>
        <time>2022-05-27T16:10:51.501Z</time>
      </trkpt>
      <trkpt lat="43.72872" lon="1.40462">
        <ele>180.547576</ele>
        <time>2022-05-27T16:10:54.496Z</time>
      </trkpt>
      <trkpt lat="43.72866" lon="1.40452">
        <ele>180.57307</ele>
        <time>2022-05-27T16:10:56.509Z</time>
      </trkpt>
      <trkpt lat="43.72861" lon="1.40441">
        <ele>180.59955</ele>
        <time>2022-05-27T16:10:58.498Z</time>
      </trkpt>
      <trkpt lat="43.72855" lon="1.4043">
        <ele>180.627507</ele>
        <time>2022-05-27T16:11:00.495Z</time>
      </trkpt>
      <trkpt lat="43.72849" lon="1.40419">
        <ele>180.64528</ele>
        <time>2022-05-27T16:11:02.489Z</time>
      </trkpt>
      <trkpt lat="43.72844" lon="1.40407">
        <ele>180.651278</ele>
        <time>2022-05-27T16:11:04.509Z</time>
      </trkpt>
      <trkpt lat="43.72838" lon="1.40396">
        <ele>180.657073</ele>
        <time>2022-05-27T16:11:06.494Z</time>
      </trkpt>
      <trkpt lat="43.72831" lon="1.40384">
        <ele>180.663736</ele>
        <time>2022-05-27T16:11:09.495Z</time>
      </trkpt>
      <trkpt lat="43.72821" lon="1.40386">
        <ele>180.670065</ele>
        <time>2022-05-27T16:11:20.502Z</time>
      </trkpt>
      <trkpt lat="43.72812" lon="1.40397">
        <ele>180.677198</ele>
        <time>2022-05-27T16:11:23.502Z</time>
      </trkpt>
      <trkpt lat="43.72805" lon="1.40406">
        <ele>180.682799</ele>
        <time>2022-05-27T16:11:25.519Z</time>
      </trkpt>
      <trkpt lat="43.72797" lon="1.40415">
        <ele>180.68895</ele>
        <time>2022-05-27T16:11:27.503Z</time>
      </trkpt>
      <trkpt lat="43.72788" lon="1.40424">
        <ele>180.695475</ele>
        <time>2022-05-27T16:11:29.509Z</time>
      </trkpt>
      <trkpt lat="43.72778" lon="1.4043">
        <ele>180.702348</ele>
        <time>2022-05-27T16:11:31.503Z</time>
      </trkpt>
      <trkpt lat="43.72767" lon="1.40436">
        <ele>180.709427</ele>
        <time>2022-05-27T16:11:33.499Z</time>
      </trkpt>
      <trkpt lat="43.72755" lon="1.40442">
        <ele>180.716673</ele>
        <time>2022-05-27T16:11:35.500Z</time>
      </trkpt>
      <trkpt lat="43.72744" lon="1.40446">
        <ele>180.723891</ele>
        <time>2022-05-27T16:11:37.501Z</time>
      </trkpt>
      <trkpt lat="43.72732" lon="1.40451">
        <ele>180.73112</ele>
        <time>2022-05-27T16:11:39.519Z</time>
      </trkpt>
      <trkpt lat="43.7272" lon="1.40454">
        <ele>180.738154</ele>
        <time>2022-05-27T16:11:41.517Z</time>
      </trkpt>
      <trkpt lat="43.72709" lon="1.40457">
        <ele>180.745222</ele>
        <time>2022-05-27T16:11:43.506Z</time>
      </trkpt>
      <trkpt lat="43.72697" lon="1.40462">
        <ele>180.757507</ele>
        <time>2022-05-27T16:11:45.516Z</time>
      </trkpt>
      <trkpt lat="43.72686" lon="1.40465">
        <ele>180.778453</ele>
        <time>2022-05-27T16:11:47.500Z</time>
      </trkpt>
      <trkpt lat="43.72674" lon="1.4047">
        <ele>180.799698</ele>
        <time>2022-05-27T16:11:49.510Z</time>
      </trkpt>
      <trkpt lat="43.72663" lon="1.40475">
        <ele>180.820547</ele>
        <time>2022-05-27T16:11:51.509Z</time>
      </trkpt>
      <trkpt lat="43.72653" lon="1.40482">
        <ele>180.841904</ele>
        <time>2022-05-27T16:11:53.480Z</time>
      </trkpt>
      <trkpt lat="43.72642" lon="1.4049">
        <ele>180.863534</ele>
        <time>2022-05-27T16:11:55.502Z</time>
      </trkpt>
      <trkpt lat="43.72632" lon="1.40499">
        <ele>180.885224</ele>
        <time>2022-05-27T16:11:57.490Z</time>
      </trkpt>
      <trkpt lat="43.72622" lon="1.40508">
        <ele>180.906752</ele>
        <time>2022-05-27T16:11:59.470Z</time>
      </trkpt>
      <trkpt lat="43.72611" lon="1.40517">
        <ele>180.928501</ele>
        <time>2022-05-27T16:12:01.484Z</time>
      </trkpt>
      <trkpt lat="43.72601" lon="1.40527">
        <ele>180.950611</ele>
        <time>2022-05-27T16:12:03.504Z</time>
      </trkpt>
      <trkpt lat="43.72591" lon="1.40536">
        <ele>180.972942</ele>
        <time>2022-05-27T16:12:05.494Z</time>
      </trkpt>
      <trkpt lat="43.7258" lon="1.40546">
        <ele>180.995642</ele>
        <time>2022-05-27T16:12:07.501Z</time>
      </trkpt>
      <trkpt lat="43.72569" lon="1.40555">
        <ele>181.018712</ele>
        <time>2022-05-27T16:12:09.553Z</time>
      </trkpt>
      <trkpt lat="43.72557" lon="1.40562">
        <ele>181.04223</ele>
        <time>2022-05-27T16:12:11.498Z</time>
      </trkpt>
      <trkpt lat="43.72544" lon="1.40566">
        <ele>181.066076</ele>
        <time>2022-05-27T16:12:13.482Z</time>
      </trkpt>
      <trkpt lat="43.7253" lon="1.40569">
        <ele>181.100028</ele>
        <time>2022-05-27T16:12:15.513Z</time>
      </trkpt>
      <trkpt lat="43.72517" lon="1.40571">
        <ele>181.136278</ele>
        <time>2022-05-27T16:12:17.497Z</time>
      </trkpt>
      <trkpt lat="43.72504" lon="1.40574">
        <ele>181.172452</ele>
        <time>2022-05-27T16:12:19.509Z</time>
      </trkpt>
      <trkpt lat="43.72491" lon="1.40576">
        <ele>181.208163</ele>
        <time>2022-05-27T16:12:21.501Z</time>
      </trkpt>
      <trkpt lat="43.72479" lon="1.40581">
        <ele>181.243144</ele>
        <time>2022-05-27T16:12:23.506Z</time>
      </trkpt>
      <trkpt lat="43.72466" lon="1.40582">
        <ele>181.278016</ele>
        <time>2022-05-27T16:12:25.499Z</time>
      </trkpt>
      <trkpt lat="43.72453" lon="1.40583">
        <ele>181.313022</ele>
        <time>2022-05-27T16:12:27.496Z</time>
      </trkpt>
      <trkpt lat="43.7244" lon="1.40586">
        <ele>181.347655</ele>
        <time>2022-05-27T16:12:29.505Z</time>
      </trkpt>
      <trkpt lat="43.72428" lon="1.40588">
        <ele>181.381965</ele>
        <time>2022-05-27T16:12:31.507Z</time>
      </trkpt>
      <trkpt lat="43.72416" lon="1.40591">
        <ele>181.416088</ele>
        <time>2022-05-27T16:12:33.504Z</time>
      </trkpt>
      <trkpt lat="43.72403" lon="1.40593">
        <ele>181.449859</ele>
        <time>2022-05-27T16:12:35.512Z</time>
      </trkpt>
      <trkpt lat="43.72391" lon="1.40595">
        <ele>181.483579</ele>
        <time>2022-05-27T16:12:37.501Z</time>
      </trkpt>
      <trkpt lat="43.72379" lon="1.40597">
        <ele>181.516489</ele>
        <time>2022-05-27T16:12:39.516Z</time>
      </trkpt>
      <trkpt lat="43.72367" lon="1.406">
        <ele>181.5487</ele>
        <time>2022-05-27T16:12:41.504Z</time>
      </trkpt>
      <trkpt lat="43.72356" lon="1.40603">
        <ele>181.595761</ele>
        <time>2022-05-27T16:12:43.505Z</time>
      </trkpt>
      <trkpt lat="43.72344" lon="1.40606">
        <ele>181.650465</ele>
        <time>2022-05-27T16:12:45.527Z</time>
      </trkpt>
      <trkpt lat="43.72333" lon="1.40612">
        <ele>181.705974</ele>
        <time>2022-05-27T16:12:47.488Z</time>
      </trkpt>
      <trkpt lat="43.72322" lon="1.40618">
        <ele>181.761572</ele>
        <time>2022-05-27T16:12:49.494Z</time>
      </trkpt>
      <trkpt lat="43.72311" lon="1.40624">
        <ele>181.819174</ele>
        <time>2022-05-27T16:12:51.509Z</time>
      </trkpt>
      <trkpt lat="43.723" lon="1.40631">
        <ele>181.877013</ele>
        <time>2022-05-27T16:12:53.517Z</time>
      </trkpt>
      <trkpt lat="43.72288" lon="1.40638">
        <ele>181.935182</ele>
        <time>2022-05-27T16:12:55.502Z</time>
      </trkpt>
      <trkpt lat="43.72277" lon="1.40642">
        <ele>181.993564</ele>
        <time>2022-05-27T16:12:57.490Z</time>
      </trkpt>
      <trkpt lat="43.72264" lon="1.40645">
        <ele>182.051699</ele>
        <time>2022-05-27T16:12:59.513Z</time>
      </trkpt>
      <trkpt lat="43.72252" lon="1.40645">
        <ele>182.109726</ele>
        <time>2022-05-27T16:13:01.505Z</time>
      </trkpt>
      <trkpt lat="43.7224" lon="1.40641">
        <ele>182.16666</ele>
        <time>2022-05-27T16:13:03.501Z</time>
      </trkpt>
      <trkpt lat="43.72229" lon="1.40637">
        <ele>182.221316</ele>
        <time>2022-05-27T16:13:05.496Z</time>
      </trkpt>
      <trkpt lat="43.72217" lon="1.40634">
        <ele>182.278641</ele>
        <time>2022-05-27T16:13:07.505Z</time>
      </trkpt>
      <trkpt lat="43.72205" lon="1.40632">
        <ele>182.334725</ele>
        <time>2022-05-27T16:13:09.502Z</time>
      </trkpt>
      <trkpt lat="43.72193" lon="1.40632">
        <ele>182.391354</ele>
        <time>2022-05-27T16:13:11.509Z</time>
      </trkpt>
      <trkpt lat="43.72182" lon="1.40634">
        <ele>182.453792</ele>
        <time>2022-05-27T16:13:13.512Z</time>
      </trkpt>
      <trkpt lat="43.7217" lon="1.40637">
        <ele>182.519335</ele>
        <time>2022-05-27T16:13:15.507Z</time>
      </trkpt>
      <trkpt lat="43.72159" lon="1.40641">
        <ele>182.586294</ele>
        <time>2022-05-27T16:13:17.511Z</time>
      </trkpt>
      <trkpt lat="43.72147" lon="1.40644">
        <ele>182.651071</ele>
        <time>2022-05-27T16:13:19.497Z</time>
      </trkpt>
      <trkpt lat="43.72137" lon="1.40647">
        <ele>182.710285</ele>
        <time>2022-05-27T16:13:21.530Z</time>
      </trkpt>
      <trkpt lat="43.72126" lon="1.40651">
        <ele>182.774527</ele>
        <time>2022-05-27T16:13:23.513Z</time>
      </trkpt>
      <trkpt lat="43.72114" lon="1.40655">
        <ele>182.841462</ele>
        <time>2022-05-27T16:13:25.516Z</time>
      </trkpt>
      <trkpt lat="43.72103" lon="1.40661">
        <ele>182.908206</ele>
        <time>2022-05-27T16:13:27.499Z</time>
      </trkpt>
      <trkpt lat="43.72093" lon="1.4067">
        <ele>182.972082</ele>
        <time>2022-05-27T16:13:29.509Z</time>
      </trkpt>
      <trkpt lat="43.72084" lon="1.40677">
        <ele>183.032455</ele>
        <time>2022-05-27T16:13:31.528Z</time>
      </trkpt>
      <trkpt lat="43.72075" lon="1.40683">
        <ele>183.088911</ele>
        <time>2022-05-27T16:13:33.510Z</time>
      </trkpt>
      <trkpt lat="43.72066" lon="1.40687">
        <ele>183.141732</ele>
        <time>2022-05-27T16:13:35.513Z</time>
      </trkpt>
      <trkpt lat="43.72056" lon="1.4069">
        <ele>183.197678</ele>
        <time>2022-05-27T16:13:37.515Z</time>
      </trkpt>
      <trkpt lat="43.72046" lon="1.40692">
        <ele>183.254942</ele>
        <time>2022-05-27T16:13:39.501Z</time>
      </trkpt>
      <trkpt lat="43.72035" lon="1.40695">
        <ele>183.316483</ele>
        <time>2022-05-27T16:13:42.514Z</time>
      </trkpt>
      <trkpt lat="43.72026" lon="1.40696">
        <ele>183.368415</ele>
        <time>2022-05-27T16:13:51.502Z</time>
      </trkpt>
      <trkpt lat="43.72016" lon="1.40696">
        <ele>183.422305</ele>
        <time>2022-05-27T16:13:55.506Z</time>
      </trkpt>
      <trkpt lat="43.72007" lon="1.40692">
        <ele>183.475437</ele>
        <time>2022-05-27T16:13:58.483Z</time>
      </trkpt>
      <trkpt lat="43.71995" lon="1.40688">
        <ele>183.538354</ele>
        <time>2022-05-27T16:14:01.507Z</time>
      </trkpt>
      <trkpt lat="43.71986" lon="1.40686">
        <ele>183.585493</ele>
        <time>2022-05-27T16:14:03.514Z</time>
      </trkpt>
      <trkpt lat="43.71976" lon="1.40683">
        <ele>183.63679</ele>
        <time>2022-05-27T16:14:05.511Z</time>
      </trkpt>
      <trkpt lat="43.71966" lon="1.4068">
        <ele>183.690799</ele>
        <time>2022-05-27T16:14:07.501Z</time>
      </trkpt>
      <trkpt lat="43.71956" lon="1.40676">
        <ele>183.748376</ele>
        <time>2022-05-27T16:14:09.528Z</time>
      </trkpt>
      <trkpt lat="43.71944" lon="1.40673">
        <ele>183.810363</ele>
        <time>2022-05-27T16:14:11.492Z</time>
      </trkpt>
      <trkpt lat="43.71932" lon="1.40669">
        <ele>183.873526</ele>
        <time>2022-05-27T16:14:13.512Z</time>
      </trkpt>
      <trkpt lat="43.71921" lon="1.40666">
        <ele>183.934107</ele>
        <time>2022-05-27T16:14:15.517Z</time>
      </trkpt>
      <trkpt lat="43.71909" lon="1.40664">
        <ele>183.993972</ele>
        <time>2022-05-27T16:14:17.502Z</time>
      </trkpt>
      <trkpt lat="43.71898" lon="1.40661">
        <ele>184.052743</ele>
        <time>2022-05-27T16:14:19.488Z</time>
      </trkpt>
      <trkpt lat="43.71887" lon="1.40659">
        <ele>184.110249</ele>
        <time>2022-05-27T16:14:21.542Z</time>
      </trkpt>
      <trkpt lat="43.71877" lon="1.40657">
        <ele>184.16781</ele>
        <time>2022-05-27T16:14:23.520Z</time>
      </trkpt>
      <trkpt lat="43.71866" lon="1.40654">
        <ele>184.225316</ele>
        <time>2022-05-27T16:14:25.505Z</time>
      </trkpt>
      <trkpt lat="43.71855" lon="1.40652">
        <ele>184.282935</ele>
        <time>2022-05-27T16:14:27.504Z</time>
      </trkpt>
      <trkpt lat="43.71844" lon="1.4065">
        <ele>184.339354</ele>
        <time>2022-05-27T16:14:29.528Z</time>
      </trkpt>
      <trkpt lat="43.71835" lon="1.40649">
        <ele>184.293735</ele>
        <time>2022-05-27T16:14:31.521Z</time>
      </trkpt>
      <trkpt lat="43.71827" lon="1.4066">
        <ele>184.184123</ele>
        <time>2022-05-27T16:14:34.484Z</time>
      </trkpt>
      <trkpt lat="43.71819" lon="1.40674">
        <ele>184.05434</ele>
        <time>2022-05-27T16:14:37.492Z</time>
      </trkpt>
      <trkpt lat="43.71809" lon="1.40677">
        <ele>183.956489</ele>
        <time>2022-05-27T16:14:39.489Z</time>
      </trkpt>
      <trkpt lat="43.71799" lon="1.40674">
        <ele>183.855848</ele>
        <time>2022-05-27T16:14:41.498Z</time>
      </trkpt>
      <trkpt lat="43.71788" lon="1.40673">
        <ele>183.751562</ele>
        <time>2022-05-27T16:14:43.505Z</time>
      </trkpt>
      <trkpt lat="43.71779" lon="1.40682">
        <ele>183.635896</ele>
        <time>2022-05-27T16:14:45.500Z</time>
      </trkpt>
      <trkpt lat="43.71773" lon="1.40697">
        <ele>183.517412</ele>
        <time>2022-05-27T16:14:47.499Z</time>
      </trkpt>
      <trkpt lat="43.7177" lon="1.40713">
        <ele>183.396781</ele>
        <time>2022-05-27T16:14:49.475Z</time>
      </trkpt>
      <trkpt lat="43.71766" lon="1.40729">
        <ele>183.275238</ele>
        <time>2022-05-27T16:14:51.494Z</time>
      </trkpt>
      <trkpt lat="43.71762" lon="1.40745">
        <ele>183.153239</ele>
        <time>2022-05-27T16:14:53.511Z</time>
      </trkpt>
      <trkpt lat="43.71759" lon="1.40761">
        <ele>183.033291</ele>
        <time>2022-05-27T16:14:55.512Z</time>
      </trkpt>
      <trkpt lat="43.71755" lon="1.40777">
        <ele>182.916528</ele>
        <time>2022-05-27T16:14:57.503Z</time>
      </trkpt>
      <trkpt lat="43.71752" lon="1.40792">
        <ele>182.803021</ele>
        <time>2022-05-27T16:14:59.534Z</time>
      </trkpt>
      <trkpt lat="43.71748" lon="1.40807">
        <ele>182.690904</ele>
        <time>2022-05-27T16:15:01.502Z</time>
      </trkpt>
      <trkpt lat="43.71744" lon="1.40821">
        <ele>182.579454</ele>
        <time>2022-05-27T16:15:03.512Z</time>
      </trkpt>
      <trkpt lat="43.7174" lon="1.40836">
        <ele>182.642502</ele>
        <time>2022-05-27T16:15:05.491Z</time>
      </trkpt>
      <trkpt lat="43.71736" lon="1.4085">
        <ele>182.71477</ele>
        <time>2022-05-27T16:15:07.499Z</time>
      </trkpt>
      <trkpt lat="43.71731" lon="1.40864">
        <ele>182.787285</ele>
        <time>2022-05-27T16:15:09.504Z</time>
      </trkpt>
      <trkpt lat="43.71727" lon="1.40879">
        <ele>182.86062</ele>
        <time>2022-05-27T16:15:11.507Z</time>
      </trkpt>
      <trkpt lat="43.71723" lon="1.40894">
        <ele>182.934828</ele>
        <time>2022-05-27T16:15:13.503Z</time>
      </trkpt>
      <trkpt lat="43.71719" lon="1.40909">
        <ele>183.010434</ele>
        <time>2022-05-27T16:15:15.514Z</time>
      </trkpt>
      <trkpt lat="43.71714" lon="1.40923">
        <ele>183.085653</ele>
        <time>2022-05-27T16:15:17.508Z</time>
      </trkpt>
      <trkpt lat="43.71709" lon="1.40937">
        <ele>183.158903</ele>
        <time>2022-05-27T16:15:19.501Z</time>
      </trkpt>
      <trkpt lat="43.71704" lon="1.40951">
        <ele>183.230212</ele>
        <time>2022-05-27T16:15:21.524Z</time>
      </trkpt>
      <trkpt lat="43.71698" lon="1.40964">
        <ele>183.30278</ele>
        <time>2022-05-27T16:15:23.501Z</time>
      </trkpt>
      <trkpt lat="43.71689" lon="1.40974">
        <ele>183.376251</ele>
        <time>2022-05-27T16:15:25.500Z</time>
      </trkpt>
      <trkpt lat="43.7168" lon="1.40984">
        <ele>183.452777</ele>
        <time>2022-05-27T16:15:27.506Z</time>
      </trkpt>
      <trkpt lat="43.71671" lon="1.40993">
        <ele>183.526296</ele>
        <time>2022-05-27T16:15:29.515Z</time>
      </trkpt>
      <trkpt lat="43.71661" lon="1.41001">
        <ele>183.597188</ele>
        <time>2022-05-27T16:15:31.507Z</time>
      </trkpt>
      <trkpt lat="43.71651" lon="1.41006">
        <ele>183.667593</ele>
        <time>2022-05-27T16:15:33.501Z</time>
      </trkpt>
      <trkpt lat="43.7164" lon="1.4101">
        <ele>183.739556</ele>
        <time>2022-05-27T16:15:35.505Z</time>
      </trkpt>
      <trkpt lat="43.71629" lon="1.41015">
        <ele>183.757964</ele>
        <time>2022-05-27T16:15:37.487Z</time>
      </trkpt>
      <trkpt lat="43.71618" lon="1.41022">
        <ele>183.776705</ele>
        <time>2022-05-27T16:15:39.499Z</time>
      </trkpt>
      <trkpt lat="43.71608" lon="1.41026">
        <ele>183.794498</ele>
        <time>2022-05-27T16:15:41.498Z</time>
      </trkpt>
      <trkpt lat="43.71597" lon="1.41029">
        <ele>183.812661</ele>
        <time>2022-05-27T16:15:43.468Z</time>
      </trkpt>
      <trkpt lat="43.71585" lon="1.4103">
        <ele>183.830951</ele>
        <time>2022-05-27T16:15:45.498Z</time>
      </trkpt>
      <trkpt lat="43.71574" lon="1.41031">
        <ele>183.84935</ele>
        <time>2022-05-27T16:15:47.481Z</time>
      </trkpt>
      <trkpt lat="43.71562" lon="1.41032">
        <ele>183.867464</ele>
        <time>2022-05-27T16:15:49.484Z</time>
      </trkpt>
      <trkpt lat="43.71551" lon="1.41032">
        <ele>183.88635</ele>
        <time>2022-05-27T16:15:51.507Z</time>
      </trkpt>
      <trkpt lat="43.71539" lon="1.41033">
        <ele>183.90525</ele>
        <time>2022-05-27T16:15:53.508Z</time>
      </trkpt>
      <trkpt lat="43.71527" lon="1.41033">
        <ele>183.924136</ele>
        <time>2022-05-27T16:15:55.522Z</time>
      </trkpt>
      <trkpt lat="43.71516" lon="1.41034">
        <ele>183.94257</ele>
        <time>2022-05-27T16:15:57.479Z</time>
      </trkpt>
      <trkpt lat="43.71504" lon="1.41036">
        <ele>183.961011</ele>
        <time>2022-05-27T16:15:59.501Z</time>
      </trkpt>
      <trkpt lat="43.71492" lon="1.41036">
        <ele>183.979577</ele>
        <time>2022-05-27T16:16:01.488Z</time>
      </trkpt>
      <trkpt lat="43.71481" lon="1.41036">
        <ele>183.997978</ele>
        <time>2022-05-27T16:16:03.500Z</time>
      </trkpt>
      <trkpt lat="43.7147" lon="1.41037">
        <ele>184.015925</ele>
        <time>2022-05-27T16:16:05.499Z</time>
      </trkpt>
      <trkpt lat="43.71459" lon="1.41036">
        <ele>184.025679</ele>
        <time>2022-05-27T16:16:07.499Z</time>
      </trkpt>
      <trkpt lat="43.71448" lon="1.41036">
        <ele>184.023124</ele>
        <time>2022-05-27T16:16:09.497Z</time>
      </trkpt>
      <trkpt lat="43.71437" lon="1.41035">
        <ele>184.02045</ele>
        <time>2022-05-27T16:16:11.491Z</time>
      </trkpt>
      <trkpt lat="43.71426" lon="1.41035">
        <ele>184.0178</ele>
        <time>2022-05-27T16:16:13.481Z</time>
      </trkpt>
      <trkpt lat="43.71414" lon="1.41034">
        <ele>184.015124</ele>
        <time>2022-05-27T16:16:15.480Z</time>
      </trkpt>
      <trkpt lat="43.71403" lon="1.41033">
        <ele>184.012398</ele>
        <time>2022-05-27T16:16:17.495Z</time>
      </trkpt>
      <trkpt lat="43.71391" lon="1.41032">
        <ele>184.009674</ele>
        <time>2022-05-27T16:16:19.501Z</time>
      </trkpt>
      <trkpt lat="43.7138" lon="1.41032">
        <ele>184.006978</ele>
        <time>2022-05-27T16:16:21.498Z</time>
      </trkpt>
      <trkpt lat="43.71368" lon="1.41034">
        <ele>184.004232</ele>
        <time>2022-05-27T16:16:23.490Z</time>
      </trkpt>
      <trkpt lat="43.71357" lon="1.41037">
        <ele>184.001377</ele>
        <time>2022-05-27T16:16:25.492Z</time>
      </trkpt>
      <trkpt lat="43.71344" lon="1.41039">
        <ele>183.99847</ele>
        <time>2022-05-27T16:16:27.478Z</time>
      </trkpt>
      <trkpt lat="43.71332" lon="1.41042">
        <ele>183.995604</ele>
        <time>2022-05-27T16:16:29.494Z</time>
      </trkpt>
      <trkpt lat="43.71321" lon="1.41044">
        <ele>183.992807</ele>
        <time>2022-05-27T16:16:31.497Z</time>
      </trkpt>
      <trkpt lat="43.71309" lon="1.41045">
        <ele>183.990078</ele>
        <time>2022-05-27T16:16:33.529Z</time>
      </trkpt>
      <trkpt lat="43.71298" lon="1.41042">
        <ele>183.987423</ele>
        <time>2022-05-27T16:16:35.508Z</time>
      </trkpt>
      <trkpt lat="43.71287" lon="1.41039">
        <ele>183.98484</ele>
        <time>2022-05-27T16:16:37.505Z</time>
      </trkpt>
      <trkpt lat="43.71277" lon="1.41038">
        <ele>184.00318</ele>
        <time>2022-05-27T16:16:39.511Z</time>
      </trkpt>
      <trkpt lat="43.71265" lon="1.41038">
        <ele>184.030355</ele>
        <time>2022-05-27T16:16:41.504Z</time>
      </trkpt>
      <trkpt lat="43.71254" lon="1.41039">
        <ele>184.057558</ele>
        <time>2022-05-27T16:16:43.520Z</time>
      </trkpt>
      <trkpt lat="43.71243" lon="1.41041">
        <ele>184.085156</ele>
        <time>2022-05-27T16:16:45.505Z</time>
      </trkpt>
      <trkpt lat="43.71231" lon="1.41042">
        <ele>184.113016</ele>
        <time>2022-05-27T16:16:47.493Z</time>
      </trkpt>
      <trkpt lat="43.7122" lon="1.41045">
        <ele>184.140755</ele>
        <time>2022-05-27T16:16:49.503Z</time>
      </trkpt>
      <trkpt lat="43.71209" lon="1.41047">
        <ele>184.167268</ele>
        <time>2022-05-27T16:16:51.510Z</time>
      </trkpt>
      <trkpt lat="43.71198" lon="1.41048">
        <ele>184.193729</ele>
        <time>2022-05-27T16:16:53.481Z</time>
      </trkpt>
      <trkpt lat="43.71187" lon="1.41047">
        <ele>184.221167</ele>
        <time>2022-05-27T16:16:55.481Z</time>
      </trkpt>
      <trkpt lat="43.71176" lon="1.41046">
        <ele>184.248453</ele>
        <time>2022-05-27T16:16:57.485Z</time>
      </trkpt>
      <trkpt lat="43.71165" lon="1.41044">
        <ele>184.27559</ele>
        <time>2022-05-27T16:16:59.492Z</time>
      </trkpt>
      <trkpt lat="43.71153" lon="1.41042">
        <ele>184.30341</ele>
        <time>2022-05-27T16:17:01.491Z</time>
      </trkpt>
      <trkpt lat="43.71142" lon="1.41041">
        <ele>184.330923</ele>
        <time>2022-05-27T16:17:03.498Z</time>
      </trkpt>
      <trkpt lat="43.71131" lon="1.41041">
        <ele>184.358342</ele>
        <time>2022-05-27T16:17:05.473Z</time>
      </trkpt>
      <trkpt lat="43.7112" lon="1.41041">
        <ele>184.385517</ele>
        <time>2022-05-27T16:17:07.503Z</time>
      </trkpt>
      <trkpt lat="43.71109" lon="1.41041">
        <ele>184.41245</ele>
        <time>2022-05-27T16:17:09.503Z</time>
      </trkpt>
      <trkpt lat="43.71098" lon="1.4104">
        <ele>184.432727</ele>
        <time>2022-05-27T16:17:11.502Z</time>
      </trkpt>
      <trkpt lat="43.71087" lon="1.41041">
        <ele>184.450081</ele>
        <time>2022-05-27T16:17:13.521Z</time>
      </trkpt>
      <trkpt lat="43.71076" lon="1.41043">
        <ele>184.467807</ele>
        <time>2022-05-27T16:17:15.493Z</time>
      </trkpt>
      <trkpt lat="43.71064" lon="1.41044">
        <ele>184.485691</ele>
        <time>2022-05-27T16:17:17.496Z</time>
      </trkpt>
      <trkpt lat="43.71053" lon="1.41045">
        <ele>184.503398</ele>
        <time>2022-05-27T16:17:19.503Z</time>
      </trkpt>
      <trkpt lat="43.71042" lon="1.41047">
        <ele>184.521441</ele>
        <time>2022-05-27T16:17:21.486Z</time>
      </trkpt>
      <trkpt lat="43.71031" lon="1.41048">
        <ele>184.539474</ele>
        <time>2022-05-27T16:17:23.490Z</time>
      </trkpt>
      <trkpt lat="43.71019" lon="1.4105">
        <ele>184.557709</ele>
        <time>2022-05-27T16:17:25.499Z</time>
      </trkpt>
      <trkpt lat="43.71008" lon="1.41051">
        <ele>184.576069</ele>
        <time>2022-05-27T16:17:27.470Z</time>
      </trkpt>
      <trkpt lat="43.70996" lon="1.41052">
        <ele>184.594587</ele>
        <time>2022-05-27T16:17:29.528Z</time>
      </trkpt>
      <trkpt lat="43.70984" lon="1.41054">
        <ele>184.613309</ele>
        <time>2022-05-27T16:17:31.498Z</time>
      </trkpt>
      <trkpt lat="43.70973" lon="1.41056">
        <ele>184.632103</ele>
        <time>2022-05-27T16:17:33.498Z</time>
      </trkpt>
      <trkpt lat="43.70961" lon="1.41059">
        <ele>184.651717</ele>
        <time>2022-05-27T16:17:35.518Z</time>
      </trkpt>
      <trkpt lat="43.70949" lon="1.41063">
        <ele>184.671269</ele>
        <time>2022-05-27T16:17:37.515Z</time>
      </trkpt>
      <trkpt lat="43.70937" lon="1.41065">
        <ele>184.69019</ele>
        <time>2022-05-27T16:17:39.524Z</time>
      </trkpt>
      <trkpt lat="43.70926" lon="1.41068">
        <ele>184.706971</ele>
        <time>2022-05-27T16:17:41.508Z</time>
      </trkpt>
      <trkpt lat="43.70914" lon="1.41068">
        <ele>184.711031</ele>
        <time>2022-05-27T16:17:43.504Z</time>
      </trkpt>
      <trkpt lat="43.70903" lon="1.41071">
        <ele>184.715124</ele>
        <time>2022-05-27T16:17:45.502Z</time>
      </trkpt>
      <trkpt lat="43.70892" lon="1.41072">
        <ele>184.719256</ele>
        <time>2022-05-27T16:17:47.489Z</time>
      </trkpt>
      <trkpt lat="43.70881" lon="1.41071">
        <ele>184.723313</ele>
        <time>2022-05-27T16:17:49.490Z</time>
      </trkpt>
      <trkpt lat="43.7087" lon="1.4107">
        <ele>184.727417</ele>
        <time>2022-05-27T16:17:51.496Z</time>
      </trkpt>
      <trkpt lat="43.70858" lon="1.41067">
        <ele>184.731653</ele>
        <time>2022-05-27T16:17:53.502Z</time>
      </trkpt>
      <trkpt lat="43.70847" lon="1.41064">
        <ele>184.735981</ele>
        <time>2022-05-27T16:17:55.486Z</time>
      </trkpt>
      <trkpt lat="43.70835" lon="1.41062">
        <ele>184.740257</ele>
        <time>2022-05-27T16:17:57.493Z</time>
      </trkpt>
      <trkpt lat="43.70824" lon="1.41062">
        <ele>184.744496</ele>
        <time>2022-05-27T16:17:59.484Z</time>
      </trkpt>
      <trkpt lat="43.70812" lon="1.41062">
        <ele>184.748775</ele>
        <time>2022-05-27T16:18:01.488Z</time>
      </trkpt>
      <trkpt lat="43.708" lon="1.41064">
        <ele>184.753038</ele>
        <time>2022-05-27T16:18:03.502Z</time>
      </trkpt>
      <trkpt lat="43.70789" lon="1.41067">
        <ele>184.757405</ele>
        <time>2022-05-27T16:18:05.482Z</time>
      </trkpt>
      <trkpt lat="43.70777" lon="1.41069">
        <ele>184.761848</ele>
        <time>2022-05-27T16:18:07.505Z</time>
      </trkpt>
      <trkpt lat="43.70764" lon="1.41072">
        <ele>184.766377</ele>
        <time>2022-05-27T16:18:09.508Z</time>
      </trkpt>
      <trkpt lat="43.70752" lon="1.41074">
        <ele>184.770749</ele>
        <time>2022-05-27T16:18:11.472Z</time>
      </trkpt>
      <trkpt lat="43.70741" lon="1.41075">
        <ele>184.790125</ele>
        <time>2022-05-27T16:18:13.506Z</time>
      </trkpt>
      <trkpt lat="43.70729" lon="1.41076">
        <ele>184.81868</ele>
        <time>2022-05-27T16:18:15.483Z</time>
      </trkpt>
      <trkpt lat="43.70716" lon="1.41077">
        <ele>184.847914</ele>
        <time>2022-05-27T16:18:17.502Z</time>
      </trkpt>
      <trkpt lat="43.70704" lon="1.41077">
        <ele>184.8769</ele>
        <time>2022-05-27T16:18:19.485Z</time>
      </trkpt>
      <trkpt lat="43.70692" lon="1.41077">
        <ele>184.905414</ele>
        <time>2022-05-27T16:18:21.506Z</time>
      </trkpt>
      <trkpt lat="43.7068" lon="1.41077">
        <ele>184.932986</ele>
        <time>2022-05-27T16:18:23.517Z</time>
      </trkpt>
      <trkpt lat="43.70668" lon="1.41076">
        <ele>184.960566</ele>
        <time>2022-05-27T16:18:25.505Z</time>
      </trkpt>
      <trkpt lat="43.70657" lon="1.41074">
        <ele>184.987625</ele>
        <time>2022-05-27T16:18:27.481Z</time>
      </trkpt>
      <trkpt lat="43.70646" lon="1.41072">
        <ele>185.014308</ele>
        <time>2022-05-27T16:18:29.502Z</time>
      </trkpt>
      <trkpt lat="43.70634" lon="1.4107">
        <ele>185.041059</ele>
        <time>2022-05-27T16:18:31.498Z</time>
      </trkpt>
      <trkpt lat="43.70623" lon="1.4107">
        <ele>185.068164</ele>
        <time>2022-05-27T16:18:33.492Z</time>
      </trkpt>
      <trkpt lat="43.70612" lon="1.41072">
        <ele>185.095135</ele>
        <time>2022-05-27T16:18:35.497Z</time>
      </trkpt>
      <trkpt lat="43.706" lon="1.41074">
        <ele>185.121536</ele>
        <time>2022-05-27T16:18:37.514Z</time>
      </trkpt>
      <trkpt lat="43.70589" lon="1.41074">
        <ele>185.148874</ele>
        <time>2022-05-27T16:18:39.508Z</time>
      </trkpt>
      <trkpt lat="43.70578" lon="1.41075">
        <ele>185.175609</ele>
        <time>2022-05-27T16:18:41.510Z</time>
      </trkpt>
      <trkpt lat="43.70566" lon="1.41077">
        <ele>185.202857</ele>
        <time>2022-05-27T16:18:43.494Z</time>
      </trkpt>
      <trkpt lat="43.70555" lon="1.41079">
        <ele>185.229084</ele>
        <time>2022-05-27T16:18:45.506Z</time>
      </trkpt>
      <trkpt lat="43.70543" lon="1.4108">
        <ele>185.254857</ele>
        <time>2022-05-27T16:18:47.488Z</time>
      </trkpt>
      <trkpt lat="43.70532" lon="1.41082">
        <ele>185.280422</ele>
        <time>2022-05-27T16:18:49.493Z</time>
      </trkpt>
      <trkpt lat="43.70521" lon="1.41085">
        <ele>185.307031</ele>
        <time>2022-05-27T16:18:51.510Z</time>
      </trkpt>
      <trkpt lat="43.7051" lon="1.41088">
        <ele>185.332822</ele>
        <time>2022-05-27T16:18:53.516Z</time>
      </trkpt>
      <trkpt lat="43.70498" lon="1.41088">
        <ele>185.359826</ele>
        <time>2022-05-27T16:18:55.508Z</time>
      </trkpt>
      <trkpt lat="43.70485" lon="1.41091">
        <ele>185.388996</ele>
        <time>2022-05-27T16:18:57.513Z</time>
      </trkpt>
      <trkpt lat="43.70473" lon="1.41094">
        <ele>185.417349</ele>
        <time>2022-05-27T16:18:59.499Z</time>
      </trkpt>
      <trkpt lat="43.70462" lon="1.41096">
        <ele>185.442826</ele>
        <time>2022-05-27T16:19:01.498Z</time>
      </trkpt>
      <trkpt lat="43.70451" lon="1.41098">
        <ele>185.46763</ele>
        <time>2022-05-27T16:19:03.508Z</time>
      </trkpt>
      <trkpt lat="43.7044" lon="1.41101">
        <ele>185.493547</ele>
        <time>2022-05-27T16:19:05.484Z</time>
      </trkpt>
      <trkpt lat="43.70429" lon="1.41105">
        <ele>185.51957</ele>
        <time>2022-05-27T16:19:07.472Z</time>
      </trkpt>
      <trkpt lat="43.70418" lon="1.41109">
        <ele>185.545486</ele>
        <time>2022-05-27T16:19:09.493Z</time>
      </trkpt>
      <trkpt lat="43.70407" lon="1.41113">
        <ele>185.572099</ele>
        <time>2022-05-27T16:19:11.491Z</time>
      </trkpt>
      <trkpt lat="43.70396" lon="1.41118">
        <ele>185.599426</ele>
        <time>2022-05-27T16:19:13.505Z</time>
      </trkpt>
      <trkpt lat="43.70385" lon="1.41124">
        <ele>185.613887</ele>
        <time>2022-05-27T16:19:15.496Z</time>
      </trkpt>
      <trkpt lat="43.70374" lon="1.41131">
        <ele>185.623334</ele>
        <time>2022-05-27T16:19:17.521Z</time>
      </trkpt>
      <trkpt lat="43.70364" lon="1.41138">
        <ele>185.632493</ele>
        <time>2022-05-27T16:19:19.504Z</time>
      </trkpt>
      <trkpt lat="43.70354" lon="1.41146">
        <ele>185.641783</ele>
        <time>2022-05-27T16:19:21.486Z</time>
      </trkpt>
      <trkpt lat="43.70343" lon="1.41154">
        <ele>185.651057</ele>
        <time>2022-05-27T16:19:23.540Z</time>
      </trkpt>
      <trkpt lat="43.70333" lon="1.41162">
        <ele>185.660463</ele>
        <time>2022-05-27T16:19:25.510Z</time>
      </trkpt>
      <trkpt lat="43.70323" lon="1.41172">
        <ele>185.670148</ele>
        <time>2022-05-27T16:19:27.503Z</time>
      </trkpt>
      <trkpt lat="43.70314" lon="1.41182">
        <ele>185.679711</ele>
        <time>2022-05-27T16:19:29.496Z</time>
      </trkpt>
      <trkpt lat="43.70305" lon="1.41192">
        <ele>185.68905</ele>
        <time>2022-05-27T16:19:31.505Z</time>
      </trkpt>
      <trkpt lat="43.70297" lon="1.41204">
        <ele>185.698288</ele>
        <time>2022-05-27T16:19:33.491Z</time>
      </trkpt>
      <trkpt lat="43.70288" lon="1.41215">
        <ele>185.707469</ele>
        <time>2022-05-27T16:19:35.513Z</time>
      </trkpt>
      <trkpt lat="43.7028" lon="1.41227">
        <ele>185.71672</ele>
        <time>2022-05-27T16:19:37.498Z</time>
      </trkpt>
      <trkpt lat="43.70272" lon="1.41238">
        <ele>185.726112</ele>
        <time>2022-05-27T16:19:39.511Z</time>
      </trkpt>
      <trkpt lat="43.70264" lon="1.41249">
        <ele>185.735447</ele>
        <time>2022-05-27T16:19:41.508Z</time>
      </trkpt>
      <trkpt lat="43.70256" lon="1.41261">
        <ele>185.744547</ele>
        <time>2022-05-27T16:19:43.480Z</time>
      </trkpt>
      <trkpt lat="43.70248" lon="1.41272">
        <ele>185.767956</ele>
        <time>2022-05-27T16:19:45.502Z</time>
      </trkpt>
      <trkpt lat="43.7024" lon="1.41282">
        <ele>185.824417</ele>
        <time>2022-05-27T16:19:47.503Z</time>
      </trkpt>
      <trkpt lat="43.70231" lon="1.41293">
        <ele>185.883458</ele>
        <time>2022-05-27T16:19:49.518Z</time>
      </trkpt>
      <trkpt lat="43.70223" lon="1.41305">
        <ele>185.943368</ele>
        <time>2022-05-27T16:19:51.517Z</time>
      </trkpt>
      <trkpt lat="43.70214" lon="1.41316">
        <ele>186.003147</ele>
        <time>2022-05-27T16:19:53.514Z</time>
      </trkpt>
      <trkpt lat="43.70205" lon="1.41327">
        <ele>186.063918</ele>
        <time>2022-05-27T16:19:55.517Z</time>
      </trkpt>
      <trkpt lat="43.70196" lon="1.41338">
        <ele>186.124394</ele>
        <time>2022-05-27T16:19:57.492Z</time>
      </trkpt>
      <trkpt lat="43.70187" lon="1.41349">
        <ele>186.184792</ele>
        <time>2022-05-27T16:19:59.487Z</time>
      </trkpt>
      <trkpt lat="43.70178" lon="1.4136">
        <ele>186.243835</ele>
        <time>2022-05-27T16:20:01.500Z</time>
      </trkpt>
      <trkpt lat="43.70169" lon="1.4137">
        <ele>186.303538</ele>
        <time>2022-05-27T16:20:03.498Z</time>
      </trkpt>
      <trkpt lat="43.7016" lon="1.4138">
        <ele>186.36281</ele>
        <time>2022-05-27T16:20:05.501Z</time>
      </trkpt>
      <trkpt lat="43.7015" lon="1.41389">
        <ele>186.420967</ele>
        <time>2022-05-27T16:20:07.506Z</time>
      </trkpt>
      <trkpt lat="43.70142" lon="1.41398">
        <ele>186.474141</ele>
        <time>2022-05-27T16:20:09.504Z</time>
      </trkpt>
      <trkpt lat="43.70134" lon="1.41405">
        <ele>186.521535</ele>
        <time>2022-05-27T16:20:11.515Z</time>
      </trkpt>
      <trkpt lat="43.70126" lon="1.41415">
        <ele>186.577916</ele>
        <time>2022-05-27T16:20:14.509Z</time>
      </trkpt>
      <trkpt lat="43.70117" lon="1.41425">
        <ele>186.6351</ele>
        <time>2022-05-27T16:20:18.505Z</time>
      </trkpt>
      <trkpt lat="43.7011" lon="1.41436">
        <ele>186.681561</ele>
        <time>2022-05-27T16:20:22.507Z</time>
      </trkpt>
      <trkpt lat="43.70102" lon="1.41448">
        <ele>186.725722</ele>
        <time>2022-05-27T16:20:26.492Z</time>
      </trkpt>
      <trkpt lat="43.70092" lon="1.4146">
        <ele>186.772687</ele>
        <time>2022-05-27T16:20:29.491Z</time>
      </trkpt>
      <trkpt lat="43.70085" lon="1.4147">
        <ele>186.811103</ele>
        <time>2022-05-27T16:20:31.501Z</time>
      </trkpt>
      <trkpt lat="43.70077" lon="1.41481">
        <ele>186.853792</ele>
        <time>2022-05-27T16:20:33.514Z</time>
      </trkpt>
      <trkpt lat="43.70069" lon="1.41492">
        <ele>186.896747</ele>
        <time>2022-05-27T16:20:35.507Z</time>
      </trkpt>
      <trkpt lat="43.70059" lon="1.41502">
        <ele>186.94087</ele>
        <time>2022-05-27T16:20:37.493Z</time>
      </trkpt>
      <trkpt lat="43.70051" lon="1.41513">
        <ele>186.983372</ele>
        <time>2022-05-27T16:20:39.511Z</time>
      </trkpt>
      <trkpt lat="43.70042" lon="1.41523">
        <ele>187.026721</ele>
        <time>2022-05-27T16:20:41.495Z</time>
      </trkpt>
      <trkpt lat="43.70033" lon="1.41533">
        <ele>187.069599</ele>
        <time>2022-05-27T16:20:43.499Z</time>
      </trkpt>
      <trkpt lat="43.70023" lon="1.41542">
        <ele>187.112901</ele>
        <time>2022-05-27T16:20:45.504Z</time>
      </trkpt>
      <trkpt lat="43.70014" lon="1.41551">
        <ele>187.156216</ele>
        <time>2022-05-27T16:20:47.505Z</time>
      </trkpt>
      <trkpt lat="43.70005" lon="1.41563">
        <ele>187.199547</ele>
        <time>2022-05-27T16:20:49.510Z</time>
      </trkpt>
      <trkpt lat="43.69998" lon="1.41575">
        <ele>187.241288</ele>
        <time>2022-05-27T16:20:51.502Z</time>
      </trkpt>
      <trkpt lat="43.69991" lon="1.41586">
        <ele>187.282353</ele>
        <time>2022-05-27T16:20:53.510Z</time>
      </trkpt>
      <trkpt lat="43.69983" lon="1.41597">
        <ele>187.32483</ele>
        <time>2022-05-27T16:20:55.498Z</time>
      </trkpt>
      <trkpt lat="43.69974" lon="1.41609">
        <ele>187.329516</ele>
        <time>2022-05-27T16:20:57.502Z</time>
      </trkpt>
      <trkpt lat="43.69966" lon="1.4162">
        <ele>187.330621</ele>
        <time>2022-05-27T16:20:59.500Z</time>
      </trkpt>
      <trkpt lat="43.69957" lon="1.41631">
        <ele>187.331717</ele>
        <time>2022-05-27T16:21:01.524Z</time>
      </trkpt>
      <trkpt lat="43.69948" lon="1.41641">
        <ele>187.332796</ele>
        <time>2022-05-27T16:21:03.500Z</time>
      </trkpt>
      <trkpt lat="43.69939" lon="1.4165">
        <ele>187.333874</ele>
        <time>2022-05-27T16:21:05.486Z</time>
      </trkpt>
      <trkpt lat="43.6993" lon="1.4166">
        <ele>187.334945</ele>
        <time>2022-05-27T16:21:07.504Z</time>
      </trkpt>
      <trkpt lat="43.6992" lon="1.4167">
        <ele>187.336027</ele>
        <time>2022-05-27T16:21:09.482Z</time>
      </trkpt>
      <trkpt lat="43.69911" lon="1.4168">
        <ele>187.337132</ele>
        <time>2022-05-27T16:21:11.508Z</time>
      </trkpt>
      <trkpt lat="43.69902" lon="1.4169">
        <ele>187.338248</ele>
        <time>2022-05-27T16:21:13.500Z</time>
      </trkpt>
      <trkpt lat="43.69892" lon="1.41701">
        <ele>187.339372</ele>
        <time>2022-05-27T16:21:15.504Z</time>
      </trkpt>
      <trkpt lat="43.69883" lon="1.41711">
        <ele>187.340492</ele>
        <time>2022-05-27T16:21:17.489Z</time>
      </trkpt>
      <trkpt lat="43.69874" lon="1.41723">
        <ele>187.341617</ele>
        <time>2022-05-27T16:21:19.504Z</time>
      </trkpt>
      <trkpt lat="43.69865" lon="1.41734">
        <ele>187.342729</ele>
        <time>2022-05-27T16:21:21.509Z</time>
      </trkpt>
      <trkpt lat="43.69857" lon="1.41745">
        <ele>187.34383</ele>
        <time>2022-05-27T16:21:23.492Z</time>
      </trkpt>
      <trkpt lat="43.69848" lon="1.41756">
        <ele>187.344934</ele>
        <time>2022-05-27T16:21:25.509Z</time>
      </trkpt>
      <trkpt lat="43.69839" lon="1.41768">
        <ele>187.373147</ele>
        <time>2022-05-27T16:21:27.506Z</time>
      </trkpt>
      <trkpt lat="43.69831" lon="1.41779">
        <ele>187.413044</ele>
        <time>2022-05-27T16:21:29.510Z</time>
      </trkpt>
      <trkpt lat="43.69822" lon="1.4179">
        <ele>187.452876</ele>
        <time>2022-05-27T16:21:31.496Z</time>
      </trkpt>
      <trkpt lat="43.69813" lon="1.418">
        <ele>187.491159</ele>
        <time>2022-05-27T16:21:33.503Z</time>
      </trkpt>
      <trkpt lat="43.69804" lon="1.4181">
        <ele>187.527801</ele>
        <time>2022-05-27T16:21:35.515Z</time>
      </trkpt>
      <trkpt lat="43.69797" lon="1.41819">
        <ele>187.560994</ele>
        <time>2022-05-27T16:21:37.494Z</time>
      </trkpt>
      <trkpt lat="43.6979" lon="1.41828">
        <ele>187.593026</ele>
        <time>2022-05-27T16:21:39.512Z</time>
      </trkpt>
      <trkpt lat="43.69782" lon="1.41838">
        <ele>187.628188</ele>
        <time>2022-05-27T16:21:41.495Z</time>
      </trkpt>
      <trkpt lat="43.69774" lon="1.41849">
        <ele>187.667517</ele>
        <time>2022-05-27T16:21:43.476Z</time>
      </trkpt>
      <trkpt lat="43.69765" lon="1.41859">
        <ele>187.706687</ele>
        <time>2022-05-27T16:21:45.494Z</time>
      </trkpt>
      <trkpt lat="43.69755" lon="1.41869">
        <ele>187.745771</ele>
        <time>2022-05-27T16:21:47.487Z</time>
      </trkpt>
      <trkpt lat="43.69746" lon="1.41879">
        <ele>187.784855</ele>
        <time>2022-05-27T16:21:49.477Z</time>
      </trkpt>
      <trkpt lat="43.69737" lon="1.41889">
        <ele>187.824121</ele>
        <time>2022-05-27T16:21:51.487Z</time>
      </trkpt>
      <trkpt lat="43.69728" lon="1.41899">
        <ele>187.863171</ele>
        <time>2022-05-27T16:21:53.500Z</time>
      </trkpt>
      <trkpt lat="43.69719" lon="1.41909">
        <ele>187.901399</ele>
        <time>2022-05-27T16:21:55.508Z</time>
      </trkpt>
      <trkpt lat="43.6971" lon="1.41919">
        <ele>187.939472</ele>
        <time>2022-05-27T16:21:57.508Z</time>
      </trkpt>
      <trkpt lat="43.69702" lon="1.41929">
        <ele>187.953277</ele>
        <time>2022-05-27T16:21:59.494Z</time>
      </trkpt>
      <trkpt lat="43.69693" lon="1.4194">
        <ele>187.96162</ele>
        <time>2022-05-27T16:22:01.502Z</time>
      </trkpt>
      <trkpt lat="43.69684" lon="1.4195">
        <ele>187.96985</ele>
        <time>2022-05-27T16:22:03.486Z</time>
      </trkpt>
      <trkpt lat="43.69675" lon="1.4196">
        <ele>187.978136</ele>
        <time>2022-05-27T16:22:05.499Z</time>
      </trkpt>
      <trkpt lat="43.69666" lon="1.4197">
        <ele>187.986466</ele>
        <time>2022-05-27T16:22:07.505Z</time>
      </trkpt>
      <trkpt lat="43.69658" lon="1.4198">
        <ele>187.994809</ele>
        <time>2022-05-27T16:22:09.500Z</time>
      </trkpt>
      <trkpt lat="43.69649" lon="1.41991">
        <ele>188.00333</ele>
        <time>2022-05-27T16:22:11.515Z</time>
      </trkpt>
      <trkpt lat="43.6964" lon="1.42001">
        <ele>188.011831</ele>
        <time>2022-05-27T16:22:13.486Z</time>
      </trkpt>
      <trkpt lat="43.69631" lon="1.42013">
        <ele>188.020472</ele>
        <time>2022-05-27T16:22:15.488Z</time>
      </trkpt>
      <trkpt lat="43.69622" lon="1.42024">
        <ele>188.029575</ele>
        <time>2022-05-27T16:22:17.481Z</time>
      </trkpt>
      <trkpt lat="43.69612" lon="1.42037">
        <ele>188.03923</ele>
        <time>2022-05-27T16:22:19.492Z</time>
      </trkpt>
      <trkpt lat="43.69603" lon="1.4205">
        <ele>188.049066</ele>
        <time>2022-05-27T16:22:21.478Z</time>
      </trkpt>
      <trkpt lat="43.69594" lon="1.42064">
        <ele>188.058685</ele>
        <time>2022-05-27T16:22:23.482Z</time>
      </trkpt>
      <trkpt lat="43.69585" lon="1.42078">
        <ele>188.068241</ele>
        <time>2022-05-27T16:22:25.480Z</time>
      </trkpt>
      <trkpt lat="43.69576" lon="1.4209">
        <ele>188.087059</ele>
        <time>2022-05-27T16:22:27.493Z</time>
      </trkpt>
      <trkpt lat="43.69566" lon="1.42102">
        <ele>188.219151</ele>
        <time>2022-05-27T16:22:29.481Z</time>
      </trkpt>
      <trkpt lat="43.69556" lon="1.42113">
        <ele>188.343519</ele>
        <time>2022-05-27T16:22:31.489Z</time>
      </trkpt>
      <trkpt lat="43.69548" lon="1.42123">
        <ele>188.453091</ele>
        <time>2022-05-27T16:22:33.491Z</time>
      </trkpt>
      <trkpt lat="43.69538" lon="1.42133">
        <ele>188.57149</ele>
        <time>2022-05-27T16:22:36.494Z</time>
      </trkpt>
      <trkpt lat="43.69531" lon="1.42141">
        <ele>188.664422</ele>
        <time>2022-05-27T16:22:39.488Z</time>
      </trkpt>
      <trkpt lat="43.69524" lon="1.42149">
        <ele>188.758588</ele>
        <time>2022-05-27T16:22:43.476Z</time>
      </trkpt>
      <trkpt lat="43.69517" lon="1.42158">
        <ele>188.849979</ele>
        <time>2022-05-27T16:22:51.497Z</time>
      </trkpt>
      <trkpt lat="43.6951" lon="1.42168">
        <ele>188.952302</ele>
        <time>2022-05-27T16:22:56.498Z</time>
      </trkpt>
      <trkpt lat="43.69502" lon="1.4218">
        <ele>189.06999</ele>
        <time>2022-05-27T16:22:59.494Z</time>
      </trkpt>
      <trkpt lat="43.69496" lon="1.42191">
        <ele>189.17292</ele>
        <time>2022-05-27T16:23:01.487Z</time>
      </trkpt>
      <trkpt lat="43.69488" lon="1.42202">
        <ele>189.282089</ele>
        <time>2022-05-27T16:23:03.478Z</time>
      </trkpt>
      <trkpt lat="43.6948" lon="1.42212">
        <ele>189.392894</ele>
        <time>2022-05-27T16:23:05.486Z</time>
      </trkpt>
      <trkpt lat="43.69471" lon="1.42222">
        <ele>189.50824</ele>
        <time>2022-05-27T16:23:07.470Z</time>
      </trkpt>
      <trkpt lat="43.69463" lon="1.42234">
        <ele>189.629746</ele>
        <time>2022-05-27T16:23:09.479Z</time>
      </trkpt>
      <trkpt lat="43.69456" lon="1.42249">
        <ele>189.759607</ele>
        <time>2022-05-27T16:23:11.478Z</time>
      </trkpt>
      <trkpt lat="43.69447" lon="1.42263">
        <ele>189.880436</ele>
        <time>2022-05-27T16:23:13.477Z</time>
      </trkpt>
      <trkpt lat="43.69438" lon="1.42276">
        <ele>189.908633</ele>
        <time>2022-05-27T16:23:15.476Z</time>
      </trkpt>
      <trkpt lat="43.69429" lon="1.42289">
        <ele>189.93735</ele>
        <time>2022-05-27T16:23:17.490Z</time>
      </trkpt>
      <trkpt lat="43.6942" lon="1.42302">
        <ele>189.965659</ele>
        <time>2022-05-27T16:23:19.491Z</time>
      </trkpt>
      <trkpt lat="43.69411" lon="1.42315">
        <ele>189.993039</ele>
        <time>2022-05-27T16:23:21.498Z</time>
      </trkpt>
      <trkpt lat="43.69403" lon="1.42327">
        <ele>190.017887</ele>
        <time>2022-05-27T16:23:23.472Z</time>
      </trkpt>
      <trkpt lat="43.69396" lon="1.42338">
        <ele>190.041176</ele>
        <time>2022-05-27T16:23:25.481Z</time>
      </trkpt>
      <trkpt lat="43.69388" lon="1.4235">
        <ele>190.06565</ele>
        <time>2022-05-27T16:23:27.465Z</time>
      </trkpt>
      <trkpt lat="43.6938" lon="1.42362">
        <ele>190.091358</ele>
        <time>2022-05-27T16:23:29.478Z</time>
      </trkpt>
      <trkpt lat="43.69372" lon="1.42375">
        <ele>190.118627</ele>
        <time>2022-05-27T16:23:31.499Z</time>
      </trkpt>
      <trkpt lat="43.69364" lon="1.42389">
        <ele>190.145802</ele>
        <time>2022-05-27T16:23:33.498Z</time>
      </trkpt>
      <trkpt lat="43.69358" lon="1.42403">
        <ele>190.171474</ele>
        <time>2022-05-27T16:23:35.497Z</time>
      </trkpt>
      <trkpt lat="43.69351" lon="1.42416">
        <ele>190.196129</ele>
        <time>2022-05-27T16:23:37.475Z</time>
      </trkpt>
      <trkpt lat="43.69345" lon="1.42428">
        <ele>190.219398</ele>
        <time>2022-05-27T16:23:39.486Z</time>
      </trkpt>
      <trkpt lat="43.6934" lon="1.4244">
        <ele>190.240654</ele>
        <time>2022-05-27T16:23:41.479Z</time>
      </trkpt>
      <trkpt lat="43.69335" lon="1.42451">
        <ele>190.260596</ele>
        <time>2022-05-27T16:23:43.480Z</time>
      </trkpt>
      <trkpt lat="43.69328" lon="1.42466">
        <ele>190.271007</ele>
        <time>2022-05-27T16:23:46.473Z</time>
      </trkpt>
      <trkpt lat="43.69321" lon="1.42478">
        <ele>190.278465</ele>
        <time>2022-05-27T16:23:49.506Z</time>
      </trkpt>
      <trkpt lat="43.69314" lon="1.42494">
        <ele>190.286863</ele>
        <time>2022-05-27T16:23:52.491Z</time>
      </trkpt>
      <trkpt lat="43.69307" lon="1.42507">
        <ele>190.294095</ele>
        <time>2022-05-27T16:23:54.502Z</time>
      </trkpt>
      <trkpt lat="43.69299" lon="1.4252">
        <ele>190.302196</ele>
        <time>2022-05-27T16:23:56.487Z</time>
      </trkpt>
      <trkpt lat="43.69289" lon="1.42531">
        <ele>190.310115</ele>
        <time>2022-05-27T16:23:58.482Z</time>
      </trkpt>
      <trkpt lat="43.69279" lon="1.4254">
        <ele>190.318121</ele>
        <time>2022-05-27T16:24:00.493Z</time>
      </trkpt>
      <trkpt lat="43.69268" lon="1.42549">
        <ele>190.326167</ele>
        <time>2022-05-27T16:24:02.477Z</time>
      </trkpt>
      <trkpt lat="43.69256" lon="1.42557">
        <ele>190.334605</ele>
        <time>2022-05-27T16:24:04.487Z</time>
      </trkpt>
      <trkpt lat="43.69244" lon="1.42566">
        <ele>190.343178</ele>
        <time>2022-05-27T16:24:06.469Z</time>
      </trkpt>
      <trkpt lat="43.69232" lon="1.42574">
        <ele>190.35149</ele>
        <time>2022-05-27T16:24:08.482Z</time>
      </trkpt>
      <trkpt lat="43.69221" lon="1.42582">
        <ele>190.359655</ele>
        <time>2022-05-27T16:24:10.482Z</time>
      </trkpt>
      <trkpt lat="43.6921" lon="1.42589">
        <ele>190.367419</ele>
        <time>2022-05-27T16:24:12.481Z</time>
      </trkpt>
      <trkpt lat="43.69198" lon="1.42593">
        <ele>190.375226</ele>
        <time>2022-05-27T16:24:14.486Z</time>
      </trkpt>
      <trkpt lat="43.69185" lon="1.42596">
        <ele>190.456139</ele>
        <time>2022-05-27T16:24:16.476Z</time>
      </trkpt>
      <trkpt lat="43.69172" lon="1.42599">
        <ele>190.586807</ele>
        <time>2022-05-27T16:24:18.483Z</time>
      </trkpt>
      <trkpt lat="43.6916" lon="1.42601">
        <ele>190.713677</ele>
        <time>2022-05-27T16:24:20.483Z</time>
      </trkpt>
      <trkpt lat="43.69147" lon="1.42603">
        <ele>190.840648</ele>
        <time>2022-05-27T16:24:22.490Z</time>
      </trkpt>
      <trkpt lat="43.69135" lon="1.42606">
        <ele>190.965527</ele>
        <time>2022-05-27T16:24:24.485Z</time>
      </trkpt>
      <trkpt lat="43.69123" lon="1.42608">
        <ele>191.086322</ele>
        <time>2022-05-27T16:24:26.473Z</time>
      </trkpt>
      <trkpt lat="43.69112" lon="1.42614">
        <ele>191.205611</ele>
        <time>2022-05-27T16:24:28.476Z</time>
      </trkpt>
      <trkpt lat="43.69103" lon="1.42622">
        <ele>191.316841</ele>
        <time>2022-05-27T16:24:30.475Z</time>
      </trkpt>
      <trkpt lat="43.69094" lon="1.42631">
        <ele>191.421855</ele>
        <time>2022-05-27T16:24:32.475Z</time>
      </trkpt>
      <trkpt lat="43.69086" lon="1.42643">
        <ele>191.540362</ele>
        <time>2022-05-27T16:24:34.466Z</time>
      </trkpt>
      <trkpt lat="43.69077" lon="1.42652">
        <ele>191.653646</ele>
        <time>2022-05-27T16:24:36.473Z</time>
      </trkpt>
      <trkpt lat="43.69068" lon="1.42655">
        <ele>191.749196</ele>
        <time>2022-05-27T16:24:38.475Z</time>
      </trkpt>
      <trkpt lat="43.69055" lon="1.42657">
        <ele>191.878262</ele>
        <time>2022-05-27T16:24:41.480Z</time>
      </trkpt>
      <trkpt lat="43.69045" lon="1.42657">
        <ele>191.974841</ele>
        <time>2022-05-27T16:24:43.483Z</time>
      </trkpt>
      <trkpt lat="43.69035" lon="1.42658">
        <ele>192.083961</ele>
        <time>2022-05-27T16:24:45.481Z</time>
      </trkpt>
      <trkpt lat="43.69024" lon="1.42662">
        <ele>192.188823</ele>
        <time>2022-05-27T16:24:47.483Z</time>
      </trkpt>
      <trkpt lat="43.69013" lon="1.42665">
        <ele>192.219312</ele>
        <time>2022-05-27T16:24:49.472Z</time>
      </trkpt>
      <trkpt lat="43.69001" lon="1.42667">
        <ele>192.25268</ele>
        <time>2022-05-27T16:24:51.489Z</time>
      </trkpt>
      <trkpt lat="43.6899" lon="1.42671">
        <ele>192.285623</ele>
        <time>2022-05-27T16:24:53.488Z</time>
      </trkpt>
      <trkpt lat="43.68979" lon="1.42674">
        <ele>192.316812</ele>
        <time>2022-05-27T16:24:55.467Z</time>
      </trkpt>
      <trkpt lat="43.68967" lon="1.42679">
        <ele>192.34992</ele>
        <time>2022-05-27T16:24:57.474Z</time>
      </trkpt>
      <trkpt lat="43.68956" lon="1.42686">
        <ele>192.383351</ele>
        <time>2022-05-27T16:24:59.473Z</time>
      </trkpt>
      <trkpt lat="43.68946" lon="1.42694">
        <ele>192.417051</ele>
        <time>2022-05-27T16:25:01.474Z</time>
      </trkpt>
      <trkpt lat="43.68936" lon="1.42702">
        <ele>192.449928</ele>
        <time>2022-05-27T16:25:03.470Z</time>
      </trkpt>
      <trkpt lat="43.68925" lon="1.4271">
        <ele>192.482566</ele>
        <time>2022-05-27T16:25:05.489Z</time>
      </trkpt>
      <trkpt lat="43.68915" lon="1.42717">
        <ele>192.514836</ele>
        <time>2022-05-27T16:25:07.489Z</time>
      </trkpt>
      <trkpt lat="43.68904" lon="1.42725">
        <ele>192.547197</ele>
        <time>2022-05-27T16:25:09.494Z</time>
      </trkpt>
      <trkpt lat="43.68894" lon="1.42731">
        <ele>192.579959</ele>
        <time>2022-05-27T16:25:11.483Z</time>
      </trkpt>
      <trkpt lat="43.68882" lon="1.42737">
        <ele>192.613198</ele>
        <time>2022-05-27T16:25:13.475Z</time>
      </trkpt>
      <trkpt lat="43.68871" lon="1.4274">
        <ele>192.645735</ele>
        <time>2022-05-27T16:25:15.471Z</time>
      </trkpt>
      <trkpt lat="43.6886" lon="1.42737">
        <ele>192.677686</ele>
        <time>2022-05-27T16:25:17.486Z</time>
      </trkpt>
      <trkpt lat="43.68849" lon="1.42729">
        <ele>192.566655</ele>
        <time>2022-05-27T16:25:19.482Z</time>
      </trkpt>
      <trkpt lat="43.68838" lon="1.42721">
        <ele>192.409668</ele>
        <time>2022-05-27T16:25:21.491Z</time>
      </trkpt>
      <trkpt lat="43.68827" lon="1.42715">
        <ele>192.25461</ele>
        <time>2022-05-27T16:25:23.486Z</time>
      </trkpt>
      <trkpt lat="43.68819" lon="1.42708">
        <ele>192.127321</ele>
        <time>2022-05-27T16:25:25.497Z</time>
      </trkpt>
      <trkpt lat="43.68814" lon="1.42696">
        <ele>191.998355</ele>
        <time>2022-05-27T16:25:28.485Z</time>
      </trkpt>
      <trkpt lat="43.68815" lon="1.42679">
        <ele>191.839307</ele>
        <time>2022-05-27T16:25:31.486Z</time>
      </trkpt>
      <trkpt lat="43.68818" lon="1.42667">
        <ele>191.721601</ele>
        <time>2022-05-27T16:25:35.480Z</time>
      </trkpt>
      <trkpt lat="43.68829" lon="1.42662">
        <ele>191.578543</ele>
        <time>2022-05-27T16:25:39.493Z</time>
      </trkpt>
      <trkpt lat="43.68835" lon="1.42649">
        <ele>191.434775</ele>
        <time>2022-05-27T16:25:43.505Z</time>
      </trkpt>
      <trkpt lat="43.68833" lon="1.42633">
        <ele>191.281327</ele>
        <time>2022-05-27T16:25:46.491Z</time>
      </trkpt>
      <trkpt lat="43.68832" lon="1.42617">
        <ele>191.125107</ele>
        <time>2022-05-27T16:25:49.491Z</time>
      </trkpt>
      <trkpt lat="43.68827" lon="1.42601">
        <ele>190.969794</ele>
        <time>2022-05-27T16:25:52.478Z</time>
      </trkpt>
      <trkpt lat="43.6882" lon="1.42588">
        <ele>190.812498</ele>
        <time>2022-05-27T16:25:55.487Z</time>
      </trkpt>
      <trkpt lat="43.68811" lon="1.42574">
        <ele>190.645688</ele>
        <time>2022-05-27T16:25:58.489Z</time>
      </trkpt>
      <trkpt lat="43.68803" lon="1.42567">
        <ele>190.521877</ele>
        <time>2022-05-27T16:26:00.480Z</time>
      </trkpt>
      <trkpt lat="43.68794" lon="1.42564">
        <ele>190.395444</ele>
        <time>2022-05-27T16:26:02.479Z</time>
      </trkpt>
      <trkpt lat="43.68784" lon="1.42562">
        <ele>190.375494</ele>
        <time>2022-05-27T16:26:04.466Z</time>
      </trkpt>
      <trkpt lat="43.68773" lon="1.42562">
        <ele>190.407324</ele>
        <time>2022-05-27T16:26:06.478Z</time>
      </trkpt>
      <trkpt lat="43.68763" lon="1.4256">
        <ele>190.439907</ele>
        <time>2022-05-27T16:26:08.482Z</time>
      </trkpt>
      <trkpt lat="43.68751" lon="1.42559">
        <ele>190.475421</ele>
        <time>2022-05-27T16:26:10.497Z</time>
      </trkpt>
      <trkpt lat="43.68739" lon="1.4256">
        <ele>190.510576</ele>
        <time>2022-05-27T16:26:12.488Z</time>
      </trkpt>
      <trkpt lat="43.68728" lon="1.42564">
        <ele>190.546796</ele>
        <time>2022-05-27T16:26:14.491Z</time>
      </trkpt>
      <trkpt lat="43.68718" lon="1.42572">
        <ele>190.582168</ele>
        <time>2022-05-27T16:26:16.472Z</time>
      </trkpt>
      <trkpt lat="43.68708" lon="1.42582">
        <ele>190.618681</ele>
        <time>2022-05-27T16:26:18.482Z</time>
      </trkpt>
      <trkpt lat="43.68697" lon="1.42587">
        <ele>190.654559</ele>
        <time>2022-05-27T16:26:20.485Z</time>
      </trkpt>
      <trkpt lat="43.68686" lon="1.42592">
        <ele>190.690019</ele>
        <time>2022-05-27T16:26:22.488Z</time>
      </trkpt>
      <trkpt lat="43.68676" lon="1.42599">
        <ele>190.723877</ele>
        <time>2022-05-27T16:26:24.484Z</time>
      </trkpt>
      <trkpt lat="43.68668" lon="1.42608">
        <ele>190.755967</ele>
        <time>2022-05-27T16:26:26.512Z</time>
      </trkpt>
      <trkpt lat="43.6866" lon="1.4262">
        <ele>190.79079</ele>
        <time>2022-05-27T16:26:29.493Z</time>
      </trkpt>
      <trkpt lat="43.68652" lon="1.4263">
        <ele>190.822595</ele>
        <time>2022-05-27T16:26:32.479Z</time>
      </trkpt>
      <trkpt lat="43.68645" lon="1.42639">
        <ele>190.853052</ele>
        <time>2022-05-27T16:26:34.493Z</time>
      </trkpt>
      <trkpt lat="43.68636" lon="1.4265">
        <ele>190.888326</ele>
        <time>2022-05-27T16:26:36.480Z</time>
      </trkpt>
      <trkpt lat="43.68627" lon="1.4266">
        <ele>190.90298</ele>
        <time>2022-05-27T16:26:38.496Z</time>
      </trkpt>
      <trkpt lat="43.68618" lon="1.4267">
        <ele>190.908454</ele>
        <time>2022-05-27T16:26:40.493Z</time>
      </trkpt>
      <trkpt lat="43.68609" lon="1.42681">
        <ele>190.913916</ele>
        <time>2022-05-27T16:26:42.473Z</time>
      </trkpt>
      <trkpt lat="43.686" lon="1.42692">
        <ele>190.919299</ele>
        <time>2022-05-27T16:26:44.484Z</time>
      </trkpt>
      <trkpt lat="43.68592" lon="1.42703">
        <ele>190.924492</ele>
        <time>2022-05-27T16:26:46.484Z</time>
      </trkpt>
      <trkpt lat="43.68584" lon="1.42714">
        <ele>190.929825</ele>
        <time>2022-05-27T16:26:48.476Z</time>
      </trkpt>
      <trkpt lat="43.68575" lon="1.42725">
        <ele>190.935106</ele>
        <time>2022-05-27T16:26:50.483Z</time>
      </trkpt>
      <trkpt lat="43.68567" lon="1.42735">
        <ele>190.940195</ele>
        <time>2022-05-27T16:26:52.492Z</time>
      </trkpt>
      <trkpt lat="43.68559" lon="1.42745">
        <ele>190.945174</ele>
        <time>2022-05-27T16:26:54.490Z</time>
      </trkpt>
      <trkpt lat="43.6855" lon="1.42755">
        <ele>190.950623</ele>
        <time>2022-05-27T16:26:56.466Z</time>
      </trkpt>
      <trkpt lat="43.6854" lon="1.42766">
        <ele>190.956336</ele>
        <time>2022-05-27T16:26:58.502Z</time>
      </trkpt>
      <trkpt lat="43.6853" lon="1.42777">
        <ele>190.96198</ele>
        <time>2022-05-27T16:27:00.480Z</time>
      </trkpt>
      <trkpt lat="43.68521" lon="1.42787">
        <ele>190.967475</ele>
        <time>2022-05-27T16:27:02.497Z</time>
      </trkpt>
      <trkpt lat="43.68512" lon="1.42797">
        <ele>190.972806</ele>
        <time>2022-05-27T16:27:04.504Z</time>
      </trkpt>
      <trkpt lat="43.68503" lon="1.42806">
        <ele>190.978008</ele>
        <time>2022-05-27T16:27:06.482Z</time>
      </trkpt>
      <trkpt lat="43.68494" lon="1.42817">
        <ele>190.989822</ele>
        <time>2022-05-27T16:27:08.471Z</time>
      </trkpt>
      <trkpt lat="43.68485" lon="1.42826">
        <ele>191.021063</ele>
        <time>2022-05-27T16:27:10.469Z</time>
      </trkpt>
      <trkpt lat="43.68476" lon="1.42833">
        <ele>191.04993</ele>
        <time>2022-05-27T16:27:12.463Z</time>
      </trkpt>
      <trkpt lat="43.68465" lon="1.42841">
        <ele>191.082985</ele>
        <time>2022-05-27T16:27:15.498Z</time>
      </trkpt>
      <trkpt lat="43.68456" lon="1.42849">
        <ele>191.11326</ele>
        <time>2022-05-27T16:27:20.495Z</time>
      </trkpt>
      <trkpt lat="43.68449" lon="1.42857">
        <ele>191.139074</ele>
        <time>2022-05-27T16:27:23.492Z</time>
      </trkpt>
      <trkpt lat="43.6844" lon="1.4287">
        <ele>191.174245</ele>
        <time>2022-05-27T16:27:26.487Z</time>
      </trkpt>
      <trkpt lat="43.68429" lon="1.42881">
        <ele>191.210758</ele>
        <time>2022-05-27T16:27:29.486Z</time>
      </trkpt>
      <trkpt lat="43.68419" lon="1.42893">
        <ele>191.246795</ele>
        <time>2022-05-27T16:27:32.497Z</time>
      </trkpt>
      <trkpt lat="43.68412" lon="1.42901">
        <ele>191.272097</ele>
        <time>2022-05-27T16:27:34.503Z</time>
      </trkpt>
      <trkpt lat="43.68404" lon="1.42911">
        <ele>191.300683</ele>
        <time>2022-05-27T16:27:36.494Z</time>
      </trkpt>
      <trkpt lat="43.68396" lon="1.42921">
        <ele>191.330719</ele>
        <time>2022-05-27T16:27:38.490Z</time>
      </trkpt>
      <trkpt lat="43.68388" lon="1.42931">
        <ele>191.360754</ele>
        <time>2022-05-27T16:27:40.489Z</time>
      </trkpt>
      <trkpt lat="43.68379" lon="1.42941">
        <ele>191.390192</ele>
        <time>2022-05-27T16:27:42.494Z</time>
      </trkpt>
      <trkpt lat="43.68371" lon="1.42951">
        <ele>191.421472</ele>
        <time>2022-05-27T16:27:44.486Z</time>
      </trkpt>
      <trkpt lat="43.68361" lon="1.42961">
        <ele>191.454523</ele>
        <time>2022-05-27T16:27:46.499Z</time>
      </trkpt>
      <trkpt lat="43.68352" lon="1.42972">
        <ele>191.503636</ele>
        <time>2022-05-27T16:27:48.486Z</time>
      </trkpt>
      <trkpt lat="43.68342" lon="1.42984">
        <ele>191.570273</ele>
        <time>2022-05-27T16:27:50.483Z</time>
      </trkpt>
      <trkpt lat="43.68332" lon="1.42994">
        <ele>191.635299</ele>
        <time>2022-05-27T16:27:52.489Z</time>
      </trkpt>
      <trkpt lat="43.68323" lon="1.43005">
        <ele>191.699585</ele>
        <time>2022-05-27T16:27:54.467Z</time>
      </trkpt>
      <trkpt lat="43.68314" lon="1.43014">
        <ele>191.76081</ele>
        <time>2022-05-27T16:27:56.491Z</time>
      </trkpt>
      <trkpt lat="43.68306" lon="1.43026">
        <ele>191.821857</ele>
        <time>2022-05-27T16:27:58.487Z</time>
      </trkpt>
      <trkpt lat="43.68296" lon="1.43034">
        <ele>191.881572</ele>
        <time>2022-05-27T16:28:00.491Z</time>
      </trkpt>
      <trkpt lat="43.68289" lon="1.43043">
        <ele>191.934432</ele>
        <time>2022-05-27T16:28:02.463Z</time>
      </trkpt>
      <trkpt lat="43.68282" lon="1.43054">
        <ele>191.991147</ele>
        <time>2022-05-27T16:28:04.497Z</time>
      </trkpt>
      <trkpt lat="43.68273" lon="1.43063">
        <ele>192.050246</ele>
        <time>2022-05-27T16:28:06.485Z</time>
      </trkpt>
      <trkpt lat="43.68264" lon="1.43073">
        <ele>192.108923</ele>
        <time>2022-05-27T16:28:08.473Z</time>
      </trkpt>
      <trkpt lat="43.68258" lon="1.43083">
        <ele>192.159531</ele>
        <time>2022-05-27T16:28:10.485Z</time>
      </trkpt>
      <trkpt lat="43.68252" lon="1.43097">
        <ele>192.221645</ele>
        <time>2022-05-27T16:28:12.487Z</time>
      </trkpt>
      <trkpt lat="43.68242" lon="1.4311">
        <ele>192.295038</ele>
        <time>2022-05-27T16:28:14.479Z</time>
      </trkpt>
      <trkpt lat="43.68233" lon="1.43122">
        <ele>192.361129</ele>
        <time>2022-05-27T16:28:16.487Z</time>
      </trkpt>
      <trkpt lat="43.68223" lon="1.43132">
        <ele>192.423542</ele>
        <time>2022-05-27T16:28:18.468Z</time>
      </trkpt>
      <trkpt lat="43.68215" lon="1.43143">
        <ele>192.401949</ele>
        <time>2022-05-27T16:28:20.461Z</time>
      </trkpt>
      <trkpt lat="43.68206" lon="1.43154">
        <ele>192.374737</ele>
        <time>2022-05-27T16:28:22.476Z</time>
      </trkpt>
      <trkpt lat="43.68196" lon="1.43164">
        <ele>192.347748</ele>
        <time>2022-05-27T16:28:24.486Z</time>
      </trkpt>
      <trkpt lat="43.68187" lon="1.43177">
        <ele>192.318806</ele>
        <time>2022-05-27T16:28:26.464Z</time>
      </trkpt>
      <trkpt lat="43.68179" lon="1.43189">
        <ele>192.290496</ele>
        <time>2022-05-27T16:28:28.476Z</time>
      </trkpt>
      <trkpt lat="43.6817" lon="1.43201">
        <ele>192.263433</ele>
        <time>2022-05-27T16:28:30.498Z</time>
      </trkpt>
      <trkpt lat="43.68162" lon="1.43211">
        <ele>192.237606</ele>
        <time>2022-05-27T16:28:32.487Z</time>
      </trkpt>
      <trkpt lat="43.68153" lon="1.43223">
        <ele>192.211643</ele>
        <time>2022-05-27T16:28:34.498Z</time>
      </trkpt>
      <trkpt lat="43.68145" lon="1.43233">
        <ele>192.185924</ele>
        <time>2022-05-27T16:28:36.495Z</time>
      </trkpt>
      <trkpt lat="43.68136" lon="1.43244">
        <ele>192.159419</ele>
        <time>2022-05-27T16:28:38.503Z</time>
      </trkpt>
      <trkpt lat="43.68127" lon="1.43254">
        <ele>192.132571</ele>
        <time>2022-05-27T16:28:40.481Z</time>
      </trkpt>
      <trkpt lat="43.68118" lon="1.43266">
        <ele>192.105473</ele>
        <time>2022-05-27T16:28:42.484Z</time>
      </trkpt>
      <trkpt lat="43.6811" lon="1.43276">
        <ele>192.079756</ele>
        <time>2022-05-27T16:28:44.505Z</time>
      </trkpt>
      <trkpt lat="43.68103" lon="1.43287">
        <ele>192.055939</ele>
        <time>2022-05-27T16:28:46.480Z</time>
      </trkpt>
      <trkpt lat="43.68095" lon="1.43299">
        <ele>192.030723</ele>
        <time>2022-05-27T16:28:48.480Z</time>
      </trkpt>
      <trkpt lat="43.68088" lon="1.43311">
        <ele>192.036989</ele>
        <time>2022-05-27T16:28:50.494Z</time>
      </trkpt>
      <trkpt lat="43.68081" lon="1.43321">
        <ele>192.059771</ele>
        <time>2022-05-27T16:28:52.505Z</time>
      </trkpt>
      <trkpt lat="43.68074" lon="1.43333">
        <ele>192.085386</ele>
        <time>2022-05-27T16:28:54.498Z</time>
      </trkpt>
      <trkpt lat="43.68066" lon="1.43346">
        <ele>192.111682</ele>
        <time>2022-05-27T16:28:56.481Z</time>
      </trkpt>
      <trkpt lat="43.68061" lon="1.43357">
        <ele>192.134482</ele>
        <time>2022-05-27T16:28:58.496Z</time>
      </trkpt>
      <trkpt lat="43.68061" lon="1.43371">
        <ele>192.158063</ele>
        <time>2022-05-27T16:29:00.502Z</time>
      </trkpt>
      <trkpt lat="43.68063" lon="1.43385">
        <ele>192.180155</ele>
        <time>2022-05-27T16:29:02.470Z</time>
      </trkpt>
      <trkpt lat="43.68059" lon="1.43396">
        <ele>192.20098</ele>
        <time>2022-05-27T16:29:05.478Z</time>
      </trkpt>
      <trkpt lat="43.68048" lon="1.43401">
        <ele>192.226229</ele>
        <time>2022-05-27T16:29:09.478Z</time>
      </trkpt>
      <trkpt lat="43.68038" lon="1.43412">
        <ele>192.255844</ele>
        <time>2022-05-27T16:29:12.491Z</time>
      </trkpt>
      <trkpt lat="43.68029" lon="1.43418">
        <ele>192.277418</ele>
        <time>2022-05-27T16:29:14.490Z</time>
      </trkpt>
      <trkpt lat="43.68018" lon="1.43428">
        <ele>192.308301</ele>
        <time>2022-05-27T16:29:17.480Z</time>
      </trkpt>
      <trkpt lat="43.6801" lon="1.43436">
        <ele>192.330654</ele>
        <time>2022-05-27T16:29:19.474Z</time>
      </trkpt>
      <trkpt lat="43.68003" lon="1.43447">
        <ele>192.354794</ele>
        <time>2022-05-27T16:29:21.482Z</time>
      </trkpt>
      <trkpt lat="43.67995" lon="1.43461">
        <ele>192.383434</ele>
        <time>2022-05-27T16:29:23.482Z</time>
      </trkpt>
      <trkpt lat="43.67986" lon="1.43473">
        <ele>192.411705</ele>
        <time>2022-05-27T16:29:25.460Z</time>
      </trkpt>
      <trkpt lat="43.67977" lon="1.43484">
        <ele>192.424895</ele>
        <time>2022-05-27T16:29:27.481Z</time>
      </trkpt>
      <trkpt lat="43.67968" lon="1.43495">
        <ele>192.418076</ele>
        <time>2022-05-27T16:29:29.505Z</time>
      </trkpt>
      <trkpt lat="43.6796" lon="1.43506">
        <ele>192.411567</ele>
        <time>2022-05-27T16:29:31.515Z</time>
      </trkpt>
      <trkpt lat="43.67953" lon="1.43517">
        <ele>192.405071</ele>
        <time>2022-05-27T16:29:33.479Z</time>
      </trkpt>
      <trkpt lat="43.67944" lon="1.43529">
        <ele>192.398174</ele>
        <time>2022-05-27T16:29:35.482Z</time>
      </trkpt>
      <trkpt lat="43.67936" lon="1.43542">
        <ele>192.391346</ele>
        <time>2022-05-27T16:29:37.478Z</time>
      </trkpt>
      <trkpt lat="43.6793" lon="1.43554">
        <ele>192.384797</ele>
        <time>2022-05-27T16:29:39.496Z</time>
      </trkpt>
      <trkpt lat="43.67922" lon="1.43566">
        <ele>192.378122</ele>
        <time>2022-05-27T16:29:41.475Z</time>
      </trkpt>
      <trkpt lat="43.67915" lon="1.43578">
        <ele>192.371709</ele>
        <time>2022-05-27T16:29:43.488Z</time>
      </trkpt>
      <trkpt lat="43.67907" lon="1.4359">
        <ele>192.364972</ele>
        <time>2022-05-27T16:29:45.493Z</time>
      </trkpt>
      <trkpt lat="43.67899" lon="1.43602">
        <ele>192.358286</ele>
        <time>2022-05-27T16:29:47.484Z</time>
      </trkpt>
      <trkpt lat="43.67891" lon="1.43614">
        <ele>192.351404</ele>
        <time>2022-05-27T16:29:49.491Z</time>
      </trkpt>
      <trkpt lat="43.67881" lon="1.43621">
        <ele>192.344762</ele>
        <time>2022-05-27T16:29:51.496Z</time>
      </trkpt>
      <trkpt lat="43.67872" lon="1.4363">
        <ele>192.338366</ele>
        <time>2022-05-27T16:29:53.473Z</time>
      </trkpt>
      <trkpt lat="43.67864" lon="1.4364">
        <ele>192.332128</ele>
        <time>2022-05-27T16:29:55.487Z</time>
      </trkpt>
      <trkpt lat="43.67856" lon="1.4365">
        <ele>192.326058</ele>
        <time>2022-05-27T16:29:57.503Z</time>
      </trkpt>
      <trkpt lat="43.67849" lon="1.4366">
        <ele>192.343241</ele>
        <time>2022-05-27T16:29:59.492Z</time>
      </trkpt>
      <trkpt lat="43.67841" lon="1.43671">
        <ele>192.37354</ele>
        <time>2022-05-27T16:30:01.483Z</time>
      </trkpt>
      <trkpt lat="43.67832" lon="1.43681">
        <ele>192.404042</ele>
        <time>2022-05-27T16:30:03.493Z</time>
      </trkpt>
      <trkpt lat="43.67824" lon="1.43692">
        <ele>192.434501</ele>
        <time>2022-05-27T16:30:05.485Z</time>
      </trkpt>
      <trkpt lat="43.67816" lon="1.43703">
        <ele>192.465815</ele>
        <time>2022-05-27T16:30:07.501Z</time>
      </trkpt>
      <trkpt lat="43.67807" lon="1.43714">
        <ele>192.496855</ele>
        <time>2022-05-27T16:30:09.485Z</time>
      </trkpt>
      <trkpt lat="43.67799" lon="1.43724">
        <ele>192.527289</ele>
        <time>2022-05-27T16:30:11.485Z</time>
      </trkpt>
      <trkpt lat="43.67791" lon="1.43734">
        <ele>192.557124</ele>
        <time>2022-05-27T16:30:13.498Z</time>
      </trkpt>
      <trkpt lat="43.67783" lon="1.43745">
        <ele>192.586644</ele>
        <time>2022-05-27T16:30:15.493Z</time>
      </trkpt>
      <trkpt lat="43.67775" lon="1.43755">
        <ele>192.616585</ele>
        <time>2022-05-27T16:30:17.473Z</time>
      </trkpt>
      <trkpt lat="43.67766" lon="1.43763">
        <ele>192.646095</ele>
        <time>2022-05-27T16:30:19.490Z</time>
      </trkpt>
      <trkpt lat="43.67757" lon="1.43771">
        <ele>192.675939</ele>
        <time>2022-05-27T16:30:21.482Z</time>
      </trkpt>
      <trkpt lat="43.67746" lon="1.43777">
        <ele>192.706153</ele>
        <time>2022-05-27T16:30:23.507Z</time>
      </trkpt>
      <trkpt lat="43.67736" lon="1.43783">
        <ele>192.737328</ele>
        <time>2022-05-27T16:30:25.495Z</time>
      </trkpt>
      <trkpt lat="43.67725" lon="1.4379">
        <ele>192.768667</ele>
        <time>2022-05-27T16:30:27.489Z</time>
      </trkpt>
      <trkpt lat="43.67716" lon="1.43799">
        <ele>192.799398</ele>
        <time>2022-05-27T16:30:29.477Z</time>
      </trkpt>
      <trkpt lat="43.67708" lon="1.43807">
        <ele>192.841609</ele>
        <time>2022-05-27T16:30:31.491Z</time>
      </trkpt>
      <trkpt lat="43.67697" lon="1.43816">
        <ele>192.915199</ele>
        <time>2022-05-27T16:30:34.502Z</time>
      </trkpt>
      <trkpt lat="43.67688" lon="1.43825">
        <ele>192.976854</ele>
        <time>2022-05-27T16:30:37.459Z</time>
      </trkpt>
      <trkpt lat="43.67678" lon="1.43834">
        <ele>193.042188</ele>
        <time>2022-05-27T16:30:40.486Z</time>
      </trkpt>
      <trkpt lat="43.67667" lon="1.43841">
        <ele>193.111285</ele>
        <time>2022-05-27T16:30:43.486Z</time>
      </trkpt>
      <trkpt lat="43.67657" lon="1.43849">
        <ele>193.176082</ele>
        <time>2022-05-27T16:30:46.481Z</time>
      </trkpt>
      <trkpt lat="43.6765" lon="1.43857">
        <ele>193.229319</ele>
        <time>2022-05-27T16:30:50.487Z</time>
      </trkpt>
      <trkpt lat="43.6764" lon="1.43863">
        <ele>193.288594</ele>
        <time>2022-05-27T16:30:53.495Z</time>
      </trkpt>
      <trkpt lat="43.6763" lon="1.43871">
        <ele>193.355542</ele>
        <time>2022-05-27T16:30:56.493Z</time>
      </trkpt>
      <trkpt lat="43.67622" lon="1.43878">
        <ele>193.407437</ele>
        <time>2022-05-27T16:30:58.493Z</time>
      </trkpt>
      <trkpt lat="43.67614" lon="1.43885">
        <ele>193.460039</ele>
        <time>2022-05-27T16:31:01.493Z</time>
      </trkpt>
      <trkpt lat="43.67604" lon="1.43889">
        <ele>193.518024</ele>
        <time>2022-05-27T16:31:04.480Z</time>
      </trkpt>
      <trkpt lat="43.67595" lon="1.43895">
        <ele>193.576865</ele>
        <time>2022-05-27T16:31:08.482Z</time>
      </trkpt>
      <trkpt lat="43.67586" lon="1.43903">
        <ele>193.6348</ele>
        <time>2022-05-27T16:31:12.482Z</time>
      </trkpt>
      <trkpt lat="43.67581" lon="1.43914">
        <ele>193.687971</ele>
        <time>2022-05-27T16:31:15.490Z</time>
      </trkpt>
      <trkpt lat="43.67573" lon="1.43927">
        <ele>193.757695</ele>
        <time>2022-05-27T16:31:18.500Z</time>
      </trkpt>
      <trkpt lat="43.67568" lon="1.43939">
        <ele>193.815917</ele>
        <time>2022-05-27T16:31:20.483Z</time>
      </trkpt>
      <trkpt lat="43.67563" lon="1.43951">
        <ele>193.818981</ele>
        <time>2022-05-27T16:31:22.474Z</time>
      </trkpt>
      <trkpt lat="43.67557" lon="1.43964">
        <ele>193.810348</ele>
        <time>2022-05-27T16:31:24.481Z</time>
      </trkpt>
      <trkpt lat="43.67551" lon="1.43976">
        <ele>193.801444</ele>
        <time>2022-05-27T16:31:26.459Z</time>
      </trkpt>
      <trkpt lat="43.67545" lon="1.43989">
        <ele>193.792523</ele>
        <time>2022-05-27T16:31:28.473Z</time>
      </trkpt>
      <trkpt lat="43.6754" lon="1.44">
        <ele>193.784673</ele>
        <time>2022-05-27T16:31:30.481Z</time>
      </trkpt>
      <trkpt lat="43.67535" lon="1.44012">
        <ele>193.776454</ele>
        <time>2022-05-27T16:31:32.474Z</time>
      </trkpt>
      <trkpt lat="43.67533" lon="1.44025">
        <ele>193.768663</ele>
        <time>2022-05-27T16:31:34.493Z</time>
      </trkpt>
      <trkpt lat="43.67529" lon="1.44037">
        <ele>193.761038</ele>
        <time>2022-05-27T16:31:36.469Z</time>
      </trkpt>
      <trkpt lat="43.67524" lon="1.44049">
        <ele>193.752541</ele>
        <time>2022-05-27T16:31:38.491Z</time>
      </trkpt>
      <trkpt lat="43.67519" lon="1.44062">
        <ele>193.743844</ele>
        <time>2022-05-27T16:31:40.501Z</time>
      </trkpt>
      <trkpt lat="43.67515" lon="1.44077">
        <ele>193.7348</ele>
        <time>2022-05-27T16:31:42.499Z</time>
      </trkpt>
      <trkpt lat="43.67511" lon="1.4409">
        <ele>193.725765</ele>
        <time>2022-05-27T16:31:44.490Z</time>
      </trkpt>
      <trkpt lat="43.67506" lon="1.44105">
        <ele>193.716177</ele>
        <time>2022-05-27T16:31:46.487Z</time>
      </trkpt>
      <trkpt lat="43.67501" lon="1.4412">
        <ele>193.706583</ele>
        <time>2022-05-27T16:31:48.479Z</time>
      </trkpt>
      <trkpt lat="43.67496" lon="1.44135">
        <ele>193.696794</ele>
        <time>2022-05-27T16:31:50.466Z</time>
      </trkpt>
      <trkpt lat="43.67491" lon="1.4415">
        <ele>193.686956</ele>
        <time>2022-05-27T16:31:52.490Z</time>
      </trkpt>
      <trkpt lat="43.67487" lon="1.44165">
        <ele>193.68377</ele>
        <time>2022-05-27T16:31:54.492Z</time>
      </trkpt>
      <trkpt lat="43.67483" lon="1.4418">
        <ele>193.73032</ele>
        <time>2022-05-27T16:31:56.481Z</time>
      </trkpt>
      <trkpt lat="43.67479" lon="1.44196">
        <ele>193.776623</ele>
        <time>2022-05-27T16:31:58.477Z</time>
      </trkpt>
      <trkpt lat="43.67476" lon="1.44211">
        <ele>193.822295</ele>
        <time>2022-05-27T16:32:00.472Z</time>
      </trkpt>
      <trkpt lat="43.67473" lon="1.44226">
        <ele>193.867257</ele>
        <time>2022-05-27T16:32:02.484Z</time>
      </trkpt>
      <trkpt lat="43.6747" lon="1.44241">
        <ele>193.911368</ele>
        <time>2022-05-27T16:32:04.495Z</time>
      </trkpt>
      <trkpt lat="43.67467" lon="1.44256">
        <ele>193.956133</ele>
        <time>2022-05-27T16:32:06.490Z</time>
      </trkpt>
      <trkpt lat="43.67465" lon="1.44271">
        <ele>194.000244</ele>
        <time>2022-05-27T16:32:08.502Z</time>
      </trkpt>
      <trkpt lat="43.67462" lon="1.44285">
        <ele>194.043333</ele>
        <time>2022-05-27T16:32:10.484Z</time>
      </trkpt>
      <trkpt lat="43.67461" lon="1.443">
        <ele>194.087051</ele>
        <time>2022-05-27T16:32:12.503Z</time>
      </trkpt>
      <trkpt lat="43.6746" lon="1.44316">
        <ele>194.1322</ele>
        <time>2022-05-27T16:32:14.484Z</time>
      </trkpt>
      <trkpt lat="43.67459" lon="1.44331">
        <ele>194.176534</ele>
        <time>2022-05-27T16:32:16.494Z</time>
      </trkpt>
      <trkpt lat="43.67457" lon="1.44347">
        <ele>194.221652</ele>
        <time>2022-05-27T16:32:18.496Z</time>
      </trkpt>
      <trkpt lat="43.67456" lon="1.44363">
        <ele>194.268479</ele>
        <time>2022-05-27T16:32:20.486Z</time>
      </trkpt>
      <trkpt lat="43.67455" lon="1.44379">
        <ele>194.315737</ele>
        <time>2022-05-27T16:32:22.495Z</time>
      </trkpt>
      <trkpt lat="43.67455" lon="1.44396">
        <ele>194.363249</ele>
        <time>2022-05-27T16:32:24.486Z</time>
      </trkpt>
      <trkpt lat="43.67455" lon="1.44413">
        <ele>194.410893</ele>
        <time>2022-05-27T16:32:26.498Z</time>
      </trkpt>
      <trkpt lat="43.67454" lon="1.4443">
        <ele>194.458389</ele>
        <time>2022-05-27T16:32:28.498Z</time>
      </trkpt>
      <trkpt lat="43.67453" lon="1.44447">
        <ele>194.506445</ele>
        <time>2022-05-27T16:32:30.508Z</time>
      </trkpt>
      <trkpt lat="43.67452" lon="1.44464">
        <ele>194.553968</ele>
        <time>2022-05-27T16:32:32.489Z</time>
      </trkpt>
      <trkpt lat="43.67451" lon="1.44481">
        <ele>194.602001</ele>
        <time>2022-05-27T16:32:34.496Z</time>
      </trkpt>
      <trkpt lat="43.67451" lon="1.44498">
        <ele>194.649754</ele>
        <time>2022-05-27T16:32:36.496Z</time>
      </trkpt>
      <trkpt lat="43.6745" lon="1.44515">
        <ele>194.697188</ele>
        <time>2022-05-27T16:32:38.498Z</time>
      </trkpt>
      <trkpt lat="43.67449" lon="1.44531">
        <ele>194.744152</ele>
        <time>2022-05-27T16:32:40.501Z</time>
      </trkpt>
      <trkpt lat="43.67449" lon="1.44548">
        <ele>194.789945</ele>
        <time>2022-05-27T16:32:42.488Z</time>
      </trkpt>
      <trkpt lat="43.67448" lon="1.44563">
        <ele>194.832588</ele>
        <time>2022-05-27T16:32:44.478Z</time>
      </trkpt>
      <trkpt lat="43.67448" lon="1.44577">
        <ele>194.872503</ele>
        <time>2022-05-27T16:32:46.498Z</time>
      </trkpt>
      <trkpt lat="43.67447" lon="1.44591">
        <ele>194.913197</ele>
        <time>2022-05-27T16:32:48.471Z</time>
      </trkpt>
      <trkpt lat="43.67446" lon="1.44605">
        <ele>194.952555</ele>
        <time>2022-05-27T16:32:50.493Z</time>
      </trkpt>
      <trkpt lat="43.67444" lon="1.44618">
        <ele>194.987674</ele>
        <time>2022-05-27T16:32:52.497Z</time>
      </trkpt>
      <trkpt lat="43.67442" lon="1.44634">
        <ele>195.03321</ele>
        <time>2022-05-27T16:32:55.495Z</time>
      </trkpt>
      <trkpt lat="43.67439" lon="1.44647">
        <ele>195.073467</ele>
        <time>2022-05-27T16:33:00.488Z</time>
      </trkpt>
      <trkpt lat="43.67431" lon="1.44669">
        <ele>195.0802</ele>
        <time>2022-05-27T16:33:20.490Z</time>
      </trkpt>
      <trkpt lat="43.6744" lon="1.44671">
        <ele>195.072494</ele>
        <time>2022-05-27T16:33:25.492Z</time>
      </trkpt>
      <trkpt lat="43.67443" lon="1.44683">
        <ele>195.064472</ele>
        <time>2022-05-27T16:33:29.499Z</time>
      </trkpt>
      <trkpt lat="43.67444" lon="1.44699">
        <ele>195.054852</ele>
        <time>2022-05-27T16:33:32.480Z</time>
      </trkpt>
      <trkpt lat="43.67445" lon="1.44713">
        <ele>195.045733</ele>
        <time>2022-05-27T16:33:35.505Z</time>
      </trkpt>
      <trkpt lat="43.67446" lon="1.44727">
        <ele>195.037221</ele>
        <time>2022-05-27T16:33:38.492Z</time>
      </trkpt>
      <trkpt lat="43.67448" lon="1.44739">
        <ele>195.029478</ele>
        <time>2022-05-27T16:33:43.501Z</time>
      </trkpt>
      <trkpt lat="43.67448" lon="1.44752">
        <ele>195.02144</ele>
        <time>2022-05-27T16:33:48.499Z</time>
      </trkpt>
      <trkpt lat="43.67451" lon="1.44765">
        <ele>195.013005</ele>
        <time>2022-05-27T16:33:52.502Z</time>
      </trkpt>
      <trkpt lat="43.67453" lon="1.4478">
        <ele>195.00388</ele>
        <time>2022-05-27T16:33:55.481Z</time>
      </trkpt>
      <trkpt lat="43.67455" lon="1.44798">
        <ele>194.992642</ele>
        <time>2022-05-27T16:33:58.482Z</time>
      </trkpt>
      <trkpt lat="43.67456" lon="1.44811">
        <ele>194.984272</ele>
        <time>2022-05-27T16:34:00.490Z</time>
      </trkpt>
      <trkpt lat="43.67458" lon="1.44825">
        <ele>194.975422</ele>
        <time>2022-05-27T16:34:02.503Z</time>
      </trkpt>
      <trkpt lat="43.67459" lon="1.4484">
        <ele>194.966356</ele>
        <time>2022-05-27T16:34:04.485Z</time>
      </trkpt>
      <trkpt lat="43.67461" lon="1.44854">
        <ele>194.957301</ele>
        <time>2022-05-27T16:34:06.505Z</time>
      </trkpt>
      <trkpt lat="43.67465" lon="1.44868">
        <ele>194.947937</ele>
        <time>2022-05-27T16:34:08.491Z</time>
      </trkpt>
      <trkpt lat="43.67468" lon="1.44883">
        <ele>194.938577</ele>
        <time>2022-05-27T16:34:10.500Z</time>
      </trkpt>
      <trkpt lat="43.67472" lon="1.44897">
        <ele>194.967103</ele>
        <time>2022-05-27T16:34:12.488Z</time>
      </trkpt>
      <trkpt lat="43.67475" lon="1.44912">
        <ele>195.000119</ele>
        <time>2022-05-27T16:34:14.477Z</time>
      </trkpt>
      <trkpt lat="43.67479" lon="1.44926">
        <ele>195.032386</ele>
        <time>2022-05-27T16:34:16.497Z</time>
      </trkpt>
      <trkpt lat="43.67483" lon="1.4494">
        <ele>195.063287</ele>
        <time>2022-05-27T16:34:18.507Z</time>
      </trkpt>
      <trkpt lat="43.67487" lon="1.44952">
        <ele>195.091759</ele>
        <time>2022-05-27T16:34:20.497Z</time>
      </trkpt>
      <trkpt lat="43.67491" lon="1.44966">
        <ele>195.125601</ele>
        <time>2022-05-27T16:34:23.499Z</time>
      </trkpt>
      <trkpt lat="43.67496" lon="1.44978">
        <ele>195.154629</ele>
        <time>2022-05-27T16:34:26.489Z</time>
      </trkpt>
      <trkpt lat="43.67501" lon="1.44993">
        <ele>195.189224</ele>
        <time>2022-05-27T16:34:29.505Z</time>
      </trkpt>
      <trkpt lat="43.67506" lon="1.45009">
        <ele>195.226164</ele>
        <time>2022-05-27T16:34:32.487Z</time>
      </trkpt>
      <trkpt lat="43.67496" lon="1.4502">
        <ele>195.261465</ele>
        <time>2022-05-27T16:34:35.484Z</time>
      </trkpt>
      <trkpt lat="43.67487" lon="1.45026">
        <ele>195.292788</ele>
        <time>2022-05-27T16:34:37.490Z</time>
      </trkpt>
      <trkpt lat="43.67477" lon="1.45034">
        <ele>195.325802</ele>
        <time>2022-05-27T16:34:39.492Z</time>
      </trkpt>
      <trkpt lat="43.67468" lon="1.45041">
        <ele>195.358301</ele>
        <time>2022-05-27T16:34:41.502Z</time>
      </trkpt>
      <trkpt lat="43.67459" lon="1.4505">
        <ele>195.38924</ele>
        <time>2022-05-27T16:34:43.495Z</time>
      </trkpt>
      <trkpt lat="43.67454" lon="1.45064">
        <ele>195.423318</ele>
        <time>2022-05-27T16:34:45.485Z</time>
      </trkpt>
      <trkpt lat="43.67452" lon="1.4508">
        <ele>195.458851</ele>
        <time>2022-05-27T16:34:47.490Z</time>
      </trkpt>
      <trkpt lat="43.67448" lon="1.45096">
        <ele>195.506772</ele>
        <time>2022-05-27T16:34:49.492Z</time>
      </trkpt>
      <trkpt lat="43.67447" lon="1.45113">
        <ele>195.558432</ele>
        <time>2022-05-27T16:34:51.507Z</time>
      </trkpt>
      <trkpt lat="43.67451" lon="1.45128">
        <ele>195.610025</ele>
        <time>2022-05-27T16:34:53.504Z</time>
      </trkpt>
      <trkpt lat="43.67458" lon="1.45141">
        <ele>195.660874</ele>
        <time>2022-05-27T16:34:55.494Z</time>
      </trkpt>
      <trkpt lat="43.67463" lon="1.45155">
        <ele>195.711415</ele>
        <time>2022-05-27T16:34:57.480Z</time>
      </trkpt>
      <trkpt lat="43.67468" lon="1.45169">
        <ele>195.762042</ele>
        <time>2022-05-27T16:34:59.489Z</time>
      </trkpt>
      <trkpt lat="43.67473" lon="1.45184">
        <ele>195.812704</ele>
        <time>2022-05-27T16:35:01.498Z</time>
      </trkpt>
      <trkpt lat="43.67478" lon="1.45198">
        <ele>195.862099</ele>
        <time>2022-05-27T16:35:03.505Z</time>
      </trkpt>
      <trkpt lat="43.67482" lon="1.45212">
        <ele>195.909587</ele>
        <time>2022-05-27T16:35:05.485Z</time>
      </trkpt>
      <trkpt lat="43.67489" lon="1.45222">
        <ele>195.953606</ele>
        <time>2022-05-27T16:35:07.462Z</time>
      </trkpt>
      <trkpt lat="43.67489" lon="1.45235">
        <ele>195.995676</ele>
        <time>2022-05-27T16:35:09.493Z</time>
      </trkpt>
      <trkpt lat="43.6748" lon="1.45244">
        <ele>196.043527</ele>
        <time>2022-05-27T16:35:11.482Z</time>
      </trkpt>
      <trkpt lat="43.6747" lon="1.45251">
        <ele>196.0923</ele>
        <time>2022-05-27T16:35:13.491Z</time>
      </trkpt>
      <trkpt lat="43.67462" lon="1.45257">
        <ele>196.134146</ele>
        <time>2022-05-27T16:35:15.490Z</time>
      </trkpt>
      <trkpt lat="43.67452" lon="1.45259">
        <ele>196.176379</ele>
        <time>2022-05-27T16:35:17.494Z</time>
      </trkpt>
      <trkpt lat="43.67443" lon="1.45264">
        <ele>196.221539</ele>
        <time>2022-05-27T16:35:19.490Z</time>
      </trkpt>
      <trkpt lat="43.67433" lon="1.4527">
        <ele>196.248819</ele>
        <time>2022-05-27T16:35:21.470Z</time>
      </trkpt>
      <trkpt lat="43.67424" lon="1.45277">
        <ele>196.220385</ele>
        <time>2022-05-27T16:35:23.492Z</time>
      </trkpt>
      <trkpt lat="43.67413" lon="1.45284">
        <ele>196.189019</ele>
        <time>2022-05-27T16:35:25.506Z</time>
      </trkpt>
      <trkpt lat="43.67402" lon="1.4529">
        <ele>196.156759</ele>
        <time>2022-05-27T16:35:27.489Z</time>
      </trkpt>
      <trkpt lat="43.67391" lon="1.45298">
        <ele>196.124106</ele>
        <time>2022-05-27T16:35:29.475Z</time>
      </trkpt>
      <trkpt lat="43.67379" lon="1.45305">
        <ele>196.091375</ele>
        <time>2022-05-27T16:35:31.493Z</time>
      </trkpt>
      <trkpt lat="43.67367" lon="1.45307">
        <ele>196.058637</ele>
        <time>2022-05-27T16:35:33.487Z</time>
      </trkpt>
      <trkpt lat="43.67355" lon="1.45305">
        <ele>196.025748</ele>
        <time>2022-05-27T16:35:35.484Z</time>
      </trkpt>
      <trkpt lat="43.67342" lon="1.45301">
        <ele>195.991954</ele>
        <time>2022-05-27T16:35:37.471Z</time>
      </trkpt>
      <trkpt lat="43.6733" lon="1.45299">
        <ele>195.959154</ele>
        <time>2022-05-27T16:35:39.495Z</time>
      </trkpt>
      <trkpt lat="43.67318" lon="1.45299">
        <ele>195.927092</ele>
        <time>2022-05-27T16:35:41.475Z</time>
      </trkpt>
      <trkpt lat="43.67307" lon="1.45303">
        <ele>195.895781</ele>
        <time>2022-05-27T16:35:43.476Z</time>
      </trkpt>
      <trkpt lat="43.67296" lon="1.45309">
        <ele>195.86489</ele>
        <time>2022-05-27T16:35:45.483Z</time>
      </trkpt>
      <trkpt lat="43.67285" lon="1.45313">
        <ele>195.836234</ele>
        <time>2022-05-27T16:35:47.491Z</time>
      </trkpt>
      <trkpt lat="43.67273" lon="1.45316">
        <ele>195.803582</ele>
        <time>2022-05-27T16:35:50.480Z</time>
      </trkpt>
      <trkpt lat="43.67264" lon="1.45303">
        <ele>195.769508</ele>
        <time>2022-05-27T16:35:53.468Z</time>
      </trkpt>
      <trkpt lat="43.67261" lon="1.45289">
        <ele>195.742991</ele>
        <time>2022-05-27T16:35:55.493Z</time>
      </trkpt>
      <trkpt lat="43.67257" lon="1.45275">
        <ele>195.714792</ele>
        <time>2022-05-27T16:35:57.476Z</time>
      </trkpt>
      <trkpt lat="43.67253" lon="1.45261">
        <ele>195.685354</ele>
        <time>2022-05-27T16:35:59.514Z</time>
      </trkpt>
      <trkpt lat="43.67249" lon="1.45246">
        <ele>195.654861</ele>
        <time>2022-05-27T16:36:01.493Z</time>
      </trkpt>
      <trkpt lat="43.67245" lon="1.4523">
        <ele>195.624282</ele>
        <time>2022-05-27T16:36:03.500Z</time>
      </trkpt>
      <trkpt lat="43.6724" lon="1.45215">
        <ele>195.593253</ele>
        <time>2022-05-27T16:36:05.493Z</time>
      </trkpt>
      <trkpt lat="43.67236" lon="1.452">
        <ele>195.562078</ele>
        <time>2022-05-27T16:36:07.505Z</time>
      </trkpt>
      <trkpt lat="43.67232" lon="1.45184">
        <ele>195.530941</ele>
        <time>2022-05-27T16:36:09.499Z</time>
      </trkpt>
      <trkpt lat="43.67229" lon="1.4517">
        <ele>195.503591</ele>
        <time>2022-05-27T16:36:11.488Z</time>
      </trkpt>
      <trkpt lat="43.67223" lon="1.45155">
        <ele>195.472091</ele>
        <time>2022-05-27T16:36:14.495Z</time>
      </trkpt>
      <trkpt lat="43.67218" lon="1.45145">
        <ele>195.448446</ele>
        <time>2022-05-27T16:36:16.483Z</time>
      </trkpt>
      <trkpt lat="43.67216" lon="1.45131">
        <ele>195.422559</ele>
        <time>2022-05-27T16:36:18.476Z</time>
      </trkpt>
      <trkpt lat="43.6721" lon="1.45119">
        <ele>195.393316</ele>
        <time>2022-05-27T16:36:21.472Z</time>
      </trkpt>
      <trkpt lat="43.67197" lon="1.45121">
        <ele>195.360827</ele>
        <time>2022-05-27T16:36:24.496Z</time>
      </trkpt>
      <trkpt lat="43.67188" lon="1.45128">
        <ele>195.333344</ele>
        <time>2022-05-27T16:36:26.481Z</time>
      </trkpt>
      <trkpt lat="43.67177" lon="1.45135">
        <ele>195.286796</ele>
        <time>2022-05-27T16:36:28.491Z</time>
      </trkpt>
      <trkpt lat="43.67167" lon="1.45142">
        <ele>195.193343</ele>
        <time>2022-05-27T16:36:30.495Z</time>
      </trkpt>
      <trkpt lat="43.67155" lon="1.4514">
        <ele>195.098028</ele>
        <time>2022-05-27T16:36:32.490Z</time>
      </trkpt>
      <trkpt lat="43.67144" lon="1.4513">
        <ele>194.99887</ele>
        <time>2022-05-27T16:36:34.489Z</time>
      </trkpt>
      <trkpt lat="43.67132" lon="1.45134">
        <ele>194.897676</ele>
        <time>2022-05-27T16:36:36.496Z</time>
      </trkpt>
      <trkpt lat="43.6712" lon="1.45143">
        <ele>194.791804</ele>
        <time>2022-05-27T16:36:38.488Z</time>
      </trkpt>
      <trkpt lat="43.67108" lon="1.45151">
        <ele>194.689477</ele>
        <time>2022-05-27T16:36:40.485Z</time>
      </trkpt>
      <trkpt lat="43.67097" lon="1.45156">
        <ele>194.594954</ele>
        <time>2022-05-27T16:36:42.485Z</time>
      </trkpt>
      <trkpt lat="43.67087" lon="1.45162">
        <ele>194.507672</ele>
        <time>2022-05-27T16:36:44.469Z</time>
      </trkpt>
      <trkpt lat="43.67077" lon="1.45158">
        <ele>194.42429</ele>
        <time>2022-05-27T16:36:46.500Z</time>
      </trkpt>
      <trkpt lat="43.6707" lon="1.45144">
        <ele>194.329899</ele>
        <time>2022-05-27T16:36:48.481Z</time>
      </trkpt>
      <trkpt lat="43.67059" lon="1.45139">
        <ele>194.2374</ele>
        <time>2022-05-27T16:36:50.484Z</time>
      </trkpt>
      <trkpt lat="43.67049" lon="1.45147">
        <ele>194.142949</ele>
        <time>2022-05-27T16:36:52.479Z</time>
      </trkpt>
      <trkpt lat="43.67038" lon="1.45155">
        <ele>194.04674</ele>
        <time>2022-05-27T16:36:54.477Z</time>
      </trkpt>
      <trkpt lat="43.67026" lon="1.45161">
        <ele>193.948471</ele>
        <time>2022-05-27T16:36:56.485Z</time>
      </trkpt>
      <trkpt lat="43.67015" lon="1.45155">
        <ele>193.893943</ele>
        <time>2022-05-27T16:36:58.487Z</time>
      </trkpt>
      <trkpt lat="43.6701" lon="1.45142">
        <ele>193.890233</ele>
        <time>2022-05-27T16:37:00.480Z</time>
      </trkpt>
      <trkpt lat="43.67005" lon="1.45129">
        <ele>193.886652</ele>
        <time>2022-05-27T16:37:02.492Z</time>
      </trkpt>
      <trkpt lat="43.67" lon="1.45118">
        <ele>193.883617</ele>
        <time>2022-05-27T16:37:04.469Z</time>
      </trkpt>
      <trkpt lat="43.66995" lon="1.45106">
        <ele>193.880314</ele>
        <time>2022-05-27T16:37:06.498Z</time>
      </trkpt>
      <trkpt lat="43.66989" lon="1.45094">
        <ele>193.876783</ele>
        <time>2022-05-27T16:37:08.490Z</time>
      </trkpt>
      <trkpt lat="43.66983" lon="1.45083">
        <ele>193.873503</ele>
        <time>2022-05-27T16:37:10.474Z</time>
      </trkpt>
      <trkpt lat="43.66977" lon="1.45072">
        <ele>193.870147</ele>
        <time>2022-05-27T16:37:12.484Z</time>
      </trkpt>
      <trkpt lat="43.6697" lon="1.45058">
        <ele>193.865972</ele>
        <time>2022-05-27T16:37:14.495Z</time>
      </trkpt>
      <trkpt lat="43.66962" lon="1.45043">
        <ele>193.861602</ele>
        <time>2022-05-27T16:37:16.497Z</time>
      </trkpt>
      <trkpt lat="43.66955" lon="1.45027">
        <ele>193.857028</ele>
        <time>2022-05-27T16:37:18.484Z</time>
      </trkpt>
      <trkpt lat="43.66948" lon="1.4501">
        <ele>193.85242</ele>
        <time>2022-05-27T16:37:20.482Z</time>
      </trkpt>
      <trkpt lat="43.66942" lon="1.44993">
        <ele>193.84775</ele>
        <time>2022-05-27T16:37:22.487Z</time>
      </trkpt>
      <trkpt lat="43.66936" lon="1.44976">
        <ele>193.843152</ele>
        <time>2022-05-27T16:37:24.495Z</time>
      </trkpt>
      <trkpt lat="43.6693" lon="1.44959">
        <ele>193.838602</ele>
        <time>2022-05-27T16:37:26.490Z</time>
      </trkpt>
      <trkpt lat="43.6692" lon="1.44945">
        <ele>193.813303</ele>
        <time>2022-05-27T16:37:28.469Z</time>
      </trkpt>
      <trkpt lat="43.66908" lon="1.44937">
        <ele>193.747826</ele>
        <time>2022-05-27T16:37:30.467Z</time>
      </trkpt>
      <trkpt lat="43.66895" lon="1.44934">
        <ele>193.686344</ele>
        <time>2022-05-27T16:37:32.472Z</time>
      </trkpt>
      <trkpt lat="43.66882" lon="1.44931">
        <ele>193.623142</ele>
        <time>2022-05-27T16:37:34.480Z</time>
      </trkpt>
      <trkpt lat="43.66869" lon="1.44929">
        <ele>193.560315</ele>
        <time>2022-05-27T16:37:36.478Z</time>
      </trkpt>
      <trkpt lat="43.66856" lon="1.44926">
        <ele>193.498559</ele>
        <time>2022-05-27T16:37:38.490Z</time>
      </trkpt>
      <trkpt lat="43.66843" lon="1.44922">
        <ele>193.436862</ele>
        <time>2022-05-27T16:37:40.487Z</time>
      </trkpt>
      <trkpt lat="43.6683" lon="1.44918">
        <ele>193.374032</ele>
        <time>2022-05-27T16:37:42.488Z</time>
      </trkpt>
      <trkpt lat="43.66817" lon="1.44914">
        <ele>193.313355</ele>
        <time>2022-05-27T16:37:44.499Z</time>
      </trkpt>
      <trkpt lat="43.66806" lon="1.44908">
        <ele>193.254892</ele>
        <time>2022-05-27T16:37:46.484Z</time>
      </trkpt>
      <trkpt lat="43.66794" lon="1.44902">
        <ele>193.197292</ele>
        <time>2022-05-27T16:37:48.491Z</time>
      </trkpt>
      <trkpt lat="43.66783" lon="1.44894">
        <ele>193.139039</ele>
        <time>2022-05-27T16:37:50.487Z</time>
      </trkpt>
      <trkpt lat="43.66773" lon="1.44885">
        <ele>193.081476</ele>
        <time>2022-05-27T16:37:52.491Z</time>
      </trkpt>
      <trkpt lat="43.66764" lon="1.44874">
        <ele>193.025404</ele>
        <time>2022-05-27T16:37:54.480Z</time>
      </trkpt>
      <trkpt lat="43.66758" lon="1.4486">
        <ele>193.012119</ele>
        <time>2022-05-27T16:37:56.457Z</time>
      </trkpt>
      <trkpt lat="43.66756" lon="1.44844">
        <ele>193.087865</ele>
        <time>2022-05-27T16:37:58.473Z</time>
      </trkpt>
      <trkpt lat="43.66752" lon="1.44828">
        <ele>193.162586</ele>
        <time>2022-05-27T16:38:00.499Z</time>
      </trkpt>
      <trkpt lat="43.66742" lon="1.4482">
        <ele>193.234778</ele>
        <time>2022-05-27T16:38:02.498Z</time>
      </trkpt>
      <trkpt lat="43.6673" lon="1.44821">
        <ele>193.307498</ele>
        <time>2022-05-27T16:38:04.472Z</time>
      </trkpt>
      <trkpt lat="43.6672" lon="1.44829">
        <ele>193.382105</ele>
        <time>2022-05-27T16:38:06.487Z</time>
      </trkpt>
      <trkpt lat="43.6671" lon="1.44839">
        <ele>193.458822</ele>
        <time>2022-05-27T16:38:08.494Z</time>
      </trkpt>
      <trkpt lat="43.66699" lon="1.44847">
        <ele>193.534442</ele>
        <time>2022-05-27T16:38:10.495Z</time>
      </trkpt>
      <trkpt lat="43.66688" lon="1.44854">
        <ele>193.611562</ele>
        <time>2022-05-27T16:38:12.488Z</time>
      </trkpt>
      <trkpt lat="43.66677" lon="1.4486">
        <ele>193.688467</ele>
        <time>2022-05-27T16:38:14.503Z</time>
      </trkpt>
      <trkpt lat="43.66665" lon="1.44862">
        <ele>193.764424</ele>
        <time>2022-05-27T16:38:16.473Z</time>
      </trkpt>
      <trkpt lat="43.66653" lon="1.44862">
        <ele>193.83833</ele>
        <time>2022-05-27T16:38:18.473Z</time>
      </trkpt>
      <trkpt lat="43.66641" lon="1.44858">
        <ele>193.912444</ele>
        <time>2022-05-27T16:38:20.497Z</time>
      </trkpt>
      <trkpt lat="43.6663" lon="1.44851">
        <ele>193.988996</ele>
        <time>2022-05-27T16:38:22.489Z</time>
      </trkpt>
      <trkpt lat="43.66621" lon="1.4484">
        <ele>194.067144</ele>
        <time>2022-05-27T16:38:24.491Z</time>
      </trkpt>
      <trkpt lat="43.66612" lon="1.44826">
        <ele>194.184828</ele>
        <time>2022-05-27T16:38:26.487Z</time>
      </trkpt>
      <trkpt lat="43.66605" lon="1.44814">
        <ele>194.331074</ele>
        <time>2022-05-27T16:38:28.486Z</time>
      </trkpt>
      <trkpt lat="43.66599" lon="1.44803">
        <ele>194.465127</ele>
        <time>2022-05-27T16:38:30.481Z</time>
      </trkpt>
      <trkpt lat="43.66592" lon="1.4479">
        <ele>194.616533</ele>
        <time>2022-05-27T16:38:33.484Z</time>
      </trkpt>
      <trkpt lat="43.66585" lon="1.44781">
        <ele>194.73456</ele>
        <time>2022-05-27T16:38:37.492Z</time>
      </trkpt>
      <trkpt lat="43.66579" lon="1.44771">
        <ele>194.855946</ele>
        <time>2022-05-27T16:38:45.493Z</time>
      </trkpt>
      <trkpt lat="43.66571" lon="1.44759">
        <ele>195.007788</ele>
        <time>2022-05-27T16:38:49.466Z</time>
      </trkpt>
      <trkpt lat="43.66562" lon="1.44747">
        <ele>195.176388</ele>
        <time>2022-05-27T16:38:52.506Z</time>
      </trkpt>
      <trkpt lat="43.66553" lon="1.44736">
        <ele>195.330014</ele>
        <time>2022-05-27T16:38:54.485Z</time>
      </trkpt>
      <trkpt lat="43.66544" lon="1.44726">
        <ele>195.481666</ele>
        <time>2022-05-27T16:38:56.501Z</time>
      </trkpt>
      <trkpt lat="43.66533" lon="1.4472">
        <ele>195.634994</ele>
        <time>2022-05-27T16:38:58.497Z</time>
      </trkpt>
      <trkpt lat="43.66523" lon="1.44715">
        <ele>195.770136</ele>
        <time>2022-05-27T16:39:00.500Z</time>
      </trkpt>
      <trkpt lat="43.66514" lon="1.4471">
        <ele>195.898915</ele>
        <time>2022-05-27T16:39:03.478Z</time>
      </trkpt>
      <trkpt lat="43.66506" lon="1.44725">
        <ele>196.065475</ele>
        <time>2022-05-27T16:39:07.484Z</time>
      </trkpt>
      <trkpt lat="43.66502" lon="1.44738">
        <ele>196.205552</ele>
        <time>2022-05-27T16:39:09.482Z</time>
      </trkpt>
      <trkpt lat="43.66497" lon="1.44752">
        <ele>196.349591</ele>
        <time>2022-05-27T16:39:11.497Z</time>
      </trkpt>
      <trkpt lat="43.66492" lon="1.44766">
        <ele>196.424969</ele>
        <time>2022-05-27T16:39:13.489Z</time>
      </trkpt>
      <trkpt lat="43.66486" lon="1.44781">
        <ele>196.358016</ele>
        <time>2022-05-27T16:39:15.488Z</time>
      </trkpt>
      <trkpt lat="43.6648" lon="1.44795">
        <ele>196.290505</ele>
        <time>2022-05-27T16:39:17.502Z</time>
      </trkpt>
      <trkpt lat="43.66473" lon="1.44809">
        <ele>196.2229</ele>
        <time>2022-05-27T16:39:19.493Z</time>
      </trkpt>
      <trkpt lat="43.66467" lon="1.44824">
        <ele>196.153141</ele>
        <time>2022-05-27T16:39:21.489Z</time>
      </trkpt>
      <trkpt lat="43.66461" lon="1.44839">
        <ele>196.083295</ele>
        <time>2022-05-27T16:39:23.483Z</time>
      </trkpt>
      <trkpt lat="43.66456" lon="1.44856">
        <ele>196.011593</ele>
        <time>2022-05-27T16:39:25.491Z</time>
      </trkpt>
      <trkpt lat="43.66452" lon="1.44873">
        <ele>195.939771</ele>
        <time>2022-05-27T16:39:27.484Z</time>
      </trkpt>
      <trkpt lat="43.66449" lon="1.4489">
        <ele>195.866554</ele>
        <time>2022-05-27T16:39:29.492Z</time>
      </trkpt>
      <trkpt lat="43.66442" lon="1.44906">
        <ele>195.791253</ele>
        <time>2022-05-27T16:39:31.493Z</time>
      </trkpt>
      <trkpt lat="43.66434" lon="1.44921">
        <ele>195.715857</ele>
        <time>2022-05-27T16:39:33.490Z</time>
      </trkpt>
      <trkpt lat="43.6643" lon="1.44939">
        <ele>195.642161</ele>
        <time>2022-05-27T16:39:35.484Z</time>
      </trkpt>
      <trkpt lat="43.66425" lon="1.44955">
        <ele>195.570615</ele>
        <time>2022-05-27T16:39:37.480Z</time>
      </trkpt>
      <trkpt lat="43.6642" lon="1.44971">
        <ele>195.500249</ele>
        <time>2022-05-27T16:39:39.489Z</time>
      </trkpt>
      <trkpt lat="43.66416" lon="1.44987">
        <ele>195.453738</ele>
        <time>2022-05-27T16:39:41.485Z</time>
      </trkpt>
      <trkpt lat="43.66411" lon="1.45003">
        <ele>195.525559</ele>
        <time>2022-05-27T16:39:43.496Z</time>
      </trkpt>
      <trkpt lat="43.66404" lon="1.45017">
        <ele>195.596675</ele>
        <time>2022-05-27T16:39:45.473Z</time>
      </trkpt>
      <trkpt lat="43.664" lon="1.45032">
        <ele>195.663483</ele>
        <time>2022-05-27T16:39:47.480Z</time>
      </trkpt>
      <trkpt lat="43.66397" lon="1.45049">
        <ele>195.733567</ele>
        <time>2022-05-27T16:39:49.491Z</time>
      </trkpt>
      <trkpt lat="43.66396" lon="1.45065">
        <ele>195.800285</ele>
        <time>2022-05-27T16:39:51.496Z</time>
      </trkpt>
      <trkpt lat="43.66393" lon="1.4508">
        <ele>195.865747</ele>
        <time>2022-05-27T16:39:53.482Z</time>
      </trkpt>
      <trkpt lat="43.6639" lon="1.45095">
        <ele>195.930433</ele>
        <time>2022-05-27T16:39:55.486Z</time>
      </trkpt>
      <trkpt lat="43.66384" lon="1.45108">
        <ele>195.996156</ele>
        <time>2022-05-27T16:39:57.499Z</time>
      </trkpt>
      <trkpt lat="43.66379" lon="1.45122">
        <ele>196.059281</ele>
        <time>2022-05-27T16:39:59.486Z</time>
      </trkpt>
      <trkpt lat="43.66374" lon="1.45134">
        <ele>196.118493</ele>
        <time>2022-05-27T16:40:01.481Z</time>
      </trkpt>
      <trkpt lat="43.66369" lon="1.45145">
        <ele>196.170713</ele>
        <time>2022-05-27T16:40:03.489Z</time>
      </trkpt>
      <trkpt lat="43.66363" lon="1.45156">
        <ele>196.226209</ele>
        <time>2022-05-27T16:40:05.463Z</time>
      </trkpt>
      <trkpt lat="43.66362" lon="1.45176">
        <ele>196.312709</ele>
        <time>2022-05-27T16:40:08.480Z</time>
      </trkpt>
      <trkpt lat="43.66364" lon="1.45192">
        <ele>196.37886</ele>
        <time>2022-05-27T16:40:10.508Z</time>
      </trkpt>
      <trkpt lat="43.66358" lon="1.45206">
        <ele>196.444755</ele>
        <time>2022-05-27T16:40:12.480Z</time>
      </trkpt>
      <trkpt lat="43.66354" lon="1.4522">
        <ele>196.462727</ele>
        <time>2022-05-27T16:40:14.483Z</time>
      </trkpt>
      <trkpt lat="43.66351" lon="1.45238">
        <ele>196.437791</ele>
        <time>2022-05-27T16:40:16.494Z</time>
      </trkpt>
      <trkpt lat="43.66344" lon="1.45253">
        <ele>196.413607</ele>
        <time>2022-05-27T16:40:18.482Z</time>
      </trkpt>
      <trkpt lat="43.66336" lon="1.45262">
        <ele>196.395503</ele>
        <time>2022-05-27T16:40:20.474Z</time>
      </trkpt>
      <trkpt lat="43.66329" lon="1.45279">
        <ele>196.369086</ele>
        <time>2022-05-27T16:40:23.478Z</time>
      </trkpt>
      <trkpt lat="43.66323" lon="1.45292">
        <ele>196.34842</ele>
        <time>2022-05-27T16:40:25.497Z</time>
      </trkpt>
      <trkpt lat="43.66316" lon="1.45304">
        <ele>196.3271</ele>
        <time>2022-05-27T16:40:27.494Z</time>
      </trkpt>
      <trkpt lat="43.66309" lon="1.45318">
        <ele>196.305117</ele>
        <time>2022-05-27T16:40:29.489Z</time>
      </trkpt>
      <trkpt lat="43.66304" lon="1.45332">
        <ele>196.283233</ele>
        <time>2022-05-27T16:40:31.494Z</time>
      </trkpt>
      <trkpt lat="43.66298" lon="1.45346">
        <ele>196.261545</ele>
        <time>2022-05-27T16:40:33.509Z</time>
      </trkpt>
      <trkpt lat="43.66291" lon="1.4536">
        <ele>196.23866</ele>
        <time>2022-05-27T16:40:35.496Z</time>
      </trkpt>
      <trkpt lat="43.66285" lon="1.45374">
        <ele>196.216332</ele>
        <time>2022-05-27T16:40:37.496Z</time>
      </trkpt>
      <trkpt lat="43.66279" lon="1.45389">
        <ele>196.193912</ele>
        <time>2022-05-27T16:40:39.484Z</time>
      </trkpt>
      <trkpt lat="43.66273" lon="1.45405">
        <ele>196.16985</ele>
        <time>2022-05-27T16:40:41.494Z</time>
      </trkpt>
      <trkpt lat="43.66269" lon="1.45421">
        <ele>196.146118</ele>
        <time>2022-05-27T16:40:43.473Z</time>
      </trkpt>
      <trkpt lat="43.66265" lon="1.45437">
        <ele>196.126171</ele>
        <time>2022-05-27T16:40:45.494Z</time>
      </trkpt>
      <trkpt lat="43.66261" lon="1.45452">
        <ele>196.107765</ele>
        <time>2022-05-27T16:40:47.495Z</time>
      </trkpt>
      <trkpt lat="43.66257" lon="1.45467">
        <ele>196.090094</ele>
        <time>2022-05-27T16:40:49.481Z</time>
      </trkpt>
      <trkpt lat="43.66253" lon="1.45482">
        <ele>196.072409</ele>
        <time>2022-05-27T16:40:51.502Z</time>
      </trkpt>
      <trkpt lat="43.66248" lon="1.45497">
        <ele>196.054089</ele>
        <time>2022-05-27T16:40:53.491Z</time>
      </trkpt>
      <trkpt lat="43.66244" lon="1.45512">
        <ele>196.035845</ele>
        <time>2022-05-27T16:40:55.491Z</time>
      </trkpt>
      <trkpt lat="43.6624" lon="1.45527">
        <ele>196.018074</ele>
        <time>2022-05-27T16:40:57.455Z</time>
      </trkpt>
      <trkpt lat="43.66236" lon="1.45542">
        <ele>195.999857</ele>
        <time>2022-05-27T16:40:59.478Z</time>
      </trkpt>
      <trkpt lat="43.66231" lon="1.45557">
        <ele>195.982318</ele>
        <time>2022-05-27T16:41:01.495Z</time>
      </trkpt>
      <trkpt lat="43.66227" lon="1.45573">
        <ele>195.963018</ele>
        <time>2022-05-27T16:41:03.491Z</time>
      </trkpt>
      <trkpt lat="43.66222" lon="1.45588">
        <ele>195.943914</ele>
        <time>2022-05-27T16:41:05.502Z</time>
      </trkpt>
      <trkpt lat="43.66217" lon="1.45604">
        <ele>195.925164</ele>
        <time>2022-05-27T16:41:07.483Z</time>
      </trkpt>
      <trkpt lat="43.66212" lon="1.45619">
        <ele>195.906431</ele>
        <time>2022-05-27T16:41:09.490Z</time>
      </trkpt>
      <trkpt lat="43.66205" lon="1.45632">
        <ele>195.888457</ele>
        <time>2022-05-27T16:41:11.510Z</time>
      </trkpt>
      <trkpt lat="43.66194" lon="1.45632">
        <ele>195.871918</ele>
        <time>2022-05-27T16:41:13.492Z</time>
      </trkpt>
      <trkpt lat="43.66185" lon="1.45621">
        <ele>195.878586</ele>
        <time>2022-05-27T16:41:15.487Z</time>
      </trkpt>
      <trkpt lat="43.66176" lon="1.45609">
        <ele>195.92579</ele>
        <time>2022-05-27T16:41:17.490Z</time>
      </trkpt>
      <trkpt lat="43.66169" lon="1.45598">
        <ele>195.97081</ele>
        <time>2022-05-27T16:41:19.488Z</time>
      </trkpt>
      <trkpt lat="43.66162" lon="1.45589">
        <ele>196.006524</ele>
        <time>2022-05-27T16:41:21.488Z</time>
      </trkpt>
      <trkpt lat="43.6615" lon="1.45578">
        <ele>196.06148</ele>
        <time>2022-05-27T16:41:24.481Z</time>
      </trkpt>
      <trkpt lat="43.66141" lon="1.4557">
        <ele>196.105356</ele>
        <time>2022-05-27T16:41:26.466Z</time>
      </trkpt>
      <trkpt lat="43.66131" lon="1.45561">
        <ele>196.151692</ele>
        <time>2022-05-27T16:41:28.509Z</time>
      </trkpt>
      <trkpt lat="43.66122" lon="1.45553">
        <ele>196.193337</ele>
        <time>2022-05-27T16:41:30.503Z</time>
      </trkpt>
      <trkpt lat="43.66112" lon="1.45547">
        <ele>196.234743</ele>
        <time>2022-05-27T16:41:32.512Z</time>
      </trkpt>
      <trkpt lat="43.66102" lon="1.4554">
        <ele>196.27875</ele>
        <time>2022-05-27T16:41:34.485Z</time>
      </trkpt>
      <trkpt lat="43.66091" lon="1.45533">
        <ele>196.327236</ele>
        <time>2022-05-27T16:41:36.509Z</time>
      </trkpt>
      <trkpt lat="43.6608" lon="1.4553">
        <ele>196.370978</ele>
        <time>2022-05-27T16:41:38.496Z</time>
      </trkpt>
      <trkpt lat="43.66069" lon="1.45533">
        <ele>196.415595</ele>
        <time>2022-05-27T16:41:40.502Z</time>
      </trkpt>
      <trkpt lat="43.66058" lon="1.45529">
        <ele>196.459366</ele>
        <time>2022-05-27T16:41:42.491Z</time>
      </trkpt>
      <trkpt lat="43.66047" lon="1.45522">
        <ele>196.504216</ele>
        <time>2022-05-27T16:41:44.521Z</time>
      </trkpt>
      <trkpt lat="43.66036" lon="1.45515">
        <ele>196.551518</ele>
        <time>2022-05-27T16:41:46.509Z</time>
      </trkpt>
      <trkpt lat="43.66026" lon="1.45507">
        <ele>196.62523</ele>
        <time>2022-05-27T16:41:48.506Z</time>
      </trkpt>
      <trkpt lat="43.66017" lon="1.45498">
        <ele>196.703142</ele>
        <time>2022-05-27T16:41:50.503Z</time>
      </trkpt>
      <trkpt lat="43.66008" lon="1.4549">
        <ele>196.780088</ele>
        <time>2022-05-27T16:41:52.508Z</time>
      </trkpt>
      <trkpt lat="43.65998" lon="1.45484">
        <ele>196.859786</ele>
        <time>2022-05-27T16:41:54.506Z</time>
      </trkpt>
      <trkpt lat="43.65987" lon="1.4548">
        <ele>196.937137</ele>
        <time>2022-05-27T16:41:56.493Z</time>
      </trkpt>
      <trkpt lat="43.65977" lon="1.45475">
        <ele>197.016452</ele>
        <time>2022-05-27T16:41:58.498Z</time>
      </trkpt>
      <trkpt lat="43.65968" lon="1.45463">
        <ele>197.103364</ele>
        <time>2022-05-27T16:42:00.518Z</time>
      </trkpt>
      <trkpt lat="43.65957" lon="1.45456">
        <ele>197.19101</ele>
        <time>2022-05-27T16:42:02.518Z</time>
      </trkpt>
      <trkpt lat="43.65944" lon="1.45455">
        <ele>197.278942</ele>
        <time>2022-05-27T16:42:04.503Z</time>
      </trkpt>
      <trkpt lat="43.65933" lon="1.45463">
        <ele>197.369731</ele>
        <time>2022-05-27T16:42:06.509Z</time>
      </trkpt>
      <trkpt lat="43.65922" lon="1.45471">
        <ele>197.45436</ele>
        <time>2022-05-27T16:42:08.486Z</time>
      </trkpt>
      <trkpt lat="43.6591" lon="1.45474">
        <ele>197.539238</ele>
        <time>2022-05-27T16:42:10.509Z</time>
      </trkpt>
      <trkpt lat="43.65898" lon="1.45474">
        <ele>197.623659</ele>
        <time>2022-05-27T16:42:12.510Z</time>
      </trkpt>
      <trkpt lat="43.65886" lon="1.45474">
        <ele>197.710864</ele>
        <time>2022-05-27T16:42:14.502Z</time>
      </trkpt>
      <trkpt lat="43.65874" lon="1.45477">
        <ele>197.800197</ele>
        <time>2022-05-27T16:42:16.496Z</time>
      </trkpt>
      <trkpt lat="43.65861" lon="1.45479">
        <ele>197.788285</ele>
        <time>2022-05-27T16:42:18.511Z</time>
      </trkpt>
      <trkpt lat="43.6585" lon="1.45483">
        <ele>197.705695</ele>
        <time>2022-05-27T16:42:20.522Z</time>
      </trkpt>
      <trkpt lat="43.65838" lon="1.45487">
        <ele>197.621971</ele>
        <time>2022-05-27T16:42:22.508Z</time>
      </trkpt>
      <trkpt lat="43.65826" lon="1.4549">
        <ele>197.539144</ele>
        <time>2022-05-27T16:42:24.513Z</time>
      </trkpt>
      <trkpt lat="43.65815" lon="1.45494">
        <ele>197.454033</ele>
        <time>2022-05-27T16:42:26.511Z</time>
      </trkpt>
      <trkpt lat="43.65803" lon="1.45496">
        <ele>197.373766</ele>
        <time>2022-05-27T16:42:28.524Z</time>
      </trkpt>
      <trkpt lat="43.65792" lon="1.45492">
        <ele>197.289331</ele>
        <time>2022-05-27T16:42:30.515Z</time>
      </trkpt>
      <trkpt lat="43.6578" lon="1.45488">
        <ele>197.205607</ele>
        <time>2022-05-27T16:42:32.519Z</time>
      </trkpt>
      <trkpt lat="43.65768" lon="1.45485">
        <ele>197.122883</ele>
        <time>2022-05-27T16:42:34.511Z</time>
      </trkpt>
      <trkpt lat="43.65756" lon="1.45483">
        <ele>197.03978</ele>
        <time>2022-05-27T16:42:36.498Z</time>
      </trkpt>
      <trkpt lat="43.65744" lon="1.45481">
        <ele>196.954774</ele>
        <time>2022-05-27T16:42:38.503Z</time>
      </trkpt>
      <trkpt lat="43.65732" lon="1.45478">
        <ele>196.865884</ele>
        <time>2022-05-27T16:42:40.514Z</time>
      </trkpt>
      <trkpt lat="43.65719" lon="1.45473">
        <ele>196.772953</ele>
        <time>2022-05-27T16:42:42.509Z</time>
      </trkpt>
      <trkpt lat="43.65705" lon="1.45468">
        <ele>196.674502</ele>
        <time>2022-05-27T16:42:44.468Z</time>
      </trkpt>
      <trkpt lat="43.65692" lon="1.45463">
        <ele>196.579936</ele>
        <time>2022-05-27T16:42:46.505Z</time>
      </trkpt>
      <trkpt lat="43.65678" lon="1.45458">
        <ele>196.543745</ele>
        <time>2022-05-27T16:42:48.516Z</time>
      </trkpt>
      <trkpt lat="43.65664" lon="1.45452">
        <ele>196.507327</ele>
        <time>2022-05-27T16:42:50.518Z</time>
      </trkpt>
      <trkpt lat="43.65651" lon="1.45446">
        <ele>196.47118</ele>
        <time>2022-05-27T16:42:52.522Z</time>
      </trkpt>
      <trkpt lat="43.65637" lon="1.4544">
        <ele>196.435706</ele>
        <time>2022-05-27T16:42:54.487Z</time>
      </trkpt>
      <trkpt lat="43.65624" lon="1.45434">
        <ele>196.399826</ele>
        <time>2022-05-27T16:42:56.498Z</time>
      </trkpt>
      <trkpt lat="43.65611" lon="1.45428">
        <ele>196.36485</ele>
        <time>2022-05-27T16:42:58.518Z</time>
      </trkpt>
      <trkpt lat="43.65598" lon="1.45423">
        <ele>196.331682</ele>
        <time>2022-05-27T16:43:00.499Z</time>
      </trkpt>
      <trkpt lat="43.65586" lon="1.45419">
        <ele>196.299535</ele>
        <time>2022-05-27T16:43:02.505Z</time>
      </trkpt>
      <trkpt lat="43.65574" lon="1.45415">
        <ele>196.268505</ele>
        <time>2022-05-27T16:43:04.515Z</time>
      </trkpt>
      <trkpt lat="43.65562" lon="1.45411">
        <ele>196.237849</ele>
        <time>2022-05-27T16:43:06.525Z</time>
      </trkpt>
      <trkpt lat="43.6555" lon="1.45407">
        <ele>196.207309</ele>
        <time>2022-05-27T16:43:08.509Z</time>
      </trkpt>
      <trkpt lat="43.65539" lon="1.45403">
        <ele>196.177015</ele>
        <time>2022-05-27T16:43:10.509Z</time>
      </trkpt>
      <trkpt lat="43.65527" lon="1.45399">
        <ele>196.146965</ele>
        <time>2022-05-27T16:43:12.502Z</time>
      </trkpt>
      <trkpt lat="43.65516" lon="1.45394">
        <ele>196.128658</ele>
        <time>2022-05-27T16:43:14.521Z</time>
      </trkpt>
      <trkpt lat="43.65504" lon="1.4539">
        <ele>196.133916</ele>
        <time>2022-05-27T16:43:16.495Z</time>
      </trkpt>
      <trkpt lat="43.65492" lon="1.45385">
        <ele>196.139266</ele>
        <time>2022-05-27T16:43:18.509Z</time>
      </trkpt>
      <trkpt lat="43.65481" lon="1.45381">
        <ele>196.144449</ele>
        <time>2022-05-27T16:43:20.523Z</time>
      </trkpt>
      <trkpt lat="43.6547" lon="1.45375">
        <ele>196.149609</ele>
        <time>2022-05-27T16:43:22.519Z</time>
      </trkpt>
      <trkpt lat="43.65458" lon="1.45371">
        <ele>196.154752</ele>
        <time>2022-05-27T16:43:24.510Z</time>
      </trkpt>
      <trkpt lat="43.65447" lon="1.45367">
        <ele>196.159867</ele>
        <time>2022-05-27T16:43:26.508Z</time>
      </trkpt>
      <trkpt lat="43.65439" lon="1.45362">
        <ele>196.163811</ele>
        <time>2022-05-27T16:43:28.526Z</time>
      </trkpt>
      <trkpt lat="43.6544" lon="1.45347">
        <ele>196.168321</ele>
        <time>2022-05-27T16:43:30.503Z</time>
      </trkpt>
      <trkpt lat="43.65449" lon="1.45336">
        <ele>196.173567</ele>
        <time>2022-05-27T16:43:32.511Z</time>
      </trkpt>
      <trkpt lat="43.65459" lon="1.45325">
        <ele>196.178965</ele>
        <time>2022-05-27T16:43:34.502Z</time>
      </trkpt>
      <trkpt lat="43.65468" lon="1.45315">
        <ele>196.184271</ele>
        <time>2022-05-27T16:43:36.500Z</time>
      </trkpt>
      <trkpt lat="43.65478" lon="1.45305">
        <ele>196.189523</ele>
        <time>2022-05-27T16:43:38.484Z</time>
      </trkpt>
      <trkpt lat="43.65487" lon="1.45294">
        <ele>196.194853</ele>
        <time>2022-05-27T16:43:40.480Z</time>
      </trkpt>
      <trkpt lat="43.65497" lon="1.45283">
        <ele>196.20015</ele>
        <time>2022-05-27T16:43:42.496Z</time>
      </trkpt>
      <trkpt lat="43.65506" lon="1.45273">
        <ele>196.205255</ele>
        <time>2022-05-27T16:43:44.494Z</time>
      </trkpt>
      <trkpt lat="43.65515" lon="1.45262">
        <ele>196.207899</ele>
        <time>2022-05-27T16:43:46.499Z</time>
      </trkpt>
      <trkpt lat="43.65524" lon="1.45251">
        <ele>196.210548</ele>
        <time>2022-05-27T16:43:48.512Z</time>
      </trkpt>
      <trkpt lat="43.65533" lon="1.45241">
        <ele>196.213206</ele>
        <time>2022-05-27T16:43:50.512Z</time>
      </trkpt>
      <trkpt lat="43.65543" lon="1.4523">
        <ele>196.21592</ele>
        <time>2022-05-27T16:43:52.499Z</time>
      </trkpt>
      <trkpt lat="43.65553" lon="1.4522">
        <ele>196.218585</ele>
        <time>2022-05-27T16:43:54.510Z</time>
      </trkpt>
      <trkpt lat="43.65562" lon="1.45209">
        <ele>196.221259</ele>
        <time>2022-05-27T16:43:56.496Z</time>
      </trkpt>
      <trkpt lat="43.65572" lon="1.45199">
        <ele>196.223948</ele>
        <time>2022-05-27T16:43:58.520Z</time>
      </trkpt>
      <trkpt lat="43.65581" lon="1.45189">
        <ele>196.226599</ele>
        <time>2022-05-27T16:44:00.500Z</time>
      </trkpt>
      <trkpt lat="43.6559" lon="1.45179">
        <ele>196.229197</ele>
        <time>2022-05-27T16:44:02.517Z</time>
      </trkpt>
      <trkpt lat="43.656" lon="1.45169">
        <ele>196.231792</ele>
        <time>2022-05-27T16:44:04.512Z</time>
      </trkpt>
      <trkpt lat="43.65608" lon="1.45157">
        <ele>196.234391</ele>
        <time>2022-05-27T16:44:06.502Z</time>
      </trkpt>
      <trkpt lat="43.65613" lon="1.45143">
        <ele>196.236936</ele>
        <time>2022-05-27T16:44:08.499Z</time>
      </trkpt>
      <trkpt lat="43.65616" lon="1.45128">
        <ele>196.239289</ele>
        <time>2022-05-27T16:44:10.485Z</time>
      </trkpt>
      <trkpt lat="43.65612" lon="1.45117">
        <ele>196.241326</ele>
        <time>2022-05-27T16:44:12.498Z</time>
      </trkpt>
      <trkpt lat="43.65606" lon="1.45103">
        <ele>196.24395</ele>
        <time>2022-05-27T16:44:14.499Z</time>
      </trkpt>
      <trkpt lat="43.65597" lon="1.45091">
        <ele>196.278805</ele>
        <time>2022-05-27T16:44:16.509Z</time>
      </trkpt>
      <trkpt lat="43.65589" lon="1.45079">
        <ele>196.32703</ele>
        <time>2022-05-27T16:44:18.489Z</time>
      </trkpt>
      <trkpt lat="43.6558" lon="1.45067">
        <ele>196.375428</ele>
        <time>2022-05-27T16:44:20.491Z</time>
      </trkpt>
      <trkpt lat="43.65571" lon="1.45056">
        <ele>196.423453</ele>
        <time>2022-05-27T16:44:22.513Z</time>
      </trkpt>
      <trkpt lat="43.65562" lon="1.45044">
        <ele>196.471478</ele>
        <time>2022-05-27T16:44:24.508Z</time>
      </trkpt>
      <trkpt lat="43.65554" lon="1.45032">
        <ele>196.519826</ele>
        <time>2022-05-27T16:44:26.509Z</time>
      </trkpt>
      <trkpt lat="43.65546" lon="1.45019">
        <ele>196.567335</ele>
        <time>2022-05-27T16:44:28.520Z</time>
      </trkpt>
      <trkpt lat="43.65536" lon="1.45009">
        <ele>196.616308</ele>
        <time>2022-05-27T16:44:30.508Z</time>
      </trkpt>
      <trkpt lat="43.65526" lon="1.44999">
        <ele>196.664966</ele>
        <time>2022-05-27T16:44:32.497Z</time>
      </trkpt>
      <trkpt lat="43.65517" lon="1.44989">
        <ele>196.711897</ele>
        <time>2022-05-27T16:44:34.501Z</time>
      </trkpt>
      <trkpt lat="43.65508" lon="1.44978">
        <ele>196.757676</ele>
        <time>2022-05-27T16:44:36.518Z</time>
      </trkpt>
      <trkpt lat="43.655" lon="1.44967">
        <ele>196.804337</ele>
        <time>2022-05-27T16:44:38.507Z</time>
      </trkpt>
      <trkpt lat="43.6549" lon="1.44957">
        <ele>196.85113</ele>
        <time>2022-05-27T16:44:40.508Z</time>
      </trkpt>
      <trkpt lat="43.65482" lon="1.44946">
        <ele>196.897205</ele>
        <time>2022-05-27T16:44:42.476Z</time>
      </trkpt>
      <trkpt lat="43.65476" lon="1.44932">
        <ele>196.942597</ele>
        <time>2022-05-27T16:44:44.483Z</time>
      </trkpt>
      <trkpt lat="43.65476" lon="1.44919">
        <ele>196.914305</ele>
        <time>2022-05-27T16:44:46.489Z</time>
      </trkpt>
      <trkpt lat="43.6548" lon="1.44902">
        <ele>196.827884</ele>
        <time>2022-05-27T16:44:48.498Z</time>
      </trkpt>
      <trkpt lat="43.65488" lon="1.44889">
        <ele>196.740999</ele>
        <time>2022-05-27T16:44:50.506Z</time>
      </trkpt>
      <trkpt lat="43.65496" lon="1.44876">
        <ele>196.659035</ele>
        <time>2022-05-27T16:44:52.509Z</time>
      </trkpt>
      <trkpt lat="43.65503" lon="1.44862">
        <ele>196.577726</ele>
        <time>2022-05-27T16:44:54.513Z</time>
      </trkpt>
      <trkpt lat="43.65509" lon="1.44847">
        <ele>196.495806</ele>
        <time>2022-05-27T16:44:56.515Z</time>
      </trkpt>
      <trkpt lat="43.65513" lon="1.44831">
        <ele>196.412767</ele>
        <time>2022-05-27T16:44:58.500Z</time>
      </trkpt>
      <trkpt lat="43.65521" lon="1.44817">
        <ele>196.329531</ele>
        <time>2022-05-27T16:45:00.487Z</time>
      </trkpt>
      <trkpt lat="43.6553" lon="1.44806">
        <ele>196.244762</ele>
        <time>2022-05-27T16:45:02.500Z</time>
      </trkpt>
      <trkpt lat="43.65539" lon="1.44794">
        <ele>196.163259</ele>
        <time>2022-05-27T16:45:04.478Z</time>
      </trkpt>
      <trkpt lat="43.65545" lon="1.4478">
        <ele>196.082352</ele>
        <time>2022-05-27T16:45:06.574Z</time>
      </trkpt>
      <trkpt lat="43.65552" lon="1.44766">
        <ele>196.000974</ele>
        <time>2022-05-27T16:45:08.486Z</time>
      </trkpt>
      <trkpt lat="43.65559" lon="1.44752">
        <ele>195.918919</ele>
        <time>2022-05-27T16:45:10.486Z</time>
      </trkpt>
      <trkpt lat="43.65566" lon="1.44738">
        <ele>195.838412</ele>
        <time>2022-05-27T16:45:12.490Z</time>
      </trkpt>
      <trkpt lat="43.65573" lon="1.44725">
        <ele>195.757922</ele>
        <time>2022-05-27T16:45:14.495Z</time>
      </trkpt>
      <trkpt lat="43.6558" lon="1.44711">
        <ele>195.751724</ele>
        <time>2022-05-27T16:45:16.496Z</time>
      </trkpt>
      <trkpt lat="43.65587" lon="1.44698">
        <ele>195.751724</ele>
        <time>2022-05-27T16:45:18.474Z</time>
      </trkpt>
      <trkpt lat="43.65594" lon="1.44685">
        <ele>195.751724</ele>
        <time>2022-05-27T16:45:20.488Z</time>
      </trkpt>
      <trkpt lat="43.656" lon="1.44672">
        <ele>195.751724</ele>
        <time>2022-05-27T16:45:22.511Z</time>
      </trkpt>
      <trkpt lat="43.65605" lon="1.44661">
        <ele>195.751724</ele>
        <time>2022-05-27T16:45:24.502Z</time>
      </trkpt>
      <trkpt lat="43.65604" lon="1.44646">
        <ele>195.751724</ele>
        <time>2022-05-27T16:45:28.498Z</time>
      </trkpt>
      <trkpt lat="43.65593" lon="1.44637">
        <ele>195.751724</ele>
        <time>2022-05-27T16:45:32.505Z</time>
      </trkpt>
      <trkpt lat="43.65583" lon="1.44632">
        <ele>195.751724</ele>
        <time>2022-05-27T16:45:35.506Z</time>
      </trkpt>
      <trkpt lat="43.65573" lon="1.44625">
        <ele>195.751724</ele>
        <time>2022-05-27T16:45:38.500Z</time>
      </trkpt>
      <trkpt lat="43.65565" lon="1.4462">
        <ele>195.751724</ele>
        <time>2022-05-27T16:45:41.495Z</time>
      </trkpt>
      <trkpt lat="43.65562" lon="1.44608">
        <ele>195.751724</ele>
        <time>2022-05-27T16:45:46.495Z</time>
      </trkpt>
      <trkpt lat="43.65565" lon="1.44592">
        <ele>195.751724</ele>
        <time>2022-05-27T16:46:10.511Z</time>
      </trkpt>
      <trkpt lat="43.65569" lon="1.44581">
        <ele>195.751724</ele>
        <time>2022-05-27T16:46:16.507Z</time>
      </trkpt>
      <trkpt lat="43.65575" lon="1.44578">
        <ele>195.751724</ele>
        <time>2022-05-27T16:47:06.401Z</time>
      </trkpt>
    </trkseg>
  </trk>
</gpx>